GFSGL_prec_precacc_027.txt.gz
Total_Precipitation_Accumulation
0.00 0.00 0.00 0.00 0.00 0.00 0.00 0.00 0.00 0.00 0.00 0.00 0.00 0.01 0.01 0.03 0.07 0.08 0.05 0.03 0.03 0.03 0.03 0.02 0.01 0.01 0.01 0.00 0.00 0.00 0.00 0.01 0.01 0.00 0.00 0.00 0.00 0.00 0.00 0.00 0.00 0.02 0.04
0.00 0.00 0.00 0.00 0.00 0.00 0.00 0.00 0.00 0.01 0.01 0.02 0.01 0.03 0.05 0.06 0.06 0.04 0.02 0.01 0.01 0.01 0.01 0.01 0.00 0.00 0.00 0.00 0.00 0.00 0.00 0.00 0.00 0.00 0.00 0.00 0.00 0.00 0.00 0.00 0.00 0.00 0.00
0.00 0.00 0.00 0.00 0.00 0.00 0.00 0.01 0.01 0.02 0.02 0.02 0.03 0.04 0.04 0.02 0.01 0.01 0.00 0.00 0.00 0.00 0.00 0.00 0.00 0.00 0.00 0.00 0.00 0.00 0.00 0.00 0.01 0.03 0.01 0.00 0.00 0.00 0.00 0.00 0.00 0.00 0.00
0.00 0.00 0.00 0.01 0.01 0.01 0.00 0.02 0.02 0.03 0.02 0.00 0.00 0.01 0.00 0.00 0.00 0.00 0.00 0.00 0.00 0.00 0.00 0.00 0.00 0.00 0.00 0.00 0.01 0.01 0.01 0.01 0.01 0.01 0.01 0.01 0.01 0.01 0.01 0.01 0.01 0.00 0.00
0.00 0.00 0.00 0.00 0.01 0.02 0.02 0.03 0.06 0.02 0.01 0.00 0.00 0.00 0.00 0.00 0.00 0.00 0.00 0.00 0.00 0.00 0.00 0.00 0.00 0.00 0.00 0.01 0.01 0.01 0.02 0.03 0.04 0.05 0.03 0.03 0.01 0.00 0.01 0.01 0.03 0.01 0.01
0.01 0.01 0.00 0.01 0.02 0.03 0.04 0.05 0.01 0.01 0.01 0.00 0.00 0.00 0.00 0.00 0.00 0.00 0.00 0.00 0.00 0.00 0.00 0.00 0.00 0.00 0.00 0.00 0.01 0.01 0.03 0.08 0.10 0.07 0.05 0.04 0.02 0.01 0.01 0.03 0.04 0.03 0.02
0.00 0.01 0.01 0.02 0.02 0.02 0.02 0.03 0.03 0.03 0.01 0.00 0.00 0.00 0.00 0.00 0.00 0.00 0.00 0.00 0.00 0.00 0.00 0.00 0.00 0.00 0.00 0.00 0.00 0.01 0.01 0.02 0.08 0.12 0.13 0.05 0.03 0.01 0.02 0.03 0.03 0.04 0.02
0.00 0.01 0.03 0.02 0.01 0.02 0.05 0.04 0.02 0.00 0.00 0.00 0.00 0.00 0.00 0.00 0.00 0.00 0.00 0.00 0.00 0.00 0.00 0.00 0.00 0.00 0.00 0.02 0.08 0.07 0.03 0.02 0.02 0.03 0.07 0.05 0.04 0.04 0.05 0.06 0.06 0.06 0.04
0.00 0.01 0.01 0.02 0.02 0.02 0.02 0.05 0.02 0.00 0.00 0.00 0.00 0.00 0.00 0.00 0.00 0.00 0.00 0.00 0.01 0.01 0.00 0.00 0.01 0.01 0.02 0.07 0.13 0.11 0.05 0.02 0.01 0.02 0.05 0.07 0.08 0.07 0.08 0.14 0.15 0.16 0.12
0.01 0.01 0.01 0.02 0.03 0.08 0.10 0.02 0.00 0.00 0.00 0.00 0.00 0.00 0.00 0.00 0.01 0.00 0.01 0.02 0.02 0.02 0.02 0.01 0.01 0.04 0.11 0.15 0.24 0.20 0.16 0.05 0.03 0.04 0.03 0.04 0.03 0.03 0.01 0.05 0.08 0.13 0.11
0.00 0.01 0.04 0.09 0.07 0.03 0.00 0.00 0.00 0.00 0.00 0.00 0.01 0.01 0.01 0.01 0.01 0.00 0.01 0.02 0.05 0.07 0.04 0.03 0.05 0.23 0.19 0.13 0.10 0.13 0.16 0.09 0.05 0.04 0.03 0.02 0.03 0.04 0.04 0.05 0.07 0.09 0.08
0.01 0.02 0.02 0.01 0.00 0.00 0.00 0.00 0.00 0.00 0.00 0.00 0.01 0.01 0.01 0.01 0.00 0.00 0.00 0.02 0.04 0.11 0.08 0.14 0.25 0.14 0.08 0.04 0.07 0.12 0.07 0.04 0.06 0.08 0.09 0.06 0.07 0.07 0.07 0.09 0.10 0.11 0.07
0.00 0.01 0.00 0.00 0.00 0.00 0.00 0.00 0.00 0.00 0.00 0.00 0.00 0.00 0.00 0.00 0.00 0.00 0.01 0.02 0.02 0.06 0.17 0.19 0.13 0.10 0.04 0.05 0.10 0.08 0.06 0.12 0.17 0.15 0.13 0.10 0.13 0.15 0.19 0.20 0.14 0.14 0.17
0.01 0.00 0.00 0.00 0.00 0.00 0.00 0.00 0.00 0.00 0.00 0.00 0.00 0.00 0.01 0.00 0.01 0.02 0.03 0.02 0.04 0.09 0.09 0.14 0.13 0.06 0.08 0.12 0.12 0.09 0.12 0.15 0.13 0.15 0.12 0.11 0.12 0.16 0.22 0.28 0.29 0.30 0.30
0.00 0.00 0.00 0.00 0.00 0.00 0.00 0.00 0.00 0.00 0.00 0.00 0.00 0.00 0.02 0.02 0.02 0.06 0.07 0.09 0.14 0.10 0.12 0.14 0.09 0.09 0.09 0.09 0.05 0.05 0.06 0.06 0.08 0.09 0.11 0.10 0.11 0.11 0.13 0.18 0.19 0.16 0.20
0.00 0.00 0.00 0.01 0.01 0.01 0.00 0.00 0.00 0.00 0.00 0.00 0.00 0.00 0.00 0.01 0.03 0.04 0.05 0.08 0.10 0.08 0.11 0.12 0.14 0.13 0.11 0.10 0.08 0.05 0.04 0.07 0.06 0.08 0.09 0.09 0.09 0.10 0.09 0.07 0.07 0.08 0.12
0.00 0.00 0.01 0.02 0.02 0.01 0.01 0.00 0.00 0.00 0.00 0.00 0.00 0.00 0.00 0.01 0.02 0.03 0.05 0.07 0.09 0.07 0.09 0.11 0.13 0.11 0.06 0.03 0.04 0.05 0.07 0.08 0.06 0.07 0.09 0.09 0.08 0.07 0.07 0.06 0.05 0.06 0.08
0.00 0.01 0.01 0.01 0.01 0.01 0.01 0.01 0.02 0.02 0.01 0.01 0.01 0.00 0.00 0.00 0.02 0.02 0.03 0.04 0.06 0.06 0.07 0.09 0.08 0.05 0.02 0.02 0.02 0.03 0.04 0.05 0.03 0.05 0.07 0.07 0.07 0.07 0.06 0.04 0.03 0.04 0.06
0.00 0.01 0.01 0.02 0.01 0.00 0.01 0.01 0.01 0.02 0.01 0.01 0.00 0.00 0.00 0.00 0.01 0.02 0.02 0.04 0.06 0.06 0.06 0.05 0.04 0.03 0.02 0.02 0.02 0.02 0.04 0.05 0.03 0.03 0.04 0.06 0.07 0.07 0.05 0.04 0.03 0.01 0.02
0.01 0.02 0.02 0.02 0.01 0.01 0.01 0.01 0.01 0.01 0.02 0.01 0.01 0.00 0.00 0.00 0.02 0.02 0.02 0.02 0.03 0.02 0.02 0.02 0.02 0.01 0.02 0.02 0.02 0.01 0.01 0.02 0.02 0.02 0.03 0.04 0.06 0.06 0.07 0.05 0.03 0.02 0.01
0.02 0.01 0.02 0.03 0.02 0.01 0.02 0.02 0.02 0.01 0.01 0.01 0.01 0.01 0.00 0.01 0.02 0.02 0.02 0.01 0.01 0.00 0.00 0.00 0.00 0.01 0.01 0.01 0.01 0.01 0.01 0.01 0.02 0.02 0.02 0.03 0.04 0.03 0.04 0.05 0.03 0.02 0.01
0.02 0.03 0.03 0.03 0.03 0.03 0.02 0.01 0.02 0.02 0.02 0.02 0.01 0.00 0.00 0.02 0.02 0.02 0.01 0.01 0.00 0.00 0.00 0.00 0.00 0.00 0.01 0.01 0.01 0.01 0.01 0.00 0.01 0.01 0.01 0.01 0.02 0.02 0.02 0.03 0.02 0.02 0.01
0.03 0.03 0.03 0.03 0.04 0.03 0.03 0.03 0.03 0.03 0.02 0.02 0.01 0.01 0.01 0.02 0.02 0.02 0.02 0.01 0.00 0.00 0.00 0.00 0.00 0.00 0.00 0.00 0.00 0.00 0.01 0.01 0.01 0.00 0.00 0.02 0.01 0.01 0.02 0.01 0.01 0.01 0.01
0.03 0.04 0.05 0.05 0.04 0.04 0.03 0.03 0.03 0.02 0.02 0.02 0.02 0.02 0.01 0.01 0.01 0.02 0.02 0.01 0.01 0.00 0.00 0.00 0.00 0.00 0.00 0.00 0.00 0.00 0.00 0.00 0.00 0.00 0.00 0.01 0.01 0.00 0.00 0.00 0.01 0.01 0.01
0.04 0.05 0.07 0.07 0.06 0.05 0.04 0.03 0.04 0.04 0.04 0.04 0.04 0.03 0.01 0.01 0.01 0.01 0.01 0.01 0.01 0.00 0.00 0.00 0.00 0.00 0.00 0.00 0.00 0.00 0.00 0.00 0.00 0.00 0.00 0.00 0.00 0.00 0.00 0.00 0.00 0.00 0.00
0.04 0.06 0.07 0.07 0.06 0.05 0.06 0.05 0.04 0.05 0.06 0.06 0.05 0.04 0.03 0.02 0.01 0.00 0.01 0.01 0.00 0.00 0.00 0.00 0.00 0.00 0.00 0.00 0.00 0.00 0.00 0.00 0.00 0.00 0.00 0.00 0.00 0.00 0.00 0.00 0.00 0.00 0.00

GFSGL_prec_precacc_030.txt.gz
Total_Precipitation_Accumulation
0.00 0.00 0.00 0.00 0.00 0.00 0.00 0.00 0.00 0.00 0.00 0.00 0.00 0.01 0.01 0.03 0.08 0.10 0.06 0.04 0.03 0.03 0.03 0.02 0.01 0.01 0.01 0.00 0.00 0.00 0.00 0.01 0.01 0.00 0.00 0.00 0.00 0.00 0.00 0.00 0.00 0.02 0.04
0.00 0.00 0.00 0.00 0.00 0.00 0.00 0.00 0.00 0.01 0.01 0.02 0.01 0.03 0.05 0.07 0.07 0.05 0.03 0.01 0.01 0.01 0.01 0.01 0.00 0.00 0.00 0.00 0.00 0.00 0.00 0.00 0.00 0.00 0.00 0.00 0.00 0.00 0.00 0.00 0.00 0.00 0.00
0.00 0.00 0.00 0.00 0.00 0.00 0.00 0.01 0.01 0.02 0.02 0.02 0.03 0.05 0.04 0.03 0.02 0.01 0.00 0.00 0.00 0.00 0.00 0.00 0.00 0.00 0.00 0.00 0.00 0.00 0.00 0.01 0.01 0.03 0.01 0.00 0.00 0.00 0.00 0.01 0.01 0.00 0.00
0.00 0.00 0.00 0.01 0.01 0.01 0.00 0.02 0.02 0.03 0.02 0.00 0.01 0.01 0.00 0.00 0.00 0.00 0.00 0.00 0.00 0.00 0.00 0.00 0.00 0.00 0.00 0.00 0.01 0.01 0.01 0.01 0.01 0.02 0.02 0.01 0.02 0.02 0.02 0.02 0.02 0.01 0.01
0.00 0.00 0.00 0.00 0.01 0.02 0.02 0.03 0.06 0.02 0.01 0.00 0.00 0.00 0.00 0.00 0.00 0.00 0.00 0.00 0.00 0.00 0.00 0.00 0.00 0.00 0.00 0.01 0.01 0.01 0.02 0.03 0.04 0.06 0.04 0.03 0.02 0.01 0.02 0.01 0.03 0.01 0.01
0.01 0.01 0.00 0.01 0.02 0.03 0.04 0.05 0.01 0.01 0.01 0.00 0.00 0.00 0.00 0.00 0.00 0.00 0.00 0.00 0.00 0.00 0.00 0.00 0.00 0.00 0.00 0.00 0.01 0.01 0.03 0.09 0.13 0.09 0.07 0.06 0.04 0.03 0.03 0.05 0.07 0.06 0.03
0.00 0.01 0.01 0.02 0.02 0.02 0.02 0.03 0.03 0.03 0.01 0.00 0.00 0.00 0.00 0.00 0.00 0.00 0.00 0.00 0.00 0.00 0.00 0.00 0.00 0.00 0.00 0.00 0.01 0.01 0.02 0.03 0.09 0.14 0.15 0.07 0.05 0.04 0.05 0.05 0.06 0.08 0.05
0.00 0.01 0.03 0.02 0.01 0.02 0.05 0.04 0.02 0.00 0.00 0.00 0.00 0.00 0.00 0.00 0.00 0.00 0.00 0.00 0.00 0.00 0.00 0.00 0.00 0.00 0.00 0.02 0.09 0.08 0.03 0.02 0.02 0.04 0.10 0.08 0.07 0.08 0.09 0.09 0.10 0.09 0.06
0.00 0.01 0.01 0.02 0.02 0.02 0.02 0.05 0.02 0.00 0.00 0.00 0.00 0.00 0.00 0.00 0.00 0.00 0.00 0.00 0.01 0.01 0.00 0.00 0.01 0.01 0.02 0.08 0.14 0.12 0.05 0.03 0.02 0.02 0.05 0.07 0.08 0.08 0.09 0.16 0.17 0.18 0.15
0.01 0.01 0.01 0.02 0.03 0.08 0.10 0.02 0.00 0.00 0.00 0.00 0.00 0.00 0.00 0.00 0.01 0.00 0.01 0.02 0.02 0.02 0.02 0.01 0.01 0.04 0.11 0.15 0.24 0.20 0.17 0.06 0.03 0.04 0.03 0.04 0.04 0.04 0.02 0.07 0.10 0.14 0.12
0.00 0.01 0.04 0.09 0.07 0.03 0.00 0.00 0.00 0.00 0.00 0.00 0.01 0.01 0.01 0.01 0.01 0.00 0.01 0.02 0.05 0.07 0.04 0.03 0.05 0.23 0.19 0.13 0.10 0.13 0.16 0.09 0.05 0.04 0.03 0.03 0.03 0.04 0.06 0.08 0.10 0.12 0.09
0.01 0.02 0.02 0.01 0.00 0.00 0.00 0.00 0.00 0.00 0.00 0.00 0.01 0.01 0.01 0.01 0.00 0.00 0.00 0.02 0.04 0.11 0.08 0.14 0.25 0.14 0.08 0.04 0.07 0.12 0.07 0.04 0.06 0.09 0.09 0.07 0.08 0.08 0.08 0.10 0.14 0.15 0.08
0.00 0.01 0.00 0.00 0.00 0.00 0.00 0.00 0.00 0.00 0.00 0.00 0.00 0.01 0.01 0.00 0.00 0.00 0.01 0.02 0.02 0.06 0.17 0.19 0.13 0.10 0.04 0.05 0.10 0.08 0.06 0.12 0.17 0.15 0.13 0.11 0.14 0.16 0.20 0.24 0.18 0.18 0.20
0.01 0.00 0.00 0.00 0.00 0.00 0.00 0.00 0.00 0.00 0.00 0.00 0.00 0.01 0.01 0.00 0.01 0.02 0.03 0.02 0.04 0.09 0.09 0.14 0.13 0.06 0.08 0.12 0.12 0.09 0.12 0.15 0.13 0.16 0.13 0.11 0.13 0.17 0.23 0.30 0.33 0.34 0.36
0.00 0.00 0.00 0.00 0.00 0.00 0.00 0.00 0.00 0.00 0.00 0.00 0.00 0.01 0.02 0.03 0.02 0.06 0.07 0.09 0.14 0.10 0.12 0.14 0.09 0.09 0.09 0.09 0.05 0.05 0.06 0.06 0.08 0.09 0.11 0.11 0.11 0.12 0.14 0.19 0.20 0.17 0.23
0.00 0.00 0.00 0.01 0.01 0.01 0.00 0.00 0.00 0.00 0.00 0.00 0.00 0.00 0.01 0.02 0.03 0.04 0.05 0.08 0.10 0.08 0.11 0.12 0.14 0.13 0.11 0.10 0.08 0.05 0.04 0.07 0.06 0.08 0.09 0.09 0.10 0.11 0.10 0.08 0.07 0.09 0.14
0.00 0.00 0.01 0.02 0.02 0.02 0.01 0.01 0.01 0.01 0.00 0.00 0.00 0.00 0.00 0.01 0.02 0.03 0.05 0.07 0.09 0.07 0.09 0.11 0.13 0.11 0.06 0.03 0.04 0.05 0.07 0.08 0.06 0.07 0.09 0.09 0.09 0.07 0.07 0.06 0.06 0.06 0.09
0.00 0.01 0.01 0.02 0.02 0.02 0.02 0.01 0.02 0.03 0.02 0.02 0.01 0.00 0.00 0.00 0.02 0.03 0.03 0.05 0.07 0.06 0.07 0.09 0.08 0.05 0.02 0.02 0.02 0.03 0.04 0.05 0.03 0.05 0.07 0.07 0.07 0.07 0.06 0.04 0.04 0.05 0.06
0.00 0.01 0.01 0.02 0.01 0.01 0.01 0.02 0.02 0.02 0.02 0.01 0.01 0.00 0.00 0.00 0.01 0.02 0.03 0.05 0.06 0.06 0.06 0.05 0.04 0.03 0.02 0.02 0.02 0.02 0.04 0.05 0.03 0.03 0.04 0.06 0.07 0.07 0.05 0.04 0.03 0.02 0.02
0.01 0.02 0.03 0.02 0.02 0.02 0.02 0.02 0.02 0.02 0.02 0.02 0.01 0.01 0.00 0.01 0.02 0.02 0.03 0.03 0.03 0.03 0.02 0.02 0.02 0.01 0.02 0.02 0.02 0.01 0.01 0.02 0.02 0.02 0.03 0.04 0.06 0.06 0.07 0.05 0.03 0.03 0.01
0.02 0.01 0.02 0.03 0.03 0.02 0.03 0.03 0.02 0.03 0.02 0.02 0.01 0.01 0.01 0.02 0.02 0.02 0.02 0.02 0.01 0.01 0.01 0.01 0.01 0.01 0.01 0.01 0.01 0.01 0.01 0.01 0.02 0.02 0.02 0.03 0.04 0.03 0.04 0.05 0.03 0.02 0.01
0.02 0.03 0.04 0.03 0.03 0.04 0.03 0.03 0.03 0.03 0.03 0.03 0.02 0.01 0.00 0.02 0.02 0.02 0.02 0.01 0.01 0.00 0.00 0.00 0.00 0.00 0.01 0.01 0.01 0.02 0.01 0.00 0.01 0.01 0.01 0.01 0.02 0.02 0.02 0.03 0.02 0.02 0.01
0.04 0.04 0.04 0.04 0.05 0.04 0.04 0.04 0.04 0.04 0.03 0.02 0.01 0.01 0.01 0.02 0.02 0.03 0.02 0.02 0.01 0.01 0.00 0.00 0.00 0.00 0.00 0.00 0.00 0.00 0.01 0.01 0.01 0.00 0.00 0.02 0.01 0.01 0.02 0.01 0.01 0.01 0.01
0.03 0.04 0.06 0.06 0.06 0.05 0.05 0.05 0.04 0.03 0.03 0.03 0.03 0.03 0.02 0.01 0.02 0.02 0.02 0.02 0.01 0.01 0.00 0.00 0.00 0.00 0.00 0.00 0.00 0.00 0.00 0.00 0.00 0.00 0.00 0.01 0.01 0.00 0.00 0.00 0.01 0.01 0.01
0.04 0.06 0.08 0.09 0.08 0.08 0.06 0.04 0.05 0.05 0.05 0.06 0.05 0.04 0.02 0.02 0.02 0.01 0.02 0.02 0.01 0.00 0.00 0.00 0.00 0.00 0.00 0.00 0.00 0.00 0.00 0.00 0.00 0.00 0.00 0.00 0.00 0.00 0.00 0.00 0.00 0.00 0.00
0.05 0.07 0.09 0.09 0.09 0.08 0.08 0.07 0.06 0.06 0.08 0.07 0.07 0.06 0.05 0.04 0.03 0.02 0.03 0.04 0.03 0.02 0.01 0.00 0.00 0.00 0.00 0.00 0.00 0.00 0.00 0.00 0.00 0.00 0.00 0.00 0.00 0.00 0.00 0.00 0.00 0.00 0.00

GFSGL_prec_precacc_036.txt.gz
Total_Precipitation_Accumulation
0.00 0.00 0.00 0.00 0.00 0.00 0.00 0.00 0.00 0.00 0.00 0.00 0.00 0.01 0.01 0.03 0.08 0.10 0.08 0.06 0.05 0.04 0.03 0.04 0.03 0.02 0.02 0.01 0.01 0.00 0.00 0.01 0.01 0.00 0.00 0.00 0.00 0.00 0.00 0.00 0.00 0.02 0.04
0.00 0.00 0.00 0.00 0.00 0.00 0.00 0.00 0.00 0.01 0.01 0.02 0.01 0.03 0.05 0.07 0.07 0.07 0.04 0.02 0.01 0.01 0.01 0.01 0.01 0.00 0.00 0.00 0.00 0.00 0.00 0.00 0.00 0.00 0.00 0.00 0.00 0.00 0.00 0.00 0.00 0.00 0.00
0.00 0.00 0.00 0.00 0.00 0.00 0.00 0.01 0.01 0.02 0.02 0.02 0.03 0.05 0.04 0.03 0.02 0.01 0.00 0.00 0.00 0.00 0.00 0.00 0.00 0.00 0.00 0.00 0.00 0.00 0.00 0.01 0.01 0.03 0.01 0.00 0.00 0.00 0.00 0.01 0.01 0.01 0.00
0.00 0.00 0.00 0.01 0.01 0.01 0.00 0.02 0.02 0.03 0.02 0.00 0.01 0.01 0.00 0.00 0.00 0.00 0.00 0.00 0.00 0.00 0.00 0.00 0.00 0.00 0.00 0.00 0.01 0.01 0.01 0.01 0.01 0.02 0.02 0.02 0.02 0.02 0.03 0.03 0.03 0.02 0.01
0.00 0.00 0.00 0.00 0.01 0.02 0.02 0.03 0.06 0.02 0.01 0.00 0.00 0.00 0.00 0.00 0.00 0.00 0.00 0.00 0.00 0.00 0.00 0.00 0.00 0.00 0.00 0.01 0.01 0.01 0.02 0.04 0.05 0.06 0.05 0.05 0.03 0.02 0.04 0.03 0.06 0.03 0.02
0.01 0.01 0.00 0.01 0.02 0.03 0.04 0.05 0.01 0.01 0.01 0.00 0.00 0.00 0.00 0.00 0.00 0.00 0.00 0.00 0.00 0.00 0.00 0.00 0.00 0.00 0.00 0.00 0.01 0.01 0.03 0.09 0.15 0.11 0.09 0.07 0.05 0.05 0.07 0.10 0.11 0.09 0.06
0.00 0.01 0.01 0.02 0.02 0.02 0.02 0.03 0.03 0.03 0.01 0.00 0.00 0.00 0.00 0.00 0.00 0.00 0.00 0.00 0.00 0.00 0.00 0.00 0.00 0.00 0.00 0.00 0.01 0.01 0.02 0.03 0.10 0.15 0.17 0.11 0.10 0.08 0.08 0.09 0.09 0.11 0.09
0.00 0.01 0.03 0.02 0.01 0.02 0.05 0.04 0.02 0.00 0.00 0.00 0.00 0.00 0.00 0.00 0.00 0.00 0.00 0.00 0.00 0.00 0.00 0.00 0.00 0.00 0.00 0.02 0.09 0.08 0.03 0.02 0.02 0.05 0.10 0.09 0.08 0.08 0.10 0.11 0.12 0.11 0.07
0.00 0.01 0.01 0.02 0.02 0.02 0.02 0.05 0.02 0.00 0.00 0.00 0.00 0.00 0.01 0.00 0.00 0.00 0.00 0.00 0.01 0.01 0.00 0.00 0.01 0.01 0.02 0.08 0.14 0.12 0.05 0.03 0.02 0.02 0.05 0.07 0.08 0.08 0.09 0.19 0.19 0.22 0.18
0.01 0.01 0.01 0.02 0.03 0.08 0.10 0.02 0.00 0.00 0.00 0.00 0.00 0.00 0.00 0.01 0.01 0.00 0.01 0.02 0.02 0.02 0.02 0.01 0.01 0.04 0.11 0.15 0.24 0.20 0.17 0.06 0.03 0.04 0.03 0.04 0.04 0.05 0.04 0.11 0.18 0.27 0.21
0.01 0.01 0.05 0.09 0.08 0.03 0.00 0.00 0.00 0.00 0.00 0.00 0.01 0.01 0.01 0.01 0.01 0.00 0.01 0.02 0.05 0.07 0.04 0.03 0.05 0.23 0.19 0.13 0.10 0.13 0.16 0.09 0.05 0.05 0.04 0.03 0.04 0.05 0.07 0.10 0.14 0.21 0.21
0.01 0.03 0.02 0.01 0.00 0.00 0.00 0.00 0.00 0.00 0.00 0.00 0.01 0.01 0.01 0.01 0.00 0.00 0.00 0.02 0.04 0.11 0.08 0.14 0.25 0.14 0.08 0.04 0.07 0.12 0.07 0.04 0.06 0.10 0.10 0.08 0.08 0.08 0.08 0.11 0.17 0.19 0.16
0.00 0.01 0.00 0.00 0.00 0.00 0.00 0.00 0.00 0.00 0.00 0.01 0.01 0.01 0.01 0.01 0.01 0.01 0.01 0.02 0.02 0.06 0.17 0.19 0.13 0.10 0.04 0.05 0.10 0.08 0.06 0.12 0.17 0.16 0.14 0.11 0.15 0.17 0.21 0.26 0.20 0.21 0.25
0.01 0.00 0.00 0.00 0.00 0.00 0.00 0.00 0.00 0.00 0.01 0.01 0.01 0.01 0.02 0.01 0.01 0.03 0.04 0.03 0.04 0.09 0.09 0.14 0.13 0.06 0.08 0.12 0.12 0.09 0.12 0.15 0.13 0.16 0.13 0.12 0.13 0.17 0.24 0.31 0.34 0.36 0.41
0.00 0.00 0.00 0.00 0.00 0.00 0.00 0.00 0.00 0.00 0.00 0.01 0.01 0.02 0.04 0.04 0.03 0.06 0.08 0.11 0.16 0.11 0.12 0.14 0.09 0.09 0.09 0.09 0.05 0.05 0.06 0.06 0.08 0.09 0.11 0.11 0.11 0.12 0.14 0.19 0.22 0.18 0.25
0.00 0.00 0.00 0.01 0.01 0.01 0.00 0.00 0.00 0.00 0.00 0.00 0.00 0.00 0.01 0.02 0.03 0.04 0.05 0.08 0.10 0.08 0.11 0.12 0.14 0.14 0.11 0.10 0.08 0.05 0.04 0.07 0.06 0.08 0.09 0.09 0.10 0.11 0.10 0.08 0.08 0.10 0.15
0.00 0.00 0.01 0.02 0.02 0.02 0.01 0.01 0.02 0.01 0.00 0.00 0.00 0.00 0.00 0.01 0.02 0.03 0.05 0.07 0.09 0.07 0.09 0.11 0.13 0.12 0.07 0.03 0.04 0.05 0.07 0.08 0.06 0.07 0.09 0.09 0.09 0.07 0.07 0.07 0.06 0.07 0.09
0.00 0.01 0.01 0.02 0.02 0.02 0.02 0.03 0.04 0.05 0.04 0.03 0.02 0.00 0.00 0.00 0.02 0.03 0.03 0.05 0.08 0.08 0.08 0.09 0.09 0.06 0.02 0.02 0.02 0.03 0.04 0.05 0.03 0.05 0.07 0.07 0.07 0.07 0.06 0.05 0.04 0.05 0.07
0.00 0.01 0.01 0.02 0.02 0.02 0.02 0.03 0.04 0.04 0.04 0.03 0.02 0.01 0.00 0.00 0.01 0.02 0.04 0.07 0.08 0.07 0.07 0.06 0.05 0.03 0.02 0.02 0.02 0.03 0.05 0.05 0.03 0.03 0.05 0.06 0.07 0.07 0.05 0.04 0.03 0.02 0.02
0.01 0.02 0.03 0.03 0.02 0.02 0.03 0.03 0.03 0.04 0.05 0.04 0.03 0.02 0.02 0.04 0.05 0.04 0.04 0.05 0.05 0.04 0.03 0.03 0.02 0.02 0.02 0.02 0.02 0.02 0.02 0.02 0.02 0.02 0.03 0.05 0.06 0.06 0.08 0.05 0.03 0.03 0.01
0.03 0.03 0.03 0.05 0.05 0.05 0.06 0.06 0.06 0.06 0.05 0.04 0.03 0.02 0.02 0.05 0.07 0.05 0.04 0.04 0.03 0.02 0.01 0.01 0.01 0.01 0.02 0.02 0.01 0.01 0.01 0.02 0.02 0.02 0.02 0.03 0.04 0.04 0.04 0.05 0.03 0.02 0.01
0.03 0.04 0.05 0.07 0.07 0.08 0.07 0.06 0.07 0.06 0.05 0.05 0.04 0.02 0.01 0.04 0.04 0.04 0.03 0.03 0.02 0.02 0.01 0.01 0.01 0.01 0.01 0.01 0.01 0.02 0.01 0.01 0.01 0.02 0.02 0.02 0.02 0.02 0.03 0.03 0.02 0.02 0.01
0.05 0.06 0.06 0.07 0.08 0.07 0.06 0.06 0.07 0.08 0.08 0.06 0.05 0.05 0.05 0.07 0.07 0.04 0.03 0.02 0.02 0.02 0.01 0.01 0.01 0.01 0.00 0.00 0.00 0.01 0.01 0.01 0.01 0.01 0.01 0.02 0.01 0.01 0.02 0.02 0.01 0.01 0.01
0.05 0.08 0.10 0.11 0.09 0.08 0.08 0.09 0.08 0.08 0.08 0.09 0.08 0.07 0.05 0.05 0.09 0.09 0.06 0.03 0.03 0.02 0.01 0.02 0.01 0.01 0.00 0.01 0.01 0.00 0.00 0.00 0.00 0.00 0.00 0.01 0.01 0.00 0.00 0.00 0.01 0.01 0.01
0.08 0.10 0.12 0.13 0.13 0.13 0.12 0.10 0.10 0.11 0.12 0.13 0.13 0.10 0.06 0.06 0.06 0.05 0.06 0.06 0.06 0.05 0.04 0.04 0.04 0.03 0.02 0.02 0.02 0.01 0.00 0.00 0.00 0.00 0.00 0.00 0.00 0.00 0.00 0.00 0.00 0.00 0.00
0.09 0.13 0.16 0.16 0.19 0.21 0.19 0.14 0.12 0.12 0.14 0.13 0.12 0.12 0.11 0.10 0.09 0.08 0.06 0.07 0.07 0.06 0.05 0.06 0.06 0.04 0.04 0.04 0.04 0.04 0.01 0.00 0.00 0.00 0.00 0.00 0.00 0.00 0.00 0.00 0.00 0.00 0.00

GFSGL_prec_precacc_039.txt.gz
Total_Precipitation_Accumulation
0.00 0.00 0.00 0.00 0.00 0.00 0.00 0.00 0.00 0.00 0.00 0.00 0.00 0.01 0.01 0.03 0.08 0.10 0.08 0.06 0.05 0.04 0.03 0.04 0.03 0.02 0.02 0.01 0.01 0.00 0.00 0.01 0.01 0.00 0.00 0.00 0.00 0.00 0.00 0.00 0.00 0.02 0.04
0.00 0.00 0.00 0.00 0.00 0.00 0.00 0.00 0.00 0.01 0.01 0.02 0.01 0.03 0.05 0.07 0.07 0.07 0.04 0.02 0.01 0.01 0.01 0.01 0.01 0.00 0.00 0.00 0.00 0.00 0.00 0.00 0.00 0.00 0.00 0.00 0.00 0.00 0.00 0.00 0.00 0.00 0.00
0.00 0.00 0.00 0.00 0.00 0.00 0.00 0.01 0.01 0.02 0.02 0.02 0.03 0.05 0.04 0.03 0.02 0.01 0.00 0.00 0.00 0.00 0.00 0.00 0.00 0.00 0.00 0.00 0.00 0.00 0.00 0.01 0.01 0.03 0.01 0.00 0.00 0.00 0.00 0.01 0.01 0.01 0.00
0.00 0.00 0.00 0.01 0.01 0.01 0.00 0.02 0.02 0.03 0.02 0.00 0.01 0.01 0.00 0.00 0.00 0.00 0.00 0.00 0.00 0.00 0.00 0.00 0.00 0.00 0.00 0.00 0.01 0.01 0.01 0.01 0.01 0.02 0.02 0.02 0.02 0.02 0.03 0.03 0.03 0.02 0.01
0.00 0.00 0.00 0.00 0.01 0.02 0.02 0.03 0.06 0.02 0.01 0.00 0.00 0.00 0.00 0.00 0.00 0.00 0.00 0.00 0.00 0.00 0.00 0.00 0.00 0.00 0.00 0.01 0.01 0.01 0.02 0.04 0.05 0.06 0.05 0.05 0.03 0.02 0.04 0.04 0.06 0.03 0.02
0.01 0.01 0.00 0.01 0.02 0.03 0.04 0.05 0.01 0.01 0.01 0.00 0.00 0.00 0.00 0.00 0.00 0.00 0.00 0.00 0.00 0.00 0.00 0.00 0.00 0.00 0.00 0.00 0.01 0.01 0.03 0.09 0.15 0.11 0.09 0.07 0.05 0.06 0.08 0.10 0.11 0.09 0.06
0.00 0.01 0.01 0.02 0.02 0.02 0.02 0.03 0.03 0.03 0.01 0.00 0.00 0.00 0.00 0.00 0.00 0.00 0.00 0.00 0.00 0.00 0.00 0.00 0.00 0.00 0.00 0.00 0.01 0.01 0.02 0.03 0.10 0.15 0.17 0.11 0.10 0.08 0.08 0.09 0.09 0.11 0.09
0.00 0.01 0.03 0.02 0.01 0.02 0.05 0.04 0.02 0.00 0.00 0.00 0.00 0.00 0.00 0.00 0.00 0.00 0.00 0.00 0.00 0.00 0.00 0.00 0.00 0.00 0.00 0.02 0.09 0.08 0.03 0.02 0.02 0.05 0.10 0.09 0.08 0.08 0.10 0.11 0.12 0.11 0.08
0.00 0.01 0.01 0.02 0.02 0.02 0.02 0.05 0.02 0.00 0.00 0.00 0.00 0.00 0.01 0.00 0.00 0.00 0.00 0.00 0.01 0.01 0.00 0.00 0.01 0.01 0.02 0.08 0.14 0.12 0.05 0.03 0.02 0.02 0.05 0.07 0.08 0.08 0.09 0.20 0.21 0.25 0.20
0.01 0.01 0.01 0.02 0.04 0.09 0.10 0.02 0.00 0.00 0.00 0.00 0.00 0.00 0.00 0.01 0.01 0.00 0.01 0.02 0.02 0.02 0.02 0.01 0.01 0.04 0.11 0.15 0.24 0.20 0.17 0.06 0.03 0.04 0.03 0.04 0.04 0.05 0.04 0.11 0.18 0.27 0.22
0.01 0.01 0.05 0.09 0.08 0.03 0.00 0.00 0.00 0.00 0.00 0.00 0.01 0.01 0.01 0.01 0.01 0.00 0.01 0.02 0.05 0.07 0.04 0.03 0.05 0.23 0.19 0.13 0.10 0.13 0.16 0.09 0.05 0.05 0.04 0.03 0.04 0.05 0.07 0.10 0.14 0.21 0.23
0.01 0.03 0.02 0.01 0.00 0.00 0.00 0.00 0.00 0.00 0.00 0.00 0.01 0.01 0.01 0.01 0.00 0.00 0.00 0.02 0.04 0.11 0.08 0.14 0.25 0.14 0.08 0.04 0.07 0.12 0.07 0.04 0.06 0.10 0.10 0.08 0.08 0.08 0.08 0.11 0.17 0.19 0.16
0.00 0.01 0.00 0.00 0.00 0.00 0.00 0.00 0.00 0.00 0.00 0.01 0.01 0.01 0.01 0.01 0.01 0.01 0.01 0.02 0.02 0.06 0.17 0.19 0.13 0.10 0.04 0.05 0.10 0.08 0.06 0.12 0.17 0.16 0.14 0.11 0.15 0.17 0.21 0.26 0.20 0.21 0.25
0.01 0.00 0.00 0.00 0.00 0.00 0.00 0.00 0.00 0.00 0.01 0.01 0.01 0.01 0.02 0.01 0.01 0.03 0.04 0.03 0.04 0.09 0.09 0.14 0.13 0.06 0.08 0.12 0.12 0.09 0.12 0.15 0.13 0.16 0.13 0.12 0.13 0.17 0.24 0.31 0.34 0.36 0.41
0.00 0.00 0.00 0.00 0.00 0.00 0.00 0.00 0.00 0.00 0.00 0.01 0.01 0.02 0.04 0.04 0.03 0.07 0.09 0.11 0.16 0.11 0.12 0.14 0.09 0.09 0.09 0.09 0.05 0.05 0.06 0.06 0.08 0.09 0.11 0.11 0.11 0.12 0.14 0.19 0.22 0.18 0.25
0.00 0.00 0.00 0.01 0.01 0.01 0.00 0.00 0.00 0.00 0.00 0.00 0.00 0.00 0.01 0.02 0.03 0.04 0.05 0.09 0.11 0.09 0.12 0.12 0.14 0.14 0.11 0.10 0.08 0.05 0.04 0.07 0.06 0.08 0.09 0.09 0.10 0.11 0.10 0.08 0.08 0.10 0.15
0.00 0.00 0.01 0.02 0.02 0.02 0.01 0.01 0.02 0.01 0.00 0.00 0.00 0.00 0.00 0.01 0.02 0.03 0.05 0.07 0.10 0.08 0.09 0.11 0.13 0.12 0.07 0.03 0.04 0.05 0.07 0.08 0.06 0.07 0.09 0.09 0.09 0.07 0.07 0.07 0.06 0.07 0.09
0.00 0.01 0.01 0.02 0.02 0.02 0.02 0.03 0.04 0.05 0.04 0.03 0.02 0.00 0.00 0.00 0.02 0.03 0.05 0.09 0.11 0.09 0.09 0.09 0.09 0.06 0.02 0.02 0.02 0.03 0.04 0.05 0.03 0.05 0.07 0.07 0.07 0.07 0.06 0.05 0.04 0.05 0.07
0.00 0.01 0.01 0.02 0.02 0.02 0.03 0.05 0.06 0.07 0.06 0.03 0.02 0.01 0.00 0.00 0.02 0.03 0.06 0.13 0.09 0.07 0.07 0.06 0.05 0.03 0.02 0.02 0.02 0.03 0.05 0.05 0.03 0.03 0.05 0.06 0.07 0.07 0.05 0.04 0.03 0.02 0.02
0.01 0.02 0.03 0.04 0.04 0.04 0.05 0.06 0.06 0.07 0.07 0.05 0.04 0.02 0.02 0.04 0.06 0.04 0.06 0.07 0.06 0.04 0.03 0.03 0.02 0.02 0.02 0.02 0.02 0.02 0.02 0.02 0.02 0.02 0.03 0.05 0.06 0.06 0.08 0.05 0.03 0.03 0.01
0.03 0.03 0.04 0.06 0.06 0.07 0.07 0.08 0.07 0.08 0.08 0.06 0.03 0.02 0.02 0.07 0.08 0.07 0.05 0.05 0.04 0.02 0.01 0.01 0.01 0.01 0.02 0.02 0.01 0.01 0.01 0.02 0.02 0.02 0.02 0.03 0.04 0.04 0.04 0.05 0.03 0.02 0.01
0.03 0.05 0.06 0.07 0.08 0.09 0.07 0.07 0.08 0.07 0.06 0.05 0.04 0.02 0.01 0.06 0.05 0.05 0.07 0.06 0.04 0.02 0.01 0.01 0.01 0.01 0.01 0.01 0.01 0.02 0.01 0.01 0.01 0.02 0.02 0.02 0.02 0.02 0.03 0.03 0.02 0.02 0.01
0.05 0.06 0.06 0.08 0.09 0.10 0.11 0.12 0.11 0.09 0.08 0.06 0.06 0.06 0.07 0.11 0.09 0.06 0.05 0.05 0.07 0.07 0.03 0.02 0.02 0.01 0.00 0.00 0.00 0.01 0.01 0.01 0.01 0.01 0.01 0.02 0.01 0.01 0.02 0.02 0.01 0.01 0.01
0.06 0.09 0.11 0.11 0.12 0.11 0.10 0.09 0.09 0.09 0.10 0.10 0.10 0.11 0.11 0.11 0.12 0.12 0.09 0.07 0.07 0.06 0.06 0.06 0.04 0.02 0.01 0.01 0.01 0.00 0.00 0.00 0.00 0.00 0.00 0.01 0.01 0.00 0.00 0.00 0.01 0.01 0.01
0.09 0.11 0.14 0.15 0.16 0.17 0.16 0.18 0.23 0.21 0.16 0.14 0.14 0.12 0.10 0.10 0.09 0.08 0.09 0.11 0.10 0.09 0.07 0.07 0.06 0.05 0.05 0.05 0.04 0.02 0.00 0.00 0.00 0.00 0.00 0.00 0.00 0.00 0.00 0.00 0.00 0.00 0.00
0.09 0.14 0.17 0.18 0.21 0.26 0.29 0.25 0.20 0.17 0.16 0.14 0.13 0.13 0.12 0.11 0.11 0.11 0.12 0.13 0.14 0.11 0.08 0.08 0.07 0.05 0.05 0.05 0.07 0.08 0.03 0.02 0.03 0.01 0.00 0.00 0.00 0.00 0.00 0.00 0.00 0.00 0.00

GFSGL_prec_precacc_042.txt.gz
Total_Precipitation_Accumulation
0.00 0.00 0.01 0.01 0.00 0.00 0.00 0.00 0.00 0.00 0.00 0.01 0.01 0.01 0.01 0.03 0.08 0.10 0.08 0.06 0.05 0.04 0.03 0.04 0.03 0.02 0.02 0.01 0.01 0.00 0.00 0.01 0.01 0.00 0.00 0.00 0.00 0.00 0.00 0.00 0.00 0.02 0.04
0.00 0.00 0.00 0.00 0.00 0.00 0.00 0.00 0.00 0.01 0.01 0.02 0.01 0.03 0.05 0.07 0.07 0.07 0.04 0.02 0.01 0.01 0.01 0.01 0.01 0.00 0.00 0.00 0.00 0.00 0.00 0.00 0.00 0.00 0.00 0.00 0.00 0.00 0.00 0.00 0.00 0.00 0.00
0.00 0.00 0.00 0.00 0.00 0.00 0.01 0.01 0.01 0.02 0.02 0.02 0.03 0.05 0.04 0.03 0.02 0.01 0.00 0.00 0.00 0.00 0.00 0.00 0.00 0.00 0.00 0.00 0.00 0.00 0.00 0.01 0.01 0.03 0.01 0.00 0.00 0.00 0.00 0.01 0.01 0.01 0.00
0.00 0.00 0.01 0.01 0.01 0.01 0.00 0.02 0.02 0.03 0.02 0.00 0.01 0.01 0.00 0.00 0.00 0.00 0.00 0.00 0.00 0.00 0.00 0.00 0.00 0.00 0.00 0.00 0.01 0.01 0.01 0.01 0.01 0.02 0.02 0.02 0.02 0.02 0.03 0.03 0.03 0.02 0.01
0.01 0.01 0.01 0.00 0.01 0.02 0.02 0.03 0.06 0.02 0.01 0.00 0.00 0.00 0.00 0.00 0.00 0.00 0.00 0.00 0.00 0.00 0.00 0.00 0.00 0.00 0.00 0.01 0.01 0.01 0.02 0.04 0.05 0.06 0.05 0.05 0.03 0.02 0.04 0.04 0.06 0.03 0.02
0.01 0.01 0.01 0.01 0.02 0.03 0.04 0.05 0.01 0.01 0.01 0.00 0.00 0.00 0.00 0.00 0.00 0.00 0.00 0.00 0.00 0.00 0.00 0.00 0.00 0.00 0.00 0.00 0.01 0.01 0.03 0.09 0.15 0.11 0.09 0.07 0.05 0.06 0.08 0.10 0.11 0.09 0.06
0.00 0.01 0.01 0.02 0.02 0.02 0.02 0.03 0.03 0.03 0.01 0.00 0.00 0.00 0.00 0.00 0.00 0.00 0.00 0.00 0.00 0.00 0.00 0.00 0.00 0.00 0.00 0.00 0.01 0.01 0.02 0.03 0.10 0.15 0.17 0.11 0.10 0.08 0.08 0.09 0.09 0.11 0.09
0.00 0.01 0.03 0.02 0.01 0.03 0.06 0.05 0.03 0.00 0.00 0.00 0.00 0.00 0.00 0.00 0.00 0.00 0.00 0.00 0.00 0.00 0.00 0.00 0.00 0.00 0.00 0.02 0.09 0.08 0.03 0.02 0.02 0.05 0.10 0.09 0.08 0.08 0.10 0.12 0.13 0.13 0.08
0.00 0.01 0.01 0.02 0.03 0.06 0.07 0.07 0.02 0.00 0.00 0.00 0.00 0.00 0.01 0.00 0.00 0.00 0.00 0.00 0.01 0.01 0.00 0.00 0.01 0.01 0.02 0.08 0.14 0.12 0.05 0.03 0.02 0.02 0.05 0.07 0.08 0.08 0.10 0.21 0.22 0.25 0.20
0.01 0.01 0.02 0.05 0.08 0.11 0.11 0.02 0.00 0.00 0.00 0.00 0.00 0.00 0.00 0.01 0.01 0.00 0.01 0.02 0.02 0.02 0.02 0.01 0.01 0.04 0.11 0.15 0.24 0.20 0.17 0.06 0.03 0.04 0.03 0.04 0.04 0.05 0.04 0.11 0.18 0.28 0.22
0.01 0.05 0.11 0.12 0.08 0.03 0.00 0.00 0.00 0.00 0.00 0.00 0.01 0.01 0.01 0.01 0.01 0.00 0.01 0.02 0.05 0.07 0.04 0.03 0.05 0.23 0.19 0.13 0.10 0.13 0.16 0.09 0.05 0.05 0.04 0.03 0.04 0.05 0.07 0.10 0.14 0.22 0.24
0.03 0.04 0.02 0.01 0.00 0.00 0.00 0.00 0.00 0.00 0.00 0.00 0.01 0.01 0.01 0.01 0.00 0.00 0.00 0.02 0.04 0.11 0.08 0.14 0.25 0.14 0.08 0.04 0.07 0.12 0.07 0.04 0.06 0.10 0.10 0.08 0.08 0.08 0.08 0.11 0.17 0.19 0.16
0.00 0.01 0.00 0.00 0.00 0.00 0.00 0.00 0.00 0.00 0.00 0.01 0.01 0.01 0.01 0.01 0.01 0.01 0.01 0.02 0.02 0.06 0.17 0.19 0.13 0.10 0.04 0.05 0.10 0.08 0.06 0.12 0.17 0.16 0.14 0.11 0.15 0.17 0.21 0.26 0.20 0.21 0.25
0.01 0.00 0.00 0.00 0.00 0.00 0.00 0.00 0.00 0.00 0.01 0.01 0.01 0.01 0.02 0.01 0.01 0.03 0.04 0.03 0.06 0.11 0.09 0.14 0.13 0.06 0.08 0.12 0.12 0.09 0.12 0.15 0.13 0.16 0.13 0.12 0.13 0.17 0.24 0.31 0.34 0.36 0.41
0.00 0.00 0.00 0.00 0.00 0.00 0.00 0.00 0.00 0.00 0.00 0.01 0.01 0.02 0.04 0.04 0.03 0.07 0.10 0.13 0.17 0.13 0.14 0.15 0.10 0.09 0.09 0.09 0.05 0.05 0.06 0.06 0.08 0.09 0.11 0.11 0.11 0.12 0.14 0.19 0.22 0.18 0.25
0.00 0.00 0.00 0.01 0.01 0.01 0.00 0.00 0.00 0.00 0.00 0.00 0.00 0.00 0.01 0.02 0.03 0.04 0.05 0.09 0.12 0.10 0.16 0.14 0.15 0.14 0.11 0.10 0.08 0.05 0.04 0.07 0.06 0.08 0.09 0.09 0.10 0.11 0.10 0.08 0.08 0.10 0.15
0.00 0.00 0.01 0.02 0.02 0.02 0.01 0.01 0.02 0.01 0.00 0.00 0.00 0.01 0.01 0.01 0.02 0.03 0.05 0.08 0.11 0.14 0.15 0.12 0.13 0.12 0.07 0.03 0.04 0.05 0.07 0.08 0.06 0.07 0.09 0.09 0.09 0.07 0.07 0.07 0.06 0.07 0.09
0.00 0.01 0.01 0.02 0.02 0.02 0.02 0.03 0.04 0.06 0.06 0.05 0.03 0.02 0.03 0.01 0.02 0.03 0.05 0.11 0.16 0.14 0.11 0.09 0.09 0.06 0.02 0.02 0.02 0.03 0.04 0.05 0.03 0.05 0.07 0.07 0.07 0.07 0.06 0.05 0.04 0.05 0.07
0.00 0.01 0.01 0.02 0.02 0.02 0.03 0.05 0.07 0.09 0.09 0.06 0.03 0.02 0.00 0.00 0.02 0.03 0.06 0.17 0.13 0.09 0.07 0.07 0.05 0.03 0.02 0.02 0.02 0.03 0.05 0.05 0.03 0.03 0.05 0.06 0.07 0.07 0.05 0.04 0.03 0.02 0.02
0.01 0.02 0.03 0.04 0.04 0.04 0.05 0.07 0.07 0.08 0.08 0.07 0.05 0.02 0.02 0.04 0.06 0.04 0.06 0.09 0.09 0.06 0.04 0.04 0.03 0.02 0.02 0.02 0.02 0.02 0.02 0.02 0.02 0.02 0.03 0.05 0.06 0.06 0.08 0.05 0.03 0.03 0.01
0.03 0.03 0.04 0.06 0.06 0.07 0.08 0.08 0.08 0.10 0.10 0.08 0.06 0.03 0.02 0.07 0.09 0.08 0.06 0.05 0.05 0.04 0.03 0.03 0.02 0.02 0.02 0.02 0.01 0.01 0.01 0.02 0.02 0.02 0.02 0.03 0.04 0.04 0.04 0.05 0.03 0.02 0.01
0.03 0.05 0.06 0.08 0.08 0.09 0.08 0.08 0.11 0.14 0.13 0.11 0.06 0.03 0.01 0.06 0.06 0.06 0.08 0.08 0.04 0.03 0.03 0.04 0.04 0.02 0.01 0.01 0.01 0.02 0.01 0.01 0.01 0.02 0.02 0.02 0.02 0.02 0.03 0.03 0.02 0.02 0.01
0.05 0.06 0.07 0.08 0.09 0.10 0.12 0.13 0.14 0.11 0.10 0.09 0.10 0.10 0.08 0.11 0.12 0.13 0.12 0.08 0.08 0.10 0.06 0.06 0.05 0.03 0.01 0.01 0.01 0.01 0.01 0.01 0.01 0.01 0.01 0.02 0.01 0.01 0.02 0.02 0.01 0.01 0.01
0.06 0.09 0.11 0.12 0.12 0.12 0.12 0.12 0.11 0.13 0.17 0.20 0.17 0.14 0.12 0.12 0.15 0.15 0.13 0.10 0.10 0.08 0.09 0.13 0.10 0.06 0.02 0.02 0.02 0.01 0.01 0.00 0.00 0.00 0.00 0.01 0.01 0.00 0.00 0.00 0.01 0.01 0.01
0.09 0.11 0.14 0.15 0.17 0.17 0.16 0.19 0.25 0.25 0.22 0.21 0.20 0.17 0.13 0.11 0.10 0.09 0.10 0.12 0.12 0.11 0.10 0.10 0.11 0.10 0.08 0.08 0.06 0.03 0.01 0.01 0.02 0.01 0.01 0.00 0.00 0.00 0.00 0.00 0.00 0.00 0.00
0.09 0.14 0.17 0.18 0.22 0.26 0.29 0.26 0.21 0.18 0.18 0.17 0.16 0.16 0.14 0.13 0.12 0.12 0.12 0.14 0.15 0.13 0.11 0.12 0.11 0.09 0.07 0.06 0.08 0.09 0.05 0.03 0.06 0.03 0.02 0.01 0.01 0.00 0.00 0.00 0.00 0.00 0.00

GFSGL_prec_precacc_045.txt.gz
Total_Precipitation_Accumulation
0.01 0.03 0.03 0.03 0.02 0.02 0.02 0.01 0.00 0.00 0.01 0.02 0.02 0.01 0.01 0.03 0.08 0.10 0.08 0.06 0.05 0.04 0.03 0.04 0.03 0.02 0.02 0.01 0.01 0.00 0.00 0.01 0.01 0.00 0.00 0.00 0.00 0.00 0.00 0.00 0.00 0.02 0.04
0.02 0.03 0.03 0.01 0.00 0.00 0.00 0.00 0.01 0.02 0.02 0.02 0.01 0.03 0.05 0.07 0.07 0.07 0.04 0.02 0.01 0.01 0.01 0.01 0.01 0.00 0.00 0.00 0.00 0.00 0.00 0.00 0.00 0.00 0.00 0.00 0.00 0.00 0.00 0.00 0.00 0.00 0.00
0.03 0.03 0.03 0.02 0.02 0.02 0.02 0.02 0.02 0.02 0.02 0.02 0.03 0.05 0.04 0.03 0.02 0.01 0.00 0.00 0.00 0.00 0.00 0.00 0.00 0.00 0.00 0.00 0.00 0.00 0.00 0.01 0.01 0.03 0.01 0.00 0.00 0.00 0.00 0.01 0.01 0.01 0.00
0.03 0.03 0.03 0.02 0.02 0.02 0.01 0.02 0.02 0.03 0.02 0.00 0.01 0.01 0.00 0.00 0.00 0.00 0.00 0.00 0.00 0.00 0.00 0.00 0.00 0.00 0.00 0.00 0.01 0.01 0.01 0.01 0.01 0.02 0.02 0.02 0.02 0.02 0.03 0.03 0.03 0.02 0.01
0.05 0.04 0.02 0.01 0.01 0.02 0.02 0.03 0.06 0.02 0.01 0.00 0.00 0.00 0.00 0.00 0.00 0.00 0.00 0.00 0.00 0.00 0.00 0.00 0.00 0.00 0.00 0.01 0.01 0.01 0.02 0.04 0.05 0.06 0.05 0.05 0.03 0.02 0.04 0.04 0.06 0.03 0.02
0.04 0.03 0.02 0.02 0.03 0.03 0.04 0.05 0.01 0.01 0.01 0.02 0.01 0.00 0.00 0.00 0.00 0.00 0.00 0.00 0.00 0.00 0.00 0.00 0.00 0.00 0.00 0.00 0.01 0.01 0.03 0.09 0.15 0.11 0.09 0.07 0.05 0.06 0.08 0.10 0.11 0.09 0.06
0.01 0.02 0.02 0.02 0.02 0.02 0.02 0.03 0.04 0.09 0.05 0.01 0.00 0.00 0.00 0.00 0.00 0.00 0.00 0.00 0.00 0.00 0.00 0.00 0.00 0.00 0.00 0.00 0.01 0.01 0.02 0.03 0.10 0.15 0.17 0.11 0.10 0.08 0.08 0.09 0.09 0.12 0.10
0.00 0.01 0.03 0.02 0.01 0.03 0.08 0.13 0.12 0.04 0.00 0.00 0.00 0.00 0.00 0.00 0.00 0.00 0.00 0.00 0.00 0.00 0.00 0.00 0.00 0.00 0.00 0.02 0.09 0.08 0.03 0.02 0.02 0.05 0.10 0.09 0.08 0.08 0.10 0.12 0.15 0.15 0.08
0.00 0.01 0.01 0.02 0.04 0.11 0.17 0.13 0.03 0.00 0.00 0.00 0.00 0.00 0.01 0.00 0.00 0.00 0.00 0.00 0.01 0.01 0.00 0.00 0.01 0.01 0.02 0.08 0.14 0.12 0.05 0.03 0.02 0.02 0.05 0.07 0.08 0.08 0.10 0.21 0.22 0.25 0.21
0.01 0.01 0.02 0.11 0.20 0.19 0.13 0.02 0.00 0.00 0.00 0.00 0.00 0.00 0.00 0.01 0.01 0.00 0.01 0.02 0.02 0.02 0.02 0.01 0.01 0.04 0.11 0.15 0.24 0.20 0.17 0.06 0.03 0.04 0.03 0.04 0.04 0.05 0.04 0.11 0.18 0.28 0.23
0.06 0.12 0.20 0.19 0.09 0.03 0.00 0.00 0.00 0.00 0.00 0.00 0.01 0.01 0.01 0.01 0.01 0.00 0.01 0.02 0.05 0.07 0.04 0.03 0.05 0.23 0.19 0.13 0.10 0.13 0.16 0.09 0.05 0.05 0.04 0.03 0.04 0.05 0.07 0.10 0.14 0.22 0.24
0.04 0.04 0.02 0.01 0.00 0.00 0.00 0.00 0.00 0.00 0.00 0.00 0.01 0.01 0.01 0.01 0.00 0.00 0.00 0.02 0.04 0.11 0.08 0.14 0.25 0.14 0.08 0.04 0.07 0.12 0.07 0.04 0.06 0.10 0.10 0.08 0.08 0.08 0.08 0.11 0.17 0.19 0.16
0.00 0.01 0.00 0.00 0.00 0.00 0.00 0.00 0.00 0.00 0.00 0.01 0.01 0.01 0.01 0.01 0.01 0.01 0.01 0.02 0.02 0.06 0.17 0.19 0.13 0.10 0.04 0.05 0.10 0.08 0.06 0.12 0.17 0.16 0.14 0.11 0.15 0.17 0.21 0.26 0.20 0.21 0.25
0.01 0.00 0.00 0.00 0.00 0.00 0.00 0.00 0.00 0.00 0.01 0.01 0.01 0.01 0.02 0.01 0.01 0.03 0.04 0.03 0.06 0.12 0.11 0.16 0.16 0.10 0.09 0.12 0.12 0.09 0.12 0.15 0.13 0.16 0.13 0.12 0.13 0.17 0.24 0.31 0.34 0.36 0.41
0.00 0.00 0.00 0.00 0.00 0.00 0.00 0.00 0.00 0.00 0.00 0.01 0.01 0.02 0.04 0.04 0.03 0.07 0.10 0.13 0.17 0.13 0.15 0.18 0.14 0.13 0.11 0.10 0.06 0.05 0.06 0.06 0.08 0.09 0.11 0.11 0.11 0.12 0.14 0.19 0.22 0.18 0.25
0.00 0.00 0.00 0.01 0.01 0.01 0.00 0.00 0.00 0.00 0.00 0.00 0.00 0.00 0.01 0.02 0.03 0.04 0.07 0.09 0.12 0.11 0.21 0.17 0.16 0.15 0.12 0.11 0.09 0.06 0.04 0.07 0.06 0.08 0.09 0.09 0.10 0.11 0.10 0.08 0.08 0.10 0.15
0.00 0.00 0.01 0.02 0.02 0.02 0.01 0.01 0.02 0.01 0.00 0.00 0.00 0.01 0.02 0.05 0.08 0.10 0.09 0.09 0.11 0.15 0.20 0.13 0.14 0.13 0.08 0.04 0.05 0.05 0.07 0.08 0.06 0.07 0.09 0.09 0.09 0.07 0.07 0.07 0.06 0.07 0.09
0.00 0.01 0.01 0.02 0.02 0.02 0.02 0.03 0.05 0.06 0.06 0.06 0.03 0.03 0.04 0.04 0.05 0.06 0.07 0.15 0.18 0.14 0.13 0.11 0.10 0.07 0.04 0.04 0.02 0.03 0.04 0.05 0.03 0.05 0.07 0.07 0.07 0.07 0.06 0.05 0.04 0.05 0.07
0.00 0.01 0.01 0.02 0.02 0.02 0.03 0.05 0.07 0.09 0.10 0.07 0.04 0.02 0.00 0.01 0.02 0.04 0.06 0.18 0.14 0.10 0.08 0.08 0.06 0.05 0.04 0.04 0.03 0.03 0.05 0.05 0.03 0.03 0.05 0.06 0.07 0.07 0.05 0.04 0.03 0.02 0.02
0.01 0.02 0.03 0.04 0.04 0.04 0.05 0.07 0.08 0.09 0.09 0.08 0.06 0.03 0.02 0.06 0.09 0.05 0.06 0.09 0.10 0.06 0.05 0.05 0.04 0.04 0.04 0.04 0.04 0.02 0.02 0.02 0.02 0.02 0.03 0.05 0.06 0.06 0.08 0.05 0.03 0.03 0.01
0.03 0.03 0.04 0.06 0.06 0.07 0.08 0.08 0.09 0.11 0.11 0.09 0.08 0.06 0.09 0.18 0.15 0.09 0.06 0.05 0.05 0.05 0.06 0.05 0.04 0.04 0.04 0.04 0.03 0.01 0.01 0.02 0.02 0.02 0.02 0.03 0.04 0.04 0.04 0.05 0.03 0.02 0.01
0.04 0.05 0.06 0.08 0.08 0.09 0.08 0.08 0.12 0.15 0.14 0.13 0.08 0.04 0.07 0.13 0.09 0.08 0.09 0.11 0.12 0.11 0.10 0.08 0.06 0.04 0.05 0.04 0.03 0.03 0.01 0.01 0.01 0.02 0.02 0.02 0.02 0.02 0.03 0.03 0.02 0.02 0.01
0.05 0.06 0.07 0.08 0.09 0.10 0.12 0.13 0.14 0.12 0.11 0.10 0.13 0.16 0.13 0.15 0.16 0.16 0.15 0.13 0.14 0.13 0.08 0.08 0.09 0.07 0.05 0.04 0.04 0.03 0.02 0.01 0.01 0.01 0.01 0.02 0.01 0.01 0.02 0.02 0.01 0.01 0.01
0.06 0.10 0.11 0.12 0.12 0.12 0.12 0.12 0.12 0.13 0.17 0.21 0.19 0.17 0.16 0.16 0.18 0.18 0.15 0.11 0.10 0.08 0.10 0.14 0.12 0.08 0.08 0.07 0.07 0.05 0.02 0.01 0.01 0.00 0.00 0.01 0.01 0.00 0.00 0.00 0.01 0.01 0.01
0.09 0.11 0.14 0.15 0.17 0.17 0.16 0.19 0.25 0.25 0.22 0.21 0.20 0.18 0.16 0.14 0.13 0.12 0.12 0.14 0.12 0.11 0.10 0.10 0.13 0.14 0.13 0.15 0.12 0.07 0.04 0.05 0.06 0.04 0.05 0.02 0.01 0.00 0.00 0.00 0.00 0.00 0.00
0.09 0.14 0.17 0.18 0.22 0.26 0.29 0.26 0.21 0.19 0.18 0.17 0.17 0.16 0.16 0.14 0.13 0.14 0.13 0.15 0.16 0.14 0.12 0.13 0.12 0.11 0.10 0.10 0.11 0.11 0.07 0.06 0.10 0.08 0.07 0.06 0.03 0.02 0.00 0.00 0.00 0.00 0.00

GFSGL_prec_precacc_048.txt.gz
Total_Precipitation_Accumulation
0.03 0.09 0.08 0.10 0.10 0.09 0.09 0.06 0.03 0.01 0.01 0.02 0.03 0.02 0.02 0.03 0.08 0.10 0.08 0.06 0.05 0.04 0.03 0.04 0.03 0.02 0.02 0.01 0.01 0.00 0.00 0.01 0.01 0.00 0.00 0.00 0.00 0.00 0.00 0.00 0.00 0.02 0.04
0.09 0.11 0.14 0.12 0.09 0.06 0.04 0.03 0.03 0.02 0.02 0.04 0.04 0.03 0.05 0.07 0.07 0.07 0.04 0.02 0.01 0.01 0.01 0.01 0.01 0.00 0.00 0.00 0.00 0.00 0.00 0.00 0.00 0.00 0.00 0.00 0.00 0.00 0.00 0.00 0.00 0.00 0.00
0.13 0.12 0.11 0.08 0.06 0.03 0.03 0.03 0.02 0.02 0.02 0.02 0.03 0.05 0.04 0.03 0.02 0.01 0.00 0.00 0.00 0.00 0.00 0.00 0.00 0.00 0.00 0.00 0.00 0.00 0.00 0.01 0.01 0.03 0.01 0.00 0.00 0.00 0.00 0.01 0.01 0.01 0.00
0.12 0.11 0.08 0.06 0.04 0.03 0.02 0.02 0.02 0.03 0.02 0.01 0.01 0.01 0.02 0.01 0.00 0.00 0.00 0.00 0.00 0.00 0.00 0.00 0.00 0.00 0.00 0.00 0.01 0.01 0.01 0.01 0.01 0.02 0.02 0.02 0.02 0.02 0.03 0.03 0.03 0.02 0.01
0.09 0.08 0.06 0.03 0.02 0.02 0.02 0.03 0.06 0.02 0.01 0.00 0.02 0.04 0.02 0.00 0.00 0.00 0.00 0.00 0.00 0.00 0.00 0.00 0.00 0.00 0.00 0.01 0.01 0.01 0.02 0.04 0.05 0.06 0.05 0.05 0.03 0.02 0.04 0.04 0.06 0.03 0.02
0.06 0.05 0.03 0.02 0.03 0.03 0.04 0.05 0.01 0.01 0.02 0.06 0.07 0.03 0.01 0.00 0.00 0.00 0.00 0.00 0.00 0.00 0.00 0.00 0.00 0.00 0.00 0.00 0.01 0.01 0.03 0.09 0.15 0.11 0.09 0.07 0.05 0.06 0.08 0.10 0.11 0.10 0.06
0.02 0.02 0.02 0.02 0.02 0.02 0.02 0.03 0.05 0.11 0.12 0.07 0.02 0.00 0.00 0.00 0.00 0.00 0.00 0.00 0.00 0.00 0.00 0.00 0.00 0.00 0.00 0.00 0.01 0.01 0.02 0.03 0.10 0.15 0.17 0.11 0.10 0.08 0.08 0.09 0.09 0.12 0.11
0.00 0.01 0.03 0.02 0.01 0.03 0.09 0.14 0.16 0.12 0.06 0.01 0.00 0.00 0.00 0.00 0.00 0.00 0.00 0.00 0.00 0.00 0.00 0.00 0.00 0.00 0.00 0.02 0.09 0.08 0.03 0.02 0.02 0.05 0.10 0.09 0.08 0.08 0.10 0.12 0.16 0.15 0.08
0.00 0.01 0.01 0.02 0.04 0.12 0.20 0.22 0.12 0.03 0.00 0.00 0.00 0.00 0.01 0.00 0.00 0.00 0.00 0.00 0.01 0.01 0.00 0.00 0.01 0.01 0.02 0.08 0.14 0.12 0.05 0.03 0.02 0.02 0.05 0.07 0.08 0.08 0.10 0.21 0.22 0.25 0.21
0.01 0.01 0.02 0.13 0.26 0.28 0.19 0.04 0.00 0.00 0.00 0.00 0.00 0.00 0.00 0.01 0.01 0.00 0.01 0.02 0.02 0.02 0.02 0.01 0.01 0.04 0.11 0.15 0.24 0.20 0.17 0.06 0.03 0.04 0.03 0.04 0.04 0.05 0.04 0.11 0.18 0.28 0.23
0.06 0.13 0.22 0.22 0.10 0.03 0.00 0.00 0.00 0.00 0.00 0.00 0.01 0.01 0.01 0.01 0.01 0.00 0.01 0.02 0.05 0.07 0.04 0.03 0.05 0.23 0.19 0.13 0.10 0.13 0.16 0.09 0.05 0.05 0.04 0.03 0.04 0.05 0.07 0.10 0.14 0.22 0.24
0.05 0.04 0.02 0.01 0.00 0.00 0.00 0.00 0.00 0.00 0.00 0.00 0.01 0.01 0.01 0.01 0.00 0.00 0.00 0.02 0.04 0.11 0.08 0.14 0.25 0.14 0.08 0.05 0.07 0.12 0.07 0.04 0.06 0.10 0.10 0.08 0.08 0.08 0.08 0.11 0.17 0.19 0.16
0.00 0.01 0.00 0.00 0.00 0.00 0.00 0.00 0.00 0.00 0.00 0.01 0.01 0.01 0.01 0.01 0.01 0.01 0.01 0.02 0.02 0.06 0.17 0.19 0.13 0.10 0.06 0.07 0.12 0.08 0.06 0.12 0.17 0.16 0.14 0.11 0.15 0.17 0.21 0.26 0.20 0.21 0.25
0.01 0.00 0.00 0.00 0.00 0.00 0.00 0.00 0.00 0.00 0.01 0.01 0.01 0.01 0.02 0.01 0.01 0.03 0.04 0.03 0.06 0.12 0.11 0.16 0.17 0.11 0.13 0.16 0.15 0.12 0.13 0.15 0.13 0.16 0.13 0.12 0.13 0.17 0.24 0.31 0.34 0.36 0.41
0.00 0.00 0.00 0.00 0.00 0.00 0.00 0.00 0.00 0.00 0.00 0.01 0.01 0.02 0.04 0.04 0.03 0.07 0.10 0.13 0.18 0.14 0.16 0.19 0.15 0.14 0.13 0.12 0.08 0.08 0.09 0.07 0.08 0.09 0.11 0.11 0.11 0.12 0.14 0.19 0.22 0.18 0.25
0.00 0.00 0.00 0.01 0.01 0.01 0.00 0.00 0.00 0.00 0.00 0.00 0.00 0.00 0.01 0.02 0.03 0.05 0.07 0.13 0.16 0.16 0.28 0.20 0.16 0.16 0.14 0.13 0.11 0.07 0.06 0.08 0.06 0.08 0.09 0.09 0.10 0.11 0.10 0.08 0.08 0.10 0.15
0.00 0.00 0.01 0.02 0.02 0.02 0.01 0.01 0.02 0.01 0.00 0.00 0.00 0.01 0.03 0.05 0.09 0.11 0.12 0.15 0.18 0.24 0.31 0.17 0.15 0.13 0.09 0.06 0.08 0.09 0.10 0.09 0.06 0.07 0.09 0.09 0.09 0.07 0.07 0.07 0.06 0.07 0.09
0.00 0.01 0.01 0.02 0.02 0.02 0.02 0.03 0.05 0.06 0.06 0.06 0.03 0.03 0.04 0.04 0.05 0.06 0.09 0.18 0.22 0.18 0.17 0.14 0.12 0.07 0.04 0.05 0.05 0.06 0.06 0.06 0.03 0.05 0.07 0.07 0.07 0.07 0.06 0.05 0.04 0.05 0.07
0.00 0.01 0.01 0.02 0.02 0.02 0.03 0.05 0.07 0.09 0.10 0.07 0.04 0.02 0.00 0.01 0.02 0.04 0.07 0.23 0.18 0.11 0.08 0.08 0.06 0.06 0.06 0.06 0.07 0.07 0.08 0.07 0.03 0.03 0.05 0.06 0.07 0.07 0.05 0.04 0.03 0.02 0.02
0.01 0.02 0.03 0.04 0.04 0.04 0.05 0.07 0.08 0.09 0.09 0.08 0.06 0.03 0.03 0.08 0.11 0.09 0.12 0.15 0.12 0.07 0.05 0.05 0.05 0.05 0.07 0.07 0.06 0.06 0.05 0.03 0.03 0.02 0.03 0.05 0.06 0.06 0.08 0.05 0.03 0.03 0.01
0.03 0.03 0.04 0.06 0.06 0.07 0.08 0.09 0.09 0.11 0.11 0.09 0.08 0.07 0.10 0.20 0.19 0.14 0.10 0.08 0.08 0.07 0.08 0.10 0.11 0.14 0.11 0.06 0.06 0.06 0.03 0.02 0.02 0.02 0.02 0.03 0.04 0.04 0.04 0.05 0.03 0.02 0.01
0.04 0.05 0.06 0.08 0.08 0.09 0.08 0.08 0.12 0.15 0.14 0.13 0.08 0.04 0.07 0.14 0.11 0.10 0.12 0.14 0.15 0.17 0.20 0.21 0.14 0.09 0.08 0.09 0.09 0.08 0.04 0.02 0.02 0.02 0.02 0.02 0.02 0.02 0.03 0.03 0.02 0.02 0.01
0.05 0.06 0.07 0.08 0.09 0.10 0.12 0.14 0.14 0.12 0.11 0.10 0.13 0.16 0.13 0.16 0.17 0.18 0.17 0.16 0.16 0.15 0.10 0.10 0.11 0.09 0.07 0.09 0.11 0.09 0.06 0.03 0.02 0.01 0.01 0.02 0.01 0.01 0.02 0.02 0.01 0.01 0.01
0.06 0.10 0.11 0.12 0.12 0.12 0.12 0.12 0.12 0.13 0.17 0.21 0.19 0.17 0.16 0.16 0.19 0.19 0.16 0.13 0.12 0.11 0.12 0.16 0.13 0.09 0.09 0.10 0.12 0.12 0.08 0.04 0.07 0.04 0.01 0.01 0.01 0.00 0.01 0.01 0.01 0.01 0.01
0.09 0.11 0.14 0.15 0.17 0.17 0.16 0.19 0.25 0.25 0.22 0.21 0.21 0.18 0.16 0.15 0.13 0.12 0.13 0.15 0.14 0.13 0.12 0.11 0.14 0.15 0.14 0.16 0.16 0.13 0.11 0.11 0.13 0.10 0.12 0.05 0.01 0.01 0.00 0.00 0.00 0.00 0.00
0.09 0.14 0.17 0.18 0.22 0.26 0.29 0.26 0.21 0.19 0.19 0.17 0.17 0.16 0.16 0.14 0.14 0.14 0.14 0.15 0.16 0.15 0.13 0.14 0.13 0.11 0.11 0.12 0.15 0.17 0.14 0.13 0.17 0.13 0.13 0.11 0.07 0.04 0.01 0.00 0.00 0.00 0.00

GFSGL_prec_precacc_051.txt.gz
Total_Precipitation_Accumulation
0.06 0.15 0.15 0.16 0.19 0.20 0.20 0.15 0.09 0.05 0.03 0.03 0.04 0.04 0.06 0.09 0.11 0.10 0.09 0.07 0.05 0.04 0.03 0.04 0.03 0.02 0.02 0.01 0.01 0.00 0.00 0.01 0.01 0.00 0.00 0.00 0.00 0.00 0.00 0.00 0.00 0.02 0.04
0.16 0.20 0.24 0.25 0.22 0.17 0.12 0.08 0.06 0.04 0.04 0.04 0.05 0.05 0.06 0.07 0.08 0.08 0.05 0.02 0.01 0.01 0.01 0.01 0.01 0.00 0.00 0.00 0.00 0.00 0.00 0.00 0.00 0.00 0.00 0.00 0.00 0.00 0.00 0.00 0.00 0.00 0.00
0.15 0.19 0.23 0.17 0.14 0.11 0.07 0.04 0.03 0.02 0.02 0.02 0.03 0.06 0.07 0.05 0.04 0.02 0.00 0.00 0.00 0.00 0.00 0.00 0.00 0.00 0.00 0.00 0.00 0.00 0.00 0.01 0.01 0.03 0.01 0.00 0.00 0.00 0.00 0.01 0.01 0.01 0.00
0.15 0.15 0.14 0.15 0.11 0.06 0.03 0.02 0.02 0.03 0.03 0.02 0.02 0.02 0.03 0.02 0.00 0.00 0.00 0.00 0.00 0.00 0.00 0.00 0.00 0.00 0.00 0.00 0.01 0.01 0.01 0.01 0.01 0.02 0.02 0.02 0.02 0.02 0.03 0.03 0.03 0.02 0.01
0.11 0.10 0.08 0.05 0.03 0.03 0.02 0.03 0.06 0.03 0.01 0.01 0.02 0.05 0.03 0.01 0.00 0.00 0.00 0.00 0.00 0.00 0.00 0.00 0.00 0.00 0.00 0.01 0.01 0.01 0.02 0.04 0.05 0.06 0.05 0.05 0.03 0.02 0.04 0.04 0.06 0.03 0.02
0.06 0.05 0.03 0.02 0.03 0.03 0.04 0.05 0.01 0.01 0.03 0.08 0.09 0.05 0.03 0.01 0.00 0.00 0.00 0.00 0.00 0.00 0.00 0.00 0.00 0.00 0.00 0.00 0.01 0.01 0.03 0.09 0.15 0.11 0.09 0.07 0.05 0.06 0.08 0.10 0.11 0.10 0.06
0.02 0.02 0.02 0.02 0.02 0.02 0.02 0.03 0.05 0.13 0.15 0.13 0.12 0.08 0.03 0.01 0.00 0.00 0.00 0.00 0.00 0.00 0.00 0.00 0.00 0.00 0.00 0.00 0.01 0.01 0.02 0.03 0.10 0.15 0.17 0.11 0.10 0.08 0.08 0.09 0.09 0.12 0.11
0.00 0.01 0.03 0.02 0.01 0.03 0.09 0.15 0.19 0.18 0.16 0.10 0.03 0.00 0.00 0.00 0.00 0.00 0.00 0.00 0.00 0.00 0.00 0.00 0.00 0.00 0.00 0.02 0.09 0.08 0.03 0.02 0.02 0.05 0.10 0.09 0.08 0.08 0.10 0.12 0.16 0.15 0.08
0.00 0.01 0.01 0.02 0.05 0.13 0.23 0.26 0.17 0.07 0.01 0.00 0.00 0.00 0.01 0.00 0.00 0.00 0.00 0.00 0.01 0.01 0.00 0.00 0.01 0.01 0.02 0.08 0.14 0.12 0.05 0.03 0.02 0.02 0.05 0.07 0.08 0.08 0.10 0.21 0.22 0.25 0.21
0.01 0.01 0.02 0.13 0.27 0.29 0.20 0.04 0.00 0.00 0.00 0.00 0.00 0.00 0.00 0.01 0.01 0.00 0.01 0.02 0.02 0.02 0.02 0.01 0.01 0.04 0.11 0.15 0.24 0.21 0.18 0.06 0.03 0.04 0.03 0.04 0.04 0.05 0.04 0.11 0.18 0.28 0.23
0.06 0.13 0.22 0.22 0.10 0.03 0.00 0.00 0.00 0.00 0.00 0.00 0.01 0.01 0.01 0.01 0.01 0.00 0.01 0.02 0.05 0.07 0.04 0.03 0.05 0.23 0.19 0.13 0.11 0.14 0.17 0.09 0.05 0.05 0.04 0.03 0.04 0.05 0.07 0.10 0.14 0.22 0.24
0.05 0.04 0.02 0.01 0.00 0.00 0.00 0.00 0.00 0.00 0.00 0.00 0.01 0.01 0.01 0.01 0.00 0.00 0.00 0.02 0.04 0.11 0.08 0.14 0.25 0.14 0.08 0.05 0.09 0.14 0.08 0.05 0.06 0.10 0.10 0.08 0.08 0.08 0.08 0.11 0.17 0.19 0.16
0.00 0.01 0.00 0.00 0.00 0.00 0.00 0.00 0.00 0.00 0.00 0.01 0.01 0.01 0.01 0.01 0.01 0.01 0.01 0.02 0.02 0.06 0.17 0.19 0.13 0.10 0.06 0.07 0.13 0.10 0.09 0.17 0.19 0.16 0.14 0.11 0.15 0.17 0.21 0.26 0.20 0.21 0.25
0.01 0.00 0.00 0.00 0.00 0.00 0.00 0.00 0.00 0.00 0.01 0.01 0.01 0.01 0.02 0.01 0.01 0.03 0.04 0.04 0.06 0.12 0.12 0.17 0.19 0.14 0.15 0.17 0.16 0.14 0.18 0.18 0.15 0.17 0.14 0.12 0.13 0.17 0.24 0.31 0.34 0.36 0.41
0.00 0.00 0.00 0.00 0.00 0.00 0.00 0.00 0.00 0.00 0.00 0.01 0.01 0.02 0.04 0.05 0.03 0.07 0.10 0.14 0.20 0.16 0.20 0.25 0.18 0.16 0.15 0.13 0.09 0.09 0.11 0.12 0.13 0.11 0.12 0.11 0.11 0.12 0.14 0.19 0.22 0.18 0.25
0.00 0.00 0.00 0.01 0.01 0.01 0.00 0.00 0.00 0.00 0.00 0.00 0.00 0.00 0.01 0.02 0.03 0.05 0.08 0.13 0.18 0.19 0.36 0.27 0.20 0.20 0.17 0.14 0.12 0.09 0.08 0.11 0.08 0.09 0.10 0.10 0.10 0.11 0.10 0.08 0.08 0.10 0.15
0.00 0.00 0.01 0.02 0.02 0.02 0.01 0.01 0.02 0.01 0.00 0.00 0.00 0.01 0.03 0.05 0.09 0.11 0.12 0.15 0.18 0.25 0.38 0.25 0.22 0.19 0.12 0.09 0.08 0.09 0.11 0.12 0.11 0.13 0.12 0.10 0.09 0.07 0.07 0.07 0.06 0.07 0.09
0.00 0.01 0.01 0.02 0.02 0.02 0.02 0.03 0.05 0.06 0.06 0.06 0.03 0.03 0.04 0.04 0.05 0.06 0.09 0.19 0.23 0.19 0.19 0.18 0.16 0.10 0.05 0.05 0.05 0.06 0.07 0.09 0.08 0.08 0.08 0.08 0.07 0.07 0.06 0.05 0.04 0.05 0.07
0.00 0.01 0.01 0.02 0.02 0.02 0.03 0.05 0.07 0.09 0.10 0.07 0.04 0.02 0.00 0.01 0.02 0.04 0.07 0.25 0.23 0.17 0.14 0.11 0.08 0.07 0.06 0.07 0.08 0.09 0.11 0.10 0.07 0.07 0.06 0.07 0.07 0.07 0.05 0.04 0.03 0.02 0.02
0.01 0.02 0.03 0.04 0.04 0.04 0.05 0.07 0.08 0.09 0.09 0.08 0.06 0.03 0.03 0.08 0.11 0.09 0.12 0.16 0.15 0.10 0.07 0.07 0.06 0.06 0.09 0.12 0.12 0.12 0.10 0.06 0.05 0.04 0.04 0.05 0.07 0.06 0.08 0.05 0.03 0.03 0.01
0.03 0.03 0.04 0.06 0.06 0.07 0.08 0.09 0.09 0.11 0.11 0.09 0.08 0.07 0.10 0.20 0.19 0.14 0.10 0.09 0.10 0.10 0.10 0.11 0.12 0.16 0.17 0.15 0.13 0.10 0.06 0.05 0.04 0.04 0.04 0.04 0.04 0.04 0.04 0.05 0.03 0.02 0.01
0.04 0.05 0.06 0.08 0.08 0.09 0.08 0.08 0.12 0.15 0.14 0.13 0.08 0.04 0.07 0.14 0.12 0.11 0.12 0.14 0.16 0.19 0.23 0.24 0.19 0.16 0.15 0.14 0.13 0.12 0.08 0.05 0.04 0.04 0.04 0.02 0.02 0.02 0.03 0.03 0.02 0.02 0.01
0.05 0.06 0.07 0.08 0.09 0.10 0.12 0.14 0.14 0.12 0.11 0.10 0.13 0.16 0.13 0.16 0.17 0.18 0.17 0.16 0.17 0.16 0.11 0.12 0.13 0.10 0.09 0.11 0.14 0.14 0.11 0.06 0.05 0.06 0.05 0.03 0.02 0.01 0.02 0.02 0.01 0.01 0.01
0.06 0.10 0.11 0.12 0.12 0.12 0.12 0.12 0.12 0.13 0.17 0.21 0.19 0.17 0.16 0.16 0.19 0.19 0.16 0.13 0.12 0.11 0.13 0.17 0.14 0.11 0.11 0.11 0.13 0.14 0.12 0.09 0.13 0.10 0.06 0.04 0.01 0.00 0.01 0.01 0.01 0.01 0.01
0.09 0.11 0.14 0.15 0.17 0.17 0.16 0.19 0.25 0.25 0.22 0.21 0.21 0.18 0.16 0.15 0.13 0.12 0.13 0.15 0.14 0.13 0.12 0.12 0.15 0.16 0.14 0.16 0.16 0.14 0.13 0.17 0.19 0.16 0.19 0.08 0.02 0.01 0.00 0.00 0.00 0.00 0.00
0.09 0.14 0.17 0.18 0.22 0.26 0.29 0.26 0.21 0.19 0.19 0.17 0.17 0.16 0.16 0.14 0.14 0.14 0.14 0.15 0.16 0.15 0.13 0.14 0.14 0.13 0.12 0.13 0.15 0.18 0.16 0.18 0.25 0.20 0.19 0.16 0.11 0.05 0.02 0.01 0.01 0.01 0.00

GFSGL_prec_precacc_054.txt.gz
Total_Precipitation_Accumulation
0.06 0.15 0.16 0.19 0.23 0.24 0.25 0.21 0.15 0.09 0.06 0.06 0.05 0.05 0.07 0.11 0.16 0.15 0.10 0.09 0.07 0.04 0.03 0.04 0.03 0.02 0.02 0.01 0.01 0.00 0.00 0.01 0.01 0.00 0.00 0.00 0.00 0.00 0.00 0.00 0.00 0.02 0.04
0.16 0.20 0.25 0.27 0.27 0.22 0.17 0.13 0.09 0.06 0.04 0.05 0.06 0.06 0.08 0.10 0.10 0.11 0.09 0.04 0.01 0.01 0.01 0.01 0.01 0.00 0.00 0.00 0.00 0.00 0.00 0.00 0.00 0.00 0.00 0.00 0.00 0.00 0.00 0.00 0.00 0.00 0.00
0.15 0.19 0.23 0.19 0.18 0.16 0.11 0.07 0.04 0.02 0.02 0.03 0.04 0.07 0.08 0.08 0.11 0.09 0.04 0.01 0.00 0.00 0.00 0.00 0.00 0.00 0.00 0.00 0.00 0.00 0.00 0.01 0.01 0.03 0.01 0.00 0.00 0.00 0.00 0.01 0.01 0.01 0.00
0.15 0.15 0.15 0.16 0.13 0.08 0.04 0.03 0.03 0.04 0.03 0.02 0.03 0.03 0.04 0.06 0.05 0.03 0.01 0.00 0.00 0.00 0.00 0.00 0.00 0.00 0.00 0.00 0.01 0.01 0.01 0.01 0.01 0.02 0.02 0.02 0.02 0.02 0.03 0.03 0.03 0.02 0.01
0.14 0.11 0.09 0.05 0.03 0.03 0.02 0.03 0.06 0.03 0.02 0.01 0.03 0.07 0.06 0.03 0.02 0.00 0.00 0.00 0.00 0.00 0.00 0.00 0.00 0.00 0.00 0.01 0.01 0.01 0.02 0.04 0.05 0.06 0.05 0.05 0.03 0.02 0.04 0.04 0.06 0.03 0.02
0.06 0.05 0.03 0.02 0.03 0.03 0.04 0.05 0.02 0.01 0.03 0.08 0.10 0.07 0.06 0.03 0.02 0.00 0.00 0.00 0.00 0.00 0.00 0.00 0.00 0.00 0.00 0.00 0.01 0.01 0.03 0.10 0.16 0.11 0.09 0.07 0.05 0.06 0.08 0.10 0.11 0.10 0.06
0.02 0.02 0.02 0.02 0.02 0.02 0.02 0.03 0.06 0.13 0.16 0.15 0.15 0.10 0.04 0.01 0.00 0.00 0.00 0.00 0.00 0.00 0.00 0.00 0.00 0.00 0.00 0.00 0.01 0.01 0.02 0.03 0.10 0.16 0.18 0.12 0.10 0.08 0.08 0.09 0.09 0.12 0.11
0.00 0.01 0.03 0.02 0.01 0.03 0.09 0.16 0.22 0.19 0.17 0.11 0.03 0.01 0.01 0.00 0.00 0.00 0.00 0.00 0.00 0.00 0.00 0.00 0.00 0.00 0.00 0.02 0.09 0.08 0.04 0.02 0.02 0.05 0.10 0.09 0.08 0.08 0.10 0.12 0.16 0.15 0.08
0.00 0.01 0.01 0.02 0.05 0.13 0.23 0.26 0.17 0.07 0.01 0.00 0.00 0.00 0.01 0.00 0.00 0.00 0.00 0.00 0.01 0.01 0.00 0.00 0.01 0.01 0.02 0.08 0.14 0.12 0.06 0.04 0.02 0.02 0.05 0.07 0.08 0.08 0.10 0.21 0.22 0.25 0.21
0.01 0.01 0.02 0.13 0.27 0.29 0.20 0.04 0.00 0.00 0.00 0.00 0.00 0.00 0.00 0.01 0.01 0.00 0.01 0.02 0.02 0.02 0.02 0.01 0.01 0.04 0.11 0.15 0.25 0.21 0.18 0.06 0.05 0.04 0.03 0.04 0.04 0.05 0.04 0.11 0.18 0.28 0.23
0.06 0.13 0.22 0.22 0.10 0.03 0.00 0.00 0.00 0.00 0.00 0.00 0.01 0.01 0.01 0.01 0.01 0.00 0.01 0.02 0.05 0.07 0.04 0.03 0.05 0.23 0.19 0.14 0.12 0.15 0.17 0.10 0.07 0.06 0.05 0.03 0.04 0.05 0.07 0.10 0.14 0.22 0.24
0.05 0.04 0.02 0.01 0.00 0.00 0.00 0.00 0.00 0.00 0.00 0.00 0.01 0.01 0.01 0.01 0.00 0.00 0.00 0.02 0.04 0.11 0.09 0.14 0.26 0.14 0.08 0.06 0.09 0.14 0.09 0.07 0.12 0.15 0.12 0.09 0.08 0.08 0.08 0.11 0.17 0.19 0.16
0.00 0.01 0.00 0.00 0.00 0.00 0.00 0.00 0.00 0.00 0.00 0.01 0.01 0.01 0.01 0.01 0.01 0.01 0.01 0.02 0.02 0.07 0.17 0.19 0.14 0.11 0.08 0.10 0.16 0.13 0.11 0.19 0.23 0.20 0.16 0.12 0.15 0.17 0.21 0.26 0.20 0.21 0.25
0.01 0.00 0.00 0.00 0.00 0.00 0.00 0.00 0.00 0.00 0.01 0.01 0.01 0.01 0.02 0.01 0.01 0.03 0.04 0.04 0.06 0.13 0.13 0.18 0.19 0.15 0.17 0.21 0.20 0.18 0.24 0.23 0.18 0.20 0.15 0.13 0.15 0.18 0.24 0.31 0.35 0.36 0.42
0.00 0.00 0.00 0.00 0.00 0.00 0.00 0.00 0.00 0.00 0.00 0.01 0.01 0.02 0.04 0.05 0.03 0.08 0.11 0.14 0.21 0.17 0.21 0.26 0.20 0.17 0.16 0.15 0.11 0.11 0.14 0.13 0.14 0.13 0.15 0.15 0.14 0.13 0.15 0.20 0.22 0.18 0.26
0.00 0.00 0.00 0.01 0.01 0.01 0.00 0.00 0.00 0.00 0.00 0.00 0.00 0.00 0.01 0.03 0.03 0.05 0.08 0.13 0.18 0.19 0.37 0.29 0.24 0.24 0.23 0.20 0.19 0.15 0.12 0.12 0.09 0.11 0.13 0.12 0.12 0.12 0.11 0.09 0.09 0.10 0.15
0.00 0.00 0.01 0.02 0.02 0.02 0.01 0.01 0.02 0.01 0.00 0.00 0.00 0.01 0.03 0.05 0.09 0.11 0.12 0.15 0.18 0.25 0.39 0.28 0.26 0.24 0.19 0.15 0.15 0.15 0.15 0.12 0.11 0.15 0.15 0.13 0.12 0.10 0.09 0.07 0.07 0.07 0.09
0.00 0.01 0.01 0.02 0.02 0.02 0.02 0.03 0.05 0.06 0.06 0.06 0.03 0.03 0.04 0.04 0.05 0.06 0.09 0.19 0.23 0.19 0.20 0.20 0.20 0.15 0.10 0.10 0.10 0.09 0.08 0.09 0.09 0.09 0.11 0.11 0.10 0.10 0.08 0.05 0.04 0.05 0.07
0.00 0.01 0.01 0.02 0.02 0.02 0.03 0.05 0.07 0.09 0.10 0.07 0.04 0.02 0.00 0.01 0.02 0.04 0.07 0.25 0.23 0.17 0.14 0.12 0.09 0.08 0.08 0.08 0.10 0.11 0.13 0.13 0.11 0.11 0.09 0.10 0.11 0.10 0.07 0.05 0.03 0.02 0.02
0.01 0.02 0.03 0.04 0.04 0.04 0.05 0.07 0.08 0.09 0.09 0.08 0.06 0.03 0.03 0.08 0.11 0.09 0.13 0.16 0.15 0.11 0.07 0.08 0.07 0.08 0.11 0.14 0.16 0.17 0.16 0.12 0.09 0.08 0.06 0.08 0.10 0.09 0.09 0.05 0.03 0.03 0.01
0.03 0.03 0.04 0.06 0.06 0.07 0.08 0.09 0.09 0.11 0.11 0.09 0.08 0.07 0.10 0.20 0.19 0.15 0.10 0.09 0.10 0.10 0.11 0.12 0.13 0.17 0.18 0.17 0.16 0.15 0.12 0.10 0.08 0.07 0.07 0.08 0.09 0.06 0.05 0.06 0.03 0.02 0.01
0.04 0.05 0.06 0.08 0.08 0.09 0.08 0.08 0.12 0.15 0.14 0.13 0.08 0.04 0.07 0.14 0.12 0.11 0.12 0.14 0.16 0.19 0.23 0.25 0.20 0.16 0.17 0.18 0.17 0.16 0.12 0.09 0.08 0.09 0.10 0.08 0.07 0.05 0.04 0.03 0.03 0.02 0.01
0.05 0.06 0.07 0.08 0.09 0.10 0.12 0.14 0.14 0.12 0.11 0.10 0.13 0.16 0.13 0.16 0.17 0.18 0.17 0.16 0.17 0.16 0.11 0.13 0.13 0.11 0.10 0.13 0.16 0.17 0.13 0.08 0.08 0.11 0.11 0.10 0.07 0.04 0.03 0.02 0.02 0.02 0.01
0.06 0.10 0.11 0.12 0.12 0.12 0.12 0.12 0.12 0.13 0.17 0.21 0.19 0.17 0.16 0.16 0.19 0.19 0.16 0.13 0.13 0.11 0.13 0.17 0.15 0.11 0.11 0.12 0.15 0.16 0.14 0.10 0.14 0.13 0.12 0.10 0.07 0.03 0.02 0.01 0.02 0.01 0.01
0.09 0.11 0.14 0.15 0.17 0.17 0.16 0.19 0.25 0.25 0.22 0.21 0.21 0.18 0.16 0.15 0.14 0.12 0.13 0.15 0.14 0.14 0.12 0.12 0.15 0.16 0.15 0.17 0.17 0.16 0.14 0.18 0.21 0.18 0.24 0.14 0.07 0.05 0.02 0.01 0.01 0.01 0.01
0.09 0.14 0.17 0.18 0.22 0.26 0.29 0.26 0.21 0.19 0.19 0.17 0.17 0.17 0.16 0.15 0.14 0.14 0.14 0.16 0.17 0.15 0.13 0.14 0.14 0.13 0.13 0.13 0.16 0.19 0.17 0.19 0.26 0.24 0.25 0.22 0.15 0.10 0.05 0.03 0.03 0.02 0.01

GFSGL_prec_precacc_057.txt.gz
Total_Precipitation_Accumulation
0.06 0.15 0.20 0.25 0.24 0.25 0.27 0.23 0.15 0.09 0.07 0.07 0.07 0.09 0.11 0.14 0.19 0.18 0.14 0.12 0.11 0.06 0.03 0.04 0.03 0.02 0.02 0.01 0.01 0.00 0.00 0.01 0.01 0.00 0.00 0.00 0.00 0.00 0.00 0.00 0.00 0.02 0.04
0.16 0.21 0.27 0.29 0.29 0.24 0.18 0.13 0.09 0.06 0.05 0.06 0.08 0.07 0.09 0.12 0.13 0.13 0.10 0.07 0.04 0.02 0.01 0.01 0.01 0.00 0.00 0.00 0.00 0.00 0.00 0.00 0.00 0.00 0.00 0.00 0.00 0.00 0.00 0.00 0.00 0.00 0.00
0.15 0.20 0.26 0.21 0.19 0.16 0.12 0.07 0.04 0.03 0.04 0.04 0.05 0.08 0.09 0.08 0.12 0.11 0.06 0.04 0.01 0.00 0.00 0.00 0.00 0.00 0.00 0.00 0.00 0.00 0.00 0.01 0.01 0.03 0.01 0.00 0.00 0.00 0.00 0.01 0.01 0.01 0.00
0.15 0.15 0.15 0.17 0.14 0.08 0.04 0.03 0.03 0.04 0.03 0.02 0.03 0.04 0.06 0.08 0.07 0.05 0.03 0.01 0.00 0.00 0.00 0.00 0.00 0.00 0.00 0.00 0.01 0.01 0.01 0.01 0.01 0.02 0.02 0.02 0.02 0.02 0.03 0.03 0.03 0.02 0.01
0.15 0.13 0.11 0.07 0.04 0.03 0.03 0.03 0.06 0.03 0.02 0.01 0.03 0.07 0.06 0.04 0.04 0.02 0.01 0.00 0.00 0.00 0.00 0.00 0.00 0.00 0.00 0.01 0.01 0.01 0.02 0.04 0.05 0.07 0.06 0.05 0.04 0.03 0.04 0.04 0.06 0.03 0.02
0.12 0.07 0.04 0.02 0.03 0.03 0.04 0.05 0.02 0.01 0.03 0.08 0.10 0.08 0.06 0.03 0.02 0.00 0.00 0.00 0.00 0.00 0.00 0.00 0.00 0.00 0.00 0.00 0.01 0.01 0.03 0.10 0.16 0.13 0.11 0.09 0.06 0.07 0.08 0.10 0.11 0.10 0.06
0.02 0.02 0.02 0.02 0.02 0.02 0.02 0.03 0.06 0.13 0.16 0.15 0.15 0.10 0.04 0.01 0.01 0.00 0.00 0.00 0.00 0.00 0.00 0.00 0.00 0.00 0.00 0.00 0.01 0.01 0.02 0.03 0.10 0.17 0.20 0.14 0.13 0.09 0.09 0.09 0.09 0.12 0.11
0.00 0.01 0.03 0.02 0.01 0.03 0.09 0.16 0.22 0.19 0.17 0.11 0.03 0.01 0.01 0.00 0.00 0.00 0.00 0.00 0.00 0.00 0.00 0.00 0.00 0.00 0.00 0.02 0.09 0.09 0.05 0.03 0.03 0.05 0.11 0.09 0.09 0.09 0.11 0.12 0.16 0.15 0.08
0.00 0.01 0.01 0.02 0.05 0.13 0.23 0.26 0.17 0.07 0.01 0.00 0.00 0.00 0.01 0.00 0.00 0.00 0.00 0.00 0.01 0.01 0.00 0.00 0.01 0.01 0.02 0.08 0.14 0.13 0.07 0.05 0.05 0.06 0.07 0.08 0.08 0.08 0.10 0.21 0.22 0.25 0.21
0.01 0.01 0.02 0.13 0.27 0.29 0.20 0.04 0.00 0.00 0.00 0.00 0.00 0.00 0.00 0.01 0.01 0.00 0.01 0.02 0.02 0.02 0.02 0.01 0.01 0.04 0.11 0.15 0.25 0.23 0.21 0.08 0.08 0.09 0.07 0.06 0.05 0.05 0.04 0.11 0.18 0.28 0.23
0.06 0.13 0.22 0.22 0.10 0.03 0.00 0.00 0.00 0.00 0.00 0.00 0.01 0.01 0.01 0.01 0.01 0.00 0.01 0.02 0.05 0.07 0.04 0.03 0.05 0.23 0.19 0.14 0.13 0.17 0.19 0.12 0.12 0.11 0.09 0.07 0.05 0.05 0.07 0.10 0.14 0.22 0.24
0.05 0.04 0.02 0.01 0.00 0.00 0.00 0.00 0.00 0.00 0.00 0.00 0.01 0.01 0.01 0.01 0.00 0.00 0.00 0.02 0.04 0.11 0.09 0.14 0.26 0.14 0.08 0.06 0.10 0.14 0.09 0.08 0.16 0.21 0.18 0.13 0.11 0.09 0.09 0.11 0.17 0.19 0.16
0.00 0.01 0.00 0.00 0.00 0.00 0.00 0.00 0.00 0.00 0.00 0.01 0.01 0.01 0.01 0.01 0.01 0.01 0.01 0.02 0.02 0.07 0.17 0.19 0.14 0.11 0.08 0.10 0.16 0.14 0.15 0.26 0.30 0.27 0.21 0.14 0.16 0.17 0.21 0.26 0.20 0.21 0.25
0.01 0.00 0.00 0.00 0.00 0.00 0.00 0.00 0.00 0.00 0.01 0.01 0.01 0.01 0.02 0.01 0.01 0.03 0.04 0.04 0.06 0.13 0.13 0.18 0.19 0.15 0.17 0.22 0.21 0.19 0.25 0.27 0.25 0.27 0.21 0.16 0.16 0.22 0.26 0.31 0.35 0.36 0.42
0.00 0.00 0.00 0.00 0.00 0.00 0.00 0.00 0.00 0.00 0.00 0.01 0.01 0.02 0.04 0.05 0.03 0.08 0.11 0.14 0.21 0.17 0.21 0.27 0.21 0.19 0.18 0.18 0.15 0.15 0.16 0.16 0.18 0.16 0.18 0.17 0.17 0.16 0.16 0.20 0.23 0.19 0.26
0.00 0.00 0.00 0.01 0.01 0.01 0.00 0.00 0.00 0.00 0.00 0.00 0.00 0.00 0.01 0.03 0.03 0.05 0.08 0.13 0.18 0.19 0.37 0.30 0.25 0.27 0.25 0.23 0.23 0.20 0.17 0.18 0.16 0.18 0.16 0.14 0.15 0.15 0.12 0.10 0.10 0.11 0.15
0.00 0.00 0.01 0.02 0.02 0.02 0.01 0.01 0.02 0.01 0.00 0.00 0.00 0.01 0.03 0.05 0.09 0.11 0.12 0.15 0.18 0.25 0.39 0.28 0.26 0.25 0.20 0.17 0.20 0.23 0.25 0.21 0.13 0.16 0.17 0.15 0.15 0.14 0.13 0.10 0.09 0.07 0.10
0.00 0.01 0.01 0.02 0.02 0.02 0.02 0.03 0.05 0.06 0.06 0.06 0.03 0.03 0.04 0.04 0.05 0.06 0.09 0.19 0.23 0.19 0.20 0.20 0.20 0.15 0.10 0.11 0.11 0.12 0.13 0.16 0.15 0.12 0.12 0.12 0.14 0.14 0.13 0.08 0.07 0.07 0.07
0.00 0.01 0.01 0.02 0.02 0.02 0.03 0.05 0.07 0.09 0.10 0.07 0.04 0.02 0.00 0.01 0.02 0.04 0.07 0.25 0.23 0.17 0.14 0.12 0.09 0.09 0.08 0.09 0.11 0.12 0.15 0.15 0.14 0.16 0.14 0.14 0.14 0.14 0.13 0.09 0.06 0.04 0.02
0.01 0.02 0.03 0.04 0.04 0.04 0.05 0.07 0.08 0.09 0.09 0.08 0.06 0.03 0.03 0.08 0.11 0.09 0.13 0.17 0.16 0.11 0.08 0.08 0.07 0.08 0.11 0.15 0.17 0.18 0.17 0.13 0.13 0.13 0.13 0.12 0.12 0.12 0.14 0.11 0.06 0.05 0.02
0.03 0.03 0.04 0.06 0.06 0.07 0.08 0.09 0.09 0.11 0.11 0.09 0.08 0.07 0.10 0.20 0.19 0.15 0.10 0.10 0.10 0.10 0.11 0.12 0.14 0.18 0.19 0.18 0.17 0.16 0.14 0.12 0.13 0.13 0.13 0.15 0.14 0.12 0.11 0.12 0.06 0.04 0.02
0.04 0.05 0.06 0.08 0.08 0.09 0.08 0.08 0.12 0.15 0.14 0.13 0.08 0.04 0.07 0.14 0.12 0.11 0.12 0.15 0.16 0.20 0.24 0.25 0.21 0.17 0.17 0.19 0.18 0.18 0.14 0.13 0.14 0.14 0.13 0.11 0.11 0.11 0.10 0.08 0.05 0.03 0.02
0.05 0.06 0.07 0.08 0.09 0.10 0.12 0.14 0.14 0.12 0.11 0.10 0.13 0.16 0.13 0.16 0.17 0.18 0.18 0.16 0.17 0.16 0.11 0.13 0.14 0.11 0.10 0.14 0.17 0.19 0.15 0.10 0.12 0.15 0.14 0.13 0.11 0.10 0.10 0.06 0.05 0.03 0.02
0.06 0.10 0.11 0.12 0.12 0.12 0.12 0.12 0.12 0.13 0.17 0.21 0.19 0.18 0.16 0.17 0.20 0.19 0.16 0.14 0.13 0.11 0.13 0.17 0.15 0.11 0.11 0.12 0.15 0.17 0.15 0.11 0.16 0.14 0.14 0.12 0.10 0.08 0.09 0.06 0.04 0.02 0.01
0.09 0.11 0.14 0.15 0.17 0.17 0.16 0.19 0.25 0.25 0.22 0.22 0.21 0.19 0.16 0.15 0.14 0.13 0.14 0.15 0.15 0.14 0.12 0.12 0.16 0.16 0.15 0.17 0.18 0.16 0.15 0.20 0.23 0.20 0.25 0.15 0.10 0.09 0.09 0.06 0.04 0.02 0.01
0.09 0.14 0.17 0.18 0.22 0.26 0.30 0.26 0.21 0.19 0.19 0.17 0.17 0.17 0.16 0.15 0.14 0.14 0.14 0.16 0.17 0.15 0.13 0.15 0.14 0.13 0.13 0.14 0.16 0.19 0.18 0.20 0.28 0.26 0.27 0.23 0.17 0.14 0.11 0.09 0.07 0.04 0.01

GFSGL_prec_precacc_060.txt.gz
Total_Precipitation_Accumulation
0.06 0.17 0.26 0.32 0.50 0.54 0.36 0.31 0.24 0.15 0.09 0.08 0.07 0.10 0.13 0.17 0.22 0.21 0.16 0.13 0.12 0.08 0.06 0.05 0.03 0.02 0.02 0.01 0.01 0.00 0.00 0.01 0.01 0.00 0.00 0.00 0.00 0.00 0.00 0.00 0.00 0.02 0.04
0.24 0.47 0.42 0.54 0.40 0.32 0.24 0.18 0.13 0.07 0.06 0.06 0.08 0.10 0.14 0.17 0.17 0.14 0.11 0.07 0.04 0.03 0.02 0.01 0.01 0.00 0.00 0.00 0.00 0.00 0.00 0.00 0.00 0.00 0.00 0.00 0.00 0.00 0.00 0.00 0.00 0.00 0.00
0.37 0.33 0.45 0.43 0.23 0.21 0.15 0.10 0.06 0.05 0.05 0.06 0.06 0.08 0.09 0.09 0.12 0.12 0.07 0.04 0.02 0.00 0.00 0.01 0.00 0.00 0.00 0.00 0.00 0.00 0.00 0.01 0.01 0.04 0.01 0.00 0.00 0.00 0.00 0.01 0.01 0.01 0.00
0.20 0.25 0.22 0.19 0.18 0.10 0.06 0.06 0.04 0.05 0.04 0.03 0.03 0.04 0.06 0.08 0.07 0.06 0.04 0.01 0.00 0.00 0.00 0.00 0.00 0.00 0.00 0.00 0.01 0.01 0.01 0.02 0.01 0.03 0.02 0.02 0.02 0.02 0.03 0.03 0.03 0.02 0.01
0.18 0.15 0.14 0.08 0.07 0.04 0.04 0.04 0.07 0.03 0.02 0.01 0.03 0.07 0.06 0.04 0.04 0.03 0.01 0.00 0.00 0.00 0.00 0.00 0.00 0.00 0.00 0.01 0.01 0.01 0.02 0.04 0.05 0.07 0.06 0.05 0.04 0.03 0.05 0.05 0.07 0.03 0.02
0.15 0.11 0.06 0.04 0.04 0.04 0.04 0.05 0.02 0.01 0.03 0.08 0.10 0.08 0.06 0.04 0.03 0.01 0.00 0.00 0.00 0.00 0.00 0.00 0.00 0.00 0.00 0.00 0.01 0.01 0.03 0.10 0.16 0.13 0.11 0.10 0.07 0.09 0.11 0.12 0.12 0.11 0.07
0.05 0.03 0.02 0.02 0.02 0.02 0.02 0.03 0.06 0.13 0.16 0.15 0.15 0.10 0.04 0.01 0.01 0.00 0.00 0.00 0.00 0.00 0.00 0.00 0.00 0.00 0.00 0.00 0.01 0.01 0.02 0.03 0.11 0.17 0.21 0.14 0.15 0.13 0.15 0.13 0.13 0.16 0.12
0.01 0.01 0.03 0.02 0.01 0.03 0.09 0.16 0.22 0.19 0.17 0.11 0.03 0.01 0.01 0.00 0.00 0.00 0.00 0.00 0.00 0.00 0.00 0.00 0.00 0.00 0.00 0.02 0.09 0.09 0.05 0.03 0.04 0.06 0.12 0.10 0.10 0.11 0.14 0.14 0.16 0.15 0.08
0.00 0.01 0.01 0.02 0.05 0.13 0.23 0.26 0.17 0.07 0.01 0.00 0.00 0.00 0.01 0.00 0.00 0.00 0.00 0.00 0.01 0.01 0.00 0.00 0.01 0.01 0.02 0.08 0.14 0.13 0.07 0.05 0.05 0.06 0.09 0.11 0.11 0.09 0.11 0.22 0.22 0.25 0.21
0.01 0.01 0.02 0.13 0.27 0.29 0.20 0.04 0.00 0.00 0.00 0.00 0.00 0.00 0.00 0.01 0.01 0.00 0.01 0.02 0.02 0.02 0.02 0.01 0.01 0.04 0.11 0.15 0.25 0.23 0.21 0.08 0.09 0.10 0.09 0.08 0.07 0.07 0.06 0.12 0.19 0.29 0.23
0.06 0.13 0.22 0.22 0.10 0.03 0.00 0.00 0.00 0.00 0.00 0.00 0.01 0.01 0.01 0.01 0.01 0.00 0.01 0.02 0.05 0.07 0.04 0.03 0.05 0.23 0.19 0.14 0.13 0.17 0.19 0.12 0.12 0.11 0.11 0.11 0.09 0.07 0.07 0.10 0.14 0.22 0.24
0.05 0.04 0.02 0.01 0.00 0.00 0.00 0.00 0.00 0.00 0.00 0.00 0.01 0.01 0.01 0.01 0.00 0.00 0.00 0.02 0.04 0.11 0.09 0.14 0.26 0.14 0.08 0.06 0.10 0.14 0.09 0.08 0.16 0.21 0.19 0.15 0.15 0.14 0.12 0.12 0.17 0.19 0.16
0.00 0.01 0.00 0.00 0.00 0.00 0.00 0.00 0.00 0.00 0.00 0.01 0.01 0.01 0.01 0.01 0.01 0.01 0.01 0.02 0.02 0.07 0.17 0.19 0.14 0.11 0.08 0.10 0.16 0.14 0.15 0.26 0.30 0.27 0.22 0.16 0.18 0.21 0.26 0.31 0.21 0.21 0.25
0.01 0.00 0.00 0.00 0.00 0.00 0.00 0.00 0.00 0.00 0.01 0.01 0.01 0.01 0.02 0.01 0.01 0.03 0.04 0.04 0.06 0.13 0.13 0.18 0.19 0.15 0.17 0.22 0.21 0.19 0.25 0.28 0.28 0.29 0.22 0.19 0.23 0.31 0.33 0.33 0.35 0.36 0.42
0.00 0.00 0.00 0.00 0.00 0.00 0.00 0.00 0.00 0.00 0.00 0.01 0.01 0.02 0.04 0.05 0.03 0.08 0.11 0.14 0.21 0.17 0.21 0.27 0.21 0.19 0.19 0.18 0.15 0.15 0.17 0.18 0.21 0.19 0.20 0.22 0.22 0.20 0.18 0.22 0.25 0.20 0.27
0.00 0.00 0.00 0.01 0.01 0.01 0.00 0.00 0.00 0.00 0.00 0.00 0.00 0.00 0.01 0.03 0.03 0.05 0.08 0.13 0.18 0.19 0.37 0.30 0.25 0.27 0.26 0.23 0.23 0.20 0.18 0.21 0.20 0.27 0.29 0.25 0.22 0.18 0.15 0.12 0.11 0.12 0.16
0.00 0.00 0.01 0.02 0.02 0.02 0.01 0.01 0.02 0.01 0.00 0.00 0.00 0.01 0.03 0.05 0.09 0.11 0.12 0.15 0.18 0.25 0.39 0.28 0.26 0.25 0.20 0.17 0.20 0.24 0.26 0.24 0.21 0.25 0.23 0.18 0.15 0.15 0.14 0.13 0.11 0.09 0.11
0.00 0.01 0.01 0.02 0.02 0.02 0.02 0.03 0.05 0.06 0.06 0.06 0.03 0.03 0.04 0.04 0.05 0.06 0.09 0.19 0.23 0.19 0.20 0.20 0.20 0.16 0.11 0.11 0.11 0.13 0.14 0.16 0.17 0.17 0.17 0.16 0.15 0.15 0.15 0.10 0.09 0.09 0.08
0.00 0.01 0.01 0.02 0.02 0.02 0.03 0.05 0.07 0.09 0.10 0.07 0.04 0.02 0.00 0.01 0.02 0.04 0.07 0.25 0.23 0.17 0.14 0.12 0.09 0.09 0.09 0.09 0.11 0.13 0.15 0.16 0.15 0.17 0.16 0.17 0.17 0.17 0.16 0.12 0.10 0.07 0.06
0.01 0.03 0.04 0.04 0.04 0.04 0.05 0.07 0.08 0.09 0.09 0.08 0.06 0.03 0.03 0.08 0.11 0.09 0.13 0.17 0.16 0.11 0.08 0.08 0.07 0.08 0.12 0.16 0.18 0.19 0.18 0.14 0.14 0.15 0.15 0.17 0.20 0.20 0.18 0.13 0.12 0.12 0.06
0.07 0.07 0.06 0.07 0.07 0.07 0.08 0.09 0.09 0.11 0.11 0.09 0.08 0.07 0.10 0.20 0.19 0.15 0.10 0.10 0.10 0.11 0.11 0.13 0.14 0.18 0.19 0.18 0.17 0.16 0.15 0.13 0.14 0.15 0.15 0.16 0.18 0.16 0.14 0.15 0.11 0.08 0.05
0.06 0.06 0.07 0.08 0.08 0.09 0.08 0.08 0.12 0.15 0.14 0.13 0.08 0.04 0.07 0.14 0.12 0.11 0.12 0.15 0.17 0.20 0.24 0.26 0.21 0.17 0.18 0.19 0.19 0.19 0.15 0.13 0.15 0.16 0.15 0.14 0.13 0.12 0.13 0.14 0.12 0.09 0.05
0.06 0.06 0.07 0.08 0.09 0.10 0.12 0.14 0.14 0.12 0.11 0.10 0.13 0.16 0.14 0.16 0.17 0.18 0.18 0.16 0.17 0.16 0.12 0.13 0.14 0.11 0.10 0.14 0.18 0.19 0.16 0.11 0.13 0.17 0.17 0.15 0.13 0.12 0.13 0.13 0.12 0.09 0.04
0.06 0.10 0.11 0.12 0.12 0.12 0.12 0.12 0.12 0.13 0.17 0.21 0.19 0.18 0.16 0.17 0.20 0.20 0.17 0.14 0.13 0.11 0.14 0.18 0.15 0.12 0.12 0.13 0.16 0.17 0.16 0.12 0.16 0.16 0.16 0.14 0.10 0.09 0.12 0.11 0.10 0.08 0.04
0.09 0.11 0.14 0.15 0.17 0.17 0.16 0.19 0.25 0.25 0.22 0.22 0.21 0.19 0.16 0.15 0.14 0.13 0.14 0.16 0.15 0.14 0.13 0.13 0.16 0.17 0.15 0.17 0.18 0.16 0.16 0.21 0.24 0.21 0.27 0.16 0.11 0.10 0.10 0.09 0.09 0.09 0.06
0.09 0.14 0.17 0.19 0.22 0.26 0.30 0.26 0.22 0.19 0.19 0.18 0.17 0.17 0.16 0.15 0.14 0.14 0.14 0.16 0.17 0.15 0.14 0.15 0.14 0.13 0.13 0.14 0.16 0.19 0.18 0.20 0.29 0.28 0.30 0.25 0.18 0.15 0.12 0.12 0.12 0.11 0.06

GFSGL_prec_precacc_063.txt.gz
Total_Precipitation_Accumulation
0.10 0.20 0.33 0.39 0.56 0.74 0.64 0.89 0.51 0.30 0.19 0.13 0.09 0.10 0.14 0.17 0.23 0.24 0.20 0.16 0.13 0.09 0.06 0.05 0.03 0.02 0.02 0.01 0.01 0.00 0.00 0.01 0.01 0.00 0.00 0.00 0.00 0.00 0.00 0.00 0.00 0.02 0.04
0.40 0.87 0.82 0.97 0.90 0.82 0.86 0.73 0.30 0.13 0.14 0.09 0.09 0.11 0.14 0.17 0.17 0.15 0.12 0.08 0.05 0.04 0.02 0.02 0.01 0.00 0.00 0.00 0.00 0.00 0.00 0.00 0.00 0.00 0.00 0.00 0.00 0.00 0.00 0.00 0.00 0.00 0.00
0.77 0.68 0.67 0.79 0.47 0.39 0.24 0.16 0.10 0.08 0.06 0.06 0.06 0.09 0.10 0.09 0.13 0.14 0.11 0.06 0.02 0.01 0.01 0.01 0.00 0.00 0.00 0.00 0.00 0.00 0.00 0.01 0.01 0.04 0.02 0.00 0.00 0.00 0.00 0.01 0.01 0.01 0.00
0.43 0.41 0.32 0.29 0.23 0.12 0.09 0.07 0.06 0.05 0.04 0.03 0.03 0.04 0.07 0.10 0.10 0.07 0.04 0.02 0.00 0.00 0.00 0.00 0.00 0.00 0.00 0.00 0.01 0.01 0.01 0.02 0.02 0.03 0.03 0.02 0.02 0.02 0.03 0.03 0.04 0.03 0.02
0.23 0.19 0.16 0.09 0.09 0.07 0.06 0.06 0.08 0.03 0.02 0.01 0.03 0.08 0.07 0.05 0.04 0.03 0.01 0.00 0.00 0.00 0.00 0.00 0.00 0.00 0.00 0.01 0.01 0.01 0.02 0.04 0.05 0.08 0.06 0.05 0.04 0.03 0.05 0.05 0.09 0.04 0.03
0.18 0.13 0.08 0.04 0.04 0.05 0.05 0.05 0.02 0.01 0.03 0.08 0.10 0.08 0.06 0.04 0.03 0.01 0.00 0.00 0.00 0.00 0.00 0.00 0.00 0.00 0.00 0.00 0.01 0.01 0.03 0.10 0.16 0.13 0.11 0.10 0.07 0.09 0.12 0.14 0.15 0.14 0.11
0.07 0.04 0.02 0.04 0.03 0.02 0.03 0.03 0.06 0.13 0.16 0.15 0.15 0.10 0.04 0.01 0.01 0.00 0.00 0.00 0.00 0.00 0.00 0.00 0.00 0.00 0.00 0.00 0.01 0.01 0.02 0.03 0.11 0.17 0.21 0.15 0.15 0.14 0.17 0.16 0.15 0.20 0.17
0.01 0.01 0.03 0.03 0.02 0.03 0.09 0.16 0.22 0.19 0.17 0.11 0.03 0.01 0.01 0.00 0.00 0.00 0.00 0.00 0.00 0.00 0.00 0.00 0.00 0.00 0.00 0.02 0.09 0.09 0.05 0.03 0.04 0.06 0.12 0.10 0.11 0.11 0.16 0.16 0.18 0.17 0.10
0.00 0.01 0.01 0.02 0.05 0.13 0.23 0.26 0.17 0.07 0.01 0.00 0.00 0.00 0.01 0.00 0.00 0.00 0.00 0.00 0.01 0.01 0.00 0.00 0.01 0.01 0.02 0.08 0.14 0.13 0.07 0.05 0.05 0.06 0.09 0.11 0.11 0.09 0.12 0.24 0.25 0.28 0.23
0.01 0.01 0.02 0.13 0.27 0.29 0.20 0.04 0.00 0.00 0.00 0.00 0.00 0.00 0.00 0.01 0.01 0.00 0.01 0.02 0.02 0.02 0.02 0.01 0.01 0.04 0.11 0.15 0.25 0.23 0.21 0.08 0.09 0.10 0.09 0.08 0.07 0.07 0.07 0.14 0.22 0.36 0.29
0.06 0.13 0.22 0.22 0.10 0.03 0.00 0.00 0.00 0.00 0.00 0.00 0.01 0.01 0.01 0.01 0.01 0.00 0.01 0.02 0.05 0.07 0.04 0.03 0.05 0.23 0.19 0.14 0.13 0.17 0.19 0.12 0.12 0.11 0.11 0.11 0.09 0.07 0.08 0.11 0.16 0.26 0.29
0.05 0.04 0.02 0.01 0.00 0.00 0.00 0.00 0.00 0.00 0.00 0.00 0.01 0.01 0.01 0.01 0.00 0.00 0.00 0.02 0.04 0.11 0.09 0.14 0.26 0.14 0.08 0.06 0.10 0.14 0.10 0.08 0.16 0.22 0.20 0.15 0.15 0.14 0.12 0.13 0.17 0.20 0.17
0.00 0.01 0.00 0.00 0.00 0.00 0.00 0.00 0.00 0.00 0.00 0.01 0.01 0.01 0.01 0.01 0.01 0.01 0.01 0.02 0.02 0.07 0.17 0.19 0.14 0.11 0.08 0.10 0.16 0.14 0.15 0.26 0.31 0.28 0.23 0.16 0.19 0.21 0.26 0.33 0.27 0.25 0.30
0.01 0.00 0.00 0.00 0.00 0.00 0.00 0.00 0.00 0.00 0.01 0.01 0.01 0.01 0.02 0.01 0.01 0.03 0.04 0.04 0.06 0.13 0.13 0.18 0.19 0.15 0.17 0.22 0.21 0.19 0.25 0.28 0.28 0.32 0.26 0.21 0.24 0.32 0.40 0.42 0.43 0.39 0.43
0.00 0.00 0.00 0.00 0.00 0.00 0.00 0.00 0.00 0.00 0.00 0.01 0.01 0.02 0.04 0.05 0.03 0.08 0.11 0.14 0.21 0.17 0.21 0.27 0.21 0.19 0.19 0.18 0.15 0.15 0.17 0.18 0.21 0.20 0.23 0.25 0.26 0.27 0.29 0.33 0.32 0.21 0.29
0.00 0.00 0.00 0.01 0.01 0.01 0.00 0.00 0.00 0.00 0.00 0.00 0.00 0.00 0.01 0.03 0.03 0.05 0.08 0.13 0.18 0.19 0.37 0.30 0.25 0.27 0.26 0.23 0.23 0.20 0.18 0.21 0.20 0.27 0.31 0.29 0.30 0.31 0.26 0.17 0.15 0.13 0.16
0.00 0.00 0.01 0.02 0.02 0.02 0.01 0.01 0.02 0.01 0.00 0.00 0.00 0.01 0.03 0.05 0.09 0.11 0.12 0.15 0.18 0.25 0.39 0.28 0.26 0.25 0.20 0.17 0.20 0.24 0.26 0.24 0.21 0.25 0.24 0.21 0.20 0.18 0.16 0.15 0.14 0.10 0.11
0.00 0.01 0.01 0.02 0.02 0.02 0.02 0.03 0.05 0.06 0.06 0.06 0.03 0.03 0.04 0.04 0.05 0.06 0.09 0.19 0.23 0.19 0.20 0.20 0.20 0.16 0.11 0.11 0.11 0.13 0.14 0.16 0.17 0.17 0.18 0.17 0.18 0.18 0.16 0.11 0.11 0.10 0.09
0.00 0.01 0.01 0.03 0.02 0.02 0.03 0.06 0.08 0.10 0.10 0.07 0.04 0.02 0.00 0.01 0.02 0.04 0.07 0.25 0.23 0.17 0.14 0.12 0.09 0.09 0.09 0.09 0.11 0.13 0.15 0.16 0.15 0.18 0.16 0.18 0.19 0.20 0.19 0.15 0.14 0.11 0.07
0.02 0.03 0.05 0.05 0.06 0.07 0.09 0.09 0.09 0.10 0.09 0.08 0.06 0.03 0.03 0.08 0.11 0.09 0.13 0.17 0.16 0.11 0.08 0.08 0.07 0.08 0.12 0.16 0.18 0.19 0.18 0.14 0.14 0.15 0.15 0.18 0.21 0.24 0.26 0.21 0.18 0.17 0.11
0.11 0.12 0.12 0.13 0.13 0.11 0.10 0.09 0.10 0.11 0.11 0.09 0.08 0.07 0.10 0.20 0.19 0.15 0.10 0.10 0.10 0.11 0.11 0.13 0.14 0.18 0.19 0.18 0.18 0.16 0.15 0.13 0.14 0.16 0.15 0.17 0.19 0.18 0.17 0.19 0.13 0.10 0.07
0.22 0.19 0.16 0.14 0.12 0.11 0.09 0.08 0.12 0.15 0.14 0.13 0.08 0.04 0.07 0.14 0.12 0.11 0.12 0.15 0.17 0.20 0.24 0.26 0.21 0.17 0.18 0.19 0.19 0.19 0.15 0.14 0.15 0.16 0.15 0.14 0.13 0.13 0.14 0.14 0.14 0.13 0.10
0.17 0.14 0.11 0.10 0.10 0.11 0.13 0.14 0.14 0.12 0.11 0.10 0.13 0.16 0.14 0.16 0.17 0.18 0.18 0.16 0.17 0.16 0.12 0.13 0.14 0.11 0.10 0.14 0.18 0.20 0.17 0.12 0.13 0.17 0.18 0.16 0.14 0.13 0.15 0.15 0.14 0.13 0.11
0.09 0.12 0.12 0.12 0.12 0.12 0.12 0.12 0.12 0.13 0.17 0.21 0.19 0.18 0.16 0.17 0.20 0.20 0.17 0.14 0.13 0.11 0.14 0.18 0.15 0.12 0.12 0.13 0.16 0.17 0.16 0.12 0.17 0.17 0.17 0.15 0.11 0.10 0.14 0.13 0.12 0.11 0.09
0.10 0.12 0.14 0.15 0.17 0.17 0.16 0.19 0.25 0.25 0.22 0.22 0.21 0.19 0.16 0.15 0.14 0.13 0.14 0.16 0.15 0.14 0.13 0.13 0.16 0.17 0.15 0.17 0.18 0.16 0.16 0.21 0.24 0.22 0.27 0.17 0.11 0.11 0.11 0.11 0.10 0.11 0.10
0.10 0.15 0.18 0.19 0.22 0.26 0.30 0.26 0.22 0.19 0.19 0.18 0.17 0.17 0.16 0.15 0.14 0.14 0.14 0.16 0.18 0.15 0.14 0.15 0.14 0.13 0.13 0.14 0.16 0.20 0.18 0.21 0.29 0.29 0.32 0.26 0.19 0.15 0.13 0.13 0.13 0.13 0.09

GFSGL_prec_precacc_066.txt.gz
Total_Precipitation_Accumulation
0.10 0.20 0.33 0.39 0.58 0.91 0.86 1.16 0.89 0.61 0.34 0.16 0.16 0.20 0.18 0.19 0.24 0.24 0.21 0.16 0.13 0.10 0.07 0.06 0.04 0.03 0.02 0.01 0.01 0.00 0.00 0.01 0.01 0.00 0.00 0.00 0.00 0.00 0.00 0.00 0.00 0.02 0.04
0.55 0.98 0.90 1.04 1.21 1.10 1.34 1.84 1.01 0.37 0.23 0.16 0.19 0.16 0.16 0.18 0.18 0.15 0.12 0.09 0.06 0.05 0.04 0.03 0.02 0.01 0.00 0.00 0.00 0.00 0.00 0.00 0.00 0.00 0.00 0.00 0.00 0.00 0.00 0.00 0.00 0.00 0.00
0.86 0.92 1.04 1.44 0.94 0.51 0.37 0.29 0.17 0.13 0.11 0.09 0.08 0.10 0.10 0.10 0.14 0.15 0.11 0.08 0.05 0.03 0.01 0.01 0.01 0.00 0.00 0.00 0.00 0.00 0.00 0.01 0.01 0.04 0.02 0.00 0.00 0.00 0.00 0.01 0.01 0.01 0.00
0.59 0.64 0.60 0.60 0.56 0.26 0.18 0.12 0.09 0.08 0.07 0.05 0.05 0.05 0.08 0.11 0.11 0.08 0.05 0.02 0.01 0.01 0.00 0.00 0.00 0.00 0.00 0.00 0.01 0.01 0.01 0.02 0.02 0.03 0.03 0.02 0.02 0.02 0.03 0.03 0.04 0.03 0.02
0.26 0.23 0.21 0.16 0.16 0.13 0.13 0.09 0.10 0.05 0.04 0.02 0.04 0.08 0.07 0.06 0.05 0.03 0.01 0.00 0.00 0.00 0.00 0.00 0.00 0.00 0.00 0.01 0.01 0.01 0.02 0.04 0.05 0.08 0.06 0.05 0.04 0.03 0.05 0.05 0.09 0.05 0.04
0.21 0.16 0.10 0.07 0.09 0.10 0.08 0.08 0.03 0.02 0.04 0.08 0.11 0.08 0.06 0.04 0.05 0.02 0.00 0.00 0.00 0.00 0.00 0.00 0.00 0.00 0.00 0.00 0.01 0.01 0.03 0.10 0.16 0.13 0.11 0.10 0.07 0.09 0.12 0.14 0.15 0.15 0.12
0.09 0.06 0.04 0.07 0.05 0.04 0.05 0.05 0.06 0.14 0.17 0.15 0.15 0.11 0.04 0.01 0.01 0.00 0.00 0.00 0.00 0.00 0.00 0.00 0.00 0.00 0.00 0.00 0.01 0.01 0.02 0.03 0.11 0.17 0.21 0.15 0.15 0.14 0.17 0.16 0.16 0.21 0.18
0.02 0.02 0.04 0.05 0.03 0.04 0.09 0.16 0.22 0.19 0.17 0.11 0.03 0.01 0.01 0.00 0.00 0.00 0.00 0.00 0.00 0.00 0.00 0.00 0.00 0.00 0.00 0.02 0.09 0.09 0.05 0.03 0.04 0.06 0.12 0.10 0.11 0.11 0.16 0.17 0.19 0.18 0.11
0.01 0.01 0.02 0.02 0.05 0.13 0.23 0.26 0.17 0.07 0.01 0.00 0.00 0.00 0.01 0.00 0.00 0.00 0.00 0.00 0.01 0.01 0.00 0.00 0.01 0.01 0.02 0.08 0.14 0.13 0.07 0.05 0.05 0.06 0.09 0.11 0.11 0.09 0.12 0.24 0.25 0.29 0.24
0.01 0.01 0.02 0.13 0.27 0.29 0.20 0.04 0.00 0.00 0.00 0.00 0.00 0.00 0.00 0.01 0.01 0.00 0.01 0.02 0.02 0.02 0.02 0.01 0.01 0.04 0.11 0.15 0.25 0.23 0.21 0.08 0.09 0.10 0.09 0.08 0.07 0.07 0.07 0.14 0.22 0.38 0.32
0.06 0.13 0.22 0.22 0.10 0.03 0.00 0.00 0.00 0.00 0.00 0.00 0.01 0.01 0.01 0.01 0.01 0.00 0.01 0.02 0.05 0.07 0.04 0.03 0.05 0.23 0.19 0.14 0.13 0.17 0.19 0.12 0.12 0.11 0.11 0.11 0.09 0.07 0.08 0.11 0.16 0.27 0.33
0.05 0.04 0.02 0.01 0.00 0.00 0.00 0.00 0.00 0.00 0.00 0.00 0.01 0.01 0.01 0.01 0.00 0.00 0.00 0.02 0.04 0.11 0.09 0.14 0.26 0.14 0.08 0.06 0.10 0.14 0.10 0.08 0.16 0.22 0.20 0.15 0.15 0.14 0.12 0.13 0.17 0.20 0.17
0.00 0.01 0.00 0.00 0.00 0.00 0.00 0.00 0.00 0.00 0.00 0.01 0.01 0.01 0.01 0.01 0.01 0.01 0.01 0.02 0.02 0.07 0.17 0.19 0.14 0.11 0.08 0.10 0.16 0.14 0.15 0.26 0.31 0.29 0.24 0.16 0.19 0.21 0.27 0.33 0.27 0.25 0.31
0.01 0.00 0.00 0.00 0.00 0.00 0.00 0.00 0.00 0.00 0.01 0.01 0.01 0.01 0.02 0.01 0.01 0.03 0.04 0.04 0.06 0.13 0.13 0.18 0.19 0.15 0.17 0.22 0.21 0.19 0.25 0.28 0.28 0.32 0.26 0.22 0.24 0.33 0.40 0.42 0.46 0.45 0.49
0.00 0.00 0.00 0.00 0.00 0.00 0.00 0.00 0.00 0.00 0.00 0.01 0.01 0.02 0.04 0.05 0.03 0.08 0.11 0.14 0.21 0.17 0.21 0.27 0.21 0.19 0.19 0.18 0.15 0.15 0.17 0.18 0.21 0.20 0.23 0.25 0.26 0.28 0.31 0.42 0.45 0.33 0.32
0.00 0.00 0.00 0.01 0.01 0.01 0.00 0.00 0.00 0.00 0.00 0.00 0.00 0.00 0.01 0.03 0.03 0.05 0.08 0.13 0.18 0.19 0.37 0.30 0.25 0.27 0.26 0.23 0.23 0.20 0.18 0.21 0.20 0.27 0.31 0.29 0.30 0.31 0.27 0.21 0.19 0.16 0.17
0.00 0.00 0.01 0.02 0.02 0.02 0.01 0.01 0.02 0.01 0.00 0.00 0.00 0.01 0.03 0.06 0.09 0.11 0.12 0.15 0.18 0.25 0.39 0.28 0.26 0.25 0.20 0.17 0.20 0.24 0.26 0.24 0.21 0.25 0.24 0.21 0.20 0.18 0.16 0.16 0.15 0.13 0.13
0.00 0.01 0.01 0.02 0.02 0.02 0.03 0.04 0.05 0.07 0.06 0.06 0.04 0.03 0.05 0.04 0.05 0.06 0.09 0.19 0.23 0.19 0.20 0.20 0.20 0.16 0.11 0.11 0.11 0.13 0.14 0.16 0.18 0.17 0.18 0.17 0.18 0.18 0.17 0.12 0.12 0.12 0.10
0.00 0.01 0.02 0.04 0.04 0.04 0.04 0.07 0.09 0.13 0.13 0.10 0.05 0.03 0.00 0.01 0.02 0.04 0.07 0.25 0.23 0.17 0.14 0.12 0.09 0.09 0.09 0.09 0.11 0.13 0.16 0.16 0.15 0.18 0.17 0.18 0.20 0.21 0.19 0.16 0.15 0.12 0.11
0.04 0.07 0.08 0.08 0.10 0.12 0.15 0.16 0.14 0.13 0.12 0.09 0.06 0.04 0.04 0.08 0.11 0.09 0.13 0.17 0.16 0.11 0.08 0.08 0.07 0.08 0.12 0.16 0.18 0.19 0.18 0.14 0.14 0.15 0.15 0.18 0.22 0.24 0.27 0.22 0.21 0.21 0.14
0.17 0.19 0.21 0.24 0.25 0.23 0.20 0.17 0.15 0.16 0.14 0.12 0.10 0.08 0.10 0.20 0.19 0.15 0.10 0.10 0.10 0.11 0.11 0.13 0.14 0.18 0.19 0.18 0.18 0.17 0.15 0.13 0.14 0.16 0.16 0.17 0.19 0.18 0.18 0.21 0.17 0.14 0.10
0.33 0.31 0.28 0.26 0.23 0.21 0.17 0.14 0.17 0.20 0.17 0.15 0.08 0.04 0.07 0.14 0.12 0.11 0.12 0.15 0.17 0.20 0.24 0.26 0.21 0.17 0.18 0.19 0.19 0.19 0.16 0.14 0.15 0.16 0.15 0.14 0.14 0.13 0.14 0.15 0.15 0.15 0.12
0.25 0.20 0.17 0.16 0.17 0.17 0.17 0.17 0.17 0.13 0.12 0.11 0.13 0.16 0.14 0.17 0.18 0.19 0.18 0.16 0.17 0.16 0.12 0.13 0.14 0.11 0.10 0.14 0.18 0.20 0.17 0.12 0.13 0.17 0.18 0.16 0.14 0.14 0.16 0.15 0.15 0.14 0.12
0.14 0.17 0.17 0.17 0.16 0.15 0.14 0.14 0.13 0.14 0.19 0.22 0.21 0.19 0.17 0.17 0.20 0.20 0.17 0.14 0.13 0.11 0.14 0.18 0.15 0.12 0.12 0.13 0.16 0.17 0.16 0.12 0.17 0.18 0.19 0.16 0.11 0.11 0.14 0.13 0.13 0.13 0.10
0.13 0.14 0.16 0.17 0.19 0.19 0.18 0.21 0.26 0.26 0.23 0.22 0.22 0.19 0.16 0.16 0.14 0.13 0.14 0.16 0.15 0.14 0.13 0.13 0.16 0.17 0.15 0.17 0.18 0.16 0.16 0.22 0.25 0.22 0.29 0.18 0.12 0.11 0.11 0.11 0.11 0.13 0.12
0.12 0.16 0.19 0.20 0.23 0.26 0.30 0.27 0.22 0.19 0.19 0.18 0.18 0.17 0.17 0.15 0.14 0.14 0.14 0.16 0.18 0.15 0.14 0.15 0.14 0.13 0.13 0.14 0.16 0.20 0.19 0.21 0.30 0.29 0.34 0.28 0.20 0.16 0.14 0.14 0.13 0.14 0.10

GFSGL_prec_precacc_069.txt.gz
Total_Precipitation_Accumulation
0.10 0.20 0.33 0.39 0.58 0.91 0.87 1.17 0.94 0.89 0.95 0.79 0.50 0.42 0.23 0.27 0.30 0.26 0.21 0.16 0.13 0.10 0.07 0.07 0.04 0.03 0.02 0.01 0.01 0.00 0.00 0.01 0.01 0.00 0.00 0.00 0.00 0.00 0.00 0.00 0.00 0.02 0.04
0.59 1.00 0.92 1.05 1.21 1.11 1.37 1.94 1.33 0.97 0.70 0.48 0.31 0.19 0.18 0.19 0.18 0.15 0.12 0.10 0.07 0.05 0.05 0.04 0.03 0.02 0.01 0.02 0.01 0.00 0.00 0.00 0.00 0.00 0.00 0.00 0.00 0.00 0.00 0.00 0.00 0.00 0.00
0.95 0.97 1.08 1.49 0.97 0.59 0.44 0.36 0.31 0.23 0.15 0.10 0.09 0.12 0.14 0.13 0.16 0.17 0.14 0.09 0.06 0.04 0.03 0.03 0.03 0.02 0.01 0.00 0.00 0.00 0.00 0.01 0.01 0.04 0.02 0.00 0.00 0.00 0.00 0.01 0.01 0.01 0.00
0.68 0.68 0.64 0.61 0.60 0.38 0.30 0.22 0.14 0.13 0.13 0.07 0.08 0.09 0.10 0.12 0.13 0.11 0.07 0.03 0.01 0.01 0.00 0.00 0.00 0.01 0.01 0.00 0.01 0.01 0.01 0.02 0.02 0.03 0.03 0.02 0.02 0.02 0.03 0.03 0.04 0.03 0.02
0.31 0.28 0.24 0.19 0.18 0.16 0.15 0.10 0.11 0.05 0.05 0.05 0.07 0.12 0.09 0.07 0.07 0.05 0.02 0.01 0.01 0.01 0.01 0.01 0.00 0.00 0.00 0.01 0.01 0.01 0.02 0.04 0.05 0.08 0.06 0.05 0.04 0.03 0.05 0.05 0.09 0.05 0.04
0.22 0.18 0.13 0.08 0.10 0.11 0.10 0.12 0.05 0.04 0.07 0.11 0.14 0.12 0.08 0.05 0.08 0.04 0.01 0.00 0.00 0.00 0.00 0.00 0.00 0.00 0.00 0.00 0.01 0.01 0.03 0.10 0.16 0.13 0.11 0.10 0.07 0.09 0.12 0.14 0.15 0.15 0.13
0.10 0.09 0.08 0.10 0.07 0.06 0.06 0.07 0.08 0.16 0.19 0.18 0.17 0.12 0.05 0.02 0.03 0.01 0.00 0.00 0.00 0.00 0.00 0.00 0.00 0.00 0.00 0.00 0.01 0.01 0.02 0.03 0.11 0.17 0.21 0.15 0.15 0.14 0.17 0.16 0.16 0.22 0.19
0.03 0.04 0.06 0.08 0.06 0.06 0.11 0.17 0.23 0.22 0.20 0.13 0.05 0.02 0.01 0.01 0.01 0.00 0.00 0.00 0.00 0.00 0.00 0.00 0.00 0.00 0.00 0.02 0.09 0.09 0.05 0.03 0.04 0.06 0.12 0.10 0.11 0.11 0.16 0.17 0.19 0.19 0.11
0.02 0.03 0.04 0.04 0.07 0.15 0.26 0.30 0.19 0.09 0.04 0.02 0.02 0.01 0.01 0.01 0.00 0.00 0.00 0.00 0.01 0.01 0.00 0.00 0.01 0.01 0.02 0.08 0.14 0.13 0.07 0.05 0.05 0.06 0.09 0.11 0.11 0.09 0.12 0.24 0.26 0.30 0.25
0.02 0.02 0.03 0.13 0.28 0.31 0.22 0.06 0.01 0.01 0.02 0.01 0.00 0.00 0.01 0.01 0.01 0.00 0.01 0.02 0.02 0.02 0.02 0.01 0.01 0.04 0.11 0.15 0.25 0.23 0.21 0.08 0.09 0.10 0.09 0.08 0.07 0.07 0.07 0.14 0.23 0.42 0.33
0.06 0.14 0.22 0.22 0.11 0.03 0.01 0.01 0.01 0.01 0.01 0.00 0.01 0.01 0.01 0.01 0.01 0.00 0.01 0.02 0.05 0.07 0.04 0.03 0.05 0.23 0.19 0.14 0.13 0.17 0.19 0.12 0.12 0.11 0.11 0.11 0.09 0.07 0.08 0.11 0.16 0.30 0.37
0.05 0.04 0.02 0.01 0.01 0.01 0.01 0.00 0.00 0.00 0.00 0.00 0.01 0.01 0.01 0.01 0.00 0.00 0.00 0.02 0.04 0.11 0.09 0.14 0.26 0.14 0.08 0.06 0.10 0.14 0.10 0.08 0.16 0.22 0.20 0.15 0.15 0.14 0.12 0.13 0.18 0.20 0.18
0.00 0.01 0.00 0.00 0.00 0.00 0.00 0.00 0.00 0.00 0.00 0.01 0.01 0.01 0.01 0.01 0.01 0.01 0.01 0.02 0.02 0.07 0.17 0.19 0.14 0.11 0.08 0.10 0.16 0.14 0.15 0.26 0.31 0.29 0.24 0.16 0.19 0.21 0.27 0.33 0.27 0.25 0.31
0.01 0.00 0.00 0.00 0.00 0.00 0.00 0.00 0.00 0.00 0.01 0.01 0.01 0.01 0.02 0.01 0.01 0.03 0.04 0.04 0.06 0.13 0.13 0.18 0.19 0.15 0.17 0.22 0.21 0.19 0.25 0.28 0.28 0.32 0.26 0.22 0.24 0.33 0.40 0.42 0.46 0.46 0.52
0.00 0.00 0.00 0.00 0.00 0.00 0.00 0.00 0.00 0.00 0.00 0.01 0.01 0.02 0.04 0.05 0.03 0.08 0.11 0.14 0.21 0.17 0.21 0.27 0.21 0.19 0.19 0.18 0.15 0.15 0.17 0.18 0.21 0.20 0.23 0.25 0.26 0.28 0.31 0.42 0.45 0.35 0.36
0.00 0.00 0.00 0.01 0.01 0.01 0.00 0.00 0.00 0.00 0.00 0.00 0.00 0.00 0.01 0.03 0.03 0.05 0.08 0.14 0.18 0.19 0.37 0.30 0.25 0.27 0.26 0.23 0.23 0.20 0.18 0.21 0.20 0.27 0.31 0.29 0.30 0.31 0.27 0.21 0.19 0.17 0.19
0.00 0.00 0.01 0.02 0.02 0.02 0.01 0.01 0.02 0.01 0.00 0.00 0.00 0.01 0.03 0.06 0.09 0.11 0.13 0.15 0.18 0.25 0.39 0.28 0.26 0.25 0.20 0.17 0.20 0.24 0.26 0.24 0.21 0.25 0.24 0.21 0.20 0.18 0.16 0.16 0.15 0.13 0.14
0.00 0.01 0.02 0.02 0.02 0.02 0.03 0.04 0.06 0.07 0.07 0.07 0.05 0.05 0.06 0.05 0.05 0.06 0.09 0.19 0.23 0.19 0.20 0.20 0.20 0.16 0.11 0.11 0.11 0.13 0.14 0.16 0.18 0.17 0.18 0.17 0.18 0.19 0.17 0.12 0.12 0.13 0.11
0.00 0.02 0.04 0.08 0.09 0.09 0.08 0.10 0.12 0.16 0.17 0.14 0.09 0.06 0.02 0.03 0.05 0.07 0.10 0.27 0.24 0.17 0.14 0.12 0.09 0.09 0.09 0.09 0.11 0.13 0.16 0.16 0.15 0.18 0.17 0.18 0.20 0.21 0.19 0.16 0.15 0.13 0.13
0.10 0.14 0.16 0.16 0.16 0.16 0.19 0.20 0.19 0.18 0.17 0.14 0.11 0.08 0.08 0.13 0.16 0.13 0.15 0.18 0.16 0.11 0.08 0.08 0.07 0.08 0.12 0.16 0.18 0.19 0.18 0.14 0.14 0.15 0.15 0.18 0.22 0.24 0.27 0.23 0.21 0.21 0.15
0.27 0.28 0.27 0.28 0.29 0.27 0.23 0.20 0.18 0.19 0.19 0.17 0.15 0.13 0.15 0.23 0.21 0.16 0.11 0.10 0.11 0.11 0.12 0.13 0.14 0.18 0.19 0.18 0.18 0.17 0.15 0.13 0.14 0.16 0.16 0.17 0.19 0.18 0.18 0.21 0.17 0.14 0.11
0.38 0.35 0.32 0.30 0.27 0.24 0.20 0.17 0.20 0.24 0.21 0.18 0.12 0.07 0.09 0.15 0.13 0.13 0.14 0.16 0.18 0.21 0.24 0.26 0.21 0.17 0.18 0.19 0.19 0.19 0.16 0.14 0.15 0.16 0.16 0.14 0.14 0.14 0.15 0.15 0.15 0.15 0.13
0.28 0.23 0.20 0.19 0.19 0.19 0.20 0.20 0.20 0.16 0.15 0.14 0.16 0.18 0.17 0.19 0.20 0.21 0.19 0.17 0.18 0.17 0.12 0.13 0.14 0.11 0.10 0.14 0.18 0.20 0.17 0.12 0.14 0.18 0.19 0.17 0.14 0.14 0.16 0.16 0.15 0.15 0.13
0.16 0.19 0.19 0.19 0.18 0.16 0.16 0.16 0.16 0.16 0.21 0.25 0.23 0.21 0.19 0.19 0.22 0.21 0.18 0.15 0.13 0.12 0.14 0.18 0.15 0.12 0.12 0.13 0.16 0.17 0.16 0.12 0.18 0.18 0.20 0.17 0.12 0.11 0.15 0.14 0.14 0.14 0.11
0.14 0.15 0.17 0.18 0.20 0.21 0.20 0.22 0.28 0.27 0.24 0.23 0.22 0.20 0.17 0.16 0.15 0.13 0.14 0.16 0.15 0.14 0.13 0.13 0.16 0.17 0.15 0.17 0.18 0.16 0.16 0.22 0.25 0.23 0.30 0.19 0.12 0.11 0.12 0.12 0.11 0.14 0.13
0.13 0.17 0.20 0.20 0.23 0.27 0.30 0.27 0.22 0.19 0.19 0.18 0.18 0.18 0.17 0.15 0.14 0.14 0.14 0.16 0.18 0.15 0.14 0.15 0.14 0.13 0.13 0.14 0.16 0.20 0.19 0.21 0.30 0.30 0.35 0.29 0.20 0.16 0.14 0.15 0.14 0.16 0.11

GFSGL_prec_precacc_075.txt.gz
Total_Precipitation_Accumulation
0.10 0.20 0.33 0.39 0.58 0.91 0.87 1.17 0.94 0.90 0.96 0.82 0.62 0.63 0.56 0.49 0.45 0.39 0.32 0.26 0.21 0.15 0.10 0.10 0.07 0.05 0.03 0.03 0.01 0.00 0.00 0.01 0.01 0.00 0.00 0.00 0.00 0.00 0.00 0.00 0.00 0.02 0.04
0.66 1.00 0.92 1.05 1.21 1.11 1.37 1.94 1.33 0.97 0.72 0.50 0.36 0.28 0.29 0.34 0.36 0.30 0.22 0.17 0.16 0.14 0.13 0.12 0.08 0.04 0.02 0.02 0.01 0.01 0.01 0.00 0.01 0.00 0.00 0.00 0.00 0.00 0.00 0.00 0.00 0.00 0.00
1.02 0.99 1.08 1.49 0.97 0.59 0.44 0.36 0.32 0.25 0.19 0.12 0.10 0.13 0.15 0.14 0.20 0.27 0.29 0.27 0.22 0.14 0.12 0.11 0.10 0.08 0.03 0.01 0.01 0.01 0.01 0.01 0.02 0.05 0.02 0.00 0.00 0.00 0.00 0.01 0.01 0.01 0.00
0.72 0.70 0.65 0.62 0.61 0.38 0.30 0.25 0.26 0.24 0.22 0.15 0.13 0.14 0.14 0.14 0.14 0.12 0.11 0.08 0.08 0.08 0.08 0.09 0.08 0.07 0.04 0.02 0.02 0.01 0.02 0.02 0.02 0.03 0.03 0.02 0.02 0.02 0.03 0.03 0.04 0.03 0.02
0.32 0.29 0.26 0.23 0.18 0.16 0.16 0.12 0.13 0.07 0.06 0.08 0.12 0.19 0.18 0.12 0.12 0.11 0.07 0.05 0.06 0.08 0.07 0.06 0.05 0.08 0.07 0.03 0.02 0.01 0.03 0.04 0.06 0.08 0.06 0.05 0.04 0.03 0.05 0.05 0.09 0.05 0.04
0.22 0.18 0.14 0.14 0.16 0.13 0.12 0.14 0.08 0.07 0.10 0.14 0.16 0.15 0.12 0.10 0.17 0.11 0.06 0.03 0.04 0.05 0.04 0.04 0.06 0.10 0.05 0.03 0.01 0.01 0.03 0.10 0.16 0.13 0.11 0.10 0.07 0.09 0.12 0.14 0.15 0.15 0.13
0.10 0.09 0.08 0.13 0.11 0.12 0.10 0.11 0.18 0.24 0.27 0.23 0.23 0.17 0.10 0.07 0.13 0.07 0.07 0.03 0.05 0.04 0.04 0.03 0.02 0.03 0.04 0.01 0.01 0.02 0.02 0.04 0.11 0.17 0.21 0.15 0.15 0.14 0.17 0.16 0.16 0.22 0.19
0.03 0.04 0.07 0.09 0.09 0.08 0.14 0.20 0.28 0.30 0.28 0.19 0.11 0.09 0.09 0.11 0.12 0.06 0.05 0.01 0.03 0.03 0.03 0.03 0.02 0.01 0.01 0.02 0.09 0.09 0.05 0.03 0.04 0.06 0.12 0.10 0.11 0.11 0.16 0.17 0.20 0.19 0.11
0.02 0.03 0.04 0.05 0.08 0.16 0.28 0.33 0.22 0.14 0.10 0.07 0.06 0.05 0.07 0.10 0.11 0.06 0.05 0.04 0.06 0.06 0.05 0.04 0.02 0.02 0.04 0.09 0.14 0.13 0.07 0.05 0.05 0.06 0.09 0.11 0.11 0.09 0.12 0.24 0.26 0.30 0.25
0.02 0.03 0.03 0.13 0.28 0.32 0.23 0.07 0.03 0.04 0.06 0.06 0.06 0.05 0.10 0.08 0.13 0.09 0.08 0.08 0.10 0.08 0.04 0.02 0.03 0.04 0.12 0.16 0.25 0.23 0.21 0.08 0.09 0.10 0.09 0.08 0.07 0.07 0.07 0.14 0.23 0.43 0.34
0.06 0.14 0.23 0.23 0.12 0.06 0.03 0.02 0.03 0.04 0.05 0.05 0.05 0.06 0.09 0.11 0.12 0.12 0.11 0.09 0.12 0.09 0.04 0.03 0.05 0.24 0.20 0.14 0.13 0.17 0.19 0.12 0.12 0.11 0.11 0.11 0.09 0.07 0.08 0.11 0.16 0.31 0.38
0.05 0.05 0.04 0.06 0.06 0.05 0.04 0.03 0.04 0.05 0.06 0.06 0.07 0.08 0.08 0.09 0.11 0.10 0.08 0.07 0.06 0.11 0.09 0.14 0.26 0.14 0.08 0.06 0.10 0.14 0.10 0.08 0.16 0.22 0.20 0.15 0.15 0.14 0.12 0.13 0.18 0.20 0.19
0.02 0.02 0.03 0.04 0.04 0.03 0.04 0.05 0.06 0.06 0.06 0.06 0.07 0.07 0.08 0.07 0.09 0.08 0.04 0.04 0.03 0.07 0.17 0.19 0.14 0.11 0.08 0.10 0.16 0.14 0.15 0.26 0.31 0.29 0.24 0.16 0.19 0.21 0.27 0.33 0.27 0.25 0.31
0.03 0.01 0.01 0.02 0.03 0.02 0.04 0.04 0.05 0.05 0.06 0.08 0.10 0.11 0.11 0.08 0.05 0.04 0.05 0.04 0.07 0.13 0.13 0.18 0.19 0.15 0.17 0.22 0.21 0.19 0.25 0.28 0.28 0.32 0.26 0.22 0.24 0.33 0.40 0.42 0.46 0.46 0.52
0.00 0.00 0.00 0.01 0.02 0.01 0.02 0.05 0.05 0.05 0.08 0.07 0.07 0.06 0.08 0.07 0.05 0.08 0.11 0.15 0.21 0.18 0.22 0.28 0.22 0.19 0.19 0.18 0.15 0.15 0.17 0.18 0.21 0.20 0.23 0.25 0.26 0.28 0.31 0.42 0.45 0.35 0.36
0.00 0.00 0.01 0.02 0.02 0.02 0.03 0.06 0.07 0.05 0.07 0.05 0.04 0.04 0.06 0.06 0.07 0.10 0.13 0.16 0.19 0.20 0.38 0.31 0.26 0.27 0.26 0.23 0.23 0.20 0.18 0.21 0.20 0.27 0.31 0.29 0.30 0.31 0.27 0.21 0.19 0.17 0.19
0.00 0.00 0.01 0.02 0.03 0.02 0.03 0.03 0.05 0.10 0.12 0.16 0.18 0.19 0.16 0.18 0.18 0.17 0.16 0.16 0.19 0.26 0.40 0.28 0.26 0.25 0.20 0.17 0.20 0.24 0.26 0.25 0.22 0.25 0.24 0.21 0.20 0.18 0.16 0.16 0.15 0.13 0.14
0.06 0.11 0.14 0.14 0.13 0.12 0.14 0.18 0.22 0.28 0.29 0.28 0.20 0.14 0.11 0.08 0.07 0.07 0.10 0.20 0.25 0.20 0.21 0.20 0.21 0.16 0.11 0.11 0.12 0.13 0.15 0.17 0.18 0.17 0.18 0.17 0.18 0.19 0.17 0.12 0.12 0.13 0.11
0.22 0.19 0.17 0.19 0.22 0.22 0.22 0.25 0.26 0.27 0.26 0.22 0.19 0.16 0.12 0.12 0.13 0.14 0.16 0.32 0.30 0.22 0.17 0.15 0.12 0.12 0.11 0.11 0.13 0.14 0.17 0.17 0.16 0.18 0.17 0.18 0.20 0.21 0.20 0.16 0.15 0.13 0.13
0.21 0.30 0.29 0.31 0.34 0.32 0.32 0.30 0.27 0.25 0.23 0.21 0.18 0.15 0.15 0.18 0.21 0.18 0.20 0.23 0.22 0.17 0.13 0.14 0.12 0.13 0.16 0.18 0.21 0.22 0.20 0.15 0.15 0.15 0.16 0.18 0.22 0.25 0.27 0.23 0.21 0.22 0.16
0.45 0.47 0.44 0.41 0.38 0.34 0.30 0.26 0.24 0.24 0.24 0.22 0.21 0.20 0.20 0.27 0.25 0.20 0.15 0.14 0.15 0.16 0.16 0.17 0.18 0.22 0.22 0.20 0.19 0.18 0.15 0.14 0.14 0.16 0.16 0.17 0.19 0.19 0.18 0.21 0.17 0.15 0.12
0.49 0.45 0.40 0.37 0.32 0.29 0.24 0.21 0.23 0.27 0.24 0.21 0.15 0.11 0.12 0.18 0.16 0.16 0.17 0.20 0.21 0.24 0.27 0.28 0.23 0.18 0.18 0.20 0.19 0.19 0.16 0.14 0.15 0.16 0.16 0.15 0.14 0.14 0.15 0.16 0.15 0.16 0.14
0.32 0.28 0.24 0.23 0.23 0.22 0.22 0.22 0.21 0.18 0.17 0.16 0.18 0.21 0.18 0.21 0.22 0.23 0.21 0.19 0.19 0.18 0.12 0.14 0.14 0.11 0.10 0.14 0.18 0.20 0.17 0.12 0.14 0.18 0.20 0.17 0.15 0.15 0.16 0.16 0.16 0.16 0.14
0.19 0.21 0.22 0.22 0.20 0.18 0.17 0.17 0.16 0.17 0.22 0.26 0.24 0.21 0.20 0.19 0.22 0.21 0.18 0.15 0.13 0.12 0.14 0.18 0.15 0.12 0.12 0.13 0.16 0.17 0.16 0.12 0.19 0.19 0.21 0.18 0.13 0.11 0.15 0.15 0.14 0.15 0.13
0.15 0.16 0.17 0.18 0.20 0.21 0.20 0.23 0.28 0.27 0.24 0.23 0.22 0.20 0.17 0.16 0.15 0.13 0.14 0.16 0.15 0.14 0.13 0.13 0.16 0.17 0.15 0.17 0.18 0.16 0.16 0.22 0.26 0.23 0.31 0.20 0.13 0.12 0.13 0.13 0.12 0.15 0.14
0.13 0.17 0.20 0.20 0.23 0.27 0.30 0.27 0.22 0.19 0.20 0.18 0.18 0.18 0.17 0.16 0.14 0.14 0.14 0.16 0.18 0.15 0.14 0.15 0.14 0.13 0.13 0.14 0.16 0.20 0.19 0.21 0.30 0.30 0.37 0.30 0.21 0.16 0.15 0.16 0.15 0.17 0.12

GFSGL_prec_precacc_078.txt.gz
Total_Precipitation_Accumulation
0.10 0.20 0.33 0.39 0.58 0.91 0.87 1.17 0.94 0.90 0.96 0.82 0.62 0.63 0.56 0.49 0.45 0.39 0.32 0.26 0.21 0.17 0.13 0.12 0.11 0.09 0.08 0.07 0.06 0.02 0.01 0.01 0.01 0.00 0.00 0.00 0.00 0.00 0.00 0.00 0.00 0.02 0.04
0.69 1.01 0.92 1.05 1.21 1.11 1.37 1.94 1.33 0.97 0.72 0.50 0.36 0.28 0.29 0.34 0.36 0.30 0.23 0.19 0.18 0.17 0.19 0.24 0.25 0.24 0.19 0.12 0.07 0.02 0.01 0.00 0.01 0.00 0.00 0.00 0.00 0.00 0.00 0.00 0.00 0.00 0.00
1.02 1.00 1.09 1.49 0.97 0.59 0.44 0.36 0.32 0.25 0.19 0.12 0.10 0.13 0.15 0.14 0.20 0.27 0.30 0.28 0.27 0.24 0.23 0.26 0.29 0.27 0.20 0.13 0.12 0.10 0.02 0.01 0.02 0.05 0.02 0.00 0.00 0.00 0.00 0.01 0.01 0.01 0.00
0.72 0.70 0.65 0.62 0.61 0.38 0.30 0.25 0.26 0.24 0.22 0.15 0.13 0.14 0.14 0.14 0.14 0.12 0.11 0.09 0.09 0.13 0.17 0.19 0.19 0.16 0.12 0.07 0.05 0.04 0.03 0.03 0.03 0.03 0.03 0.02 0.02 0.02 0.03 0.03 0.04 0.03 0.02
0.32 0.29 0.26 0.23 0.18 0.16 0.16 0.12 0.13 0.07 0.06 0.08 0.12 0.19 0.18 0.14 0.14 0.12 0.08 0.07 0.07 0.08 0.07 0.06 0.05 0.10 0.11 0.08 0.07 0.06 0.08 0.10 0.08 0.08 0.06 0.05 0.04 0.03 0.05 0.05 0.09 0.05 0.04
0.22 0.18 0.14 0.14 0.16 0.13 0.12 0.14 0.08 0.07 0.10 0.14 0.16 0.15 0.12 0.10 0.17 0.11 0.06 0.04 0.04 0.06 0.05 0.05 0.07 0.14 0.09 0.10 0.09 0.08 0.07 0.12 0.17 0.13 0.11 0.10 0.07 0.09 0.12 0.14 0.15 0.15 0.13
0.10 0.09 0.08 0.13 0.11 0.12 0.10 0.12 0.19 0.26 0.27 0.23 0.23 0.18 0.11 0.08 0.13 0.07 0.08 0.04 0.06 0.07 0.07 0.06 0.05 0.06 0.09 0.03 0.04 0.04 0.03 0.04 0.11 0.17 0.21 0.15 0.15 0.14 0.17 0.16 0.16 0.22 0.19
0.03 0.04 0.07 0.09 0.09 0.08 0.14 0.20 0.28 0.31 0.29 0.20 0.12 0.11 0.11 0.11 0.14 0.08 0.09 0.03 0.04 0.05 0.06 0.06 0.06 0.05 0.07 0.07 0.13 0.13 0.07 0.04 0.04 0.07 0.12 0.10 0.11 0.11 0.16 0.17 0.20 0.19 0.11
0.02 0.03 0.04 0.05 0.08 0.16 0.28 0.33 0.22 0.14 0.10 0.08 0.08 0.07 0.08 0.11 0.16 0.10 0.09 0.05 0.08 0.09 0.09 0.12 0.14 0.14 0.21 0.24 0.25 0.16 0.08 0.05 0.05 0.06 0.09 0.11 0.11 0.09 0.12 0.24 0.26 0.30 0.25
0.02 0.03 0.03 0.13 0.28 0.32 0.23 0.07 0.03 0.04 0.07 0.06 0.06 0.06 0.14 0.10 0.19 0.12 0.10 0.08 0.11 0.13 0.12 0.12 0.14 0.12 0.22 0.21 0.27 0.24 0.21 0.08 0.09 0.10 0.09 0.08 0.07 0.07 0.07 0.14 0.23 0.43 0.34
0.06 0.14 0.23 0.23 0.12 0.06 0.05 0.04 0.04 0.04 0.05 0.06 0.06 0.07 0.10 0.13 0.15 0.15 0.14 0.10 0.13 0.16 0.12 0.11 0.12 0.32 0.25 0.16 0.14 0.17 0.19 0.12 0.12 0.12 0.11 0.11 0.09 0.07 0.08 0.11 0.16 0.31 0.38
0.05 0.05 0.04 0.06 0.06 0.06 0.05 0.05 0.06 0.06 0.06 0.06 0.07 0.08 0.08 0.10 0.16 0.15 0.12 0.14 0.17 0.21 0.18 0.22 0.32 0.20 0.10 0.06 0.10 0.14 0.10 0.09 0.16 0.22 0.20 0.15 0.15 0.14 0.12 0.13 0.18 0.20 0.19
0.02 0.03 0.04 0.05 0.06 0.06 0.08 0.08 0.07 0.06 0.06 0.06 0.07 0.08 0.09 0.09 0.14 0.15 0.12 0.12 0.11 0.13 0.23 0.25 0.17 0.13 0.08 0.10 0.16 0.14 0.15 0.26 0.31 0.29 0.24 0.16 0.19 0.21 0.27 0.33 0.27 0.25 0.31
0.03 0.02 0.01 0.03 0.05 0.03 0.04 0.04 0.05 0.05 0.07 0.09 0.10 0.12 0.15 0.16 0.16 0.17 0.16 0.15 0.16 0.21 0.17 0.20 0.20 0.15 0.17 0.22 0.21 0.20 0.25 0.28 0.28 0.32 0.26 0.22 0.24 0.33 0.40 0.42 0.46 0.46 0.52
0.01 0.01 0.01 0.02 0.03 0.01 0.02 0.05 0.05 0.06 0.10 0.09 0.09 0.09 0.12 0.15 0.16 0.20 0.21 0.22 0.27 0.22 0.24 0.29 0.22 0.20 0.20 0.19 0.15 0.15 0.17 0.18 0.21 0.20 0.23 0.25 0.26 0.28 0.31 0.42 0.45 0.35 0.36
0.00 0.00 0.02 0.02 0.03 0.03 0.04 0.07 0.09 0.07 0.09 0.08 0.10 0.12 0.19 0.21 0.23 0.25 0.25 0.25 0.24 0.23 0.42 0.34 0.28 0.28 0.26 0.23 0.23 0.20 0.18 0.21 0.20 0.27 0.31 0.29 0.31 0.31 0.27 0.21 0.19 0.17 0.19
0.02 0.01 0.02 0.03 0.04 0.03 0.04 0.04 0.06 0.14 0.20 0.28 0.32 0.34 0.28 0.30 0.29 0.26 0.23 0.23 0.24 0.28 0.42 0.29 0.27 0.26 0.20 0.17 0.20 0.24 0.27 0.25 0.22 0.25 0.25 0.21 0.20 0.18 0.17 0.16 0.15 0.13 0.14
0.34 0.35 0.35 0.32 0.29 0.27 0.24 0.24 0.26 0.31 0.34 0.38 0.31 0.22 0.18 0.15 0.13 0.12 0.14 0.23 0.27 0.21 0.21 0.21 0.21 0.16 0.11 0.11 0.12 0.13 0.15 0.17 0.18 0.18 0.18 0.18 0.18 0.19 0.18 0.13 0.12 0.13 0.11
0.51 0.50 0.48 0.45 0.38 0.32 0.28 0.30 0.31 0.31 0.30 0.28 0.25 0.22 0.18 0.16 0.16 0.16 0.16 0.33 0.30 0.22 0.17 0.15 0.12 0.12 0.11 0.12 0.13 0.15 0.17 0.18 0.16 0.19 0.18 0.19 0.20 0.21 0.20 0.16 0.16 0.13 0.13
0.37 0.46 0.42 0.43 0.46 0.41 0.40 0.36 0.34 0.31 0.29 0.26 0.22 0.18 0.17 0.19 0.22 0.18 0.21 0.24 0.22 0.17 0.14 0.14 0.12 0.13 0.16 0.19 0.21 0.22 0.20 0.15 0.15 0.16 0.16 0.19 0.22 0.25 0.28 0.23 0.22 0.22 0.16
0.64 0.67 0.62 0.56 0.53 0.47 0.39 0.33 0.29 0.28 0.27 0.25 0.24 0.22 0.21 0.27 0.25 0.20 0.16 0.14 0.16 0.16 0.17 0.18 0.19 0.22 0.22 0.21 0.19 0.18 0.16 0.14 0.15 0.16 0.16 0.17 0.19 0.19 0.19 0.22 0.18 0.15 0.12
0.58 0.55 0.50 0.45 0.40 0.35 0.29 0.24 0.26 0.28 0.25 0.22 0.16 0.11 0.12 0.18 0.17 0.16 0.18 0.20 0.22 0.24 0.27 0.28 0.23 0.18 0.19 0.20 0.19 0.20 0.16 0.15 0.16 0.17 0.16 0.15 0.15 0.15 0.16 0.16 0.16 0.16 0.14
0.39 0.33 0.28 0.27 0.25 0.24 0.24 0.23 0.22 0.19 0.18 0.16 0.18 0.21 0.19 0.22 0.23 0.23 0.22 0.20 0.20 0.18 0.12 0.14 0.15 0.11 0.10 0.14 0.18 0.21 0.18 0.12 0.14 0.19 0.20 0.18 0.16 0.15 0.17 0.17 0.16 0.16 0.14
0.21 0.23 0.23 0.23 0.21 0.19 0.18 0.18 0.17 0.17 0.22 0.26 0.24 0.22 0.20 0.20 0.22 0.22 0.18 0.15 0.14 0.12 0.14 0.18 0.15 0.12 0.12 0.13 0.16 0.18 0.16 0.13 0.19 0.20 0.21 0.19 0.13 0.12 0.16 0.15 0.15 0.15 0.14
0.16 0.16 0.18 0.19 0.20 0.21 0.20 0.23 0.28 0.28 0.24 0.23 0.23 0.20 0.17 0.17 0.15 0.14 0.14 0.16 0.15 0.14 0.13 0.13 0.16 0.17 0.15 0.17 0.18 0.16 0.16 0.22 0.26 0.23 0.31 0.21 0.14 0.12 0.13 0.14 0.13 0.16 0.15
0.13 0.17 0.20 0.20 0.23 0.27 0.30 0.27 0.22 0.19 0.20 0.19 0.19 0.18 0.17 0.16 0.15 0.15 0.14 0.16 0.18 0.15 0.14 0.15 0.14 0.13 0.13 0.14 0.16 0.20 0.19 0.21 0.30 0.30 0.38 0.31 0.22 0.17 0.16 0.17 0.16 0.18 0.12

GFSGL_prec_precacc_081.txt.gz
Total_Precipitation_Accumulation
0.10 0.20 0.33 0.39 0.58 0.91 0.87 1.17 0.94 0.90 0.96 0.82 0.62 0.63 0.56 0.50 0.46 0.40 0.33 0.27 0.23 0.19 0.16 0.15 0.13 0.11 0.10 0.08 0.08 0.07 0.07 0.07 0.07 0.02 0.01 0.00 0.00 0.00 0.00 0.00 0.00 0.02 0.04
0.69 1.01 0.92 1.05 1.21 1.11 1.37 1.94 1.33 0.97 0.72 0.50 0.36 0.28 0.29 0.34 0.37 0.30 0.24 0.19 0.18 0.18 0.19 0.24 0.26 0.24 0.21 0.17 0.15 0.15 0.15 0.13 0.11 0.05 0.01 0.00 0.00 0.00 0.00 0.00 0.00 0.00 0.00
1.02 1.00 1.09 1.49 0.97 0.59 0.44 0.36 0.32 0.25 0.19 0.12 0.10 0.13 0.15 0.14 0.20 0.27 0.30 0.28 0.27 0.24 0.24 0.26 0.29 0.30 0.28 0.26 0.27 0.26 0.21 0.16 0.11 0.10 0.04 0.00 0.00 0.00 0.00 0.01 0.01 0.01 0.00
0.72 0.70 0.65 0.63 0.61 0.38 0.30 0.25 0.26 0.24 0.22 0.15 0.13 0.14 0.14 0.14 0.14 0.12 0.11 0.09 0.09 0.13 0.17 0.20 0.19 0.18 0.17 0.15 0.13 0.11 0.10 0.11 0.10 0.10 0.05 0.03 0.03 0.02 0.03 0.03 0.04 0.03 0.02
0.32 0.29 0.26 0.23 0.18 0.16 0.16 0.12 0.13 0.07 0.06 0.08 0.12 0.19 0.18 0.14 0.14 0.12 0.08 0.07 0.07 0.08 0.08 0.07 0.05 0.11 0.12 0.08 0.08 0.07 0.10 0.14 0.15 0.16 0.13 0.10 0.07 0.04 0.05 0.05 0.09 0.05 0.04
0.22 0.18 0.14 0.14 0.16 0.13 0.13 0.15 0.08 0.07 0.10 0.14 0.16 0.15 0.12 0.10 0.17 0.11 0.06 0.04 0.04 0.06 0.05 0.05 0.07 0.16 0.11 0.14 0.14 0.14 0.12 0.17 0.24 0.22 0.18 0.12 0.08 0.09 0.12 0.14 0.15 0.15 0.13
0.10 0.09 0.08 0.13 0.11 0.12 0.10 0.12 0.19 0.27 0.28 0.23 0.23 0.18 0.11 0.08 0.13 0.07 0.08 0.04 0.06 0.07 0.07 0.06 0.06 0.08 0.12 0.04 0.08 0.10 0.09 0.10 0.16 0.21 0.26 0.19 0.18 0.15 0.17 0.16 0.16 0.22 0.19
0.03 0.04 0.07 0.09 0.09 0.08 0.14 0.20 0.28 0.32 0.30 0.21 0.13 0.12 0.11 0.11 0.14 0.09 0.10 0.03 0.04 0.05 0.06 0.06 0.08 0.08 0.11 0.12 0.17 0.18 0.14 0.15 0.18 0.22 0.27 0.21 0.14 0.11 0.16 0.17 0.20 0.19 0.11
0.02 0.03 0.04 0.05 0.08 0.16 0.28 0.33 0.22 0.14 0.10 0.08 0.09 0.09 0.09 0.13 0.19 0.13 0.11 0.05 0.09 0.10 0.10 0.15 0.19 0.17 0.31 0.32 0.31 0.29 0.23 0.19 0.18 0.18 0.16 0.15 0.12 0.10 0.12 0.24 0.26 0.30 0.25
0.02 0.03 0.03 0.13 0.28 0.32 0.23 0.07 0.03 0.04 0.07 0.06 0.07 0.07 0.16 0.11 0.23 0.16 0.13 0.09 0.12 0.15 0.14 0.16 0.24 0.18 0.34 0.29 0.34 0.31 0.30 0.17 0.18 0.17 0.14 0.11 0.08 0.07 0.07 0.14 0.23 0.43 0.34
0.06 0.14 0.23 0.23 0.12 0.06 0.05 0.04 0.04 0.04 0.05 0.07 0.08 0.08 0.11 0.16 0.19 0.19 0.17 0.12 0.14 0.17 0.16 0.16 0.21 0.45 0.33 0.24 0.21 0.23 0.27 0.19 0.16 0.14 0.12 0.12 0.09 0.07 0.08 0.11 0.16 0.31 0.38
0.05 0.05 0.04 0.06 0.06 0.06 0.05 0.06 0.08 0.08 0.08 0.07 0.08 0.10 0.09 0.12 0.19 0.18 0.15 0.17 0.22 0.23 0.24 0.30 0.46 0.38 0.23 0.17 0.21 0.24 0.18 0.15 0.20 0.23 0.20 0.15 0.15 0.14 0.12 0.13 0.18 0.20 0.19
0.02 0.03 0.04 0.05 0.06 0.06 0.08 0.10 0.11 0.10 0.09 0.09 0.09 0.09 0.10 0.10 0.15 0.17 0.14 0.14 0.14 0.15 0.28 0.34 0.32 0.29 0.20 0.20 0.25 0.21 0.18 0.27 0.31 0.29 0.24 0.16 0.19 0.21 0.27 0.33 0.27 0.25 0.31
0.03 0.02 0.02 0.04 0.09 0.06 0.08 0.08 0.09 0.08 0.09 0.11 0.13 0.14 0.15 0.16 0.16 0.18 0.19 0.18 0.21 0.28 0.31 0.39 0.39 0.31 0.30 0.32 0.29 0.24 0.27 0.29 0.29 0.32 0.26 0.22 0.24 0.33 0.40 0.42 0.46 0.46 0.52
0.04 0.05 0.04 0.05 0.06 0.04 0.06 0.11 0.12 0.12 0.16 0.13 0.12 0.12 0.14 0.16 0.19 0.25 0.24 0.28 0.35 0.32 0.36 0.40 0.33 0.30 0.28 0.24 0.17 0.16 0.17 0.18 0.21 0.20 0.23 0.25 0.26 0.28 0.31 0.42 0.45 0.35 0.36
0.06 0.06 0.10 0.09 0.07 0.07 0.08 0.12 0.15 0.14 0.16 0.14 0.17 0.18 0.26 0.27 0.31 0.31 0.32 0.33 0.32 0.30 0.48 0.40 0.34 0.33 0.30 0.26 0.25 0.21 0.18 0.21 0.20 0.27 0.31 0.29 0.31 0.31 0.27 0.22 0.19 0.17 0.19
0.09 0.09 0.09 0.09 0.08 0.06 0.05 0.06 0.11 0.24 0.32 0.43 0.50 0.53 0.44 0.44 0.39 0.34 0.31 0.30 0.29 0.33 0.46 0.34 0.32 0.31 0.24 0.19 0.21 0.25 0.28 0.26 0.22 0.26 0.25 0.22 0.21 0.19 0.17 0.16 0.16 0.13 0.14
0.78 0.83 0.77 0.67 0.53 0.48 0.48 0.50 0.54 0.58 0.61 0.66 0.58 0.43 0.33 0.26 0.21 0.17 0.17 0.25 0.30 0.24 0.24 0.24 0.24 0.17 0.12 0.12 0.12 0.14 0.15 0.18 0.19 0.18 0.19 0.18 0.19 0.20 0.18 0.13 0.12 0.13 0.12
0.71 0.79 0.80 0.79 0.73 0.64 0.55 0.52 0.50 0.49 0.46 0.44 0.40 0.34 0.27 0.22 0.20 0.20 0.20 0.35 0.31 0.22 0.18 0.15 0.13 0.13 0.12 0.12 0.14 0.15 0.18 0.18 0.17 0.20 0.18 0.20 0.21 0.22 0.21 0.17 0.16 0.14 0.13
0.43 0.57 0.55 0.59 0.64 0.59 0.56 0.52 0.50 0.47 0.44 0.39 0.35 0.29 0.27 0.26 0.26 0.22 0.23 0.25 0.23 0.18 0.14 0.14 0.13 0.13 0.16 0.19 0.22 0.23 0.21 0.16 0.16 0.16 0.16 0.19 0.23 0.26 0.29 0.24 0.22 0.23 0.16
0.72 0.77 0.73 0.67 0.65 0.60 0.52 0.45 0.40 0.37 0.35 0.32 0.31 0.29 0.26 0.31 0.28 0.22 0.17 0.15 0.16 0.16 0.17 0.18 0.19 0.23 0.23 0.21 0.20 0.18 0.16 0.14 0.15 0.17 0.16 0.18 0.20 0.20 0.19 0.22 0.18 0.16 0.13
0.62 0.61 0.56 0.52 0.49 0.44 0.39 0.33 0.34 0.35 0.31 0.26 0.20 0.14 0.14 0.19 0.17 0.17 0.18 0.21 0.23 0.25 0.27 0.28 0.23 0.19 0.19 0.20 0.19 0.20 0.16 0.15 0.16 0.17 0.16 0.15 0.15 0.15 0.16 0.17 0.17 0.17 0.15
0.42 0.36 0.32 0.31 0.30 0.30 0.29 0.28 0.27 0.22 0.21 0.19 0.19 0.22 0.19 0.22 0.23 0.24 0.22 0.20 0.20 0.18 0.13 0.14 0.15 0.11 0.10 0.15 0.19 0.21 0.18 0.13 0.14 0.19 0.21 0.18 0.16 0.15 0.17 0.18 0.17 0.17 0.15
0.22 0.24 0.24 0.24 0.23 0.20 0.19 0.19 0.18 0.18 0.23 0.26 0.24 0.22 0.20 0.20 0.23 0.22 0.18 0.15 0.14 0.12 0.14 0.18 0.15 0.12 0.12 0.13 0.16 0.18 0.16 0.13 0.19 0.20 0.22 0.19 0.14 0.12 0.16 0.16 0.15 0.16 0.14
0.16 0.16 0.18 0.19 0.20 0.21 0.20 0.23 0.28 0.28 0.24 0.23 0.23 0.21 0.18 0.17 0.15 0.14 0.15 0.16 0.15 0.14 0.13 0.13 0.16 0.17 0.15 0.17 0.18 0.16 0.16 0.22 0.26 0.23 0.31 0.21 0.14 0.13 0.14 0.15 0.14 0.17 0.16
0.13 0.17 0.20 0.20 0.23 0.27 0.30 0.27 0.22 0.19 0.20 0.19 0.19 0.18 0.17 0.16 0.15 0.15 0.15 0.16 0.18 0.15 0.14 0.15 0.14 0.13 0.13 0.14 0.16 0.20 0.19 0.21 0.30 0.30 0.38 0.31 0.22 0.18 0.16 0.17 0.16 0.19 0.13

GFSGL_prec_precacc_084.txt.gz
Total_Precipitation_Accumulation
0.10 0.20 0.33 0.39 0.58 0.92 0.88 1.17 0.94 0.90 0.96 0.82 0.62 0.63 0.56 0.50 0.46 0.40 0.33 0.27 0.24 0.20 0.17 0.17 0.14 0.14 0.14 0.12 0.12 0.12 0.09 0.08 0.07 0.03 0.02 0.00 0.00 0.00 0.00 0.00 0.00 0.02 0.04
0.69 1.01 0.92 1.05 1.21 1.11 1.38 1.94 1.33 0.98 0.72 0.50 0.36 0.28 0.29 0.34 0.37 0.30 0.24 0.19 0.18 0.18 0.20 0.26 0.26 0.26 0.23 0.19 0.16 0.16 0.15 0.14 0.15 0.11 0.06 0.04 0.02 0.00 0.00 0.00 0.00 0.00 0.00
1.02 1.00 1.09 1.49 0.97 0.59 0.44 0.37 0.33 0.25 0.19 0.12 0.10 0.13 0.15 0.14 0.20 0.27 0.30 0.28 0.27 0.24 0.24 0.27 0.30 0.32 0.29 0.27 0.28 0.26 0.22 0.19 0.18 0.20 0.12 0.04 0.03 0.01 0.01 0.01 0.01 0.01 0.00
0.72 0.70 0.65 0.63 0.61 0.38 0.30 0.25 0.26 0.24 0.22 0.15 0.13 0.14 0.14 0.14 0.14 0.12 0.11 0.09 0.09 0.13 0.17 0.20 0.19 0.19 0.17 0.15 0.14 0.12 0.11 0.14 0.13 0.16 0.16 0.10 0.07 0.05 0.06 0.05 0.05 0.03 0.02
0.32 0.29 0.26 0.23 0.18 0.16 0.16 0.12 0.13 0.07 0.06 0.08 0.12 0.19 0.18 0.14 0.14 0.12 0.08 0.07 0.07 0.08 0.08 0.07 0.05 0.11 0.12 0.10 0.10 0.09 0.12 0.16 0.16 0.18 0.18 0.16 0.13 0.11 0.12 0.11 0.13 0.07 0.04
0.22 0.18 0.14 0.14 0.16 0.13 0.13 0.15 0.08 0.07 0.10 0.14 0.16 0.15 0.12 0.10 0.17 0.11 0.06 0.04 0.04 0.06 0.05 0.05 0.07 0.16 0.12 0.15 0.15 0.16 0.13 0.19 0.26 0.26 0.28 0.29 0.22 0.17 0.18 0.21 0.21 0.21 0.17
0.10 0.09 0.08 0.13 0.11 0.12 0.10 0.12 0.19 0.29 0.28 0.23 0.23 0.18 0.11 0.08 0.13 0.08 0.08 0.04 0.06 0.07 0.07 0.06 0.06 0.08 0.12 0.05 0.09 0.13 0.14 0.20 0.26 0.33 0.41 0.35 0.33 0.30 0.36 0.36 0.33 0.34 0.27
0.03 0.04 0.07 0.09 0.09 0.08 0.14 0.20 0.28 0.32 0.31 0.22 0.14 0.12 0.11 0.11 0.14 0.09 0.11 0.04 0.04 0.05 0.06 0.06 0.08 0.09 0.12 0.13 0.17 0.21 0.19 0.21 0.25 0.30 0.38 0.36 0.36 0.34 0.33 0.33 0.33 0.27 0.15
0.02 0.03 0.04 0.05 0.08 0.16 0.28 0.33 0.22 0.14 0.10 0.08 0.11 0.10 0.10 0.13 0.19 0.13 0.11 0.06 0.09 0.10 0.10 0.15 0.20 0.18 0.39 0.41 0.37 0.34 0.32 0.29 0.32 0.31 0.27 0.28 0.28 0.23 0.23 0.35 0.34 0.35 0.27
0.02 0.03 0.03 0.13 0.28 0.32 0.23 0.07 0.03 0.04 0.07 0.06 0.07 0.08 0.16 0.12 0.24 0.16 0.14 0.10 0.13 0.16 0.16 0.19 0.34 0.24 0.47 0.37 0.39 0.34 0.37 0.27 0.27 0.30 0.27 0.23 0.18 0.16 0.14 0.20 0.27 0.46 0.35
0.06 0.14 0.23 0.23 0.12 0.06 0.05 0.04 0.04 0.04 0.05 0.07 0.08 0.08 0.13 0.18 0.22 0.22 0.19 0.13 0.16 0.23 0.23 0.24 0.31 0.60 0.40 0.32 0.28 0.27 0.35 0.29 0.29 0.26 0.23 0.23 0.20 0.16 0.14 0.15 0.19 0.32 0.39
0.05 0.05 0.05 0.08 0.07 0.06 0.06 0.06 0.08 0.08 0.08 0.07 0.08 0.11 0.11 0.13 0.23 0.21 0.18 0.22 0.28 0.28 0.30 0.35 0.55 0.50 0.29 0.24 0.28 0.32 0.29 0.26 0.33 0.37 0.34 0.26 0.22 0.18 0.14 0.14 0.18 0.21 0.19
0.02 0.03 0.05 0.09 0.10 0.10 0.13 0.12 0.12 0.12 0.11 0.11 0.10 0.11 0.11 0.11 0.18 0.23 0.18 0.19 0.18 0.17 0.31 0.41 0.43 0.37 0.25 0.24 0.30 0.26 0.24 0.35 0.41 0.38 0.32 0.22 0.21 0.22 0.27 0.33 0.27 0.25 0.31
0.03 0.02 0.03 0.08 0.13 0.10 0.11 0.10 0.11 0.12 0.16 0.21 0.25 0.27 0.30 0.31 0.30 0.31 0.31 0.29 0.30 0.34 0.36 0.44 0.43 0.35 0.36 0.40 0.40 0.34 0.36 0.37 0.34 0.37 0.30 0.26 0.27 0.34 0.41 0.42 0.46 0.46 0.52
0.06 0.07 0.08 0.08 0.08 0.07 0.10 0.17 0.18 0.21 0.32 0.34 0.38 0.43 0.46 0.49 0.46 0.44 0.39 0.36 0.41 0.40 0.42 0.46 0.40 0.38 0.37 0.34 0.26 0.23 0.23 0.23 0.26 0.24 0.28 0.29 0.28 0.29 0.31 0.42 0.45 0.35 0.36
0.10 0.11 0.17 0.16 0.17 0.17 0.18 0.23 0.29 0.28 0.30 0.29 0.35 0.39 0.54 0.61 0.66 0.56 0.50 0.50 0.49 0.47 0.64 0.58 0.52 0.49 0.43 0.36 0.33 0.28 0.24 0.26 0.24 0.29 0.32 0.30 0.31 0.31 0.27 0.22 0.19 0.17 0.20
0.18 0.19 0.19 0.18 0.20 0.22 0.24 0.27 0.36 0.51 0.59 0.67 0.75 0.82 0.74 0.76 0.72 0.68 0.62 0.57 0.53 0.52 0.62 0.47 0.44 0.41 0.31 0.25 0.26 0.28 0.30 0.26 0.22 0.26 0.25 0.22 0.21 0.19 0.17 0.16 0.16 0.14 0.14
0.82 0.92 0.93 0.97 0.91 0.83 0.80 0.82 0.85 0.86 0.90 0.96 0.82 0.65 0.57 0.50 0.44 0.39 0.36 0.40 0.43 0.35 0.33 0.31 0.30 0.22 0.14 0.13 0.12 0.14 0.15 0.18 0.19 0.18 0.19 0.18 0.19 0.20 0.19 0.14 0.13 0.14 0.12
0.73 0.82 0.86 0.90 0.91 0.86 0.79 0.77 0.74 0.70 0.63 0.60 0.54 0.49 0.43 0.37 0.35 0.34 0.32 0.45 0.40 0.30 0.23 0.19 0.16 0.14 0.12 0.12 0.14 0.15 0.18 0.18 0.17 0.20 0.19 0.20 0.22 0.23 0.21 0.17 0.16 0.14 0.14
0.47 0.62 0.60 0.65 0.73 0.71 0.70 0.67 0.64 0.59 0.55 0.51 0.46 0.42 0.39 0.35 0.35 0.31 0.31 0.32 0.28 0.22 0.16 0.15 0.13 0.13 0.16 0.19 0.22 0.23 0.21 0.16 0.16 0.16 0.17 0.19 0.23 0.26 0.29 0.24 0.23 0.24 0.17
0.75 0.80 0.76 0.70 0.70 0.67 0.61 0.54 0.48 0.45 0.42 0.39 0.40 0.37 0.32 0.35 0.33 0.26 0.20 0.17 0.17 0.17 0.17 0.18 0.19 0.23 0.23 0.21 0.20 0.18 0.16 0.14 0.15 0.17 0.16 0.18 0.20 0.20 0.19 0.23 0.19 0.16 0.13
0.64 0.63 0.58 0.55 0.52 0.48 0.43 0.38 0.40 0.41 0.37 0.32 0.27 0.19 0.17 0.22 0.19 0.18 0.19 0.21 0.23 0.25 0.27 0.29 0.23 0.19 0.19 0.20 0.19 0.20 0.16 0.15 0.16 0.17 0.17 0.15 0.15 0.15 0.16 0.17 0.17 0.17 0.15
0.43 0.38 0.33 0.33 0.32 0.32 0.31 0.31 0.30 0.26 0.24 0.22 0.22 0.23 0.20 0.23 0.24 0.24 0.23 0.21 0.20 0.18 0.13 0.14 0.15 0.12 0.10 0.15 0.19 0.21 0.18 0.13 0.14 0.19 0.21 0.18 0.16 0.16 0.18 0.18 0.17 0.17 0.16
0.23 0.25 0.25 0.25 0.24 0.21 0.20 0.19 0.18 0.18 0.23 0.26 0.24 0.22 0.20 0.20 0.23 0.22 0.19 0.15 0.14 0.12 0.14 0.18 0.16 0.12 0.12 0.13 0.16 0.18 0.16 0.13 0.19 0.20 0.22 0.19 0.14 0.12 0.16 0.16 0.16 0.16 0.15
0.16 0.16 0.18 0.19 0.21 0.21 0.20 0.23 0.28 0.28 0.24 0.23 0.23 0.21 0.18 0.17 0.16 0.14 0.15 0.16 0.15 0.15 0.13 0.13 0.16 0.17 0.15 0.17 0.18 0.17 0.16 0.22 0.26 0.23 0.31 0.21 0.14 0.13 0.14 0.15 0.14 0.17 0.16
0.13 0.17 0.20 0.21 0.23 0.27 0.31 0.27 0.22 0.20 0.20 0.19 0.19 0.18 0.17 0.16 0.15 0.15 0.15 0.16 0.18 0.15 0.14 0.15 0.15 0.13 0.13 0.14 0.16 0.20 0.19 0.21 0.30 0.30 0.38 0.31 0.22 0.18 0.17 0.18 0.16 0.19 0.13

GFSGL_prec_precacc_087.txt.gz
Total_Precipitation_Accumulation
0.10 0.20 0.33 0.40 0.58 0.92 0.88 1.17 0.94 0.90 0.96 0.82 0.62 0.63 0.56 0.50 0.46 0.40 0.33 0.27 0.24 0.20 0.17 0.17 0.14 0.14 0.15 0.13 0.14 0.15 0.12 0.10 0.08 0.03 0.02 0.00 0.00 0.00 0.00 0.01 0.01 0.03 0.04
0.69 1.01 0.92 1.05 1.21 1.11 1.38 1.94 1.33 0.98 0.72 0.50 0.36 0.28 0.29 0.34 0.37 0.30 0.24 0.19 0.18 0.18 0.20 0.26 0.26 0.27 0.23 0.19 0.17 0.17 0.16 0.15 0.16 0.12 0.06 0.04 0.03 0.02 0.01 0.00 0.00 0.00 0.00
1.02 1.00 1.09 1.49 0.97 0.59 0.44 0.37 0.33 0.25 0.19 0.12 0.10 0.13 0.15 0.14 0.20 0.27 0.30 0.28 0.27 0.24 0.24 0.27 0.30 0.33 0.29 0.27 0.29 0.28 0.24 0.22 0.20 0.22 0.13 0.05 0.04 0.02 0.02 0.01 0.01 0.01 0.00
0.72 0.70 0.65 0.63 0.61 0.38 0.30 0.25 0.26 0.24 0.22 0.15 0.13 0.14 0.14 0.14 0.14 0.12 0.11 0.09 0.09 0.13 0.17 0.20 0.19 0.19 0.17 0.15 0.14 0.13 0.15 0.18 0.19 0.22 0.20 0.12 0.08 0.06 0.06 0.06 0.06 0.03 0.03
0.32 0.29 0.26 0.23 0.18 0.16 0.16 0.12 0.13 0.07 0.06 0.08 0.12 0.19 0.18 0.14 0.14 0.12 0.08 0.07 0.07 0.08 0.08 0.07 0.05 0.11 0.12 0.10 0.11 0.11 0.16 0.20 0.21 0.23 0.23 0.21 0.16 0.14 0.15 0.14 0.17 0.11 0.08
0.22 0.18 0.14 0.14 0.16 0.13 0.13 0.15 0.08 0.07 0.10 0.14 0.16 0.15 0.12 0.10 0.17 0.11 0.06 0.04 0.04 0.06 0.05 0.05 0.07 0.16 0.12 0.15 0.16 0.17 0.16 0.22 0.29 0.29 0.30 0.31 0.26 0.24 0.27 0.31 0.30 0.31 0.31
0.10 0.09 0.08 0.14 0.11 0.12 0.10 0.12 0.19 0.29 0.29 0.23 0.24 0.18 0.11 0.08 0.13 0.08 0.08 0.04 0.06 0.07 0.07 0.06 0.06 0.08 0.12 0.05 0.10 0.17 0.19 0.24 0.31 0.37 0.44 0.38 0.40 0.38 0.45 0.51 0.52 0.52 0.44
0.06 0.06 0.07 0.10 0.11 0.12 0.14 0.20 0.28 0.32 0.31 0.22 0.14 0.13 0.11 0.12 0.14 0.09 0.11 0.04 0.04 0.06 0.06 0.06 0.08 0.09 0.12 0.13 0.19 0.23 0.22 0.26 0.33 0.38 0.47 0.48 0.48 0.47 0.47 0.47 0.47 0.43 0.32
0.05 0.07 0.06 0.06 0.11 0.20 0.29 0.33 0.22 0.14 0.10 0.08 0.11 0.10 0.10 0.14 0.19 0.13 0.12 0.06 0.09 0.10 0.10 0.15 0.20 0.18 0.40 0.44 0.38 0.35 0.35 0.37 0.49 0.49 0.46 0.48 0.47 0.38 0.34 0.43 0.44 0.49 0.44
0.03 0.06 0.06 0.18 0.33 0.36 0.26 0.08 0.03 0.05 0.07 0.06 0.08 0.08 0.17 0.13 0.24 0.17 0.15 0.10 0.13 0.17 0.17 0.20 0.38 0.27 0.50 0.40 0.40 0.34 0.39 0.33 0.34 0.39 0.37 0.36 0.34 0.31 0.29 0.33 0.41 0.59 0.46
0.06 0.14 0.24 0.26 0.18 0.11 0.09 0.07 0.07 0.09 0.09 0.08 0.08 0.09 0.13 0.20 0.24 0.27 0.21 0.15 0.17 0.24 0.25 0.27 0.36 0.70 0.45 0.39 0.36 0.31 0.43 0.43 0.45 0.41 0.38 0.36 0.29 0.23 0.22 0.23 0.27 0.39 0.43
0.05 0.05 0.05 0.10 0.13 0.14 0.13 0.14 0.13 0.11 0.10 0.08 0.09 0.12 0.12 0.15 0.27 0.27 0.24 0.28 0.35 0.31 0.35 0.43 0.65 0.63 0.37 0.32 0.37 0.43 0.41 0.36 0.40 0.46 0.42 0.35 0.33 0.28 0.20 0.17 0.20 0.22 0.20
0.02 0.03 0.05 0.10 0.13 0.16 0.21 0.21 0.21 0.20 0.16 0.16 0.16 0.16 0.16 0.17 0.25 0.32 0.28 0.31 0.32 0.28 0.45 0.59 0.59 0.49 0.33 0.31 0.39 0.36 0.34 0.43 0.48 0.47 0.41 0.30 0.27 0.26 0.30 0.35 0.28 0.26 0.31
0.03 0.02 0.03 0.09 0.14 0.12 0.15 0.15 0.16 0.17 0.20 0.27 0.32 0.34 0.38 0.38 0.39 0.42 0.45 0.48 0.52 0.59 0.67 0.75 0.71 0.59 0.56 0.56 0.56 0.49 0.48 0.47 0.43 0.46 0.40 0.35 0.33 0.39 0.45 0.45 0.47 0.46 0.52
0.06 0.07 0.08 0.09 0.10 0.08 0.11 0.22 0.26 0.36 0.49 0.53 0.61 0.68 0.70 0.69 0.73 0.76 0.72 0.77 0.88 0.89 0.90 0.95 0.87 0.79 0.74 0.65 0.54 0.47 0.42 0.38 0.38 0.34 0.35 0.34 0.32 0.31 0.32 0.42 0.45 0.35 0.36
0.10 0.11 0.18 0.18 0.20 0.21 0.23 0.30 0.39 0.41 0.44 0.44 0.53 0.60 0.78 0.85 0.94 0.88 0.91 0.95 0.97 0.96 1.09 1.03 0.97 0.90 0.78 0.65 0.55 0.42 0.33 0.33 0.29 0.33 0.35 0.31 0.31 0.31 0.27 0.22 0.19 0.17 0.20
0.18 0.19 0.19 0.20 0.26 0.31 0.37 0.43 0.54 0.74 0.82 0.94 1.01 1.06 1.00 1.11 1.08 1.01 0.94 0.90 0.85 0.79 0.86 0.70 0.63 0.56 0.44 0.34 0.33 0.33 0.34 0.28 0.23 0.26 0.25 0.22 0.21 0.19 0.17 0.16 0.16 0.14 0.14
0.83 0.94 0.94 1.00 0.99 0.95 0.91 0.91 0.94 0.98 1.07 1.27 1.21 1.04 0.95 0.87 0.78 0.67 0.58 0.54 0.54 0.43 0.41 0.39 0.37 0.28 0.20 0.17 0.16 0.15 0.16 0.18 0.19 0.18 0.19 0.18 0.19 0.20 0.19 0.14 0.13 0.14 0.12
0.74 0.84 0.89 0.93 0.95 0.92 0.89 0.89 0.86 0.82 0.75 0.73 0.66 0.60 0.55 0.49 0.46 0.45 0.42 0.53 0.47 0.37 0.29 0.24 0.20 0.17 0.15 0.13 0.14 0.15 0.18 0.18 0.17 0.20 0.19 0.20 0.22 0.23 0.21 0.17 0.16 0.14 0.14
0.49 0.64 0.61 0.67 0.76 0.73 0.74 0.71 0.70 0.67 0.65 0.61 0.56 0.52 0.48 0.41 0.42 0.38 0.38 0.37 0.33 0.26 0.19 0.17 0.14 0.14 0.16 0.19 0.22 0.23 0.21 0.16 0.16 0.16 0.17 0.19 0.23 0.26 0.29 0.24 0.23 0.24 0.17
0.77 0.82 0.77 0.72 0.72 0.70 0.64 0.57 0.52 0.49 0.46 0.43 0.45 0.43 0.37 0.39 0.38 0.31 0.24 0.20 0.19 0.18 0.18 0.18 0.19 0.23 0.23 0.21 0.20 0.18 0.16 0.14 0.15 0.17 0.16 0.18 0.20 0.20 0.19 0.23 0.19 0.16 0.13
0.67 0.65 0.60 0.57 0.54 0.50 0.45 0.40 0.42 0.43 0.39 0.35 0.30 0.22 0.19 0.24 0.21 0.19 0.19 0.21 0.23 0.25 0.27 0.29 0.23 0.19 0.19 0.20 0.19 0.20 0.16 0.15 0.16 0.17 0.17 0.15 0.15 0.15 0.16 0.17 0.17 0.17 0.15
0.45 0.40 0.35 0.34 0.33 0.33 0.32 0.32 0.31 0.26 0.25 0.22 0.22 0.24 0.20 0.23 0.24 0.24 0.23 0.21 0.20 0.18 0.13 0.14 0.15 0.12 0.10 0.15 0.19 0.21 0.18 0.13 0.14 0.19 0.21 0.18 0.16 0.16 0.18 0.18 0.17 0.17 0.16
0.25 0.26 0.26 0.26 0.24 0.21 0.20 0.19 0.18 0.18 0.23 0.26 0.24 0.22 0.21 0.20 0.23 0.22 0.19 0.15 0.14 0.12 0.14 0.18 0.16 0.12 0.12 0.13 0.16 0.18 0.16 0.13 0.19 0.20 0.22 0.19 0.14 0.12 0.16 0.16 0.16 0.16 0.15
0.16 0.16 0.18 0.19 0.21 0.21 0.20 0.23 0.28 0.28 0.24 0.24 0.23 0.21 0.18 0.17 0.16 0.14 0.15 0.16 0.15 0.15 0.13 0.13 0.16 0.17 0.15 0.17 0.18 0.17 0.16 0.22 0.26 0.23 0.31 0.21 0.14 0.13 0.14 0.15 0.14 0.18 0.16
0.13 0.17 0.20 0.21 0.23 0.27 0.31 0.27 0.22 0.20 0.20 0.19 0.19 0.18 0.17 0.16 0.15 0.15 0.15 0.16 0.18 0.15 0.14 0.15 0.15 0.13 0.13 0.15 0.16 0.20 0.19 0.21 0.30 0.30 0.38 0.31 0.23 0.18 0.17 0.18 0.16 0.19 0.13

GFSGL_prec_precacc_090.txt.gz
Total_Precipitation_Accumulation
0.10 0.20 0.33 0.40 0.58 0.92 0.88 1.17 0.94 0.90 0.96 0.82 0.62 0.63 0.56 0.50 0.46 0.40 0.33 0.27 0.24 0.20 0.17 0.17 0.14 0.14 0.15 0.14 0.14 0.15 0.12 0.12 0.11 0.03 0.02 0.00 0.00 0.00 0.00 0.01 0.01 0.03 0.05
0.69 1.01 0.92 1.05 1.21 1.11 1.38 1.94 1.33 0.98 0.72 0.50 0.36 0.28 0.29 0.34 0.37 0.30 0.24 0.19 0.18 0.18 0.20 0.26 0.26 0.27 0.23 0.19 0.17 0.17 0.16 0.15 0.17 0.12 0.06 0.04 0.03 0.02 0.01 0.00 0.00 0.01 0.00
1.02 1.00 1.09 1.49 0.97 0.59 0.44 0.37 0.33 0.25 0.19 0.12 0.10 0.13 0.15 0.14 0.20 0.27 0.30 0.28 0.27 0.24 0.24 0.27 0.30 0.33 0.29 0.27 0.29 0.28 0.24 0.22 0.20 0.22 0.13 0.05 0.04 0.02 0.02 0.01 0.01 0.01 0.00
0.73 0.70 0.65 0.63 0.61 0.38 0.30 0.25 0.26 0.24 0.22 0.15 0.13 0.14 0.14 0.14 0.14 0.12 0.11 0.09 0.09 0.13 0.17 0.20 0.19 0.19 0.17 0.15 0.14 0.13 0.15 0.18 0.19 0.23 0.21 0.12 0.09 0.06 0.06 0.06 0.06 0.03 0.03
0.33 0.29 0.26 0.23 0.18 0.16 0.16 0.12 0.13 0.07 0.06 0.08 0.12 0.19 0.18 0.14 0.14 0.12 0.08 0.07 0.07 0.08 0.08 0.07 0.05 0.11 0.12 0.10 0.11 0.11 0.16 0.20 0.22 0.24 0.23 0.21 0.16 0.14 0.15 0.14 0.18 0.12 0.09
0.25 0.20 0.16 0.15 0.18 0.15 0.14 0.15 0.08 0.07 0.10 0.14 0.16 0.15 0.13 0.11 0.17 0.11 0.06 0.04 0.04 0.06 0.05 0.05 0.07 0.16 0.12 0.15 0.16 0.17 0.16 0.23 0.29 0.30 0.31 0.32 0.26 0.24 0.27 0.31 0.30 0.33 0.35
0.22 0.21 0.15 0.20 0.16 0.16 0.16 0.15 0.20 0.30 0.29 0.23 0.24 0.18 0.11 0.08 0.14 0.08 0.08 0.04 0.06 0.07 0.07 0.06 0.06 0.08 0.12 0.05 0.10 0.17 0.19 0.25 0.32 0.39 0.45 0.39 0.41 0.38 0.46 0.53 0.56 0.59 0.53
0.14 0.19 0.18 0.16 0.16 0.17 0.18 0.23 0.31 0.34 0.32 0.23 0.14 0.13 0.11 0.12 0.15 0.10 0.11 0.04 0.04 0.06 0.06 0.06 0.08 0.09 0.12 0.13 0.19 0.25 0.24 0.28 0.35 0.41 0.52 0.55 0.54 0.54 0.56 0.57 0.60 0.62 0.52
0.06 0.11 0.12 0.12 0.19 0.29 0.36 0.38 0.25 0.16 0.14 0.11 0.14 0.13 0.11 0.14 0.20 0.15 0.13 0.06 0.09 0.10 0.10 0.15 0.20 0.18 0.40 0.44 0.39 0.37 0.39 0.43 0.59 0.61 0.58 0.64 0.64 0.54 0.44 0.52 0.55 0.60 0.58
0.03 0.07 0.08 0.21 0.38 0.43 0.36 0.18 0.11 0.10 0.14 0.14 0.13 0.10 0.19 0.15 0.27 0.19 0.16 0.11 0.14 0.18 0.17 0.20 0.39 0.28 0.52 0.42 0.42 0.35 0.40 0.36 0.37 0.44 0.44 0.44 0.42 0.41 0.41 0.44 0.50 0.69 0.58
0.06 0.14 0.24 0.26 0.19 0.14 0.16 0.15 0.14 0.18 0.18 0.14 0.10 0.10 0.15 0.23 0.27 0.30 0.23 0.16 0.18 0.26 0.28 0.30 0.39 0.78 0.51 0.44 0.42 0.35 0.51 0.57 0.61 0.51 0.45 0.46 0.41 0.34 0.32 0.32 0.33 0.43 0.47
0.05 0.05 0.05 0.10 0.13 0.14 0.15 0.17 0.18 0.19 0.18 0.14 0.14 0.16 0.16 0.19 0.33 0.31 0.27 0.31 0.39 0.33 0.40 0.51 0.76 0.79 0.47 0.43 0.49 0.62 0.64 0.54 0.54 0.60 0.59 0.53 0.49 0.42 0.32 0.25 0.25 0.25 0.22
0.02 0.03 0.05 0.10 0.13 0.16 0.21 0.23 0.24 0.25 0.24 0.25 0.25 0.24 0.25 0.26 0.33 0.45 0.37 0.42 0.44 0.39 0.58 0.77 0.76 0.63 0.46 0.44 0.55 0.56 0.55 0.64 0.72 0.72 0.66 0.53 0.46 0.42 0.42 0.46 0.37 0.33 0.37
0.03 0.02 0.03 0.09 0.14 0.12 0.15 0.15 0.17 0.20 0.26 0.37 0.46 0.49 0.50 0.50 0.50 0.53 0.60 0.68 0.79 0.92 1.07 1.14 0.98 0.83 0.82 0.91 1.02 0.97 0.95 0.94 0.92 0.95 0.87 0.78 0.68 0.63 0.59 0.53 0.53 0.48 0.53
0.06 0.07 0.08 0.09 0.10 0.08 0.11 0.22 0.26 0.38 0.55 0.62 0.74 0.84 0.89 0.97 1.09 1.07 0.95 0.95 1.04 1.09 1.13 1.22 1.16 1.13 1.14 1.12 1.05 1.01 0.98 0.89 0.81 0.70 0.63 0.54 0.44 0.37 0.35 0.43 0.46 0.35 0.36
0.10 0.11 0.18 0.18 0.20 0.21 0.23 0.31 0.42 0.44 0.47 0.49 0.61 0.70 0.97 1.17 1.33 1.29 1.31 1.32 1.34 1.37 1.52 1.47 1.42 1.30 1.16 1.02 0.90 0.76 0.62 0.54 0.45 0.44 0.42 0.35 0.33 0.32 0.28 0.22 0.19 0.17 0.20
0.18 0.19 0.19 0.20 0.26 0.31 0.37 0.43 0.56 0.77 0.85 0.98 1.09 1.16 1.12 1.26 1.23 1.17 1.09 1.05 1.02 0.96 1.03 0.90 0.82 0.73 0.59 0.47 0.44 0.42 0.42 0.35 0.27 0.28 0.26 0.22 0.21 0.19 0.17 0.16 0.16 0.14 0.14
0.83 0.94 0.95 1.01 0.99 0.95 0.91 0.91 0.94 0.99 1.09 1.32 1.34 1.19 1.09 1.00 0.90 0.79 0.71 0.66 0.68 0.56 0.52 0.49 0.47 0.36 0.26 0.22 0.20 0.18 0.18 0.19 0.19 0.18 0.19 0.18 0.19 0.20 0.19 0.14 0.13 0.14 0.12
0.75 0.86 0.90 0.95 0.96 0.93 0.89 0.89 0.87 0.83 0.77 0.77 0.72 0.66 0.63 0.55 0.51 0.50 0.46 0.58 0.53 0.42 0.34 0.28 0.24 0.21 0.17 0.15 0.15 0.15 0.18 0.18 0.17 0.20 0.19 0.20 0.22 0.23 0.21 0.17 0.16 0.14 0.14
0.50 0.65 0.62 0.68 0.77 0.75 0.75 0.72 0.71 0.68 0.66 0.63 0.59 0.57 0.53 0.44 0.45 0.42 0.42 0.41 0.36 0.30 0.23 0.20 0.16 0.14 0.17 0.19 0.22 0.23 0.21 0.16 0.16 0.16 0.17 0.19 0.23 0.26 0.29 0.24 0.23 0.24 0.17
0.78 0.84 0.79 0.73 0.74 0.72 0.65 0.58 0.53 0.49 0.47 0.44 0.47 0.45 0.39 0.40 0.40 0.33 0.26 0.22 0.20 0.19 0.18 0.19 0.19 0.23 0.23 0.21 0.20 0.18 0.16 0.14 0.15 0.17 0.16 0.18 0.20 0.20 0.19 0.23 0.19 0.16 0.13
0.69 0.68 0.62 0.60 0.57 0.52 0.47 0.42 0.43 0.44 0.40 0.36 0.31 0.23 0.20 0.24 0.21 0.19 0.19 0.21 0.23 0.25 0.27 0.29 0.23 0.19 0.19 0.20 0.19 0.20 0.16 0.15 0.16 0.17 0.17 0.15 0.15 0.15 0.16 0.17 0.17 0.17 0.15
0.48 0.42 0.38 0.38 0.36 0.36 0.34 0.33 0.31 0.27 0.25 0.22 0.22 0.24 0.20 0.23 0.24 0.24 0.23 0.21 0.20 0.18 0.13 0.14 0.15 0.12 0.10 0.15 0.19 0.21 0.18 0.13 0.14 0.19 0.21 0.18 0.16 0.16 0.18 0.18 0.17 0.17 0.16
0.28 0.29 0.28 0.28 0.25 0.22 0.21 0.20 0.18 0.18 0.23 0.27 0.25 0.22 0.21 0.20 0.23 0.22 0.19 0.15 0.14 0.12 0.14 0.18 0.16 0.12 0.12 0.13 0.16 0.18 0.16 0.13 0.19 0.20 0.22 0.19 0.14 0.12 0.16 0.16 0.16 0.16 0.15
0.16 0.16 0.18 0.19 0.21 0.21 0.21 0.23 0.29 0.28 0.25 0.24 0.23 0.21 0.18 0.17 0.16 0.14 0.15 0.16 0.15 0.15 0.13 0.13 0.16 0.17 0.15 0.17 0.18 0.17 0.16 0.22 0.26 0.23 0.31 0.21 0.14 0.13 0.14 0.15 0.14 0.18 0.16
0.13 0.17 0.20 0.21 0.23 0.27 0.31 0.27 0.22 0.20 0.20 0.19 0.19 0.18 0.17 0.16 0.15 0.15 0.15 0.16 0.18 0.15 0.14 0.15 0.15 0.13 0.13 0.15 0.16 0.20 0.19 0.21 0.30 0.30 0.38 0.31 0.23 0.18 0.17 0.18 0.16 0.19 0.13

GFSGL_prec_precacc_093.txt.gz
Total_Precipitation_Accumulation
0.10 0.20 0.33 0.40 0.58 0.92 0.88 1.17 0.94 0.90 0.96 0.82 0.62 0.63 0.56 0.50 0.46 0.40 0.33 0.28 0.24 0.20 0.17 0.17 0.14 0.14 0.16 0.14 0.14 0.16 0.13 0.13 0.12 0.03 0.02 0.00 0.00 0.00 0.00 0.01 0.01 0.03 0.05
0.69 1.01 0.92 1.05 1.21 1.11 1.38 1.94 1.33 0.98 0.72 0.50 0.36 0.28 0.29 0.34 0.37 0.30 0.24 0.19 0.18 0.18 0.20 0.26 0.26 0.27 0.24 0.20 0.17 0.17 0.17 0.16 0.17 0.12 0.06 0.04 0.03 0.02 0.01 0.00 0.00 0.01 0.00
1.03 1.00 1.09 1.49 0.97 0.59 0.44 0.37 0.33 0.25 0.19 0.12 0.10 0.13 0.15 0.14 0.20 0.27 0.30 0.28 0.27 0.24 0.24 0.27 0.30 0.33 0.29 0.27 0.29 0.28 0.24 0.22 0.20 0.22 0.13 0.05 0.04 0.02 0.02 0.01 0.01 0.01 0.00
0.75 0.72 0.65 0.63 0.61 0.38 0.30 0.25 0.26 0.24 0.22 0.15 0.13 0.14 0.14 0.14 0.14 0.12 0.11 0.09 0.09 0.13 0.17 0.20 0.19 0.19 0.17 0.15 0.14 0.13 0.15 0.18 0.19 0.23 0.21 0.12 0.09 0.06 0.06 0.06 0.06 0.03 0.03
0.39 0.31 0.29 0.25 0.18 0.16 0.16 0.12 0.13 0.07 0.06 0.08 0.12 0.19 0.18 0.14 0.14 0.12 0.08 0.07 0.07 0.08 0.08 0.07 0.05 0.11 0.12 0.10 0.11 0.11 0.16 0.20 0.22 0.24 0.23 0.21 0.16 0.14 0.15 0.14 0.18 0.12 0.09
0.26 0.27 0.25 0.22 0.22 0.17 0.16 0.16 0.08 0.07 0.10 0.14 0.16 0.15 0.13 0.11 0.17 0.11 0.06 0.04 0.04 0.06 0.05 0.05 0.07 0.16 0.12 0.15 0.16 0.17 0.16 0.23 0.29 0.30 0.31 0.32 0.26 0.24 0.27 0.31 0.30 0.33 0.35
0.22 0.23 0.19 0.25 0.22 0.23 0.22 0.19 0.26 0.35 0.31 0.26 0.26 0.18 0.11 0.08 0.14 0.08 0.08 0.04 0.06 0.07 0.07 0.06 0.06 0.08 0.12 0.05 0.10 0.17 0.19 0.25 0.32 0.39 0.45 0.39 0.41 0.38 0.46 0.54 0.56 0.60 0.57
0.14 0.20 0.20 0.16 0.17 0.20 0.23 0.29 0.38 0.41 0.38 0.27 0.20 0.19 0.15 0.15 0.16 0.10 0.11 0.04 0.04 0.06 0.06 0.06 0.08 0.09 0.12 0.13 0.19 0.25 0.24 0.28 0.35 0.41 0.52 0.55 0.55 0.55 0.57 0.61 0.67 0.71 0.63
0.06 0.11 0.12 0.13 0.20 0.30 0.38 0.40 0.28 0.19 0.18 0.17 0.22 0.23 0.19 0.19 0.27 0.20 0.15 0.06 0.09 0.10 0.10 0.15 0.20 0.18 0.40 0.44 0.39 0.37 0.39 0.43 0.59 0.62 0.60 0.66 0.68 0.60 0.55 0.64 0.71 0.78 0.79
0.03 0.07 0.08 0.21 0.38 0.43 0.36 0.21 0.15 0.12 0.15 0.16 0.16 0.16 0.25 0.20 0.35 0.27 0.20 0.12 0.16 0.19 0.18 0.21 0.39 0.29 0.52 0.42 0.42 0.35 0.40 0.36 0.37 0.44 0.45 0.47 0.46 0.46 0.50 0.52 0.60 0.84 0.75
0.06 0.14 0.24 0.26 0.19 0.14 0.16 0.15 0.15 0.20 0.22 0.22 0.19 0.17 0.21 0.28 0.32 0.37 0.30 0.22 0.25 0.32 0.35 0.36 0.42 0.83 0.54 0.47 0.45 0.37 0.58 0.64 0.70 0.61 0.54 0.55 0.50 0.44 0.44 0.47 0.50 0.61 0.66
0.05 0.05 0.05 0.10 0.13 0.14 0.15 0.17 0.18 0.19 0.21 0.20 0.21 0.21 0.20 0.22 0.41 0.37 0.32 0.38 0.50 0.53 0.67 0.73 0.96 0.97 0.57 0.56 0.64 0.81 0.85 0.67 0.60 0.70 0.74 0.70 0.66 0.60 0.51 0.45 0.46 0.45 0.42
0.02 0.03 0.05 0.10 0.13 0.16 0.21 0.23 0.24 0.25 0.25 0.27 0.30 0.32 0.34 0.33 0.40 0.52 0.43 0.50 0.59 0.64 1.00 1.25 1.19 0.97 0.73 0.73 0.90 0.92 0.86 0.87 0.94 1.01 0.98 0.88 0.81 0.74 0.74 0.78 0.68 0.61 0.60
0.03 0.02 0.03 0.09 0.14 0.12 0.15 0.15 0.17 0.20 0.26 0.37 0.47 0.51 0.55 0.55 0.56 0.60 0.67 0.75 0.90 1.09 1.31 1.47 1.42 1.24 1.16 1.23 1.38 1.37 1.39 1.46 1.47 1.47 1.37 1.27 1.15 1.08 1.01 0.90 0.82 0.73 0.72
0.06 0.07 0.08 0.09 0.10 0.08 0.12 0.22 0.26 0.39 0.55 0.62 0.74 0.84 0.90 0.98 1.12 1.17 1.10 1.12 1.21 1.26 1.31 1.42 1.42 1.41 1.40 1.39 1.30 1.27 1.25 1.20 1.13 1.02 0.93 0.81 0.68 0.58 0.51 0.55 0.53 0.40 0.40
0.10 0.11 0.18 0.18 0.20 0.21 0.23 0.31 0.42 0.45 0.48 0.49 0.61 0.70 0.99 1.19 1.36 1.35 1.40 1.44 1.47 1.49 1.61 1.59 1.58 1.54 1.42 1.27 1.13 0.97 0.82 0.73 0.63 0.59 0.55 0.45 0.40 0.36 0.30 0.22 0.20 0.18 0.20
0.18 0.20 0.20 0.21 0.26 0.31 0.38 0.44 0.57 0.77 0.85 0.99 1.10 1.17 1.13 1.28 1.25 1.19 1.11 1.07 1.06 0.98 1.06 0.94 0.87 0.80 0.67 0.55 0.53 0.50 0.50 0.43 0.33 0.32 0.29 0.23 0.21 0.19 0.17 0.16 0.16 0.14 0.14
0.84 0.95 0.96 1.02 1.00 0.95 0.92 0.91 0.94 0.99 1.09 1.33 1.35 1.20 1.11 1.01 0.91 0.81 0.72 0.67 0.70 0.59 0.56 0.53 0.51 0.42 0.32 0.29 0.26 0.23 0.21 0.20 0.20 0.19 0.19 0.19 0.20 0.20 0.19 0.14 0.13 0.14 0.12
0.76 0.86 0.91 0.96 0.97 0.94 0.90 0.89 0.87 0.83 0.77 0.78 0.72 0.67 0.65 0.56 0.52 0.51 0.47 0.59 0.55 0.46 0.37 0.32 0.28 0.24 0.21 0.17 0.16 0.16 0.18 0.19 0.17 0.20 0.19 0.20 0.22 0.23 0.21 0.17 0.16 0.14 0.14
0.51 0.66 0.62 0.69 0.78 0.76 0.76 0.73 0.72 0.69 0.67 0.64 0.60 0.58 0.54 0.44 0.45 0.43 0.43 0.42 0.37 0.32 0.25 0.21 0.17 0.15 0.17 0.19 0.22 0.23 0.21 0.16 0.16 0.16 0.17 0.19 0.23 0.26 0.29 0.24 0.23 0.24 0.17
0.78 0.84 0.79 0.74 0.75 0.73 0.67 0.60 0.55 0.51 0.49 0.47 0.50 0.48 0.40 0.41 0.41 0.33 0.26 0.22 0.21 0.19 0.19 0.19 0.19 0.23 0.23 0.21 0.20 0.18 0.16 0.14 0.15 0.17 0.16 0.18 0.20 0.20 0.19 0.23 0.19 0.16 0.13
0.69 0.68 0.63 0.61 0.58 0.54 0.49 0.45 0.46 0.47 0.43 0.38 0.33 0.25 0.20 0.24 0.21 0.19 0.19 0.21 0.23 0.25 0.27 0.29 0.23 0.19 0.19 0.20 0.19 0.20 0.16 0.15 0.16 0.17 0.17 0.15 0.15 0.15 0.16 0.17 0.17 0.17 0.15
0.48 0.43 0.38 0.38 0.37 0.37 0.36 0.36 0.33 0.29 0.26 0.23 0.22 0.24 0.20 0.23 0.24 0.24 0.23 0.21 0.20 0.18 0.13 0.14 0.15 0.12 0.10 0.15 0.19 0.21 0.18 0.13 0.14 0.19 0.21 0.18 0.16 0.16 0.18 0.18 0.17 0.17 0.16
0.28 0.29 0.28 0.28 0.26 0.22 0.21 0.20 0.18 0.18 0.23 0.27 0.25 0.22 0.21 0.20 0.23 0.22 0.19 0.15 0.14 0.12 0.14 0.18 0.16 0.12 0.12 0.13 0.16 0.18 0.16 0.13 0.19 0.20 0.22 0.19 0.14 0.12 0.16 0.16 0.16 0.16 0.15
0.16 0.16 0.18 0.19 0.21 0.21 0.21 0.23 0.29 0.28 0.25 0.24 0.23 0.21 0.18 0.17 0.16 0.14 0.15 0.16 0.15 0.15 0.13 0.13 0.16 0.17 0.15 0.17 0.18 0.17 0.16 0.22 0.26 0.23 0.31 0.21 0.14 0.13 0.14 0.15 0.14 0.18 0.16
0.13 0.17 0.20 0.21 0.23 0.27 0.31 0.27 0.22 0.20 0.20 0.19 0.19 0.18 0.17 0.16 0.15 0.15 0.15 0.16 0.18 0.15 0.14 0.15 0.15 0.13 0.13 0.15 0.16 0.20 0.19 0.21 0.30 0.30 0.38 0.31 0.23 0.18 0.17 0.18 0.16 0.19 0.13

GFSGL_prec_precacc_096.txt.gz
Total_Precipitation_Accumulation
0.10 0.20 0.33 0.40 0.58 0.92 0.88 1.17 0.94 0.90 0.96 0.82 0.62 0.63 0.56 0.50 0.46 0.40 0.34 0.29 0.25 0.20 0.17 0.18 0.14 0.14 0.16 0.14 0.14 0.16 0.13 0.14 0.13 0.03 0.02 0.00 0.00 0.01 0.01 0.01 0.01 0.03 0.05
0.69 1.01 0.92 1.05 1.21 1.11 1.38 1.94 1.33 0.98 0.72 0.50 0.36 0.28 0.29 0.34 0.37 0.30 0.24 0.19 0.19 0.19 0.20 0.26 0.26 0.27 0.24 0.20 0.17 0.18 0.17 0.16 0.18 0.13 0.06 0.04 0.03 0.02 0.01 0.00 0.00 0.01 0.00
1.03 1.00 1.09 1.49 0.97 0.59 0.44 0.37 0.33 0.25 0.19 0.12 0.10 0.13 0.15 0.14 0.20 0.27 0.30 0.28 0.27 0.24 0.24 0.27 0.30 0.33 0.29 0.27 0.29 0.28 0.24 0.22 0.21 0.23 0.13 0.05 0.04 0.02 0.02 0.01 0.01 0.01 0.00
0.78 0.77 0.67 0.63 0.61 0.38 0.30 0.25 0.26 0.24 0.22 0.15 0.13 0.14 0.14 0.14 0.14 0.12 0.11 0.09 0.09 0.13 0.17 0.20 0.19 0.19 0.17 0.15 0.14 0.13 0.15 0.18 0.20 0.24 0.21 0.12 0.09 0.06 0.06 0.06 0.06 0.03 0.03
0.45 0.33 0.31 0.26 0.20 0.16 0.16 0.12 0.13 0.07 0.06 0.08 0.12 0.19 0.18 0.14 0.14 0.12 0.08 0.07 0.07 0.08 0.08 0.07 0.05 0.11 0.12 0.10 0.11 0.11 0.16 0.20 0.22 0.24 0.23 0.21 0.16 0.14 0.15 0.14 0.18 0.12 0.09
0.28 0.29 0.27 0.23 0.24 0.18 0.16 0.17 0.08 0.07 0.10 0.14 0.16 0.15 0.13 0.11 0.17 0.11 0.06 0.04 0.04 0.06 0.05 0.05 0.07 0.16 0.12 0.15 0.16 0.17 0.16 0.23 0.29 0.30 0.31 0.32 0.26 0.24 0.27 0.31 0.30 0.33 0.35
0.23 0.24 0.19 0.25 0.22 0.23 0.22 0.19 0.27 0.36 0.31 0.26 0.26 0.18 0.11 0.08 0.14 0.08 0.08 0.04 0.06 0.07 0.07 0.06 0.06 0.08 0.12 0.05 0.10 0.17 0.19 0.25 0.32 0.39 0.45 0.39 0.41 0.38 0.46 0.54 0.56 0.60 0.57
0.15 0.20 0.20 0.17 0.18 0.20 0.23 0.29 0.38 0.42 0.38 0.28 0.22 0.24 0.19 0.18 0.20 0.12 0.13 0.05 0.05 0.06 0.06 0.06 0.08 0.09 0.12 0.13 0.19 0.25 0.24 0.28 0.35 0.41 0.52 0.55 0.55 0.55 0.58 0.62 0.69 0.75 0.67
0.06 0.11 0.12 0.13 0.20 0.30 0.38 0.40 0.29 0.21 0.19 0.19 0.25 0.27 0.22 0.24 0.36 0.22 0.16 0.10 0.15 0.14 0.11 0.16 0.21 0.18 0.40 0.44 0.39 0.37 0.39 0.43 0.60 0.64 0.62 0.69 0.70 0.62 0.57 0.65 0.74 0.87 0.91
0.03 0.07 0.08 0.21 0.38 0.43 0.36 0.21 0.16 0.13 0.16 0.19 0.22 0.23 0.33 0.23 0.42 0.32 0.25 0.19 0.24 0.24 0.22 0.26 0.54 0.38 0.56 0.44 0.43 0.35 0.40 0.37 0.39 0.45 0.46 0.49 0.48 0.49 0.54 0.54 0.61 0.86 0.82
0.06 0.14 0.24 0.26 0.19 0.14 0.16 0.15 0.15 0.20 0.22 0.23 0.23 0.22 0.25 0.33 0.36 0.41 0.33 0.27 0.36 0.45 0.45 0.42 0.50 0.94 0.61 0.54 0.57 0.54 0.82 0.91 0.89 0.72 0.61 0.63 0.57 0.50 0.51 0.53 0.55 0.69 0.79
0.05 0.05 0.05 0.10 0.13 0.14 0.15 0.17 0.18 0.19 0.21 0.20 0.22 0.24 0.24 0.27 0.50 0.43 0.36 0.44 0.63 0.67 0.87 0.96 1.22 1.25 0.86 0.90 1.06 1.32 1.38 1.21 1.10 1.17 1.15 1.04 0.92 0.81 0.71 0.62 0.62 0.62 0.62
0.02 0.03 0.05 0.10 0.13 0.16 0.21 0.23 0.24 0.25 0.25 0.27 0.30 0.32 0.34 0.34 0.42 0.57 0.46 0.53 0.64 0.70 1.07 1.36 1.32 1.10 0.85 0.85 1.05 1.14 1.16 1.27 1.47 1.59 1.56 1.40 1.29 1.21 1.16 1.17 1.03 0.92 0.88
0.03 0.02 0.03 0.09 0.14 0.12 0.15 0.15 0.17 0.20 0.26 0.37 0.47 0.52 0.55 0.55 0.56 0.60 0.67 0.76 0.92 1.12 1.35 1.51 1.48 1.31 1.26 1.36 1.50 1.49 1.52 1.62 1.70 1.79 1.74 1.63 1.49 1.38 1.28 1.15 1.05 0.94 0.89
0.06 0.07 0.08 0.09 0.10 0.08 0.12 0.23 0.27 0.39 0.56 0.62 0.74 0.84 0.90 0.99 1.13 1.17 1.10 1.13 1.22 1.27 1.31 1.43 1.44 1.44 1.46 1.47 1.41 1.37 1.35 1.29 1.23 1.16 1.08 0.98 0.86 0.75 0.67 0.68 0.64 0.48 0.46
0.10 0.11 0.18 0.18 0.20 0.21 0.23 0.31 0.43 0.46 0.48 0.50 0.62 0.71 1.00 1.20 1.37 1.35 1.40 1.44 1.47 1.49 1.61 1.59 1.59 1.55 1.44 1.30 1.17 1.01 0.86 0.78 0.69 0.66 0.63 0.53 0.48 0.42 0.33 0.24 0.21 0.18 0.20
0.19 0.20 0.20 0.21 0.27 0.31 0.38 0.44 0.57 0.78 0.85 0.99 1.10 1.18 1.14 1.29 1.25 1.19 1.11 1.07 1.06 0.98 1.06 0.94 0.88 0.81 0.68 0.57 0.55 0.53 0.53 0.46 0.36 0.34 0.31 0.25 0.22 0.20 0.18 0.17 0.16 0.14 0.15
0.84 0.96 0.96 1.02 1.01 0.96 0.92 0.91 0.95 0.99 1.09 1.33 1.35 1.21 1.12 1.02 0.92 0.81 0.73 0.67 0.70 0.59 0.56 0.54 0.52 0.43 0.33 0.30 0.27 0.24 0.22 0.21 0.20 0.19 0.20 0.19 0.20 0.21 0.19 0.14 0.13 0.14 0.12
0.76 0.87 0.92 0.96 0.98 0.94 0.90 0.89 0.87 0.84 0.78 0.79 0.73 0.67 0.66 0.58 0.53 0.52 0.47 0.59 0.56 0.47 0.38 0.33 0.29 0.26 0.22 0.18 0.16 0.16 0.19 0.19 0.17 0.20 0.19 0.20 0.22 0.23 0.21 0.17 0.16 0.14 0.14
0.51 0.66 0.63 0.69 0.78 0.76 0.76 0.73 0.72 0.69 0.67 0.64 0.60 0.59 0.56 0.44 0.46 0.43 0.44 0.43 0.38 0.33 0.26 0.22 0.17 0.15 0.17 0.19 0.22 0.23 0.21 0.16 0.16 0.16 0.17 0.19 0.23 0.26 0.29 0.24 0.23 0.24 0.17
0.78 0.84 0.79 0.74 0.75 0.73 0.67 0.60 0.55 0.51 0.49 0.47 0.50 0.49 0.41 0.42 0.42 0.35 0.27 0.23 0.21 0.19 0.19 0.19 0.19 0.23 0.23 0.21 0.20 0.18 0.16 0.14 0.15 0.17 0.16 0.18 0.20 0.20 0.19 0.23 0.19 0.16 0.13
0.69 0.69 0.63 0.61 0.59 0.54 0.50 0.45 0.46 0.47 0.44 0.39 0.34 0.25 0.21 0.25 0.21 0.19 0.19 0.22 0.23 0.25 0.27 0.29 0.23 0.19 0.19 0.20 0.19 0.20 0.16 0.15 0.16 0.17 0.17 0.15 0.15 0.15 0.16 0.17 0.17 0.17 0.15
0.48 0.43 0.39 0.39 0.38 0.38 0.36 0.36 0.34 0.29 0.26 0.23 0.22 0.24 0.20 0.23 0.24 0.24 0.23 0.21 0.20 0.18 0.13 0.14 0.15 0.12 0.10 0.15 0.19 0.21 0.18 0.13 0.14 0.19 0.21 0.18 0.16 0.16 0.18 0.18 0.17 0.17 0.16
0.28 0.29 0.28 0.28 0.26 0.22 0.21 0.20 0.18 0.18 0.23 0.27 0.25 0.22 0.21 0.20 0.23 0.22 0.19 0.15 0.14 0.12 0.14 0.18 0.16 0.12 0.12 0.13 0.16 0.18 0.16 0.13 0.19 0.20 0.22 0.19 0.14 0.12 0.16 0.16 0.16 0.16 0.15
0.16 0.16 0.18 0.19 0.21 0.21 0.21 0.23 0.29 0.28 0.25 0.24 0.23 0.21 0.18 0.17 0.16 0.14 0.15 0.16 0.15 0.15 0.13 0.13 0.16 0.17 0.15 0.17 0.18 0.17 0.16 0.22 0.26 0.23 0.31 0.21 0.14 0.13 0.14 0.15 0.14 0.18 0.16
0.13 0.17 0.20 0.21 0.23 0.27 0.31 0.27 0.22 0.20 0.20 0.19 0.19 0.18 0.17 0.16 0.15 0.15 0.15 0.16 0.18 0.15 0.14 0.15 0.15 0.13 0.13 0.15 0.16 0.20 0.19 0.21 0.30 0.30 0.38 0.31 0.23 0.18 0.17 0.18 0.16 0.19 0.13

GFSGL_prec_precacc_099.txt.gz
Total_Precipitation_Accumulation
0.11 0.21 0.33 0.40 0.58 0.92 0.88 1.17 0.94 0.90 0.96 0.82 0.62 0.63 0.56 0.50 0.46 0.40 0.34 0.29 0.25 0.20 0.17 0.18 0.14 0.14 0.16 0.14 0.14 0.16 0.14 0.14 0.14 0.03 0.02 0.00 0.01 0.01 0.01 0.01 0.02 0.04 0.05
0.72 1.04 0.92 1.05 1.21 1.11 1.38 1.94 1.33 0.98 0.72 0.50 0.36 0.28 0.30 0.34 0.37 0.30 0.24 0.19 0.19 0.19 0.20 0.26 0.26 0.27 0.24 0.20 0.17 0.18 0.17 0.18 0.21 0.13 0.07 0.04 0.03 0.02 0.01 0.00 0.00 0.01 0.00
1.08 1.01 1.09 1.49 0.97 0.59 0.44 0.37 0.33 0.25 0.19 0.12 0.10 0.13 0.15 0.15 0.20 0.27 0.30 0.28 0.27 0.25 0.25 0.28 0.30 0.33 0.30 0.28 0.29 0.28 0.24 0.22 0.21 0.24 0.13 0.05 0.04 0.02 0.02 0.01 0.01 0.01 0.00
0.81 0.80 0.68 0.63 0.61 0.38 0.30 0.25 0.26 0.24 0.22 0.15 0.13 0.14 0.14 0.14 0.14 0.12 0.12 0.09 0.09 0.13 0.17 0.21 0.20 0.20 0.19 0.16 0.15 0.13 0.15 0.18 0.20 0.24 0.21 0.12 0.09 0.06 0.06 0.06 0.06 0.03 0.03
0.53 0.41 0.34 0.27 0.20 0.16 0.16 0.12 0.13 0.07 0.06 0.08 0.12 0.19 0.18 0.14 0.14 0.12 0.08 0.07 0.07 0.08 0.08 0.07 0.05 0.11 0.12 0.10 0.11 0.11 0.16 0.20 0.22 0.24 0.23 0.21 0.16 0.14 0.15 0.14 0.18 0.12 0.09
0.30 0.32 0.31 0.25 0.25 0.18 0.16 0.17 0.08 0.07 0.10 0.14 0.16 0.15 0.13 0.11 0.17 0.11 0.06 0.04 0.04 0.06 0.05 0.05 0.07 0.16 0.12 0.15 0.16 0.17 0.16 0.23 0.29 0.30 0.31 0.32 0.26 0.24 0.27 0.31 0.30 0.33 0.35
0.25 0.27 0.23 0.29 0.26 0.25 0.23 0.20 0.28 0.36 0.31 0.26 0.26 0.18 0.11 0.08 0.14 0.08 0.08 0.04 0.06 0.07 0.07 0.06 0.06 0.08 0.12 0.05 0.10 0.17 0.19 0.25 0.32 0.39 0.45 0.39 0.41 0.38 0.46 0.54 0.56 0.60 0.57
0.19 0.23 0.21 0.18 0.20 0.23 0.26 0.31 0.41 0.43 0.39 0.28 0.23 0.25 0.20 0.19 0.20 0.12 0.13 0.06 0.07 0.07 0.07 0.07 0.08 0.09 0.12 0.13 0.19 0.25 0.24 0.28 0.35 0.41 0.53 0.57 0.59 0.58 0.59 0.64 0.71 0.75 0.68
0.12 0.13 0.12 0.13 0.20 0.31 0.39 0.42 0.32 0.24 0.22 0.22 0.28 0.31 0.26 0.28 0.40 0.23 0.17 0.11 0.16 0.16 0.14 0.18 0.25 0.22 0.46 0.51 0.43 0.38 0.41 0.47 0.69 0.73 0.76 0.81 0.80 0.70 0.62 0.69 0.80 1.00 1.04
0.03 0.07 0.08 0.21 0.38 0.43 0.36 0.21 0.16 0.13 0.17 0.22 0.26 0.27 0.39 0.25 0.47 0.33 0.27 0.22 0.26 0.26 0.25 0.31 0.63 0.46 0.64 0.52 0.51 0.43 0.50 0.49 0.54 0.59 0.63 0.66 0.62 0.62 0.67 0.62 0.67 0.94 0.99
0.06 0.14 0.24 0.26 0.19 0.14 0.16 0.15 0.15 0.20 0.22 0.23 0.24 0.23 0.27 0.36 0.41 0.45 0.34 0.28 0.38 0.50 0.49 0.47 0.55 1.03 0.65 0.59 0.62 0.62 1.03 1.23 1.24 1.05 0.93 0.91 0.79 0.68 0.68 0.70 0.72 0.89 1.06
0.05 0.05 0.05 0.10 0.13 0.14 0.15 0.17 0.18 0.19 0.21 0.20 0.22 0.24 0.25 0.28 0.52 0.44 0.37 0.47 0.68 0.70 0.90 1.00 1.29 1.34 0.93 0.99 1.22 1.55 1.64 1.45 1.35 1.41 1.38 1.29 1.21 1.09 0.95 0.85 0.83 0.83 0.85
0.02 0.03 0.05 0.10 0.13 0.16 0.21 0.23 0.24 0.25 0.25 0.27 0.30 0.32 0.34 0.34 0.42 0.57 0.46 0.53 0.65 0.70 1.07 1.37 1.33 1.11 0.86 0.87 1.08 1.17 1.21 1.33 1.55 1.69 1.69 1.56 1.46 1.35 1.28 1.27 1.14 1.04 1.01
0.03 0.02 0.03 0.09 0.14 0.12 0.15 0.15 0.17 0.20 0.26 0.37 0.47 0.52 0.55 0.55 0.56 0.60 0.67 0.76 0.92 1.12 1.35 1.51 1.48 1.31 1.26 1.36 1.51 1.50 1.53 1.63 1.71 1.80 1.77 1.69 1.55 1.44 1.34 1.22 1.12 1.01 0.95
0.06 0.07 0.08 0.09 0.10 0.08 0.12 0.24 0.27 0.41 0.56 0.62 0.75 0.85 0.90 1.00 1.14 1.17 1.10 1.13 1.22 1.27 1.31 1.43 1.44 1.44 1.46 1.47 1.41 1.37 1.35 1.29 1.24 1.16 1.09 1.00 0.88 0.78 0.70 0.70 0.66 0.49 0.47
0.10 0.11 0.18 0.18 0.20 0.21 0.23 0.31 0.44 0.47 0.48 0.50 0.62 0.71 1.01 1.22 1.37 1.36 1.40 1.44 1.47 1.49 1.61 1.59 1.59 1.55 1.44 1.30 1.17 1.01 0.86 0.78 0.70 0.66 0.63 0.54 0.48 0.43 0.34 0.25 0.21 0.19 0.21
0.19 0.20 0.20 0.21 0.27 0.31 0.38 0.44 0.57 0.78 0.86 1.00 1.11 1.19 1.15 1.30 1.25 1.19 1.11 1.07 1.06 0.98 1.06 0.94 0.88 0.81 0.68 0.57 0.55 0.53 0.53 0.46 0.36 0.34 0.31 0.25 0.22 0.20 0.18 0.17 0.16 0.14 0.15
0.84 0.96 0.96 1.02 1.01 0.96 0.92 0.91 0.95 0.99 1.10 1.34 1.36 1.22 1.13 1.02 0.92 0.81 0.73 0.67 0.70 0.59 0.56 0.54 0.52 0.43 0.34 0.30 0.27 0.24 0.22 0.21 0.20 0.19 0.20 0.19 0.20 0.21 0.19 0.14 0.13 0.14 0.12
0.76 0.87 0.92 0.97 0.98 0.94 0.90 0.90 0.87 0.84 0.78 0.79 0.73 0.67 0.67 0.58 0.53 0.52 0.47 0.59 0.56 0.47 0.39 0.33 0.30 0.26 0.22 0.18 0.16 0.16 0.19 0.19 0.17 0.20 0.19 0.20 0.22 0.23 0.21 0.17 0.16 0.14 0.14
0.51 0.66 0.63 0.69 0.78 0.76 0.76 0.74 0.73 0.70 0.68 0.65 0.60 0.60 0.56 0.44 0.46 0.43 0.44 0.43 0.38 0.33 0.26 0.22 0.17 0.15 0.17 0.19 0.22 0.23 0.21 0.16 0.16 0.16 0.17 0.19 0.23 0.26 0.29 0.24 0.23 0.24 0.17
0.79 0.85 0.80 0.75 0.76 0.74 0.68 0.61 0.56 0.52 0.49 0.47 0.51 0.49 0.41 0.42 0.42 0.35 0.27 0.23 0.21 0.19 0.19 0.19 0.20 0.23 0.23 0.21 0.20 0.18 0.16 0.14 0.15 0.17 0.16 0.18 0.20 0.20 0.19 0.23 0.19 0.16 0.13
0.70 0.69 0.64 0.62 0.60 0.55 0.51 0.46 0.47 0.48 0.44 0.39 0.34 0.25 0.21 0.25 0.21 0.19 0.19 0.22 0.23 0.25 0.27 0.29 0.23 0.19 0.19 0.20 0.19 0.20 0.16 0.15 0.16 0.17 0.17 0.15 0.15 0.15 0.16 0.17 0.17 0.17 0.15
0.49 0.44 0.40 0.40 0.39 0.39 0.37 0.36 0.34 0.29 0.26 0.23 0.22 0.24 0.20 0.23 0.24 0.24 0.23 0.21 0.20 0.18 0.13 0.14 0.15 0.12 0.10 0.15 0.19 0.21 0.18 0.13 0.14 0.19 0.21 0.18 0.16 0.16 0.18 0.18 0.17 0.17 0.16
0.28 0.30 0.28 0.28 0.26 0.22 0.21 0.20 0.18 0.18 0.23 0.27 0.25 0.22 0.21 0.20 0.23 0.22 0.19 0.15 0.14 0.12 0.14 0.18 0.16 0.12 0.12 0.13 0.16 0.18 0.16 0.13 0.19 0.20 0.22 0.19 0.14 0.12 0.16 0.16 0.16 0.16 0.15
0.16 0.16 0.18 0.19 0.21 0.21 0.21 0.23 0.29 0.28 0.25 0.24 0.23 0.21 0.18 0.17 0.16 0.14 0.15 0.16 0.15 0.15 0.13 0.13 0.16 0.17 0.15 0.17 0.18 0.17 0.16 0.22 0.26 0.23 0.31 0.21 0.14 0.13 0.14 0.15 0.14 0.18 0.16
0.13 0.17 0.20 0.21 0.23 0.27 0.31 0.27 0.22 0.20 0.20 0.19 0.19 0.18 0.17 0.16 0.15 0.15 0.15 0.16 0.18 0.15 0.14 0.15 0.15 0.13 0.13 0.15 0.16 0.20 0.19 0.21 0.30 0.30 0.38 0.31 0.23 0.18 0.17 0.18 0.16 0.19 0.13

GFSGL_prec_precacc_102.txt.gz
Total_Precipitation_Accumulation
0.11 0.21 0.33 0.40 0.58 0.92 0.88 1.17 0.94 0.90 0.96 0.82 0.62 0.63 0.56 0.50 0.46 0.41 0.34 0.30 0.27 0.22 0.21 0.23 0.19 0.17 0.17 0.15 0.15 0.16 0.14 0.15 0.14 0.04 0.02 0.00 0.01 0.01 0.01 0.01 0.02 0.04 0.05
0.72 1.04 0.93 1.05 1.21 1.11 1.38 1.94 1.33 0.98 0.72 0.50 0.36 0.28 0.30 0.34 0.37 0.30 0.24 0.19 0.19 0.19 0.21 0.27 0.27 0.27 0.24 0.20 0.18 0.18 0.18 0.19 0.22 0.14 0.08 0.05 0.04 0.02 0.01 0.01 0.00 0.01 0.00
1.08 1.01 1.09 1.49 0.97 0.59 0.44 0.37 0.33 0.25 0.19 0.12 0.10 0.13 0.15 0.15 0.20 0.27 0.30 0.28 0.27 0.25 0.25 0.28 0.30 0.34 0.30 0.28 0.30 0.28 0.24 0.22 0.22 0.25 0.14 0.07 0.06 0.03 0.04 0.03 0.02 0.01 0.00
0.87 0.86 0.70 0.63 0.61 0.38 0.30 0.25 0.26 0.24 0.22 0.15 0.13 0.14 0.14 0.14 0.14 0.12 0.12 0.09 0.09 0.13 0.18 0.21 0.20 0.20 0.19 0.17 0.16 0.14 0.16 0.19 0.20 0.24 0.22 0.13 0.09 0.06 0.08 0.07 0.07 0.04 0.03
0.68 0.52 0.39 0.28 0.20 0.16 0.16 0.12 0.13 0.07 0.06 0.08 0.12 0.19 0.18 0.15 0.14 0.12 0.08 0.07 0.07 0.08 0.08 0.07 0.06 0.11 0.12 0.10 0.11 0.11 0.17 0.22 0.23 0.25 0.23 0.22 0.16 0.15 0.17 0.15 0.20 0.12 0.10
0.37 0.37 0.32 0.28 0.26 0.19 0.16 0.17 0.08 0.07 0.10 0.14 0.16 0.16 0.13 0.11 0.17 0.11 0.06 0.04 0.04 0.06 0.05 0.05 0.07 0.16 0.12 0.15 0.16 0.17 0.17 0.23 0.30 0.30 0.31 0.32 0.26 0.24 0.28 0.32 0.31 0.34 0.36
0.29 0.28 0.24 0.32 0.30 0.30 0.27 0.21 0.28 0.36 0.32 0.26 0.26 0.18 0.11 0.08 0.14 0.08 0.08 0.04 0.07 0.07 0.07 0.06 0.06 0.08 0.12 0.05 0.10 0.17 0.19 0.25 0.32 0.39 0.47 0.40 0.41 0.38 0.46 0.54 0.57 0.61 0.58
0.20 0.24 0.24 0.21 0.22 0.25 0.29 0.34 0.45 0.45 0.39 0.29 0.23 0.25 0.21 0.21 0.22 0.13 0.14 0.06 0.07 0.07 0.07 0.08 0.11 0.11 0.15 0.16 0.19 0.25 0.24 0.29 0.36 0.42 0.54 0.59 0.63 0.62 0.64 0.70 0.77 0.80 0.71
0.17 0.21 0.23 0.22 0.25 0.33 0.40 0.43 0.33 0.25 0.23 0.24 0.30 0.33 0.29 0.30 0.43 0.24 0.18 0.11 0.16 0.16 0.18 0.25 0.29 0.23 0.50 0.56 0.47 0.44 0.51 0.72 0.98 0.99 1.08 1.09 1.04 0.90 0.78 0.85 1.03 1.30 1.32
0.14 0.14 0.13 0.27 0.42 0.44 0.37 0.22 0.16 0.14 0.18 0.23 0.27 0.29 0.43 0.27 0.49 0.34 0.27 0.22 0.28 0.29 0.27 0.33 0.69 0.47 0.64 0.52 0.51 0.44 0.52 0.54 0.63 0.67 0.73 0.76 0.72 0.69 0.73 0.68 0.76 1.10 1.25
0.09 0.17 0.26 0.27 0.20 0.14 0.16 0.15 0.15 0.20 0.22 0.23 0.24 0.23 0.27 0.37 0.44 0.46 0.34 0.29 0.39 0.51 0.50 0.48 0.59 1.09 0.68 0.65 0.71 0.74 1.19 1.43 1.47 1.25 1.10 1.04 0.89 0.76 0.75 0.76 0.77 0.94 1.14
0.06 0.05 0.05 0.10 0.13 0.14 0.15 0.17 0.18 0.19 0.21 0.20 0.22 0.24 0.25 0.28 0.52 0.44 0.37 0.47 0.68 0.70 0.91 1.01 1.33 1.39 0.96 1.02 1.24 1.59 1.70 1.52 1.41 1.46 1.42 1.32 1.23 1.11 0.97 0.86 0.83 0.83 0.85
0.03 0.04 0.06 0.10 0.13 0.16 0.21 0.23 0.24 0.25 0.25 0.27 0.30 0.32 0.35 0.34 0.42 0.57 0.47 0.53 0.65 0.70 1.08 1.37 1.33 1.11 0.86 0.87 1.08 1.18 1.21 1.34 1.55 1.69 1.69 1.57 1.46 1.36 1.29 1.27 1.14 1.04 1.01
0.03 0.03 0.03 0.09 0.14 0.12 0.15 0.15 0.18 0.20 0.27 0.37 0.47 0.52 0.55 0.55 0.57 0.60 0.68 0.76 0.92 1.12 1.36 1.51 1.48 1.31 1.26 1.37 1.51 1.50 1.53 1.64 1.71 1.81 1.77 1.69 1.55 1.44 1.34 1.22 1.12 1.01 0.95
0.06 0.07 0.08 0.09 0.10 0.09 0.12 0.24 0.28 0.41 0.56 0.62 0.75 0.85 0.91 1.01 1.15 1.17 1.10 1.13 1.22 1.27 1.32 1.43 1.44 1.45 1.46 1.47 1.41 1.37 1.35 1.29 1.24 1.17 1.09 1.00 0.88 0.78 0.70 0.70 0.66 0.49 0.47
0.10 0.11 0.18 0.18 0.20 0.21 0.23 0.32 0.45 0.47 0.49 0.50 0.62 0.72 1.02 1.22 1.38 1.36 1.40 1.44 1.47 1.49 1.61 1.59 1.59 1.55 1.44 1.31 1.17 1.01 0.86 0.78 0.70 0.66 0.63 0.54 0.48 0.43 0.34 0.25 0.21 0.19 0.21
0.19 0.20 0.20 0.21 0.27 0.31 0.38 0.44 0.58 0.78 0.86 1.00 1.11 1.19 1.15 1.30 1.25 1.19 1.11 1.07 1.06 0.98 1.06 0.94 0.89 0.82 0.68 0.57 0.55 0.53 0.53 0.46 0.36 0.34 0.31 0.25 0.22 0.20 0.18 0.17 0.16 0.14 0.15
0.85 0.96 0.97 1.03 1.01 0.96 0.92 0.92 0.95 1.00 1.10 1.34 1.37 1.23 1.14 1.03 0.92 0.81 0.73 0.67 0.70 0.59 0.56 0.54 0.53 0.44 0.34 0.30 0.27 0.24 0.22 0.21 0.20 0.19 0.20 0.19 0.20 0.21 0.19 0.14 0.13 0.14 0.12
0.76 0.87 0.92 0.97 0.99 0.95 0.91 0.90 0.88 0.84 0.78 0.79 0.74 0.68 0.67 0.58 0.53 0.52 0.47 0.60 0.56 0.47 0.39 0.33 0.30 0.26 0.22 0.18 0.16 0.16 0.19 0.19 0.17 0.20 0.19 0.20 0.22 0.23 0.21 0.17 0.16 0.14 0.14
0.52 0.67 0.63 0.70 0.79 0.77 0.77 0.74 0.73 0.70 0.68 0.65 0.61 0.61 0.56 0.45 0.46 0.44 0.44 0.43 0.38 0.33 0.26 0.22 0.17 0.15 0.17 0.19 0.22 0.23 0.21 0.16 0.16 0.16 0.17 0.19 0.23 0.26 0.29 0.24 0.23 0.24 0.17
0.79 0.85 0.80 0.75 0.76 0.75 0.68 0.61 0.56 0.52 0.50 0.47 0.52 0.50 0.41 0.42 0.42 0.35 0.27 0.23 0.21 0.19 0.19 0.19 0.20 0.23 0.23 0.21 0.20 0.18 0.16 0.14 0.15 0.17 0.16 0.18 0.20 0.20 0.19 0.23 0.19 0.16 0.13
0.70 0.70 0.64 0.62 0.60 0.56 0.51 0.46 0.47 0.48 0.44 0.39 0.34 0.25 0.21 0.25 0.21 0.19 0.19 0.22 0.23 0.25 0.27 0.29 0.23 0.19 0.19 0.20 0.19 0.20 0.16 0.15 0.16 0.17 0.17 0.15 0.15 0.15 0.16 0.17 0.17 0.17 0.15
0.49 0.44 0.40 0.41 0.39 0.39 0.38 0.37 0.34 0.29 0.26 0.23 0.22 0.24 0.20 0.23 0.24 0.24 0.23 0.21 0.20 0.18 0.13 0.14 0.15 0.12 0.10 0.15 0.19 0.21 0.18 0.13 0.14 0.19 0.21 0.18 0.16 0.16 0.18 0.18 0.17 0.17 0.16
0.28 0.30 0.29 0.29 0.26 0.23 0.21 0.20 0.18 0.18 0.23 0.27 0.25 0.22 0.21 0.21 0.23 0.23 0.19 0.16 0.14 0.13 0.14 0.18 0.16 0.12 0.12 0.13 0.16 0.18 0.16 0.13 0.19 0.20 0.22 0.19 0.14 0.12 0.16 0.16 0.16 0.16 0.15
0.16 0.17 0.18 0.19 0.21 0.22 0.21 0.23 0.29 0.28 0.25 0.24 0.24 0.22 0.18 0.18 0.16 0.15 0.15 0.16 0.15 0.15 0.13 0.13 0.16 0.17 0.15 0.17 0.18 0.17 0.16 0.22 0.26 0.23 0.31 0.21 0.14 0.13 0.14 0.15 0.14 0.18 0.16
0.13 0.17 0.20 0.21 0.24 0.27 0.31 0.27 0.23 0.20 0.20 0.20 0.20 0.19 0.17 0.16 0.15 0.15 0.15 0.16 0.18 0.15 0.14 0.15 0.15 0.13 0.13 0.15 0.17 0.20 0.19 0.21 0.30 0.30 0.38 0.31 0.23 0.18 0.17 0.18 0.16 0.19 0.13

GFSGL_prec_precacc_105.txt.gz
Total_Precipitation_Accumulation
0.11 0.21 0.33 0.40 0.58 0.92 0.88 1.17 0.94 0.90 0.96 0.82 0.63 0.64 0.56 0.50 0.47 0.41 0.35 0.30 0.28 0.24 0.22 0.27 0.27 0.31 0.30 0.27 0.22 0.20 0.16 0.15 0.15 0.04 0.02 0.00 0.02 0.05 0.02 0.02 0.02 0.04 0.05
0.72 1.04 0.93 1.05 1.21 1.11 1.38 1.94 1.33 0.98 0.72 0.50 0.36 0.29 0.30 0.34 0.37 0.31 0.24 0.20 0.20 0.20 0.21 0.27 0.29 0.32 0.32 0.28 0.25 0.22 0.19 0.20 0.23 0.14 0.08 0.05 0.04 0.04 0.04 0.05 0.03 0.02 0.00
1.08 1.01 1.09 1.50 0.99 0.62 0.45 0.37 0.33 0.25 0.19 0.12 0.10 0.13 0.15 0.15 0.20 0.28 0.30 0.28 0.28 0.25 0.25 0.28 0.30 0.34 0.31 0.29 0.31 0.29 0.24 0.22 0.23 0.26 0.15 0.08 0.07 0.03 0.05 0.06 0.07 0.06 0.02
0.87 0.89 0.79 0.72 0.67 0.42 0.31 0.25 0.26 0.24 0.22 0.15 0.13 0.14 0.14 0.14 0.14 0.12 0.12 0.09 0.09 0.13 0.18 0.21 0.20 0.20 0.19 0.17 0.16 0.15 0.16 0.19 0.20 0.24 0.22 0.13 0.10 0.07 0.11 0.09 0.09 0.06 0.05
0.73 0.61 0.49 0.37 0.26 0.18 0.16 0.12 0.13 0.07 0.06 0.08 0.12 0.19 0.18 0.15 0.14 0.12 0.08 0.07 0.07 0.08 0.08 0.07 0.06 0.11 0.12 0.10 0.11 0.11 0.17 0.22 0.23 0.25 0.24 0.22 0.16 0.15 0.17 0.15 0.21 0.13 0.11
0.44 0.42 0.37 0.31 0.29 0.21 0.17 0.17 0.08 0.07 0.10 0.15 0.16 0.16 0.14 0.11 0.18 0.11 0.06 0.04 0.05 0.06 0.06 0.05 0.07 0.16 0.12 0.15 0.16 0.17 0.17 0.24 0.30 0.31 0.31 0.32 0.26 0.24 0.28 0.34 0.34 0.38 0.39
0.39 0.37 0.29 0.35 0.31 0.31 0.28 0.22 0.28 0.37 0.32 0.27 0.26 0.19 0.12 0.09 0.14 0.08 0.08 0.05 0.07 0.07 0.07 0.06 0.06 0.08 0.12 0.05 0.10 0.17 0.19 0.25 0.33 0.41 0.49 0.42 0.44 0.41 0.48 0.57 0.59 0.63 0.61
0.33 0.36 0.30 0.23 0.23 0.27 0.30 0.36 0.47 0.45 0.40 0.29 0.24 0.26 0.22 0.21 0.22 0.13 0.15 0.06 0.07 0.09 0.11 0.09 0.12 0.13 0.20 0.21 0.20 0.29 0.33 0.38 0.43 0.49 0.63 0.67 0.67 0.64 0.66 0.74 0.83 0.85 0.76
0.43 0.40 0.35 0.28 0.27 0.36 0.46 0.47 0.37 0.29 0.26 0.25 0.31 0.36 0.32 0.32 0.47 0.25 0.19 0.11 0.18 0.20 0.20 0.26 0.30 0.24 0.57 0.62 0.52 0.52 0.64 0.90 1.17 1.18 1.32 1.32 1.24 1.06 0.92 1.00 1.23 1.52 1.53
0.49 0.33 0.26 0.39 0.58 0.61 0.52 0.36 0.32 0.31 0.30 0.29 0.30 0.31 0.47 0.28 0.52 0.35 0.28 0.22 0.29 0.31 0.29 0.36 0.75 0.50 0.67 0.54 0.53 0.46 0.54 0.57 0.68 0.75 0.81 0.85 0.79 0.75 0.80 0.74 0.85 1.22 1.38
0.26 0.33 0.33 0.34 0.30 0.25 0.29 0.31 0.32 0.36 0.39 0.38 0.34 0.30 0.32 0.41 0.49 0.51 0.38 0.32 0.46 0.60 0.57 0.53 0.64 1.16 0.71 0.67 0.75 0.78 1.26 1.55 1.60 1.37 1.19 1.10 0.94 0.78 0.76 0.77 0.78 0.95 1.14
0.19 0.13 0.12 0.16 0.17 0.18 0.17 0.18 0.20 0.22 0.23 0.21 0.24 0.26 0.26 0.29 0.52 0.45 0.38 0.47 0.69 0.71 0.93 1.03 1.37 1.43 0.97 1.03 1.25 1.60 1.71 1.54 1.42 1.46 1.43 1.32 1.23 1.11 0.97 0.86 0.83 0.83 0.85
0.05 0.08 0.11 0.13 0.15 0.17 0.23 0.24 0.24 0.26 0.25 0.27 0.30 0.32 0.35 0.34 0.42 0.57 0.47 0.53 0.65 0.70 1.08 1.38 1.33 1.11 0.86 0.87 1.08 1.18 1.21 1.34 1.55 1.69 1.69 1.57 1.47 1.37 1.29 1.27 1.14 1.04 1.01
0.04 0.03 0.04 0.11 0.17 0.14 0.16 0.16 0.18 0.20 0.27 0.38 0.47 0.52 0.55 0.55 0.57 0.61 0.68 0.77 0.92 1.12 1.36 1.51 1.48 1.31 1.26 1.37 1.51 1.50 1.54 1.64 1.71 1.81 1.78 1.70 1.56 1.44 1.34 1.22 1.12 1.01 0.95
0.06 0.07 0.08 0.09 0.10 0.09 0.13 0.25 0.28 0.42 0.57 0.63 0.76 0.86 0.91 1.01 1.15 1.17 1.11 1.13 1.22 1.27 1.32 1.43 1.44 1.45 1.46 1.47 1.41 1.37 1.35 1.30 1.24 1.17 1.10 1.00 0.88 0.78 0.70 0.70 0.66 0.49 0.47
0.10 0.11 0.19 0.18 0.20 0.21 0.23 0.32 0.45 0.48 0.49 0.50 0.62 0.72 1.02 1.23 1.38 1.36 1.40 1.44 1.47 1.49 1.62 1.60 1.60 1.56 1.45 1.31 1.17 1.01 0.86 0.78 0.70 0.66 0.63 0.54 0.48 0.43 0.34 0.25 0.21 0.19 0.21
0.19 0.21 0.20 0.21 0.27 0.32 0.38 0.44 0.58 0.79 0.86 1.01 1.11 1.19 1.15 1.30 1.25 1.19 1.11 1.07 1.06 0.98 1.06 0.95 0.89 0.82 0.68 0.57 0.55 0.53 0.53 0.46 0.36 0.34 0.31 0.25 0.22 0.20 0.18 0.17 0.16 0.14 0.15
0.85 0.97 0.97 1.04 1.02 0.97 0.93 0.92 0.96 1.00 1.10 1.35 1.37 1.23 1.14 1.03 0.92 0.81 0.73 0.67 0.70 0.59 0.56 0.54 0.53 0.44 0.34 0.30 0.27 0.24 0.22 0.21 0.20 0.19 0.20 0.19 0.20 0.21 0.19 0.14 0.13 0.14 0.12
0.77 0.88 0.93 0.98 1.00 0.95 0.91 0.91 0.89 0.85 0.79 0.80 0.75 0.68 0.67 0.58 0.53 0.52 0.47 0.60 0.56 0.47 0.39 0.33 0.30 0.26 0.22 0.18 0.16 0.16 0.19 0.19 0.17 0.20 0.19 0.20 0.22 0.23 0.21 0.17 0.16 0.14 0.14
0.52 0.67 0.64 0.71 0.79 0.77 0.77 0.75 0.74 0.71 0.69 0.66 0.61 0.62 0.57 0.45 0.47 0.44 0.44 0.44 0.38 0.33 0.26 0.22 0.17 0.15 0.17 0.19 0.22 0.23 0.21 0.16 0.16 0.16 0.17 0.19 0.23 0.26 0.29 0.24 0.23 0.24 0.17
0.80 0.86 0.81 0.75 0.77 0.75 0.69 0.62 0.57 0.53 0.50 0.48 0.52 0.50 0.42 0.42 0.42 0.35 0.27 0.23 0.21 0.19 0.19 0.19 0.20 0.23 0.23 0.21 0.20 0.18 0.16 0.14 0.15 0.17 0.16 0.18 0.20 0.20 0.19 0.23 0.19 0.16 0.13
0.71 0.70 0.65 0.63 0.60 0.56 0.52 0.47 0.48 0.49 0.45 0.40 0.34 0.25 0.21 0.25 0.21 0.19 0.19 0.22 0.24 0.25 0.27 0.29 0.23 0.19 0.19 0.20 0.19 0.20 0.16 0.15 0.16 0.17 0.17 0.15 0.15 0.15 0.16 0.17 0.17 0.17 0.15
0.50 0.45 0.41 0.41 0.40 0.40 0.38 0.37 0.35 0.29 0.26 0.23 0.22 0.24 0.20 0.23 0.24 0.25 0.23 0.21 0.20 0.19 0.13 0.14 0.15 0.12 0.10 0.15 0.19 0.21 0.18 0.13 0.14 0.19 0.21 0.18 0.16 0.16 0.18 0.18 0.17 0.17 0.16
0.29 0.31 0.29 0.29 0.26 0.23 0.22 0.20 0.18 0.18 0.23 0.27 0.25 0.23 0.21 0.21 0.24 0.23 0.19 0.16 0.14 0.13 0.15 0.18 0.16 0.12 0.12 0.13 0.16 0.18 0.16 0.13 0.19 0.20 0.22 0.19 0.14 0.12 0.16 0.16 0.16 0.16 0.15
0.16 0.17 0.18 0.19 0.21 0.22 0.21 0.23 0.29 0.28 0.25 0.24 0.24 0.22 0.19 0.18 0.16 0.15 0.15 0.16 0.15 0.15 0.13 0.13 0.16 0.17 0.15 0.17 0.18 0.17 0.16 0.22 0.26 0.23 0.31 0.21 0.15 0.13 0.14 0.15 0.14 0.18 0.16
0.13 0.17 0.20 0.21 0.24 0.28 0.31 0.28 0.23 0.20 0.20 0.20 0.20 0.19 0.18 0.16 0.15 0.15 0.15 0.16 0.18 0.15 0.14 0.15 0.15 0.13 0.13 0.15 0.17 0.20 0.19 0.21 0.30 0.30 0.38 0.31 0.23 0.18 0.17 0.18 0.17 0.20 0.14

GFSGL_prec_precacc_111.txt.gz
Total_Precipitation_Accumulation
0.12 0.27 0.41 0.44 0.63 0.99 0.91 1.18 0.94 0.90 0.96 0.82 0.63 0.64 0.58 0.51 0.47 0.42 0.35 0.30 0.29 0.26 0.27 0.39 0.40 0.42 0.42 0.41 0.38 0.34 0.26 0.20 0.17 0.04 0.02 0.01 0.03 0.08 0.04 0.04 0.05 0.09 0.08
0.81 1.17 1.04 1.17 1.38 1.25 1.42 1.95 1.34 1.00 0.76 0.51 0.36 0.29 0.30 0.35 0.38 0.31 0.25 0.20 0.20 0.21 0.22 0.28 0.30 0.35 0.38 0.38 0.42 0.44 0.42 0.38 0.38 0.20 0.11 0.08 0.05 0.04 0.04 0.05 0.05 0.04 0.03
1.14 1.15 1.23 1.67 1.22 0.81 0.55 0.39 0.39 0.33 0.23 0.12 0.10 0.14 0.16 0.15 0.21 0.28 0.31 0.29 0.28 0.25 0.25 0.28 0.30 0.34 0.32 0.31 0.33 0.35 0.32 0.33 0.35 0.36 0.20 0.11 0.08 0.04 0.06 0.06 0.07 0.07 0.04
0.90 0.93 0.86 0.84 0.85 0.62 0.44 0.29 0.35 0.33 0.27 0.16 0.14 0.14 0.14 0.15 0.15 0.13 0.13 0.11 0.10 0.14 0.19 0.21 0.20 0.21 0.19 0.17 0.18 0.17 0.18 0.23 0.23 0.26 0.23 0.13 0.10 0.07 0.11 0.10 0.10 0.07 0.07
0.82 0.70 0.55 0.46 0.43 0.40 0.27 0.18 0.21 0.13 0.10 0.09 0.12 0.20 0.19 0.15 0.15 0.12 0.09 0.08 0.09 0.09 0.09 0.08 0.06 0.12 0.13 0.11 0.12 0.12 0.19 0.24 0.24 0.26 0.24 0.22 0.16 0.15 0.17 0.15 0.21 0.13 0.11
0.55 0.54 0.53 0.48 0.54 0.49 0.31 0.27 0.12 0.09 0.12 0.16 0.17 0.17 0.15 0.12 0.20 0.12 0.07 0.05 0.05 0.07 0.06 0.05 0.08 0.16 0.12 0.15 0.16 0.18 0.18 0.26 0.32 0.31 0.31 0.33 0.26 0.25 0.29 0.35 0.35 0.38 0.39
0.51 0.51 0.45 0.54 0.50 0.54 0.42 0.31 0.33 0.39 0.33 0.28 0.28 0.20 0.13 0.09 0.15 0.09 0.09 0.06 0.11 0.11 0.09 0.08 0.09 0.10 0.14 0.05 0.10 0.18 0.22 0.28 0.37 0.44 0.51 0.43 0.45 0.42 0.49 0.57 0.60 0.67 0.69
0.50 0.51 0.46 0.44 0.52 0.54 0.47 0.46 0.54 0.50 0.42 0.31 0.25 0.27 0.23 0.23 0.24 0.14 0.16 0.08 0.09 0.12 0.14 0.13 0.15 0.16 0.26 0.25 0.22 0.31 0.36 0.43 0.51 0.61 0.78 0.81 0.78 0.73 0.75 0.85 0.96 1.01 0.96
0.75 0.69 0.64 0.59 0.62 0.74 0.74 0.64 0.49 0.42 0.34 0.29 0.34 0.38 0.34 0.34 0.50 0.27 0.21 0.12 0.19 0.22 0.22 0.28 0.33 0.28 0.65 0.67 0.54 0.56 0.78 1.04 1.35 1.35 1.45 1.45 1.37 1.18 1.02 1.12 1.38 1.67 1.68
0.89 0.82 0.96 1.05 1.20 1.16 1.03 0.85 0.70 0.64 0.65 0.56 0.50 0.45 0.58 0.34 0.62 0.40 0.31 0.24 0.31 0.33 0.31 0.37 0.80 0.53 0.73 0.58 0.57 0.52 0.69 0.75 0.82 0.88 0.95 0.98 0.92 0.86 0.91 0.82 0.93 1.31 1.46
0.65 0.89 0.93 1.10 1.15 1.02 1.07 1.09 1.09 1.09 1.08 1.03 0.95 0.73 0.67 0.74 0.78 0.80 0.63 0.51 0.63 0.76 0.73 0.68 0.82 1.41 0.94 0.93 1.03 1.06 1.59 1.86 1.86 1.56 1.32 1.19 0.99 0.81 0.78 0.78 0.78 0.95 1.14
0.50 0.46 0.57 0.65 0.65 0.80 0.79 0.80 0.84 0.83 0.84 0.82 0.81 0.84 0.78 0.73 0.98 0.89 0.77 0.86 1.09 1.06 1.26 1.33 1.64 1.66 1.17 1.23 1.46 1.82 1.89 1.64 1.46 1.49 1.44 1.33 1.23 1.11 0.97 0.86 0.83 0.83 0.85
0.17 0.24 0.30 0.36 0.49 0.53 0.60 0.65 0.58 0.53 0.51 0.51 0.53 0.57 0.61 0.56 0.61 0.77 0.66 0.71 0.80 0.85 1.21 1.47 1.41 1.15 0.89 0.90 1.11 1.20 1.22 1.34 1.55 1.69 1.69 1.57 1.47 1.37 1.29 1.28 1.14 1.04 1.01
0.06 0.08 0.10 0.18 0.26 0.27 0.34 0.40 0.48 0.51 0.53 0.58 0.60 0.60 0.61 0.60 0.62 0.65 0.73 0.82 0.96 1.15 1.37 1.52 1.48 1.31 1.26 1.37 1.51 1.50 1.54 1.64 1.71 1.81 1.78 1.70 1.56 1.44 1.35 1.22 1.12 1.01 0.95
0.06 0.08 0.09 0.09 0.11 0.12 0.17 0.31 0.37 0.56 0.71 0.79 0.93 1.00 1.02 1.11 1.25 1.25 1.18 1.19 1.27 1.31 1.35 1.45 1.46 1.46 1.47 1.48 1.41 1.37 1.35 1.30 1.24 1.17 1.10 1.00 0.88 0.78 0.70 0.70 0.66 0.49 0.47
0.10 0.12 0.20 0.20 0.21 0.21 0.23 0.33 0.46 0.50 0.51 0.53 0.66 0.76 1.07 1.26 1.41 1.39 1.43 1.47 1.51 1.52 1.64 1.62 1.61 1.57 1.45 1.31 1.17 1.01 0.86 0.78 0.70 0.66 0.63 0.54 0.48 0.43 0.34 0.25 0.21 0.19 0.21
0.20 0.22 0.21 0.22 0.28 0.34 0.40 0.45 0.59 0.79 0.86 1.01 1.12 1.20 1.16 1.32 1.26 1.19 1.11 1.07 1.06 0.98 1.06 0.95 0.89 0.82 0.69 0.57 0.55 0.53 0.53 0.46 0.36 0.34 0.31 0.25 0.22 0.20 0.18 0.17 0.16 0.14 0.15
0.87 0.98 0.98 1.05 1.03 0.98 0.94 0.94 0.97 1.01 1.11 1.36 1.38 1.24 1.14 1.03 0.92 0.81 0.73 0.67 0.70 0.59 0.56 0.54 0.53 0.44 0.34 0.30 0.27 0.24 0.22 0.21 0.20 0.19 0.20 0.19 0.20 0.21 0.19 0.14 0.13 0.14 0.12
0.77 0.90 0.95 0.99 1.01 0.97 0.92 0.92 0.90 0.86 0.80 0.83 0.77 0.71 0.68 0.59 0.53 0.52 0.47 0.60 0.56 0.47 0.39 0.33 0.30 0.26 0.22 0.18 0.17 0.16 0.19 0.19 0.17 0.20 0.19 0.20 0.22 0.23 0.21 0.17 0.16 0.14 0.14
0.53 0.67 0.64 0.72 0.81 0.78 0.78 0.76 0.75 0.71 0.69 0.66 0.62 0.64 0.59 0.45 0.47 0.44 0.44 0.44 0.38 0.33 0.26 0.22 0.17 0.15 0.17 0.19 0.22 0.23 0.21 0.16 0.16 0.16 0.17 0.19 0.23 0.26 0.29 0.24 0.23 0.24 0.17
0.82 0.86 0.82 0.76 0.78 0.76 0.70 0.63 0.58 0.54 0.51 0.49 0.53 0.51 0.42 0.42 0.42 0.35 0.27 0.23 0.22 0.20 0.19 0.19 0.20 0.23 0.23 0.21 0.20 0.18 0.16 0.14 0.15 0.17 0.16 0.18 0.20 0.20 0.19 0.23 0.19 0.16 0.13
0.72 0.72 0.66 0.64 0.61 0.57 0.53 0.48 0.49 0.50 0.46 0.40 0.35 0.25 0.21 0.25 0.21 0.19 0.20 0.22 0.24 0.25 0.28 0.29 0.23 0.19 0.19 0.20 0.19 0.20 0.16 0.15 0.16 0.17 0.17 0.15 0.15 0.15 0.16 0.17 0.17 0.17 0.15
0.51 0.46 0.41 0.42 0.42 0.41 0.39 0.38 0.36 0.30 0.27 0.23 0.23 0.24 0.20 0.23 0.24 0.25 0.24 0.22 0.20 0.19 0.13 0.14 0.15 0.12 0.11 0.15 0.19 0.21 0.18 0.13 0.15 0.19 0.21 0.18 0.16 0.16 0.18 0.18 0.17 0.17 0.16
0.29 0.31 0.30 0.30 0.27 0.24 0.23 0.21 0.19 0.19 0.23 0.27 0.25 0.23 0.21 0.21 0.24 0.23 0.20 0.16 0.15 0.13 0.15 0.18 0.16 0.12 0.12 0.13 0.16 0.18 0.16 0.13 0.19 0.20 0.22 0.19 0.14 0.12 0.16 0.16 0.16 0.16 0.15
0.16 0.17 0.19 0.20 0.22 0.23 0.22 0.24 0.29 0.29 0.25 0.24 0.24 0.22 0.19 0.18 0.16 0.15 0.16 0.16 0.16 0.15 0.13 0.13 0.16 0.17 0.15 0.17 0.18 0.17 0.16 0.22 0.26 0.23 0.32 0.21 0.15 0.13 0.15 0.15 0.15 0.18 0.16
0.13 0.17 0.20 0.21 0.24 0.28 0.32 0.29 0.24 0.20 0.21 0.20 0.20 0.19 0.18 0.17 0.16 0.15 0.15 0.16 0.18 0.16 0.14 0.15 0.15 0.13 0.14 0.15 0.17 0.20 0.19 0.21 0.30 0.30 0.38 0.31 0.23 0.18 0.17 0.18 0.17 0.20 0.14

GFSGL_prec_precacc_114.txt.gz
Total_Precipitation_Accumulation
0.13 0.29 0.44 0.46 0.68 1.06 0.95 1.19 0.96 0.92 0.98 0.85 0.63 0.64 0.58 0.52 0.47 0.42 0.35 0.30 0.29 0.26 0.27 0.39 0.41 0.43 0.44 0.44 0.41 0.36 0.27 0.20 0.17 0.04 0.03 0.01 0.03 0.08 0.05 0.05 0.06 0.10 0.08
0.82 1.22 1.10 1.25 1.49 1.34 1.52 2.00 1.36 1.02 0.78 0.52 0.37 0.29 0.31 0.36 0.38 0.31 0.25 0.20 0.20 0.21 0.22 0.28 0.31 0.40 0.41 0.43 0.48 0.50 0.46 0.40 0.38 0.20 0.12 0.10 0.09 0.08 0.06 0.06 0.05 0.04 0.03
1.14 1.18 1.31 1.75 1.35 0.98 0.72 0.49 0.45 0.40 0.28 0.15 0.13 0.15 0.16 0.16 0.22 0.29 0.31 0.30 0.28 0.25 0.25 0.29 0.31 0.35 0.34 0.35 0.42 0.47 0.41 0.40 0.42 0.45 0.30 0.19 0.19 0.14 0.13 0.10 0.08 0.07 0.04
0.90 0.93 0.90 0.91 0.97 0.79 0.64 0.43 0.47 0.42 0.31 0.18 0.15 0.16 0.15 0.16 0.16 0.15 0.15 0.12 0.10 0.14 0.19 0.22 0.21 0.21 0.20 0.18 0.20 0.22 0.26 0.30 0.32 0.36 0.34 0.22 0.18 0.14 0.18 0.14 0.12 0.07 0.07
0.84 0.72 0.57 0.48 0.49 0.52 0.44 0.33 0.31 0.22 0.16 0.14 0.15 0.21 0.20 0.16 0.17 0.16 0.11 0.10 0.09 0.10 0.10 0.09 0.07 0.13 0.14 0.12 0.13 0.13 0.22 0.28 0.28 0.30 0.29 0.26 0.18 0.16 0.18 0.16 0.22 0.13 0.12
0.58 0.56 0.56 0.50 0.56 0.58 0.44 0.45 0.27 0.19 0.17 0.19 0.20 0.18 0.16 0.12 0.22 0.14 0.10 0.07 0.07 0.08 0.07 0.06 0.09 0.17 0.13 0.16 0.16 0.18 0.19 0.27 0.33 0.32 0.32 0.33 0.26 0.25 0.29 0.35 0.35 0.39 0.40
0.54 0.52 0.46 0.57 0.59 0.64 0.58 0.48 0.50 0.51 0.39 0.31 0.30 0.21 0.13 0.09 0.16 0.10 0.10 0.07 0.12 0.11 0.10 0.08 0.09 0.10 0.14 0.05 0.10 0.18 0.22 0.29 0.37 0.45 0.52 0.44 0.46 0.42 0.49 0.57 0.60 0.67 0.69
0.62 0.57 0.50 0.50 0.62 0.76 0.71 0.69 0.75 0.66 0.48 0.33 0.26 0.27 0.23 0.24 0.26 0.15 0.17 0.08 0.10 0.12 0.15 0.13 0.16 0.17 0.26 0.25 0.22 0.31 0.36 0.43 0.52 0.62 0.78 0.82 0.79 0.74 0.76 0.87 0.97 1.05 1.03
0.94 0.86 0.80 0.68 0.76 0.88 1.00 0.94 0.80 0.70 0.56 0.40 0.38 0.40 0.35 0.36 0.54 0.32 0.22 0.12 0.20 0.24 0.24 0.30 0.35 0.29 0.68 0.70 0.54 0.57 0.79 1.04 1.35 1.37 1.46 1.47 1.39 1.19 1.05 1.15 1.42 1.72 1.73
1.07 1.08 1.16 1.27 1.37 1.41 1.28 1.19 1.12 0.94 0.88 0.77 0.62 0.54 0.67 0.37 0.69 0.51 0.41 0.26 0.32 0.34 0.34 0.41 0.85 0.57 0.79 0.62 0.58 0.53 0.70 0.76 0.84 0.91 0.99 1.02 0.94 0.89 0.94 0.84 0.96 1.36 1.51
0.71 1.02 1.08 1.23 1.30 1.20 1.32 1.33 1.48 1.63 1.52 1.39 1.26 1.02 0.93 1.01 1.04 1.05 0.89 0.69 0.75 0.80 0.75 0.70 0.85 1.45 0.97 0.98 1.08 1.10 1.69 1.96 1.98 1.66 1.44 1.32 1.11 0.90 0.82 0.80 0.79 0.96 1.16
0.50 0.46 0.58 0.67 0.69 0.89 0.91 1.00 1.09 1.08 1.14 1.18 1.09 1.11 1.04 0.97 1.22 1.15 1.09 1.18 1.32 1.19 1.35 1.38 1.72 1.74 1.25 1.35 1.61 2.03 2.12 1.85 1.65 1.64 1.57 1.45 1.32 1.17 1.01 0.88 0.85 0.85 0.85
0.17 0.24 0.30 0.37 0.50 0.55 0.62 0.71 0.68 0.70 0.67 0.67 0.70 0.72 0.76 0.74 0.81 1.00 0.88 0.93 1.00 1.02 1.37 1.63 1.56 1.31 1.06 1.09 1.32 1.42 1.45 1.54 1.71 1.80 1.76 1.61 1.48 1.37 1.30 1.28 1.14 1.04 1.01
0.07 0.08 0.10 0.18 0.26 0.27 0.35 0.42 0.51 0.57 0.62 0.70 0.74 0.75 0.75 0.72 0.72 0.77 0.86 0.97 1.13 1.31 1.53 1.65 1.57 1.37 1.30 1.41 1.57 1.56 1.56 1.66 1.72 1.82 1.78 1.70 1.56 1.44 1.35 1.22 1.12 1.01 0.95
0.06 0.09 0.10 0.09 0.11 0.12 0.18 0.32 0.39 0.59 0.74 0.84 1.01 1.10 1.13 1.25 1.41 1.39 1.31 1.32 1.40 1.44 1.43 1.51 1.50 1.48 1.48 1.48 1.41 1.37 1.35 1.30 1.24 1.17 1.10 1.00 0.88 0.78 0.70 0.70 0.66 0.49 0.47
0.10 0.12 0.20 0.21 0.21 0.21 0.24 0.33 0.47 0.51 0.52 0.55 0.68 0.80 1.13 1.34 1.48 1.45 1.49 1.53 1.58 1.61 1.74 1.73 1.72 1.66 1.53 1.36 1.20 1.03 0.87 0.78 0.70 0.66 0.63 0.54 0.48 0.43 0.34 0.25 0.21 0.19 0.21
0.20 0.22 0.21 0.22 0.29 0.34 0.40 0.45 0.60 0.80 0.87 1.01 1.13 1.21 1.18 1.34 1.28 1.21 1.13 1.08 1.07 0.99 1.07 0.96 0.91 0.83 0.70 0.58 0.56 0.54 0.53 0.46 0.36 0.34 0.31 0.25 0.22 0.20 0.18 0.17 0.16 0.14 0.15
0.87 0.98 0.99 1.06 1.04 0.98 0.94 0.94 0.97 1.02 1.11 1.36 1.38 1.24 1.15 1.03 0.92 0.81 0.73 0.67 0.70 0.59 0.56 0.54 0.53 0.44 0.34 0.30 0.27 0.24 0.22 0.21 0.20 0.19 0.20 0.19 0.20 0.21 0.19 0.14 0.13 0.14 0.12
0.77 0.90 0.95 0.99 1.01 0.97 0.93 0.92 0.90 0.86 0.80 0.83 0.78 0.71 0.68 0.59 0.53 0.52 0.47 0.60 0.56 0.47 0.39 0.33 0.30 0.26 0.22 0.18 0.17 0.16 0.19 0.19 0.17 0.20 0.19 0.20 0.22 0.23 0.21 0.17 0.16 0.14 0.14
0.53 0.68 0.65 0.72 0.81 0.78 0.78 0.76 0.75 0.71 0.69 0.67 0.62 0.65 0.60 0.45 0.47 0.44 0.44 0.44 0.38 0.33 0.26 0.22 0.17 0.15 0.17 0.19 0.22 0.23 0.21 0.16 0.16 0.16 0.17 0.19 0.23 0.26 0.29 0.24 0.23 0.24 0.17
0.82 0.87 0.82 0.76 0.78 0.77 0.71 0.63 0.58 0.54 0.51 0.49 0.54 0.51 0.42 0.43 0.43 0.35 0.28 0.23 0.22 0.20 0.19 0.19 0.20 0.23 0.23 0.21 0.20 0.18 0.16 0.14 0.15 0.17 0.16 0.18 0.20 0.20 0.19 0.23 0.19 0.16 0.13
0.72 0.72 0.66 0.64 0.61 0.57 0.54 0.49 0.50 0.50 0.46 0.41 0.35 0.26 0.21 0.25 0.21 0.19 0.20 0.22 0.24 0.25 0.28 0.29 0.24 0.19 0.19 0.20 0.19 0.20 0.16 0.15 0.16 0.17 0.17 0.15 0.15 0.15 0.16 0.17 0.17 0.17 0.15
0.51 0.46 0.41 0.42 0.42 0.41 0.39 0.39 0.37 0.31 0.27 0.23 0.23 0.24 0.20 0.23 0.24 0.25 0.24 0.22 0.20 0.19 0.13 0.14 0.15 0.12 0.11 0.15 0.19 0.21 0.18 0.13 0.15 0.19 0.21 0.18 0.16 0.16 0.18 0.18 0.17 0.17 0.16
0.29 0.31 0.30 0.30 0.27 0.24 0.23 0.21 0.19 0.19 0.24 0.27 0.25 0.23 0.21 0.21 0.24 0.23 0.20 0.16 0.15 0.13 0.15 0.18 0.16 0.12 0.12 0.13 0.16 0.18 0.16 0.13 0.19 0.20 0.22 0.20 0.14 0.12 0.16 0.16 0.16 0.16 0.15
0.16 0.17 0.19 0.20 0.22 0.24 0.23 0.24 0.29 0.29 0.25 0.24 0.25 0.23 0.20 0.18 0.16 0.15 0.16 0.16 0.16 0.15 0.13 0.13 0.16 0.17 0.15 0.17 0.18 0.17 0.16 0.22 0.26 0.23 0.32 0.21 0.15 0.13 0.15 0.15 0.15 0.18 0.16
0.13 0.17 0.20 0.21 0.24 0.28 0.32 0.29 0.24 0.21 0.21 0.21 0.20 0.20 0.18 0.17 0.16 0.15 0.15 0.16 0.18 0.16 0.14 0.15 0.15 0.13 0.14 0.15 0.17 0.20 0.19 0.21 0.30 0.30 0.38 0.31 0.23 0.18 0.17 0.18 0.17 0.20 0.14

GFSGL_prec_precacc_117.txt.gz
Total_Precipitation_Accumulation
0.14 0.30 0.44 0.46 0.69 1.07 0.98 1.23 1.00 0.99 1.06 0.90 0.65 0.65 0.58 0.52 0.47 0.42 0.35 0.31 0.30 0.26 0.27 0.39 0.41 0.43 0.45 0.50 0.51 0.42 0.29 0.22 0.18 0.04 0.03 0.01 0.03 0.08 0.05 0.05 0.06 0.11 0.09
0.83 1.23 1.11 1.27 1.51 1.37 1.56 2.04 1.42 1.09 0.87 0.59 0.42 0.31 0.31 0.36 0.38 0.31 0.26 0.21 0.21 0.21 0.22 0.28 0.31 0.40 0.43 0.44 0.52 0.56 0.48 0.43 0.40 0.20 0.12 0.10 0.09 0.09 0.08 0.08 0.06 0.05 0.03
1.14 1.19 1.33 1.77 1.37 1.02 0.78 0.56 0.52 0.48 0.41 0.27 0.20 0.20 0.19 0.17 0.22 0.30 0.32 0.31 0.29 0.26 0.26 0.29 0.31 0.36 0.38 0.42 0.50 0.55 0.50 0.48 0.48 0.50 0.33 0.23 0.21 0.16 0.17 0.15 0.12 0.08 0.05
0.90 0.93 0.91 0.94 1.02 0.84 0.73 0.54 0.58 0.55 0.46 0.32 0.26 0.24 0.24 0.19 0.17 0.15 0.16 0.14 0.11 0.15 0.20 0.22 0.23 0.23 0.24 0.22 0.26 0.31 0.41 0.55 0.56 0.53 0.48 0.33 0.27 0.26 0.34 0.28 0.22 0.14 0.13
0.84 0.72 0.57 0.49 0.51 0.57 0.54 0.43 0.40 0.34 0.29 0.26 0.24 0.26 0.22 0.18 0.18 0.16 0.12 0.11 0.11 0.11 0.10 0.09 0.08 0.17 0.23 0.18 0.19 0.19 0.29 0.37 0.41 0.42 0.43 0.39 0.28 0.25 0.28 0.24 0.30 0.22 0.25
0.59 0.57 0.56 0.51 0.57 0.59 0.47 0.48 0.32 0.28 0.32 0.37 0.33 0.27 0.18 0.14 0.23 0.15 0.11 0.08 0.08 0.09 0.08 0.07 0.09 0.18 0.14 0.21 0.20 0.21 0.22 0.30 0.36 0.37 0.36 0.36 0.27 0.26 0.30 0.37 0.37 0.43 0.48
0.55 0.53 0.47 0.57 0.60 0.65 0.62 0.59 0.62 0.67 0.64 0.54 0.46 0.30 0.14 0.10 0.17 0.11 0.11 0.08 0.13 0.13 0.12 0.11 0.11 0.12 0.16 0.06 0.15 0.22 0.24 0.30 0.38 0.46 0.53 0.44 0.46 0.42 0.49 0.58 0.60 0.67 0.70
0.63 0.59 0.52 0.51 0.64 0.78 0.75 0.75 0.94 0.93 0.76 0.63 0.52 0.38 0.27 0.25 0.27 0.16 0.19 0.08 0.10 0.13 0.16 0.15 0.17 0.19 0.28 0.26 0.23 0.31 0.36 0.44 0.52 0.62 0.78 0.82 0.79 0.74 0.76 0.87 0.97 1.05 1.03
0.94 0.90 0.86 0.72 0.79 0.91 1.08 1.12 0.96 0.90 0.90 0.75 0.60 0.57 0.41 0.38 0.57 0.36 0.28 0.15 0.21 0.25 0.25 0.31 0.36 0.30 0.71 0.72 0.55 0.57 0.79 1.04 1.36 1.37 1.47 1.49 1.40 1.20 1.05 1.16 1.42 1.74 1.78
1.07 1.10 1.21 1.33 1.47 1.57 1.50 1.38 1.46 1.44 1.31 1.23 1.12 0.90 0.86 0.46 0.78 0.60 0.49 0.32 0.38 0.40 0.38 0.43 0.88 0.59 0.82 0.64 0.60 0.54 0.71 0.77 0.84 0.92 0.99 1.03 0.95 0.90 0.97 0.86 0.97 1.39 1.55
0.71 1.02 1.09 1.27 1.37 1.31 1.48 1.57 1.71 1.93 2.02 1.80 1.60 1.28 1.12 1.17 1.19 1.22 1.12 0.93 0.99 0.96 0.86 0.79 0.93 1.56 1.04 1.03 1.15 1.14 1.75 2.01 2.03 1.69 1.45 1.33 1.12 0.93 0.89 0.90 0.92 1.12 1.31
0.50 0.46 0.58 0.67 0.70 0.91 0.94 1.03 1.14 1.18 1.31 1.40 1.38 1.41 1.31 1.24 1.46 1.36 1.31 1.44 1.60 1.45 1.57 1.55 1.88 1.90 1.37 1.46 1.70 2.14 2.25 1.92 1.67 1.69 1.63 1.51 1.39 1.24 1.10 0.98 0.96 0.98 0.99
0.17 0.24 0.30 0.37 0.50 0.55 0.63 0.71 0.69 0.72 0.72 0.76 0.82 0.89 0.97 0.96 1.03 1.22 1.12 1.16 1.22 1.24 1.65 1.94 1.86 1.53 1.22 1.20 1.41 1.50 1.53 1.61 1.80 1.91 1.92 1.80 1.64 1.51 1.42 1.38 1.22 1.09 1.05
0.07 0.08 0.10 0.18 0.26 0.27 0.35 0.42 0.51 0.57 0.63 0.71 0.75 0.78 0.80 0.80 0.83 0.89 0.99 1.10 1.26 1.44 1.67 1.81 1.74 1.52 1.48 1.59 1.73 1.72 1.72 1.79 1.84 1.92 1.89 1.81 1.63 1.49 1.39 1.24 1.12 1.01 0.95
0.06 0.09 0.10 0.09 0.11 0.12 0.18 0.33 0.40 0.61 0.75 0.85 1.02 1.11 1.14 1.28 1.47 1.45 1.37 1.40 1.49 1.53 1.52 1.58 1.56 1.55 1.55 1.56 1.50 1.46 1.43 1.35 1.27 1.18 1.10 1.00 0.88 0.78 0.70 0.70 0.66 0.49 0.47
0.10 0.12 0.20 0.21 0.21 0.21 0.24 0.33 0.47 0.52 0.53 0.56 0.69 0.81 1.15 1.36 1.49 1.46 1.50 1.56 1.61 1.65 1.78 1.79 1.80 1.74 1.61 1.45 1.28 1.10 0.92 0.81 0.70 0.66 0.63 0.54 0.48 0.43 0.34 0.25 0.21 0.19 0.21
0.20 0.22 0.21 0.22 0.29 0.35 0.40 0.45 0.60 0.80 0.87 1.02 1.13 1.22 1.18 1.34 1.28 1.22 1.13 1.09 1.08 1.00 1.09 0.99 0.94 0.87 0.74 0.63 0.62 0.60 0.59 0.50 0.39 0.36 0.31 0.25 0.22 0.20 0.18 0.17 0.16 0.14 0.15
0.87 0.98 0.99 1.06 1.04 0.98 0.95 0.94 0.97 1.02 1.11 1.37 1.39 1.25 1.15 1.03 0.92 0.81 0.73 0.67 0.70 0.59 0.57 0.55 0.53 0.44 0.34 0.30 0.27 0.25 0.22 0.21 0.20 0.19 0.20 0.19 0.20 0.21 0.19 0.14 0.13 0.14 0.12
0.77 0.90 0.95 0.99 1.02 0.97 0.93 0.92 0.90 0.86 0.80 0.83 0.78 0.71 0.68 0.59 0.53 0.52 0.47 0.60 0.56 0.47 0.39 0.33 0.30 0.26 0.22 0.18 0.17 0.16 0.19 0.19 0.17 0.20 0.19 0.20 0.22 0.23 0.21 0.17 0.16 0.14 0.14
0.53 0.68 0.65 0.72 0.81 0.78 0.78 0.76 0.75 0.71 0.69 0.67 0.62 0.65 0.60 0.45 0.47 0.44 0.44 0.44 0.38 0.33 0.26 0.22 0.18 0.15 0.17 0.19 0.22 0.23 0.21 0.16 0.16 0.16 0.17 0.19 0.23 0.26 0.29 0.24 0.23 0.24 0.17
0.83 0.87 0.82 0.76 0.78 0.77 0.71 0.63 0.58 0.54 0.51 0.49 0.54 0.51 0.42 0.43 0.43 0.35 0.28 0.23 0.22 0.20 0.19 0.19 0.20 0.23 0.23 0.21 0.20 0.18 0.16 0.14 0.15 0.17 0.16 0.18 0.20 0.20 0.19 0.23 0.19 0.16 0.13
0.73 0.72 0.66 0.64 0.61 0.57 0.54 0.49 0.50 0.50 0.46 0.41 0.35 0.26 0.21 0.25 0.21 0.19 0.20 0.22 0.24 0.25 0.28 0.29 0.24 0.19 0.19 0.20 0.19 0.20 0.16 0.15 0.16 0.17 0.17 0.15 0.15 0.15 0.16 0.17 0.17 0.17 0.15
0.51 0.46 0.41 0.43 0.43 0.41 0.39 0.39 0.37 0.31 0.27 0.23 0.23 0.24 0.20 0.23 0.24 0.25 0.24 0.22 0.20 0.19 0.13 0.14 0.15 0.12 0.11 0.15 0.19 0.21 0.18 0.13 0.15 0.19 0.21 0.18 0.16 0.16 0.18 0.18 0.17 0.17 0.16
0.29 0.31 0.30 0.30 0.28 0.25 0.23 0.21 0.19 0.19 0.24 0.27 0.25 0.23 0.21 0.21 0.24 0.23 0.20 0.16 0.15 0.13 0.15 0.18 0.16 0.12 0.12 0.13 0.16 0.18 0.16 0.13 0.19 0.20 0.22 0.20 0.14 0.12 0.16 0.16 0.16 0.16 0.15
0.16 0.17 0.19 0.20 0.23 0.25 0.24 0.24 0.29 0.29 0.26 0.25 0.25 0.23 0.20 0.18 0.16 0.15 0.16 0.16 0.16 0.15 0.13 0.13 0.16 0.17 0.15 0.17 0.18 0.17 0.16 0.22 0.26 0.23 0.32 0.21 0.15 0.13 0.15 0.15 0.15 0.18 0.16
0.13 0.17 0.20 0.21 0.24 0.28 0.32 0.29 0.25 0.21 0.21 0.21 0.21 0.20 0.18 0.17 0.16 0.15 0.15 0.16 0.18 0.16 0.14 0.15 0.15 0.13 0.14 0.15 0.17 0.20 0.19 0.21 0.30 0.30 0.38 0.31 0.23 0.18 0.17 0.18 0.17 0.20 0.14

GFSGL_prec_precacc_120.txt.gz
Total_Precipitation_Accumulation
0.14 0.30 0.44 0.46 0.69 1.07 0.98 1.25 1.06 1.05 1.11 0.95 0.72 0.69 0.60 0.54 0.49 0.43 0.36 0.32 0.30 0.27 0.28 0.40 0.41 0.43 0.45 0.50 0.53 0.48 0.35 0.28 0.23 0.11 0.08 0.06 0.06 0.09 0.05 0.05 0.07 0.11 0.09
0.84 1.24 1.12 1.27 1.51 1.38 1.57 2.06 1.45 1.11 0.91 0.66 0.50 0.35 0.32 0.38 0.40 0.32 0.26 0.21 0.21 0.21 0.22 0.28 0.31 0.41 0.43 0.44 0.52 0.60 0.56 0.50 0.47 0.29 0.17 0.12 0.09 0.09 0.08 0.08 0.07 0.06 0.04
1.15 1.20 1.34 1.79 1.39 1.03 0.80 0.58 0.56 0.51 0.44 0.34 0.27 0.24 0.22 0.21 0.25 0.31 0.33 0.31 0.29 0.26 0.26 0.29 0.31 0.36 0.38 0.43 0.51 0.56 0.53 0.57 0.57 0.61 0.41 0.25 0.21 0.16 0.17 0.15 0.13 0.11 0.08
0.90 0.93 0.91 0.94 1.03 0.86 0.75 0.56 0.61 0.58 0.50 0.38 0.34 0.32 0.33 0.27 0.22 0.19 0.17 0.14 0.11 0.15 0.20 0.23 0.23 0.24 0.24 0.25 0.29 0.34 0.44 0.62 0.70 0.72 0.63 0.44 0.35 0.31 0.38 0.30 0.25 0.19 0.22
0.84 0.72 0.57 0.49 0.52 0.58 0.58 0.48 0.47 0.41 0.38 0.34 0.31 0.34 0.33 0.27 0.26 0.20 0.13 0.11 0.11 0.11 0.11 0.09 0.08 0.18 0.25 0.21 0.24 0.26 0.37 0.47 0.54 0.59 0.65 0.58 0.41 0.38 0.40 0.33 0.40 0.33 0.48
0.59 0.57 0.56 0.51 0.57 0.59 0.47 0.49 0.34 0.30 0.36 0.47 0.55 0.50 0.36 0.26 0.34 0.21 0.13 0.09 0.08 0.10 0.09 0.08 0.10 0.20 0.16 0.25 0.30 0.32 0.29 0.37 0.48 0.46 0.45 0.45 0.32 0.31 0.39 0.49 0.49 0.64 0.68
0.55 0.53 0.47 0.57 0.60 0.65 0.62 0.59 0.62 0.68 0.66 0.57 0.55 0.51 0.56 0.57 0.56 0.33 0.21 0.10 0.14 0.14 0.12 0.12 0.11 0.13 0.17 0.06 0.17 0.27 0.31 0.36 0.41 0.48 0.56 0.47 0.48 0.45 0.54 0.65 0.67 0.73 0.76
0.63 0.60 0.52 0.52 0.64 0.78 0.75 0.76 0.94 0.94 0.81 0.73 0.70 0.60 0.45 0.48 0.54 0.32 0.29 0.11 0.11 0.14 0.19 0.17 0.19 0.20 0.30 0.29 0.24 0.33 0.38 0.46 0.55 0.63 0.78 0.82 0.79 0.74 0.76 0.87 0.98 1.06 1.03
0.94 0.90 0.86 0.73 0.79 0.92 1.09 1.13 0.97 0.92 0.96 0.95 0.95 0.98 0.81 0.63 0.74 0.53 0.40 0.18 0.24 0.27 0.27 0.33 0.39 0.31 0.73 0.75 0.56 0.59 0.81 1.06 1.39 1.41 1.50 1.51 1.41 1.21 1.06 1.16 1.43 1.74 1.78
1.07 1.10 1.21 1.33 1.47 1.57 1.51 1.39 1.47 1.45 1.34 1.28 1.25 1.17 1.29 0.87 1.15 0.92 0.69 0.42 0.44 0.42 0.40 0.46 0.93 0.63 0.86 0.67 0.61 0.54 0.72 0.77 0.84 0.92 1.00 1.03 0.96 0.91 0.98 0.87 0.97 1.39 1.57
0.71 1.02 1.09 1.27 1.37 1.31 1.49 1.58 1.72 1.96 2.08 1.97 1.83 1.56 1.41 1.49 1.55 1.61 1.51 1.21 1.19 1.09 0.95 0.87 1.02 1.70 1.18 1.13 1.21 1.16 1.81 2.04 2.04 1.70 1.46 1.34 1.13 0.93 0.89 0.90 0.93 1.16 1.38
0.50 0.46 0.58 0.67 0.71 0.91 0.94 1.03 1.15 1.21 1.35 1.45 1.48 1.59 1.54 1.50 1.73 1.64 1.62 1.82 1.95 1.61 1.69 1.67 2.05 2.10 1.56 1.66 1.88 2.32 2.41 2.03 1.72 1.72 1.65 1.53 1.41 1.26 1.12 1.01 1.02 1.07 1.13
0.18 0.24 0.30 0.37 0.50 0.55 0.63 0.71 0.69 0.72 0.72 0.76 0.83 0.90 1.00 1.03 1.15 1.40 1.34 1.42 1.52 1.47 1.82 2.12 2.05 1.71 1.42 1.46 1.68 1.79 1.78 1.79 1.95 2.08 2.06 1.88 1.69 1.54 1.46 1.44 1.30 1.20 1.17
0.07 0.08 0.10 0.18 0.26 0.27 0.35 0.42 0.52 0.58 0.63 0.71 0.76 0.78 0.80 0.81 0.86 0.94 1.08 1.23 1.45 1.66 1.89 2.00 1.91 1.68 1.62 1.74 1.92 1.95 1.96 2.03 2.07 2.12 2.05 1.95 1.73 1.55 1.43 1.30 1.19 1.06 0.99
0.06 0.09 0.10 0.09 0.11 0.12 0.18 0.33 0.41 0.63 0.78 0.86 1.04 1.12 1.16 1.30 1.50 1.46 1.39 1.42 1.54 1.62 1.62 1.70 1.68 1.67 1.67 1.68 1.61 1.58 1.58 1.52 1.45 1.37 1.26 1.12 0.94 0.80 0.71 0.71 0.66 0.49 0.47
0.11 0.12 0.21 0.22 0.21 0.21 0.24 0.33 0.47 0.53 0.53 0.56 0.70 0.82 1.16 1.38 1.50 1.46 1.51 1.56 1.62 1.66 1.80 1.81 1.84 1.79 1.67 1.52 1.36 1.18 1.00 0.90 0.78 0.72 0.67 0.57 0.51 0.44 0.35 0.26 0.22 0.20 0.22
0.21 0.22 0.21 0.23 0.30 0.35 0.40 0.45 0.60 0.80 0.87 1.02 1.13 1.22 1.18 1.34 1.28 1.22 1.13 1.09 1.08 1.00 1.09 1.00 0.95 0.90 0.78 0.67 0.66 0.64 0.64 0.56 0.45 0.42 0.36 0.28 0.25 0.23 0.21 0.20 0.18 0.15 0.16
0.87 0.98 0.99 1.06 1.04 0.98 0.95 0.94 0.97 1.02 1.12 1.37 1.39 1.25 1.15 1.03 0.92 0.81 0.73 0.67 0.70 0.59 0.57 0.55 0.54 0.45 0.35 0.31 0.29 0.26 0.24 0.23 0.22 0.20 0.21 0.20 0.21 0.21 0.20 0.15 0.13 0.14 0.13
0.77 0.90 0.95 0.99 1.02 0.97 0.93 0.92 0.90 0.86 0.81 0.83 0.78 0.71 0.69 0.59 0.53 0.52 0.47 0.60 0.57 0.47 0.39 0.33 0.30 0.26 0.22 0.18 0.17 0.16 0.19 0.19 0.17 0.20 0.19 0.20 0.22 0.23 0.21 0.17 0.16 0.14 0.14
0.53 0.68 0.65 0.72 0.81 0.79 0.78 0.76 0.75 0.71 0.70 0.67 0.62 0.66 0.60 0.45 0.47 0.44 0.44 0.44 0.39 0.33 0.26 0.22 0.18 0.15 0.17 0.19 0.22 0.23 0.21 0.16 0.16 0.16 0.17 0.19 0.23 0.26 0.29 0.24 0.23 0.24 0.17
0.83 0.87 0.82 0.76 0.78 0.77 0.71 0.63 0.58 0.54 0.51 0.49 0.54 0.51 0.42 0.43 0.43 0.35 0.28 0.23 0.22 0.20 0.19 0.19 0.20 0.23 0.23 0.21 0.20 0.18 0.16 0.14 0.15 0.17 0.16 0.18 0.20 0.20 0.19 0.23 0.19 0.16 0.13
0.73 0.72 0.66 0.65 0.61 0.58 0.54 0.49 0.50 0.50 0.47 0.41 0.35 0.26 0.21 0.25 0.21 0.19 0.20 0.22 0.24 0.26 0.28 0.29 0.24 0.19 0.19 0.20 0.19 0.20 0.16 0.15 0.16 0.17 0.17 0.15 0.15 0.15 0.16 0.17 0.17 0.17 0.15
0.51 0.46 0.41 0.43 0.43 0.41 0.39 0.39 0.37 0.31 0.27 0.23 0.23 0.24 0.20 0.23 0.24 0.25 0.24 0.22 0.20 0.19 0.13 0.14 0.15 0.12 0.11 0.15 0.19 0.21 0.18 0.13 0.15 0.19 0.21 0.18 0.16 0.16 0.18 0.18 0.17 0.17 0.16
0.29 0.31 0.30 0.30 0.28 0.25 0.23 0.21 0.19 0.19 0.24 0.27 0.25 0.23 0.21 0.21 0.24 0.23 0.20 0.16 0.15 0.13 0.15 0.18 0.16 0.12 0.12 0.13 0.16 0.18 0.16 0.13 0.19 0.20 0.22 0.20 0.14 0.12 0.16 0.16 0.16 0.16 0.15
0.16 0.17 0.19 0.20 0.23 0.25 0.24 0.25 0.30 0.29 0.26 0.25 0.25 0.23 0.20 0.19 0.16 0.15 0.16 0.16 0.16 0.15 0.13 0.13 0.16 0.17 0.15 0.17 0.18 0.17 0.16 0.22 0.26 0.24 0.32 0.21 0.15 0.13 0.15 0.15 0.15 0.18 0.16
0.13 0.17 0.20 0.21 0.24 0.28 0.32 0.30 0.25 0.21 0.21 0.21 0.21 0.20 0.19 0.17 0.16 0.15 0.15 0.16 0.18 0.16 0.14 0.15 0.15 0.13 0.14 0.15 0.17 0.20 0.19 0.21 0.30 0.30 0.38 0.31 0.23 0.18 0.17 0.18 0.17 0.20 0.14

GFSGL_prec_precacc_123.txt.gz
Total_Precipitation_Accumulation
0.14 0.30 0.44 0.46 0.69 1.07 0.98 1.25 1.07 1.07 1.19 1.01 0.78 0.74 0.62 0.57 0.53 0.47 0.37 0.33 0.31 0.28 0.29 0.40 0.42 0.43 0.45 0.50 0.53 0.48 0.36 0.29 0.26 0.13 0.13 0.15 0.20 0.20 0.15 0.10 0.09 0.12 0.10
0.84 1.24 1.12 1.27 1.51 1.38 1.57 2.07 1.46 1.12 0.92 0.71 0.58 0.42 0.37 0.41 0.43 0.37 0.28 0.23 0.23 0.23 0.25 0.29 0.32 0.41 0.43 0.44 0.52 0.60 0.56 0.51 0.51 0.32 0.23 0.24 0.15 0.12 0.12 0.12 0.09 0.07 0.05
1.15 1.20 1.34 1.79 1.39 1.04 0.81 0.59 0.57 0.53 0.47 0.36 0.30 0.28 0.26 0.24 0.28 0.34 0.39 0.33 0.31 0.28 0.28 0.30 0.32 0.36 0.38 0.43 0.51 0.56 0.53 0.59 0.60 0.65 0.49 0.36 0.30 0.21 0.20 0.16 0.13 0.12 0.09
0.90 0.93 0.91 0.94 1.04 0.86 0.76 0.57 0.62 0.60 0.53 0.42 0.37 0.36 0.37 0.31 0.26 0.24 0.22 0.17 0.15 0.17 0.20 0.23 0.24 0.24 0.24 0.25 0.29 0.34 0.44 0.63 0.72 0.80 0.78 0.58 0.42 0.34 0.39 0.31 0.26 0.19 0.24
0.84 0.72 0.57 0.49 0.52 0.58 0.58 0.49 0.47 0.43 0.40 0.36 0.33 0.38 0.39 0.37 0.37 0.28 0.18 0.15 0.16 0.15 0.12 0.10 0.08 0.18 0.25 0.21 0.24 0.26 0.37 0.47 0.56 0.63 0.75 0.73 0.55 0.47 0.45 0.35 0.44 0.39 0.56
0.59 0.57 0.56 0.51 0.57 0.59 0.47 0.49 0.34 0.31 0.38 0.51 0.62 0.66 0.57 0.40 0.45 0.27 0.18 0.11 0.10 0.13 0.12 0.09 0.10 0.20 0.16 0.25 0.30 0.32 0.30 0.39 0.49 0.50 0.52 0.55 0.43 0.44 0.55 0.69 0.66 0.83 0.83
0.55 0.53 0.47 0.57 0.60 0.65 0.62 0.59 0.62 0.68 0.66 0.57 0.57 0.57 0.73 0.79 0.86 0.74 0.61 0.40 0.38 0.33 0.20 0.14 0.12 0.13 0.18 0.07 0.18 0.29 0.35 0.41 0.45 0.50 0.58 0.51 0.52 0.48 0.61 0.79 0.86 0.95 0.88
0.63 0.60 0.52 0.52 0.64 0.78 0.75 0.76 0.94 0.94 0.81 0.73 0.70 0.62 0.48 0.53 0.67 0.66 0.76 0.71 0.78 0.68 0.42 0.21 0.19 0.20 0.31 0.30 0.24 0.33 0.39 0.47 0.57 0.66 0.79 0.82 0.80 0.76 0.79 0.93 1.06 1.20 1.17
0.94 0.90 0.86 0.73 0.79 0.92 1.09 1.13 0.97 0.92 0.97 0.96 0.95 0.99 0.83 0.68 0.85 0.65 0.60 0.40 0.48 0.48 0.39 0.38 0.43 0.34 0.79 0.80 0.58 0.59 0.82 1.07 1.42 1.44 1.52 1.53 1.44 1.22 1.06 1.16 1.44 1.76 1.81
1.07 1.10 1.21 1.33 1.47 1.57 1.51 1.39 1.47 1.45 1.34 1.28 1.25 1.18 1.31 0.96 1.35 1.18 1.07 0.86 0.85 0.78 0.61 0.56 1.01 0.71 1.00 0.77 0.64 0.55 0.72 0.78 0.85 0.93 1.01 1.05 0.98 0.94 1.02 0.88 0.98 1.40 1.58
0.71 1.02 1.09 1.27 1.37 1.31 1.49 1.58 1.72 1.96 2.08 1.97 1.83 1.56 1.41 1.50 1.59 1.70 1.71 1.52 1.51 1.39 1.16 1.02 1.14 1.82 1.26 1.26 1.37 1.31 1.96 2.14 2.08 1.71 1.47 1.35 1.13 0.94 0.90 0.91 0.93 1.16 1.39
0.50 0.46 0.58 0.67 0.71 0.91 0.94 1.03 1.15 1.21 1.35 1.45 1.48 1.59 1.55 1.52 1.76 1.70 1.71 1.98 2.20 1.94 2.01 1.89 2.23 2.26 1.68 1.79 2.04 2.54 2.64 2.25 1.89 1.84 1.72 1.56 1.42 1.27 1.13 1.02 1.03 1.09 1.15
0.18 0.24 0.30 0.37 0.50 0.55 0.63 0.71 0.69 0.72 0.72 0.76 0.83 0.90 1.00 1.03 1.17 1.44 1.41 1.52 1.68 1.71 2.13 2.44 2.34 1.92 1.55 1.58 1.85 1.97 1.95 1.95 2.12 2.24 2.21 2.01 1.77 1.60 1.54 1.53 1.38 1.28 1.26
0.07 0.08 0.10 0.18 0.26 0.27 0.35 0.42 0.52 0.59 0.63 0.71 0.76 0.79 0.81 0.81 0.86 0.94 1.09 1.25 1.49 1.73 2.00 2.16 2.09 1.87 1.80 1.91 2.09 2.14 2.15 2.23 2.29 2.34 2.27 2.19 1.99 1.80 1.65 1.47 1.33 1.19 1.11
0.06 0.09 0.10 0.09 0.11 0.12 0.18 0.33 0.41 0.64 0.79 0.88 1.06 1.13 1.17 1.32 1.51 1.46 1.39 1.43 1.54 1.62 1.63 1.72 1.71 1.73 1.75 1.78 1.72 1.72 1.75 1.73 1.67 1.59 1.48 1.34 1.14 0.99 0.88 0.86 0.80 0.61 0.56
0.11 0.13 0.21 0.22 0.21 0.21 0.24 0.33 0.47 0.53 0.53 0.57 0.70 0.82 1.17 1.39 1.50 1.46 1.51 1.56 1.62 1.66 1.80 1.81 1.84 1.80 1.70 1.57 1.42 1.26 1.09 1.00 0.91 0.86 0.82 0.71 0.63 0.54 0.42 0.30 0.26 0.23 0.25
0.21 0.23 0.21 0.23 0.30 0.35 0.40 0.45 0.60 0.80 0.87 1.02 1.14 1.22 1.19 1.35 1.28 1.22 1.13 1.09 1.08 1.00 1.09 1.00 0.96 0.90 0.78 0.68 0.68 0.66 0.68 0.62 0.52 0.49 0.44 0.36 0.32 0.27 0.24 0.22 0.20 0.17 0.17
0.87 0.98 0.99 1.07 1.04 0.98 0.95 0.94 0.97 1.02 1.12 1.37 1.39 1.25 1.15 1.04 0.92 0.81 0.73 0.67 0.70 0.59 0.57 0.55 0.54 0.45 0.35 0.31 0.29 0.27 0.25 0.25 0.25 0.24 0.25 0.24 0.24 0.23 0.21 0.15 0.14 0.15 0.13
0.77 0.90 0.95 0.99 1.02 0.97 0.93 0.92 0.90 0.86 0.81 0.83 0.78 0.71 0.69 0.59 0.53 0.52 0.47 0.60 0.57 0.47 0.39 0.33 0.30 0.26 0.22 0.18 0.17 0.16 0.19 0.19 0.17 0.20 0.19 0.21 0.22 0.23 0.21 0.17 0.16 0.14 0.14
0.53 0.68 0.65 0.72 0.81 0.79 0.78 0.76 0.75 0.71 0.70 0.67 0.62 0.66 0.60 0.45 0.47 0.44 0.44 0.44 0.39 0.33 0.26 0.22 0.18 0.15 0.17 0.19 0.22 0.23 0.21 0.16 0.16 0.16 0.17 0.19 0.23 0.26 0.29 0.24 0.23 0.24 0.17
0.83 0.87 0.82 0.76 0.78 0.77 0.71 0.64 0.58 0.54 0.51 0.49 0.54 0.51 0.42 0.43 0.43 0.35 0.28 0.23 0.22 0.20 0.19 0.19 0.20 0.23 0.23 0.21 0.20 0.18 0.16 0.14 0.15 0.17 0.16 0.18 0.20 0.20 0.19 0.23 0.19 0.16 0.13
0.73 0.72 0.66 0.65 0.61 0.58 0.54 0.50 0.51 0.50 0.47 0.41 0.35 0.26 0.21 0.25 0.21 0.19 0.20 0.22 0.24 0.26 0.28 0.29 0.24 0.19 0.19 0.20 0.19 0.20 0.16 0.15 0.16 0.17 0.17 0.15 0.15 0.15 0.16 0.17 0.17 0.17 0.15
0.51 0.46 0.41 0.43 0.43 0.41 0.39 0.39 0.37 0.31 0.27 0.23 0.23 0.24 0.20 0.23 0.24 0.25 0.24 0.22 0.20 0.19 0.13 0.14 0.15 0.12 0.11 0.15 0.19 0.21 0.18 0.13 0.15 0.19 0.21 0.18 0.16 0.16 0.18 0.18 0.17 0.17 0.16
0.29 0.31 0.30 0.30 0.28 0.25 0.24 0.22 0.19 0.19 0.24 0.28 0.25 0.23 0.21 0.21 0.24 0.23 0.20 0.16 0.15 0.13 0.15 0.18 0.16 0.12 0.12 0.13 0.16 0.18 0.16 0.13 0.19 0.20 0.22 0.20 0.14 0.12 0.16 0.16 0.16 0.16 0.15
0.16 0.17 0.19 0.20 0.23 0.25 0.24 0.25 0.30 0.29 0.26 0.25 0.26 0.23 0.20 0.19 0.17 0.15 0.16 0.16 0.16 0.15 0.13 0.13 0.16 0.17 0.15 0.17 0.18 0.17 0.16 0.22 0.26 0.24 0.32 0.21 0.15 0.13 0.15 0.15 0.15 0.18 0.16
0.13 0.17 0.20 0.21 0.24 0.28 0.32 0.30 0.25 0.22 0.21 0.21 0.21 0.20 0.19 0.17 0.16 0.15 0.15 0.16 0.18 0.16 0.14 0.15 0.15 0.13 0.14 0.15 0.17 0.20 0.19 0.21 0.30 0.30 0.38 0.31 0.23 0.18 0.17 0.18 0.17 0.20 0.14

GFSGL_prec_precacc_126.txt.gz
Total_Precipitation_Accumulation
0.15 0.31 0.44 0.46 0.69 1.07 0.98 1.25 1.07 1.07 1.20 1.04 0.81 0.79 0.65 0.59 0.54 0.49 0.39 0.34 0.32 0.31 0.33 0.44 0.45 0.44 0.45 0.51 0.53 0.48 0.36 0.30 0.27 0.13 0.13 0.16 0.24 0.29 0.27 0.21 0.17 0.16 0.11
0.85 1.25 1.13 1.28 1.51 1.38 1.57 2.07 1.46 1.12 0.92 0.72 0.62 0.48 0.44 0.46 0.46 0.38 0.29 0.23 0.25 0.28 0.31 0.34 0.35 0.44 0.45 0.44 0.52 0.60 0.57 0.52 0.53 0.33 0.24 0.25 0.19 0.16 0.20 0.23 0.19 0.15 0.09
1.20 1.21 1.35 1.80 1.39 1.04 0.81 0.59 0.57 0.53 0.47 0.36 0.31 0.30 0.30 0.30 0.34 0.39 0.44 0.40 0.37 0.34 0.33 0.34 0.35 0.39 0.39 0.43 0.51 0.56 0.54 0.60 0.61 0.65 0.50 0.37 0.33 0.26 0.27 0.21 0.18 0.16 0.13
0.92 0.94 0.91 0.94 1.04 0.86 0.76 0.57 0.63 0.61 0.54 0.43 0.40 0.38 0.39 0.35 0.30 0.28 0.26 0.21 0.19 0.23 0.27 0.27 0.27 0.25 0.25 0.25 0.29 0.34 0.44 0.64 0.72 0.80 0.78 0.61 0.45 0.37 0.44 0.35 0.31 0.25 0.30
0.84 0.72 0.57 0.49 0.52 0.58 0.58 0.49 0.48 0.44 0.41 0.37 0.36 0.42 0.42 0.38 0.39 0.29 0.18 0.16 0.18 0.18 0.17 0.16 0.12 0.22 0.27 0.21 0.24 0.26 0.38 0.48 0.57 0.64 0.76 0.75 0.60 0.52 0.50 0.40 0.49 0.45 0.63
0.59 0.57 0.56 0.51 0.57 0.59 0.47 0.49 0.34 0.31 0.38 0.52 0.64 0.69 0.59 0.42 0.51 0.28 0.19 0.12 0.11 0.14 0.14 0.12 0.16 0.28 0.20 0.27 0.31 0.32 0.30 0.39 0.49 0.51 0.52 0.55 0.43 0.46 0.61 0.79 0.77 0.95 0.90
0.55 0.53 0.47 0.57 0.60 0.65 0.62 0.59 0.62 0.68 0.66 0.57 0.59 0.63 0.80 0.92 1.03 0.88 0.74 0.51 0.49 0.49 0.46 0.42 0.32 0.30 0.31 0.14 0.20 0.29 0.35 0.42 0.46 0.50 0.58 0.51 0.52 0.49 0.64 0.90 1.02 1.11 0.99
0.63 0.60 0.52 0.52 0.64 0.78 0.75 0.76 0.94 0.94 0.81 0.73 0.70 0.62 0.48 0.53 0.68 0.69 0.88 0.92 1.02 0.91 0.87 0.78 0.83 0.80 0.81 0.69 0.34 0.34 0.39 0.48 0.59 0.67 0.80 0.83 0.81 0.76 0.80 0.94 1.10 1.31 1.30
0.94 0.90 0.86 0.73 0.79 0.92 1.09 1.13 0.98 0.92 0.97 0.96 0.95 0.99 0.83 0.68 0.85 0.65 0.62 0.45 0.56 0.62 0.58 0.60 0.63 0.56 1.04 1.00 0.67 0.62 0.82 1.08 1.45 1.46 1.55 1.58 1.47 1.24 1.07 1.16 1.44 1.79 1.86
1.07 1.10 1.22 1.33 1.47 1.57 1.51 1.40 1.47 1.45 1.35 1.29 1.25 1.18 1.31 0.96 1.35 1.18 1.07 0.91 0.96 0.91 0.76 0.72 1.18 0.86 1.13 0.82 0.68 0.58 0.75 0.78 0.85 0.94 1.03 1.07 0.99 0.95 1.04 0.90 0.98 1.41 1.59
0.72 1.02 1.09 1.27 1.37 1.32 1.49 1.58 1.73 1.97 2.08 1.97 1.84 1.56 1.41 1.51 1.59 1.70 1.71 1.53 1.55 1.48 1.35 1.25 1.39 2.07 1.45 1.44 1.52 1.42 2.09 2.27 2.20 1.76 1.50 1.38 1.14 0.94 0.91 0.93 0.94 1.17 1.41
0.50 0.46 0.58 0.67 0.71 0.92 0.95 1.03 1.15 1.21 1.35 1.45 1.49 1.59 1.55 1.52 1.77 1.71 1.71 1.98 2.20 1.96 2.06 2.03 2.42 2.47 1.89 1.98 2.22 2.77 2.86 2.42 2.07 2.05 1.90 1.74 1.56 1.37 1.20 1.05 1.05 1.11 1.18
0.18 0.24 0.30 0.37 0.50 0.55 0.63 0.71 0.69 0.72 0.72 0.77 0.83 0.91 1.00 1.04 1.18 1.44 1.41 1.52 1.68 1.72 2.16 2.50 2.42 2.04 1.69 1.75 2.06 2.21 2.18 2.12 2.26 2.38 2.35 2.17 1.90 1.72 1.65 1.62 1.43 1.31 1.29
0.07 0.08 0.10 0.18 0.26 0.27 0.35 0.42 0.52 0.59 0.64 0.71 0.76 0.79 0.81 0.81 0.86 0.95 1.09 1.25 1.49 1.74 2.02 2.18 2.13 1.92 1.87 2.02 2.23 2.33 2.40 2.53 2.59 2.60 2.47 2.35 2.15 1.94 1.77 1.61 1.47 1.34 1.24
0.06 0.09 0.10 0.09 0.11 0.12 0.18 0.34 0.41 0.65 0.79 0.88 1.07 1.14 1.18 1.33 1.52 1.47 1.39 1.43 1.54 1.62 1.63 1.72 1.73 1.76 1.79 1.83 1.81 1.84 1.92 1.94 1.91 1.87 1.76 1.58 1.35 1.18 1.06 1.06 1.00 0.79 0.75
0.11 0.13 0.21 0.22 0.21 0.21 0.24 0.33 0.47 0.53 0.53 0.57 0.71 0.83 1.17 1.40 1.50 1.46 1.51 1.56 1.62 1.66 1.80 1.82 1.85 1.81 1.71 1.59 1.46 1.32 1.16 1.09 1.04 1.02 0.99 0.88 0.79 0.69 0.56 0.44 0.39 0.37 0.39
0.21 0.23 0.21 0.23 0.30 0.35 0.40 0.45 0.60 0.80 0.87 1.02 1.14 1.22 1.19 1.35 1.28 1.22 1.13 1.09 1.08 1.00 1.09 1.00 0.96 0.91 0.79 0.69 0.69 0.68 0.72 0.67 0.58 0.56 0.52 0.46 0.42 0.37 0.33 0.31 0.29 0.25 0.25
0.87 0.98 0.99 1.07 1.04 0.99 0.95 0.95 0.98 1.02 1.12 1.37 1.39 1.25 1.15 1.04 0.92 0.81 0.73 0.67 0.70 0.59 0.57 0.55 0.54 0.45 0.35 0.31 0.29 0.28 0.26 0.26 0.26 0.27 0.29 0.29 0.30 0.30 0.27 0.21 0.19 0.19 0.16
0.77 0.90 0.95 1.00 1.02 0.97 0.93 0.92 0.90 0.86 0.81 0.84 0.78 0.71 0.69 0.59 0.53 0.52 0.47 0.60 0.57 0.47 0.39 0.34 0.30 0.27 0.22 0.18 0.17 0.16 0.19 0.19 0.17 0.20 0.19 0.21 0.23 0.24 0.23 0.18 0.18 0.15 0.14
0.53 0.68 0.65 0.72 0.81 0.79 0.79 0.76 0.75 0.72 0.70 0.67 0.63 0.66 0.60 0.45 0.47 0.44 0.45 0.44 0.39 0.33 0.26 0.22 0.18 0.16 0.17 0.20 0.22 0.24 0.21 0.16 0.16 0.16 0.17 0.19 0.24 0.26 0.29 0.24 0.23 0.24 0.17
0.83 0.87 0.82 0.76 0.79 0.78 0.72 0.64 0.58 0.54 0.52 0.50 0.55 0.52 0.42 0.43 0.43 0.35 0.28 0.24 0.23 0.21 0.20 0.19 0.20 0.24 0.23 0.21 0.20 0.18 0.16 0.15 0.15 0.17 0.17 0.18 0.20 0.20 0.19 0.23 0.19 0.16 0.13
0.73 0.72 0.66 0.65 0.62 0.58 0.55 0.50 0.51 0.51 0.47 0.41 0.36 0.26 0.21 0.25 0.22 0.20 0.20 0.23 0.25 0.26 0.28 0.29 0.24 0.19 0.19 0.20 0.19 0.20 0.17 0.16 0.16 0.17 0.17 0.15 0.15 0.15 0.16 0.17 0.17 0.17 0.15
0.51 0.46 0.41 0.43 0.43 0.41 0.40 0.40 0.38 0.32 0.27 0.24 0.23 0.24 0.21 0.24 0.25 0.26 0.24 0.22 0.21 0.19 0.13 0.15 0.15 0.12 0.11 0.15 0.19 0.21 0.18 0.13 0.15 0.20 0.21 0.19 0.16 0.16 0.18 0.18 0.17 0.17 0.16
0.29 0.31 0.30 0.30 0.28 0.25 0.24 0.22 0.20 0.20 0.24 0.28 0.26 0.24 0.22 0.22 0.25 0.24 0.20 0.17 0.15 0.14 0.15 0.19 0.16 0.12 0.12 0.13 0.16 0.18 0.16 0.13 0.19 0.20 0.22 0.20 0.14 0.12 0.16 0.16 0.16 0.16 0.15
0.16 0.17 0.19 0.20 0.23 0.25 0.24 0.25 0.30 0.30 0.27 0.26 0.26 0.24 0.21 0.20 0.17 0.16 0.16 0.17 0.16 0.16 0.14 0.14 0.16 0.17 0.15 0.17 0.18 0.17 0.16 0.23 0.26 0.24 0.32 0.22 0.15 0.13 0.15 0.15 0.15 0.18 0.16
0.13 0.17 0.21 0.22 0.25 0.29 0.33 0.30 0.25 0.22 0.22 0.22 0.21 0.21 0.20 0.18 0.17 0.16 0.16 0.17 0.18 0.16 0.15 0.16 0.15 0.13 0.14 0.15 0.17 0.20 0.19 0.21 0.30 0.30 0.39 0.32 0.23 0.18 0.17 0.18 0.17 0.20 0.14

GFSGL_prec_precacc_129.txt.gz
Total_Precipitation_Accumulation
0.20 0.34 0.47 0.49 0.72 1.09 0.99 1.25 1.07 1.07 1.20 1.04 0.82 0.80 0.67 0.62 0.58 0.51 0.43 0.37 0.36 0.33 0.34 0.45 0.48 0.50 0.49 0.53 0.54 0.49 0.37 0.31 0.27 0.13 0.14 0.16 0.24 0.30 0.28 0.22 0.21 0.20 0.16
0.92 1.28 1.16 1.28 1.52 1.38 1.57 2.07 1.46 1.12 0.92 0.72 0.62 0.51 0.46 0.48 0.48 0.41 0.32 0.27 0.28 0.30 0.34 0.39 0.40 0.51 0.51 0.50 0.56 0.63 0.59 0.53 0.53 0.33 0.24 0.25 0.20 0.16 0.21 0.24 0.23 0.20 0.15
1.21 1.22 1.36 1.82 1.41 1.05 0.82 0.59 0.57 0.53 0.47 0.37 0.31 0.31 0.32 0.33 0.37 0.44 0.49 0.44 0.41 0.37 0.37 0.40 0.40 0.45 0.46 0.51 0.57 0.59 0.56 0.63 0.62 0.66 0.50 0.37 0.33 0.26 0.27 0.22 0.21 0.23 0.23
1.05 0.99 0.94 0.96 1.06 0.89 0.78 0.59 0.63 0.62 0.55 0.45 0.42 0.41 0.42 0.38 0.32 0.30 0.28 0.24 0.24 0.31 0.35 0.34 0.34 0.33 0.31 0.30 0.32 0.37 0.47 0.66 0.74 0.81 0.79 0.61 0.45 0.37 0.44 0.36 0.33 0.27 0.33
0.92 0.80 0.58 0.49 0.52 0.59 0.59 0.50 0.49 0.45 0.42 0.39 0.39 0.46 0.47 0.44 0.45 0.33 0.21 0.20 0.23 0.25 0.27 0.27 0.24 0.33 0.37 0.27 0.29 0.28 0.40 0.50 0.58 0.65 0.77 0.75 0.60 0.52 0.50 0.40 0.49 0.47 0.67
0.60 0.57 0.57 0.51 0.57 0.59 0.47 0.49 0.34 0.31 0.39 0.53 0.66 0.72 0.62 0.45 0.60 0.36 0.24 0.16 0.14 0.17 0.17 0.16 0.21 0.36 0.27 0.34 0.36 0.36 0.32 0.40 0.51 0.52 0.52 0.55 0.43 0.46 0.61 0.79 0.78 1.00 0.96
0.55 0.53 0.47 0.57 0.60 0.65 0.62 0.59 0.62 0.68 0.66 0.57 0.59 0.63 0.80 0.92 1.04 0.90 0.76 0.53 0.52 0.53 0.51 0.47 0.37 0.36 0.40 0.19 0.34 0.45 0.50 0.56 0.56 0.55 0.59 0.51 0.52 0.49 0.64 0.91 1.05 1.15 1.01
0.63 0.60 0.52 0.52 0.64 0.78 0.75 0.76 0.94 0.94 0.81 0.73 0.70 0.62 0.48 0.53 0.68 0.70 0.91 0.95 1.07 0.99 0.94 0.86 0.90 0.89 0.93 0.84 0.67 0.71 0.70 0.76 0.81 0.81 0.84 0.83 0.81 0.77 0.80 0.94 1.10 1.33 1.38
0.95 0.90 0.86 0.73 0.79 0.92 1.09 1.14 0.98 0.92 0.97 0.96 0.95 0.99 0.83 0.68 0.85 0.65 0.62 0.45 0.57 0.64 0.61 0.65 0.72 0.65 1.18 1.16 0.90 0.93 1.11 1.34 1.67 1.61 1.65 1.66 1.52 1.28 1.10 1.19 1.45 1.80 1.88
1.08 1.10 1.22 1.34 1.48 1.58 1.52 1.40 1.47 1.45 1.35 1.29 1.26 1.18 1.32 0.96 1.35 1.18 1.07 0.91 0.96 0.91 0.77 0.75 1.24 0.94 1.26 0.97 0.84 0.76 0.92 0.94 1.01 1.08 1.12 1.12 1.04 1.00 1.14 0.97 1.01 1.43 1.61
0.72 1.02 1.09 1.27 1.38 1.32 1.49 1.59 1.73 1.97 2.09 1.97 1.84 1.56 1.42 1.51 1.59 1.70 1.71 1.53 1.56 1.49 1.36 1.27 1.43 2.14 1.53 1.53 1.65 1.60 2.32 2.47 2.41 1.93 1.64 1.48 1.20 0.97 0.95 0.98 0.99 1.23 1.45
0.50 0.46 0.58 0.67 0.71 0.92 0.95 1.03 1.16 1.21 1.35 1.46 1.49 1.59 1.55 1.52 1.77 1.71 1.71 1.98 2.21 1.96 2.07 2.03 2.43 2.49 1.93 2.06 2.36 2.97 3.09 2.64 2.24 2.22 2.08 1.89 1.70 1.47 1.27 1.13 1.12 1.17 1.24
0.18 0.24 0.30 0.37 0.50 0.55 0.63 0.71 0.69 0.72 0.72 0.77 0.83 0.91 1.00 1.04 1.18 1.44 1.41 1.52 1.68 1.72 2.16 2.50 2.42 2.04 1.69 1.76 2.10 2.29 2.32 2.32 2.49 2.60 2.56 2.39 2.16 1.96 1.84 1.79 1.60 1.46 1.43
0.07 0.08 0.10 0.18 0.26 0.27 0.35 0.42 0.52 0.59 0.64 0.71 0.77 0.80 0.81 0.81 0.87 0.95 1.09 1.25 1.49 1.74 2.02 2.19 2.13 1.92 1.88 2.02 2.24 2.35 2.45 2.64 2.76 2.84 2.76 2.64 2.41 2.18 2.00 1.83 1.68 1.56 1.43
0.06 0.09 0.10 0.09 0.11 0.12 0.18 0.34 0.41 0.65 0.79 0.89 1.07 1.15 1.19 1.34 1.53 1.47 1.39 1.43 1.55 1.63 1.63 1.73 1.73 1.76 1.79 1.84 1.81 1.85 1.93 1.97 1.96 1.97 1.93 1.83 1.65 1.46 1.33 1.31 1.23 0.99 0.93
0.11 0.13 0.21 0.22 0.21 0.21 0.24 0.33 0.47 0.53 0.53 0.57 0.71 0.83 1.18 1.40 1.50 1.46 1.51 1.56 1.62 1.66 1.80 1.82 1.85 1.82 1.72 1.60 1.47 1.33 1.18 1.11 1.08 1.07 1.06 0.99 0.95 0.89 0.79 0.68 0.63 0.60 0.61
0.21 0.23 0.21 0.23 0.30 0.35 0.40 0.45 0.60 0.80 0.87 1.02 1.14 1.22 1.19 1.35 1.28 1.22 1.13 1.09 1.08 1.00 1.09 1.00 0.97 0.91 0.80 0.70 0.70 0.69 0.73 0.70 0.62 0.60 0.57 0.53 0.52 0.49 0.47 0.46 0.45 0.42 0.41
0.87 0.98 0.99 1.07 1.04 0.99 0.95 0.95 0.98 1.02 1.12 1.37 1.39 1.25 1.15 1.04 0.92 0.81 0.73 0.67 0.70 0.59 0.57 0.55 0.54 0.45 0.35 0.31 0.29 0.28 0.27 0.28 0.28 0.29 0.32 0.34 0.37 0.38 0.37 0.32 0.31 0.31 0.29
0.77 0.90 0.95 1.00 1.02 0.97 0.93 0.92 0.90 0.87 0.81 0.84 0.78 0.71 0.69 0.59 0.53 0.52 0.47 0.60 0.57 0.47 0.39 0.34 0.30 0.27 0.22 0.18 0.18 0.17 0.20 0.19 0.18 0.21 0.20 0.23 0.25 0.27 0.28 0.25 0.25 0.23 0.22
0.53 0.68 0.65 0.72 0.81 0.79 0.79 0.76 0.75 0.72 0.70 0.67 0.63 0.66 0.60 0.45 0.48 0.45 0.45 0.44 0.39 0.34 0.26 0.23 0.18 0.16 0.17 0.20 0.23 0.24 0.22 0.16 0.16 0.16 0.17 0.20 0.24 0.26 0.29 0.25 0.24 0.25 0.19
0.83 0.87 0.82 0.76 0.79 0.78 0.72 0.64 0.59 0.54 0.52 0.50 0.55 0.53 0.42 0.43 0.43 0.36 0.28 0.24 0.23 0.21 0.20 0.20 0.21 0.24 0.23 0.21 0.20 0.19 0.17 0.15 0.16 0.18 0.17 0.18 0.20 0.20 0.19 0.23 0.19 0.16 0.13
0.73 0.72 0.66 0.65 0.62 0.58 0.55 0.50 0.51 0.51 0.47 0.42 0.36 0.26 0.21 0.25 0.22 0.20 0.20 0.23 0.25 0.26 0.28 0.30 0.24 0.19 0.19 0.21 0.20 0.21 0.17 0.16 0.17 0.18 0.18 0.16 0.16 0.15 0.16 0.17 0.17 0.17 0.15
0.51 0.46 0.41 0.43 0.43 0.41 0.40 0.40 0.38 0.32 0.28 0.24 0.23 0.25 0.21 0.24 0.25 0.26 0.25 0.23 0.21 0.19 0.14 0.15 0.15 0.12 0.11 0.15 0.19 0.21 0.18 0.14 0.16 0.20 0.22 0.19 0.16 0.16 0.18 0.19 0.17 0.17 0.16
0.29 0.31 0.30 0.30 0.28 0.25 0.24 0.22 0.20 0.20 0.25 0.29 0.27 0.24 0.22 0.23 0.25 0.24 0.21 0.17 0.16 0.14 0.16 0.19 0.16 0.12 0.12 0.13 0.16 0.18 0.16 0.13 0.20 0.20 0.22 0.20 0.14 0.13 0.17 0.16 0.16 0.16 0.15
0.16 0.18 0.19 0.21 0.23 0.26 0.25 0.26 0.31 0.30 0.27 0.26 0.27 0.25 0.21 0.20 0.18 0.16 0.17 0.18 0.17 0.16 0.14 0.14 0.17 0.17 0.16 0.18 0.18 0.17 0.16 0.23 0.26 0.24 0.32 0.22 0.15 0.13 0.15 0.15 0.15 0.18 0.16
0.13 0.17 0.21 0.22 0.25 0.29 0.33 0.31 0.26 0.22 0.22 0.22 0.22 0.22 0.20 0.18 0.17 0.16 0.16 0.17 0.19 0.16 0.15 0.16 0.15 0.13 0.14 0.15 0.17 0.20 0.19 0.21 0.30 0.30 0.39 0.32 0.24 0.19 0.17 0.19 0.17 0.20 0.14

GFSGL_prec_precacc_132.txt.gz
Total_Precipitation_Accumulation
0.43 0.51 0.54 0.54 0.81 1.15 1.09 1.33 1.17 1.17 1.31 1.10 0.85 0.82 0.70 0.65 0.60 0.53 0.44 0.40 0.42 0.40 0.41 0.50 0.55 0.65 0.65 0.70 0.68 0.58 0.44 0.40 0.32 0.15 0.16 0.22 0.25 0.30 0.28 0.23 0.22 0.20 0.16
1.01 1.33 1.18 1.29 1.55 1.45 1.63 2.14 1.49 1.15 0.95 0.73 0.63 0.52 0.47 0.49 0.50 0.43 0.34 0.30 0.31 0.35 0.38 0.42 0.41 0.54 0.66 0.74 0.81 0.92 0.87 0.63 0.57 0.35 0.31 0.30 0.21 0.17 0.21 0.25 0.23 0.20 0.15
1.27 1.32 1.45 1.83 1.41 1.06 0.83 0.62 0.60 0.55 0.48 0.37 0.31 0.31 0.32 0.33 0.38 0.45 0.51 0.46 0.46 0.44 0.46 0.50 0.51 0.52 0.54 0.65 0.80 0.86 0.69 0.70 0.72 0.72 0.53 0.41 0.35 0.27 0.27 0.22 0.21 0.23 0.24
1.08 1.00 1.00 1.00 1.08 0.90 0.78 0.59 0.64 0.62 0.55 0.45 0.42 0.41 0.42 0.38 0.32 0.31 0.29 0.25 0.26 0.34 0.42 0.44 0.44 0.42 0.38 0.37 0.37 0.42 0.51 0.69 0.77 0.84 0.81 0.62 0.46 0.38 0.44 0.36 0.33 0.28 0.34
1.07 0.91 0.64 0.52 0.54 0.60 0.60 0.51 0.49 0.46 0.45 0.43 0.42 0.49 0.49 0.45 0.46 0.35 0.24 0.22 0.25 0.29 0.33 0.37 0.37 0.47 0.49 0.35 0.38 0.40 0.58 0.74 0.86 0.89 0.84 0.77 0.60 0.52 0.50 0.40 0.49 0.47 0.68
0.62 0.61 0.61 0.53 0.58 0.59 0.47 0.49 0.35 0.31 0.39 0.54 0.68 0.76 0.68 0.51 0.66 0.42 0.36 0.30 0.28 0.28 0.27 0.25 0.33 0.49 0.34 0.40 0.42 0.42 0.39 0.48 0.60 0.62 0.57 0.57 0.44 0.47 0.62 0.80 0.78 1.01 1.00
0.55 0.54 0.47 0.57 0.60 0.65 0.62 0.59 0.63 0.69 0.66 0.57 0.59 0.63 0.81 0.93 1.05 0.90 0.77 0.55 0.57 0.61 0.62 0.60 0.49 0.47 0.51 0.23 0.38 0.49 0.54 0.65 0.69 0.71 0.76 0.63 0.61 0.56 0.72 0.98 1.07 1.15 1.01
0.63 0.60 0.53 0.52 0.64 0.78 0.75 0.76 0.95 0.94 0.81 0.73 0.70 0.62 0.48 0.53 0.68 0.70 0.91 0.95 1.07 0.99 0.94 0.86 0.92 0.92 0.96 0.87 0.69 0.74 0.74 0.82 0.91 0.99 1.12 1.12 1.04 0.91 0.89 0.98 1.13 1.34 1.39
0.95 0.90 0.86 0.73 0.79 0.92 1.09 1.14 0.98 0.92 0.97 0.96 0.95 0.99 0.83 0.68 0.85 0.65 0.62 0.45 0.57 0.64 0.61 0.66 0.73 0.67 1.20 1.17 0.91 0.95 1.15 1.43 1.83 1.88 1.98 2.04 1.86 1.51 1.21 1.26 1.52 1.84 1.90
1.08 1.11 1.22 1.34 1.48 1.58 1.52 1.40 1.47 1.46 1.35 1.29 1.26 1.19 1.32 0.97 1.35 1.18 1.08 0.91 0.96 0.91 0.77 0.75 1.24 0.94 1.26 0.98 0.84 0.79 0.99 1.06 1.15 1.25 1.36 1.41 1.32 1.26 1.39 1.20 1.22 1.54 1.65
0.72 1.02 1.09 1.27 1.38 1.32 1.49 1.59 1.73 1.97 2.09 1.97 1.84 1.57 1.42 1.51 1.59 1.70 1.71 1.53 1.56 1.49 1.36 1.27 1.43 2.14 1.53 1.53 1.66 1.62 2.36 2.55 2.53 2.05 1.76 1.62 1.35 1.12 1.10 1.17 1.24 1.48 1.61
0.50 0.46 0.58 0.67 0.71 0.92 0.95 1.03 1.16 1.21 1.35 1.46 1.49 1.59 1.55 1.52 1.77 1.71 1.71 1.98 2.21 1.97 2.07 2.04 2.43 2.49 1.93 2.06 2.36 2.97 3.11 2.69 2.33 2.33 2.21 2.03 1.86 1.69 1.49 1.30 1.29 1.38 1.42
0.18 0.24 0.30 0.37 0.50 0.55 0.63 0.71 0.69 0.72 0.72 0.77 0.83 0.91 1.01 1.04 1.18 1.44 1.41 1.52 1.68 1.72 2.17 2.50 2.42 2.04 1.69 1.76 2.10 2.29 2.32 2.33 2.53 2.68 2.67 2.54 2.33 2.14 2.01 1.98 1.80 1.64 1.58
0.07 0.08 0.10 0.18 0.26 0.27 0.35 0.42 0.52 0.60 0.64 0.71 0.77 0.80 0.82 0.82 0.87 0.95 1.09 1.25 1.49 1.74 2.02 2.19 2.13 1.92 1.88 2.02 2.24 2.35 2.46 2.64 2.78 2.88 2.82 2.73 2.53 2.33 2.18 2.01 1.87 1.75 1.62
0.06 0.09 0.10 0.09 0.11 0.12 0.18 0.34 0.41 0.65 0.79 0.89 1.07 1.15 1.20 1.34 1.53 1.47 1.40 1.43 1.55 1.63 1.64 1.73 1.73 1.76 1.79 1.84 1.81 1.85 1.94 1.97 1.96 1.98 1.95 1.87 1.71 1.56 1.46 1.47 1.41 1.20 1.16
0.11 0.13 0.21 0.22 0.21 0.21 0.24 0.33 0.47 0.53 0.53 0.57 0.71 0.83 1.18 1.40 1.50 1.46 1.51 1.56 1.62 1.66 1.80 1.82 1.85 1.82 1.72 1.60 1.47 1.33 1.18 1.12 1.09 1.08 1.07 1.00 0.97 0.93 0.85 0.77 0.75 0.73 0.77
0.21 0.23 0.21 0.23 0.30 0.35 0.40 0.45 0.60 0.80 0.87 1.02 1.14 1.22 1.19 1.35 1.28 1.22 1.13 1.09 1.08 1.00 1.09 1.01 0.97 0.92 0.80 0.70 0.70 0.70 0.75 0.71 0.63 0.62 0.59 0.55 0.54 0.51 0.50 0.50 0.51 0.49 0.51
0.87 0.98 0.99 1.07 1.05 0.99 0.95 0.95 0.98 1.02 1.12 1.37 1.39 1.25 1.15 1.04 0.92 0.81 0.73 0.67 0.70 0.59 0.57 0.56 0.55 0.46 0.35 0.32 0.30 0.29 0.29 0.29 0.30 0.31 0.35 0.37 0.40 0.40 0.40 0.35 0.35 0.36 0.34
0.77 0.90 0.95 1.00 1.02 0.97 0.93 0.92 0.90 0.87 0.81 0.84 0.78 0.71 0.69 0.59 0.53 0.52 0.48 0.61 0.57 0.48 0.39 0.34 0.31 0.27 0.23 0.18 0.18 0.18 0.21 0.20 0.19 0.24 0.22 0.25 0.29 0.31 0.31 0.29 0.30 0.28 0.28
0.53 0.68 0.65 0.72 0.81 0.79 0.79 0.76 0.75 0.72 0.70 0.68 0.63 0.67 0.60 0.45 0.48 0.45 0.45 0.45 0.39 0.34 0.27 0.23 0.18 0.16 0.18 0.20 0.23 0.25 0.23 0.17 0.17 0.18 0.20 0.22 0.25 0.27 0.30 0.26 0.26 0.28 0.22
0.83 0.87 0.82 0.76 0.79 0.78 0.72 0.64 0.59 0.55 0.52 0.50 0.55 0.53 0.43 0.43 0.44 0.36 0.29 0.24 0.23 0.21 0.21 0.20 0.21 0.24 0.23 0.22 0.20 0.19 0.17 0.16 0.16 0.18 0.19 0.21 0.23 0.21 0.20 0.23 0.19 0.16 0.14
0.73 0.72 0.66 0.65 0.62 0.58 0.55 0.50 0.52 0.51 0.47 0.42 0.36 0.26 0.21 0.26 0.23 0.20 0.21 0.24 0.26 0.27 0.29 0.30 0.25 0.19 0.19 0.21 0.20 0.21 0.18 0.16 0.17 0.18 0.18 0.17 0.17 0.16 0.17 0.17 0.17 0.17 0.15
0.51 0.46 0.41 0.43 0.43 0.41 0.40 0.40 0.38 0.32 0.28 0.24 0.24 0.25 0.22 0.25 0.26 0.27 0.26 0.23 0.21 0.20 0.14 0.15 0.16 0.12 0.11 0.15 0.19 0.21 0.18 0.14 0.16 0.21 0.22 0.20 0.17 0.16 0.19 0.19 0.17 0.17 0.16
0.29 0.31 0.30 0.30 0.28 0.25 0.24 0.23 0.20 0.20 0.25 0.29 0.27 0.25 0.23 0.23 0.26 0.25 0.22 0.18 0.16 0.15 0.16 0.20 0.16 0.12 0.12 0.14 0.17 0.18 0.16 0.13 0.20 0.20 0.23 0.21 0.15 0.13 0.17 0.16 0.16 0.16 0.15
0.17 0.18 0.19 0.21 0.23 0.26 0.25 0.26 0.31 0.31 0.28 0.27 0.28 0.25 0.22 0.21 0.18 0.17 0.18 0.18 0.17 0.17 0.14 0.15 0.17 0.17 0.16 0.18 0.18 0.17 0.16 0.23 0.26 0.24 0.32 0.23 0.16 0.13 0.15 0.16 0.15 0.18 0.16
0.14 0.18 0.21 0.22 0.26 0.30 0.34 0.31 0.26 0.23 0.23 0.23 0.22 0.22 0.21 0.19 0.18 0.17 0.17 0.18 0.20 0.16 0.16 0.16 0.16 0.14 0.14 0.16 0.17 0.20 0.19 0.21 0.30 0.30 0.39 0.33 0.24 0.19 0.17 0.19 0.17 0.20 0.14

GFSGL_prec_precacc_135.txt.gz
Total_Precipitation_Accumulation
0.92 0.82 0.99 0.78 1.11 1.27 1.11 1.35 1.28 1.38 1.68 1.57 1.30 1.16 1.00 0.86 0.78 0.64 0.49 0.42 0.46 0.47 0.51 0.63 0.67 0.80 0.86 0.94 0.95 0.86 0.65 0.54 0.44 0.20 0.22 0.28 0.31 0.33 0.28 0.23 0.22 0.20 0.16
1.86 1.88 1.58 1.48 1.68 1.57 1.69 2.17 1.54 1.24 1.05 0.88 0.80 0.75 0.65 0.59 0.57 0.48 0.40 0.34 0.34 0.38 0.43 0.48 0.49 0.63 0.79 0.93 1.03 1.14 1.11 1.07 0.97 0.57 0.40 0.39 0.31 0.22 0.22 0.25 0.23 0.20 0.15
1.63 1.79 1.68 1.93 1.43 1.07 0.94 0.74 0.64 0.63 0.55 0.43 0.40 0.44 0.43 0.39 0.41 0.48 0.55 0.48 0.47 0.46 0.49 0.55 0.55 0.58 0.63 0.76 0.92 1.01 0.88 0.87 0.90 0.88 0.60 0.48 0.42 0.31 0.29 0.22 0.21 0.23 0.24
1.30 1.18 1.33 1.17 1.09 0.90 0.78 0.66 0.71 0.64 0.62 0.54 0.47 0.45 0.47 0.41 0.33 0.31 0.29 0.26 0.27 0.36 0.44 0.47 0.47 0.47 0.43 0.42 0.44 0.51 0.61 0.84 0.97 1.01 0.92 0.69 0.54 0.44 0.50 0.38 0.34 0.28 0.34
1.26 1.08 0.76 0.60 0.56 0.61 0.60 0.51 0.49 0.46 0.45 0.43 0.44 0.49 0.50 0.46 0.47 0.35 0.24 0.22 0.25 0.29 0.34 0.38 0.40 0.55 0.58 0.44 0.44 0.45 0.62 0.81 0.93 1.01 1.10 1.03 0.80 0.67 0.61 0.48 0.54 0.48 0.69
0.63 0.66 0.70 0.56 0.60 0.60 0.47 0.49 0.35 0.31 0.39 0.54 0.68 0.76 0.68 0.52 0.68 0.44 0.39 0.33 0.31 0.31 0.30 0.31 0.38 0.56 0.40 0.49 0.56 0.58 0.54 0.62 0.72 0.74 0.73 0.74 0.58 0.57 0.66 0.83 0.80 1.04 1.01
0.56 0.54 0.47 0.58 0.61 0.67 0.62 0.59 0.63 0.69 0.66 0.57 0.59 0.63 0.81 0.93 1.05 0.91 0.78 0.56 0.58 0.64 0.65 0.62 0.52 0.53 0.57 0.30 0.48 0.62 0.71 0.86 0.86 0.83 0.89 0.79 0.75 0.71 0.87 1.09 1.16 1.20 1.03
0.63 0.60 0.53 0.52 0.64 0.78 0.75 0.76 0.95 0.94 0.81 0.73 0.70 0.62 0.48 0.53 0.68 0.70 0.91 0.95 1.07 0.99 0.94 0.86 0.92 0.92 0.96 0.87 0.69 0.74 0.76 0.85 0.98 1.06 1.19 1.19 1.14 1.08 1.11 1.16 1.27 1.46 1.48
0.95 0.90 0.86 0.73 0.79 0.92 1.09 1.14 0.98 0.92 0.97 0.96 0.95 0.99 0.83 0.68 0.85 0.65 0.62 0.45 0.57 0.64 0.61 0.66 0.73 0.67 1.20 1.17 0.91 0.95 1.15 1.43 1.83 1.88 1.99 2.05 1.90 1.61 1.38 1.43 1.70 2.05 2.05
1.08 1.11 1.22 1.34 1.48 1.58 1.52 1.40 1.47 1.46 1.35 1.29 1.26 1.19 1.32 0.97 1.35 1.18 1.08 0.91 0.96 0.91 0.77 0.75 1.24 0.94 1.26 0.98 0.84 0.79 0.99 1.06 1.15 1.25 1.36 1.41 1.34 1.33 1.55 1.40 1.47 1.76 1.80
0.72 1.02 1.09 1.27 1.38 1.32 1.49 1.59 1.73 1.97 2.09 1.97 1.84 1.57 1.42 1.51 1.59 1.70 1.71 1.53 1.56 1.49 1.36 1.27 1.43 2.14 1.53 1.53 1.66 1.62 2.36 2.55 2.53 2.05 1.76 1.62 1.36 1.18 1.22 1.32 1.42 1.72 1.86
0.50 0.46 0.58 0.67 0.71 0.92 0.95 1.03 1.16 1.21 1.35 1.46 1.49 1.59 1.55 1.52 1.77 1.71 1.71 1.98 2.21 1.97 2.08 2.04 2.43 2.49 1.93 2.06 2.36 2.97 3.11 2.69 2.33 2.33 2.21 2.03 1.88 1.74 1.58 1.42 1.45 1.58 1.64
0.18 0.24 0.30 0.37 0.50 0.55 0.63 0.71 0.69 0.72 0.72 0.77 0.83 0.91 1.01 1.04 1.18 1.44 1.41 1.52 1.68 1.72 2.17 2.51 2.42 2.04 1.69 1.76 2.10 2.29 2.32 2.33 2.53 2.68 2.68 2.54 2.33 2.15 2.04 2.04 1.91 1.80 1.79
0.07 0.08 0.10 0.18 0.26 0.27 0.35 0.42 0.52 0.60 0.64 0.71 0.77 0.80 0.82 0.82 0.87 0.95 1.09 1.25 1.49 1.74 2.02 2.19 2.13 1.92 1.88 2.02 2.24 2.35 2.46 2.64 2.78 2.89 2.82 2.73 2.53 2.33 2.18 2.03 1.92 1.83 1.74
0.06 0.09 0.10 0.09 0.11 0.12 0.18 0.34 0.41 0.65 0.79 0.89 1.07 1.15 1.20 1.34 1.53 1.47 1.40 1.43 1.55 1.63 1.64 1.73 1.73 1.76 1.79 1.84 1.81 1.85 1.94 1.97 1.97 1.98 1.95 1.87 1.71 1.56 1.46 1.48 1.43 1.24 1.23
0.11 0.13 0.21 0.22 0.21 0.21 0.24 0.33 0.47 0.53 0.53 0.57 0.71 0.83 1.18 1.40 1.50 1.46 1.51 1.56 1.62 1.66 1.80 1.82 1.85 1.82 1.72 1.60 1.48 1.34 1.18 1.12 1.09 1.09 1.07 1.01 0.97 0.93 0.86 0.78 0.77 0.77 0.81
0.21 0.23 0.21 0.23 0.30 0.35 0.40 0.45 0.60 0.80 0.87 1.02 1.14 1.22 1.19 1.35 1.28 1.22 1.13 1.09 1.08 1.00 1.09 1.01 0.97 0.92 0.80 0.70 0.70 0.71 0.75 0.71 0.64 0.63 0.60 0.56 0.55 0.52 0.51 0.51 0.52 0.51 0.54
0.87 0.98 0.99 1.07 1.05 0.99 0.95 0.95 0.98 1.02 1.12 1.37 1.39 1.25 1.15 1.04 0.92 0.81 0.73 0.67 0.70 0.59 0.57 0.56 0.55 0.46 0.35 0.32 0.30 0.29 0.29 0.29 0.30 0.32 0.36 0.39 0.42 0.43 0.42 0.37 0.37 0.39 0.37
0.77 0.90 0.95 1.00 1.02 0.97 0.93 0.92 0.90 0.87 0.81 0.84 0.78 0.71 0.69 0.59 0.53 0.52 0.48 0.61 0.57 0.48 0.39 0.34 0.31 0.28 0.23 0.18 0.18 0.18 0.21 0.21 0.20 0.25 0.24 0.27 0.31 0.34 0.34 0.32 0.33 0.31 0.31
0.53 0.68 0.65 0.72 0.81 0.79 0.79 0.76 0.75 0.72 0.70 0.68 0.63 0.67 0.60 0.45 0.48 0.45 0.45 0.45 0.39 0.34 0.27 0.23 0.18 0.16 0.18 0.20 0.23 0.25 0.23 0.17 0.17 0.18 0.21 0.23 0.28 0.30 0.34 0.29 0.29 0.32 0.26
0.83 0.87 0.82 0.76 0.79 0.78 0.72 0.64 0.59 0.55 0.52 0.50 0.55 0.53 0.43 0.43 0.44 0.36 0.29 0.24 0.23 0.21 0.21 0.20 0.21 0.24 0.23 0.22 0.21 0.19 0.17 0.16 0.16 0.18 0.20 0.22 0.25 0.24 0.23 0.26 0.22 0.19 0.18
0.73 0.72 0.66 0.65 0.62 0.58 0.55 0.50 0.52 0.51 0.47 0.42 0.36 0.26 0.21 0.26 0.23 0.20 0.21 0.24 0.26 0.27 0.29 0.30 0.25 0.19 0.19 0.21 0.20 0.21 0.18 0.16 0.17 0.18 0.18 0.17 0.18 0.18 0.20 0.19 0.18 0.19 0.17
0.51 0.46 0.41 0.43 0.43 0.41 0.40 0.40 0.38 0.32 0.28 0.24 0.24 0.25 0.22 0.25 0.26 0.27 0.26 0.23 0.21 0.20 0.14 0.15 0.16 0.12 0.11 0.15 0.19 0.21 0.18 0.14 0.16 0.21 0.22 0.20 0.18 0.17 0.20 0.19 0.18 0.18 0.17
0.29 0.31 0.30 0.30 0.28 0.25 0.24 0.23 0.20 0.20 0.25 0.29 0.27 0.25 0.23 0.23 0.26 0.25 0.22 0.18 0.16 0.15 0.16 0.20 0.16 0.13 0.12 0.14 0.17 0.18 0.16 0.13 0.20 0.20 0.23 0.22 0.15 0.13 0.17 0.16 0.16 0.16 0.15
0.17 0.18 0.19 0.21 0.23 0.26 0.25 0.26 0.31 0.31 0.28 0.27 0.28 0.25 0.22 0.21 0.18 0.17 0.18 0.18 0.17 0.17 0.14 0.15 0.18 0.18 0.16 0.18 0.18 0.17 0.16 0.23 0.26 0.24 0.32 0.23 0.16 0.14 0.15 0.16 0.15 0.18 0.16
0.14 0.18 0.21 0.22 0.26 0.30 0.34 0.31 0.26 0.23 0.23 0.23 0.22 0.22 0.21 0.19 0.18 0.17 0.17 0.18 0.20 0.16 0.16 0.16 0.16 0.14 0.15 0.16 0.17 0.20 0.19 0.21 0.30 0.30 0.39 0.33 0.24 0.19 0.17 0.19 0.17 0.20 0.14

GFSGL_prec_precacc_138.txt.gz
Total_Precipitation_Accumulation
1.03 1.00 1.16 0.95 1.33 1.50 1.30 1.50 1.38 1.45 1.74 1.68 1.43 1.44 1.36 1.23 1.15 1.15 1.05 1.18 1.54 1.75 1.54 1.33 0.94 0.89 0.98 1.11 1.12 1.03 0.83 0.74 0.70 0.41 0.31 0.32 0.36 0.36 0.33 0.28 0.25 0.21 0.16
2.22 2.29 2.00 2.15 2.56 1.94 1.90 2.28 1.58 1.32 1.21 0.97 0.85 0.82 0.87 0.92 0.96 0.86 0.89 0.80 0.74 0.81 0.92 0.83 0.59 0.65 0.81 0.96 1.09 1.23 1.25 1.23 1.22 0.81 0.54 0.59 0.59 0.40 0.33 0.31 0.27 0.23 0.16
2.01 2.35 2.25 2.42 1.91 1.66 1.11 0.79 0.64 0.65 0.68 0.52 0.42 0.46 0.53 0.56 0.63 0.76 0.85 0.76 0.81 0.67 0.64 0.62 0.57 0.59 0.63 0.77 0.94 1.03 0.91 0.96 1.02 1.03 0.81 0.70 0.56 0.39 0.34 0.27 0.26 0.27 0.26
1.51 1.42 1.91 1.84 1.26 1.00 0.94 0.70 0.74 0.65 0.63 0.57 0.48 0.47 0.49 0.49 0.50 0.52 0.49 0.37 0.34 0.42 0.48 0.49 0.47 0.47 0.43 0.43 0.46 0.52 0.62 0.86 1.00 1.08 1.00 0.76 0.61 0.59 0.78 0.65 0.50 0.36 0.40
1.28 1.10 0.80 0.79 0.69 0.65 0.61 0.51 0.50 0.46 0.45 0.43 0.46 0.52 0.52 0.48 0.49 0.39 0.29 0.25 0.27 0.29 0.34 0.38 0.41 0.55 0.58 0.45 0.45 0.45 0.63 0.82 0.97 1.05 1.15 1.09 0.87 0.78 0.78 0.68 0.74 0.62 0.76
0.64 0.67 0.72 0.59 0.62 0.61 0.48 0.49 0.35 0.31 0.39 0.54 0.68 0.76 0.68 0.52 0.68 0.44 0.39 0.33 0.31 0.31 0.30 0.31 0.38 0.57 0.41 0.50 0.56 0.58 0.55 0.63 0.78 0.88 0.91 0.93 0.71 0.70 0.84 1.07 1.05 1.28 1.17
0.56 0.54 0.48 0.59 0.62 0.67 0.62 0.59 0.63 0.69 0.66 0.57 0.59 0.63 0.81 0.93 1.05 0.91 0.78 0.56 0.58 0.64 0.65 0.62 0.52 0.53 0.57 0.30 0.48 0.62 0.72 0.87 0.88 0.86 0.93 0.86 0.85 0.81 0.98 1.17 1.26 1.30 1.09
0.63 0.60 0.53 0.52 0.64 0.79 0.75 0.76 0.95 0.95 0.81 0.73 0.70 0.62 0.48 0.53 0.68 0.70 0.91 0.95 1.07 0.99 0.94 0.86 0.92 0.93 0.96 0.87 0.69 0.74 0.76 0.85 0.98 1.07 1.21 1.21 1.18 1.12 1.19 1.26 1.36 1.56 1.55
0.95 0.90 0.86 0.73 0.79 0.92 1.09 1.14 0.98 0.92 0.97 0.96 0.95 0.99 0.83 0.68 0.85 0.65 0.62 0.45 0.57 0.64 0.61 0.66 0.73 0.67 1.20 1.17 0.91 0.95 1.15 1.43 1.83 1.88 1.99 2.05 1.90 1.61 1.39 1.44 1.72 2.07 2.08
1.08 1.11 1.22 1.34 1.48 1.58 1.52 1.40 1.47 1.46 1.35 1.29 1.26 1.19 1.32 0.97 1.35 1.18 1.08 0.91 0.96 0.91 0.77 0.75 1.24 0.94 1.26 0.98 0.84 0.79 0.99 1.06 1.15 1.25 1.36 1.41 1.34 1.33 1.55 1.40 1.47 1.76 1.84
0.72 1.02 1.09 1.27 1.38 1.32 1.49 1.59 1.73 1.97 2.09 1.97 1.84 1.57 1.42 1.51 1.59 1.70 1.71 1.53 1.56 1.49 1.36 1.27 1.43 2.14 1.54 1.54 1.66 1.62 2.37 2.55 2.53 2.05 1.76 1.62 1.37 1.18 1.22 1.32 1.42 1.72 1.87
0.50 0.46 0.58 0.67 0.71 0.92 0.95 1.03 1.16 1.21 1.35 1.46 1.49 1.59 1.55 1.52 1.77 1.71 1.71 1.98 2.21 1.97 2.08 2.05 2.43 2.49 1.93 2.06 2.36 2.97 3.11 2.69 2.33 2.33 2.21 2.03 1.88 1.74 1.58 1.42 1.45 1.58 1.66
0.18 0.24 0.30 0.37 0.50 0.55 0.63 0.71 0.69 0.72 0.72 0.77 0.83 0.91 1.01 1.04 1.18 1.44 1.41 1.52 1.68 1.72 2.17 2.51 2.42 2.04 1.69 1.76 2.10 2.29 2.32 2.33 2.53 2.68 2.68 2.54 2.33 2.16 2.04 2.04 1.91 1.81 1.80
0.07 0.08 0.10 0.18 0.26 0.27 0.35 0.42 0.52 0.60 0.64 0.71 0.77 0.80 0.82 0.82 0.87 0.95 1.09 1.25 1.49 1.74 2.02 2.19 2.13 1.92 1.88 2.02 2.24 2.35 2.46 2.65 2.79 2.89 2.83 2.73 2.53 2.33 2.18 2.04 1.92 1.83 1.74
0.06 0.09 0.10 0.09 0.11 0.12 0.18 0.34 0.41 0.66 0.80 0.89 1.07 1.15 1.20 1.34 1.54 1.48 1.40 1.43 1.55 1.63 1.64 1.73 1.73 1.76 1.79 1.84 1.81 1.85 1.94 1.97 1.97 1.98 1.95 1.87 1.71 1.56 1.46 1.48 1.43 1.24 1.23
0.11 0.13 0.21 0.22 0.21 0.21 0.24 0.33 0.47 0.53 0.53 0.57 0.71 0.83 1.18 1.40 1.50 1.46 1.51 1.56 1.62 1.66 1.80 1.82 1.85 1.82 1.72 1.60 1.48 1.34 1.18 1.12 1.10 1.09 1.08 1.01 0.98 0.94 0.86 0.78 0.77 0.77 0.82
0.21 0.23 0.21 0.23 0.30 0.35 0.40 0.45 0.60 0.80 0.87 1.02 1.14 1.22 1.19 1.35 1.28 1.22 1.13 1.09 1.08 1.00 1.09 1.01 0.98 0.92 0.80 0.70 0.70 0.71 0.76 0.72 0.64 0.63 0.61 0.57 0.56 0.53 0.51 0.51 0.52 0.51 0.55
0.87 0.98 0.99 1.07 1.05 0.99 0.95 0.95 0.98 1.02 1.12 1.37 1.39 1.25 1.15 1.04 0.92 0.81 0.73 0.67 0.70 0.59 0.57 0.56 0.55 0.46 0.35 0.32 0.30 0.30 0.29 0.29 0.30 0.32 0.36 0.39 0.43 0.43 0.42 0.38 0.38 0.40 0.39
0.77 0.90 0.95 1.00 1.02 0.97 0.93 0.92 0.90 0.87 0.81 0.84 0.78 0.71 0.69 0.59 0.53 0.52 0.48 0.61 0.57 0.48 0.39 0.34 0.31 0.28 0.23 0.18 0.19 0.18 0.21 0.21 0.20 0.25 0.24 0.27 0.32 0.34 0.35 0.32 0.34 0.32 0.33
0.53 0.68 0.65 0.72 0.81 0.79 0.79 0.76 0.75 0.72 0.70 0.68 0.63 0.67 0.60 0.45 0.48 0.45 0.45 0.45 0.39 0.34 0.27 0.23 0.18 0.16 0.18 0.20 0.23 0.25 0.23 0.17 0.17 0.18 0.21 0.24 0.28 0.31 0.35 0.30 0.31 0.34 0.28
0.83 0.87 0.82 0.76 0.79 0.78 0.72 0.64 0.59 0.55 0.52 0.50 0.55 0.53 0.43 0.43 0.44 0.36 0.29 0.24 0.23 0.21 0.21 0.20 0.21 0.24 0.23 0.22 0.21 0.19 0.17 0.16 0.16 0.19 0.20 0.22 0.26 0.25 0.23 0.27 0.23 0.21 0.21
0.73 0.72 0.66 0.65 0.62 0.58 0.55 0.50 0.52 0.51 0.47 0.42 0.36 0.26 0.21 0.26 0.23 0.20 0.21 0.24 0.26 0.27 0.29 0.30 0.25 0.19 0.19 0.21 0.20 0.21 0.18 0.16 0.17 0.18 0.18 0.17 0.18 0.18 0.20 0.19 0.19 0.20 0.19
0.51 0.46 0.41 0.43 0.43 0.41 0.40 0.40 0.38 0.32 0.28 0.24 0.24 0.25 0.22 0.25 0.26 0.27 0.26 0.24 0.21 0.20 0.14 0.15 0.16 0.12 0.11 0.15 0.19 0.21 0.18 0.14 0.16 0.21 0.23 0.21 0.18 0.17 0.21 0.20 0.18 0.18 0.18
0.29 0.31 0.30 0.30 0.28 0.25 0.24 0.23 0.20 0.20 0.25 0.29 0.27 0.25 0.23 0.23 0.26 0.25 0.22 0.18 0.16 0.15 0.16 0.20 0.16 0.13 0.12 0.14 0.17 0.18 0.16 0.13 0.20 0.20 0.23 0.23 0.16 0.13 0.17 0.16 0.16 0.16 0.15
0.17 0.18 0.19 0.21 0.23 0.26 0.25 0.26 0.31 0.31 0.28 0.27 0.28 0.25 0.22 0.21 0.18 0.17 0.18 0.18 0.17 0.17 0.14 0.15 0.18 0.18 0.16 0.18 0.18 0.17 0.16 0.23 0.26 0.24 0.32 0.23 0.16 0.14 0.15 0.16 0.15 0.18 0.16
0.14 0.18 0.21 0.22 0.26 0.30 0.34 0.31 0.27 0.23 0.23 0.23 0.22 0.22 0.21 0.20 0.18 0.18 0.17 0.18 0.20 0.16 0.16 0.16 0.16 0.14 0.15 0.16 0.17 0.20 0.19 0.21 0.30 0.30 0.39 0.33 0.24 0.19 0.17 0.19 0.17 0.20 0.14

GFSGL_prec_precacc_141.txt.gz
Total_Precipitation_Accumulation
1.08 1.08 1.21 0.99 1.36 1.53 1.37 1.61 1.52 1.57 1.88 1.78 1.49 1.46 1.38 1.25 1.25 1.35 1.25 1.43 1.78 1.91 1.74 1.71 1.72 1.85 1.63 1.70 1.77 1.51 1.05 0.87 0.79 0.46 0.35 0.36 0.37 0.38 0.35 0.31 0.29 0.26 0.21
2.35 2.45 2.16 2.29 2.74 2.11 2.19 2.55 1.94 1.63 1.34 1.06 0.92 0.86 0.90 0.99 1.08 1.06 1.09 0.99 0.96 1.05 1.18 1.27 1.30 1.37 1.44 1.58 1.72 1.86 1.48 1.28 1.26 0.86 0.62 0.64 0.63 0.52 0.48 0.47 0.39 0.34 0.21
2.06 2.50 2.40 2.68 2.46 2.31 1.76 1.41 0.92 0.87 0.76 0.65 0.48 0.52 0.58 0.60 0.73 0.88 0.98 0.99 1.04 1.09 1.17 1.16 1.08 1.04 1.03 1.08 1.18 1.21 0.99 0.97 1.03 1.04 0.82 0.71 0.60 0.43 0.38 0.29 0.26 0.27 0.27
1.51 1.43 2.05 2.02 1.41 1.36 1.68 1.24 0.94 0.75 0.75 0.76 0.56 0.52 0.52 0.50 0.53 0.62 0.65 0.57 0.56 0.67 0.74 0.79 0.74 0.66 0.59 0.58 0.57 0.59 0.64 0.87 1.00 1.08 1.00 0.76 0.61 0.60 0.80 0.73 0.57 0.39 0.42
1.28 1.10 0.81 0.86 0.80 0.68 0.67 0.70 0.66 0.49 0.49 0.59 0.47 0.52 0.52 0.48 0.49 0.39 0.32 0.36 0.40 0.40 0.43 0.45 0.46 0.58 0.60 0.46 0.46 0.46 0.64 0.82 0.97 1.05 1.15 1.09 0.87 0.78 0.79 0.74 0.82 0.68 0.79
0.64 0.67 0.72 0.60 0.65 0.65 0.50 0.51 0.36 0.32 0.39 0.54 0.68 0.76 0.68 0.52 0.68 0.44 0.39 0.33 0.31 0.31 0.31 0.31 0.38 0.57 0.41 0.50 0.56 0.58 0.55 0.63 0.78 0.88 0.91 0.93 0.71 0.70 0.85 1.09 1.08 1.31 1.23
0.56 0.54 0.48 0.59 0.62 0.68 0.63 0.60 0.64 0.69 0.66 0.57 0.59 0.63 0.81 0.93 1.05 0.91 0.78 0.56 0.58 0.64 0.65 0.62 0.52 0.53 0.57 0.30 0.48 0.62 0.72 0.87 0.88 0.86 0.93 0.86 0.85 0.81 0.98 1.18 1.27 1.33 1.12
0.63 0.60 0.53 0.52 0.64 0.79 0.75 0.76 0.95 0.95 0.81 0.73 0.70 0.62 0.48 0.53 0.68 0.70 0.91 0.95 1.07 0.99 0.94 0.86 0.92 0.93 0.96 0.87 0.69 0.74 0.76 0.85 0.98 1.07 1.21 1.21 1.18 1.12 1.19 1.27 1.36 1.56 1.56
0.95 0.90 0.86 0.73 0.79 0.92 1.09 1.14 0.98 0.92 0.97 0.96 0.95 0.99 0.83 0.68 0.85 0.65 0.62 0.45 0.57 0.64 0.61 0.66 0.73 0.67 1.20 1.17 0.91 0.95 1.15 1.43 1.83 1.88 1.99 2.05 1.90 1.61 1.39 1.44 1.72 2.07 2.08
1.08 1.11 1.22 1.34 1.48 1.58 1.52 1.40 1.47 1.46 1.35 1.29 1.26 1.19 1.32 0.97 1.35 1.18 1.08 0.91 0.96 0.91 0.77 0.75 1.24 0.94 1.26 0.98 0.84 0.79 1.00 1.06 1.15 1.25 1.36 1.41 1.34 1.33 1.55 1.40 1.48 1.77 1.85
0.72 1.02 1.09 1.27 1.38 1.32 1.49 1.59 1.73 1.97 2.09 1.97 1.84 1.57 1.42 1.51 1.59 1.70 1.71 1.53 1.56 1.49 1.36 1.27 1.43 2.14 1.54 1.54 1.66 1.62 2.37 2.55 2.53 2.05 1.76 1.62 1.37 1.18 1.22 1.32 1.42 1.72 1.88
0.50 0.46 0.58 0.67 0.71 0.92 0.95 1.03 1.16 1.21 1.35 1.46 1.49 1.59 1.55 1.52 1.77 1.71 1.71 1.98 2.21 1.97 2.08 2.05 2.43 2.49 1.93 2.06 2.36 2.97 3.11 2.69 2.33 2.33 2.22 2.04 1.88 1.74 1.58 1.42 1.45 1.58 1.66
0.18 0.24 0.30 0.37 0.50 0.55 0.63 0.71 0.69 0.72 0.72 0.77 0.83 0.91 1.01 1.04 1.18 1.44 1.41 1.52 1.68 1.72 2.17 2.51 2.42 2.04 1.69 1.76 2.10 2.29 2.32 2.33 2.53 2.68 2.68 2.55 2.34 2.16 2.04 2.04 1.91 1.81 1.80
0.07 0.08 0.10 0.18 0.26 0.27 0.35 0.42 0.52 0.60 0.64 0.71 0.77 0.80 0.82 0.82 0.88 0.95 1.09 1.25 1.49 1.74 2.02 2.19 2.13 1.92 1.88 2.02 2.24 2.35 2.46 2.65 2.79 2.90 2.83 2.74 2.53 2.33 2.18 2.04 1.92 1.83 1.74
0.06 0.09 0.10 0.09 0.11 0.12 0.18 0.34 0.41 0.67 0.81 0.89 1.07 1.15 1.20 1.34 1.54 1.48 1.40 1.43 1.55 1.63 1.64 1.73 1.73 1.76 1.79 1.84 1.81 1.85 1.94 1.97 1.97 1.99 1.96 1.88 1.71 1.56 1.46 1.48 1.43 1.24 1.23
0.11 0.13 0.21 0.22 0.21 0.21 0.24 0.33 0.47 0.53 0.54 0.57 0.71 0.83 1.18 1.40 1.50 1.46 1.51 1.56 1.62 1.66 1.80 1.82 1.85 1.82 1.72 1.60 1.48 1.34 1.18 1.12 1.10 1.09 1.08 1.01 0.98 0.94 0.86 0.78 0.77 0.78 0.82
0.21 0.23 0.21 0.23 0.30 0.35 0.40 0.45 0.60 0.80 0.87 1.02 1.14 1.22 1.19 1.35 1.28 1.22 1.13 1.09 1.08 1.00 1.09 1.01 0.98 0.92 0.80 0.70 0.70 0.71 0.76 0.72 0.64 0.63 0.61 0.57 0.56 0.53 0.51 0.51 0.53 0.52 0.55
0.87 0.98 0.99 1.07 1.05 0.99 0.95 0.95 0.98 1.02 1.12 1.37 1.39 1.25 1.15 1.04 0.92 0.81 0.73 0.67 0.70 0.59 0.57 0.56 0.55 0.46 0.35 0.32 0.30 0.30 0.29 0.29 0.30 0.32 0.36 0.39 0.43 0.44 0.43 0.38 0.38 0.41 0.39
0.77 0.90 0.95 1.00 1.02 0.97 0.93 0.92 0.90 0.87 0.81 0.84 0.78 0.71 0.69 0.59 0.53 0.52 0.48 0.61 0.57 0.48 0.39 0.34 0.31 0.28 0.23 0.18 0.19 0.18 0.21 0.21 0.20 0.25 0.24 0.27 0.32 0.35 0.35 0.33 0.34 0.32 0.33
0.53 0.68 0.65 0.72 0.81 0.79 0.79 0.76 0.75 0.72 0.70 0.68 0.63 0.67 0.60 0.45 0.48 0.45 0.45 0.45 0.39 0.34 0.27 0.23 0.18 0.16 0.18 0.20 0.23 0.25 0.23 0.17 0.17 0.18 0.21 0.24 0.28 0.31 0.35 0.31 0.31 0.35 0.29
0.83 0.87 0.82 0.76 0.79 0.78 0.72 0.64 0.59 0.55 0.52 0.50 0.55 0.53 0.43 0.43 0.44 0.36 0.29 0.24 0.23 0.21 0.21 0.20 0.21 0.24 0.23 0.22 0.21 0.19 0.17 0.16 0.16 0.19 0.20 0.22 0.26 0.25 0.23 0.27 0.23 0.21 0.21
0.73 0.72 0.66 0.65 0.62 0.58 0.55 0.50 0.52 0.51 0.47 0.42 0.36 0.26 0.21 0.26 0.23 0.20 0.21 0.24 0.26 0.27 0.29 0.30 0.25 0.19 0.19 0.21 0.20 0.21 0.18 0.16 0.17 0.18 0.18 0.17 0.18 0.18 0.21 0.19 0.19 0.20 0.20
0.51 0.46 0.41 0.43 0.43 0.41 0.40 0.40 0.38 0.32 0.28 0.24 0.24 0.25 0.22 0.25 0.26 0.27 0.26 0.24 0.21 0.20 0.14 0.15 0.16 0.12 0.11 0.15 0.19 0.21 0.18 0.14 0.16 0.21 0.23 0.21 0.18 0.17 0.21 0.20 0.18 0.19 0.18
0.29 0.31 0.30 0.30 0.28 0.25 0.24 0.23 0.20 0.20 0.25 0.29 0.27 0.25 0.23 0.23 0.26 0.25 0.22 0.18 0.16 0.15 0.16 0.20 0.16 0.13 0.12 0.14 0.17 0.18 0.16 0.13 0.20 0.20 0.23 0.23 0.16 0.14 0.17 0.16 0.16 0.16 0.15
0.17 0.18 0.19 0.21 0.23 0.26 0.25 0.26 0.31 0.31 0.28 0.27 0.28 0.25 0.22 0.21 0.19 0.17 0.18 0.18 0.18 0.17 0.14 0.15 0.18 0.18 0.16 0.18 0.18 0.17 0.16 0.23 0.26 0.24 0.32 0.24 0.17 0.14 0.15 0.16 0.16 0.18 0.16
0.14 0.18 0.21 0.22 0.26 0.30 0.34 0.32 0.27 0.24 0.23 0.23 0.23 0.22 0.21 0.20 0.18 0.18 0.18 0.19 0.21 0.16 0.16 0.17 0.16 0.14 0.15 0.16 0.17 0.20 0.19 0.21 0.30 0.30 0.39 0.33 0.24 0.19 0.17 0.19 0.17 0.20 0.14

GFSGL_prec_precacc_144.txt.gz
Total_Precipitation_Accumulation
1.10 1.10 1.25 1.05 1.41 1.57 1.39 1.64 1.56 1.65 1.98 1.86 1.57 1.54 1.46 1.29 1.27 1.37 1.34 1.51 1.81 1.95 1.87 1.95 2.17 2.41 2.20 2.04 1.94 1.61 1.28 1.25 1.22 0.74 0.56 0.56 0.46 0.40 0.39 0.34 0.30 0.26 0.21
2.37 2.50 2.20 2.39 2.82 2.19 2.28 2.67 2.09 1.81 1.55 1.23 1.11 1.03 1.04 1.08 1.12 1.07 1.17 1.12 1.08 1.17 1.29 1.36 1.42 1.60 1.77 1.92 2.02 2.14 2.06 1.86 1.77 1.40 1.10 1.11 0.88 0.52 0.49 0.47 0.40 0.34 0.23
2.06 2.50 2.40 2.71 2.55 2.50 2.09 1.75 1.44 1.31 1.21 1.12 0.83 0.77 0.71 0.68 0.78 0.89 1.02 1.02 1.08 1.13 1.23 1.22 1.18 1.17 1.19 1.27 1.40 1.44 1.29 1.31 1.38 1.40 1.25 1.09 0.74 0.44 0.38 0.29 0.27 0.27 0.27
1.51 1.43 2.05 2.03 1.42 1.41 1.82 1.43 1.29 1.14 1.21 1.42 1.29 1.15 0.92 0.65 0.60 0.65 0.67 0.61 0.63 0.76 0.84 0.90 0.94 0.91 0.80 0.77 0.81 0.85 0.90 1.08 1.14 1.20 1.13 0.87 0.67 0.62 0.80 0.73 0.57 0.39 0.42
1.28 1.10 0.81 0.87 0.81 0.68 0.68 0.76 0.73 0.61 0.71 1.17 1.08 0.99 0.86 0.64 0.55 0.41 0.33 0.38 0.47 0.48 0.47 0.50 0.52 0.66 0.67 0.53 0.52 0.54 0.73 0.90 1.01 1.09 1.20 1.13 0.90 0.78 0.79 0.74 0.82 0.68 0.79
0.64 0.67 0.72 0.60 0.65 0.66 0.51 0.53 0.37 0.32 0.41 0.59 0.71 0.79 0.74 0.54 0.68 0.44 0.39 0.33 0.31 0.31 0.31 0.31 0.39 0.57 0.42 0.50 0.57 0.59 0.55 0.64 0.78 0.88 0.92 0.93 0.71 0.71 0.85 1.09 1.08 1.31 1.23
0.56 0.54 0.48 0.59 0.62 0.68 0.63 0.60 0.65 0.71 0.66 0.57 0.60 0.63 0.81 0.93 1.05 0.91 0.78 0.56 0.58 0.64 0.65 0.62 0.52 0.53 0.57 0.30 0.48 0.62 0.72 0.88 0.88 0.86 0.93 0.86 0.85 0.81 0.98 1.18 1.27 1.33 1.12
0.63 0.60 0.53 0.52 0.64 0.79 0.75 0.76 0.95 0.95 0.81 0.73 0.70 0.62 0.48 0.53 0.68 0.70 0.91 0.95 1.07 0.99 0.94 0.86 0.92 0.93 0.96 0.87 0.69 0.74 0.76 0.85 0.98 1.07 1.21 1.21 1.18 1.12 1.20 1.27 1.37 1.56 1.56
0.95 0.90 0.86 0.73 0.79 0.92 1.09 1.14 0.98 0.92 0.97 0.96 0.95 0.99 0.83 0.68 0.85 0.65 0.62 0.45 0.57 0.64 0.61 0.66 0.73 0.67 1.20 1.17 0.91 0.95 1.15 1.43 1.83 1.88 1.99 2.05 1.90 1.61 1.39 1.44 1.72 2.07 2.08
1.08 1.11 1.22 1.34 1.48 1.58 1.52 1.40 1.47 1.46 1.35 1.29 1.26 1.19 1.32 0.97 1.35 1.18 1.08 0.91 0.96 0.91 0.77 0.75 1.24 0.94 1.27 0.98 0.84 0.80 1.00 1.07 1.15 1.25 1.36 1.41 1.34 1.33 1.55 1.40 1.48 1.78 1.86
0.72 1.02 1.09 1.27 1.38 1.32 1.49 1.59 1.73 1.97 2.09 1.97 1.84 1.57 1.42 1.51 1.59 1.70 1.71 1.53 1.56 1.49 1.36 1.27 1.43 2.14 1.54 1.54 1.66 1.62 2.38 2.55 2.53 2.05 1.76 1.62 1.37 1.18 1.22 1.32 1.42 1.73 1.89
0.50 0.46 0.58 0.67 0.71 0.92 0.95 1.03 1.16 1.21 1.35 1.46 1.49 1.59 1.56 1.52 1.77 1.71 1.71 1.98 2.21 1.97 2.08 2.05 2.43 2.49 1.93 2.06 2.36 2.97 3.11 2.69 2.33 2.33 2.22 2.04 1.88 1.74 1.58 1.42 1.45 1.58 1.66
0.18 0.24 0.30 0.37 0.50 0.55 0.63 0.71 0.69 0.72 0.72 0.77 0.83 0.91 1.01 1.04 1.18 1.44 1.41 1.52 1.68 1.72 2.17 2.51 2.42 2.04 1.69 1.76 2.10 2.29 2.32 2.34 2.53 2.68 2.68 2.55 2.34 2.16 2.04 2.04 1.91 1.81 1.80
0.07 0.08 0.10 0.18 0.26 0.27 0.35 0.42 0.52 0.60 0.64 0.71 0.77 0.80 0.82 0.82 0.88 0.95 1.09 1.25 1.49 1.74 2.02 2.19 2.13 1.92 1.88 2.02 2.24 2.35 2.46 2.65 2.79 2.90 2.83 2.74 2.53 2.33 2.18 2.04 1.92 1.84 1.74
0.06 0.09 0.10 0.09 0.11 0.12 0.18 0.34 0.42 0.68 0.81 0.89 1.07 1.15 1.20 1.34 1.54 1.48 1.40 1.43 1.55 1.63 1.64 1.73 1.73 1.76 1.79 1.84 1.81 1.85 1.94 1.97 1.97 1.99 1.96 1.88 1.71 1.56 1.46 1.48 1.44 1.25 1.24
0.11 0.13 0.21 0.22 0.21 0.21 0.24 0.33 0.47 0.53 0.54 0.57 0.71 0.83 1.18 1.40 1.50 1.46 1.51 1.56 1.62 1.66 1.80 1.82 1.85 1.82 1.72 1.60 1.48 1.34 1.18 1.12 1.10 1.09 1.08 1.02 0.98 0.94 0.86 0.78 0.77 0.78 0.82
0.21 0.23 0.21 0.23 0.30 0.35 0.40 0.45 0.60 0.80 0.87 1.02 1.14 1.22 1.19 1.35 1.28 1.22 1.13 1.09 1.08 1.00 1.09 1.01 0.98 0.92 0.80 0.70 0.70 0.71 0.76 0.72 0.64 0.63 0.61 0.57 0.56 0.53 0.51 0.51 0.53 0.52 0.55
0.87 0.98 0.99 1.07 1.05 0.99 0.95 0.95 0.98 1.02 1.12 1.37 1.39 1.25 1.15 1.04 0.92 0.81 0.73 0.67 0.70 0.59 0.57 0.56 0.55 0.46 0.35 0.32 0.30 0.30 0.29 0.29 0.30 0.32 0.36 0.39 0.43 0.44 0.43 0.38 0.38 0.41 0.40
0.77 0.90 0.95 1.00 1.02 0.97 0.93 0.92 0.90 0.87 0.81 0.84 0.78 0.71 0.69 0.59 0.53 0.52 0.48 0.61 0.57 0.48 0.39 0.34 0.31 0.28 0.23 0.18 0.19 0.18 0.21 0.21 0.20 0.25 0.24 0.27 0.32 0.35 0.35 0.33 0.34 0.32 0.33
0.53 0.68 0.65 0.72 0.81 0.79 0.79 0.76 0.75 0.72 0.70 0.68 0.63 0.67 0.60 0.45 0.48 0.45 0.45 0.45 0.40 0.34 0.27 0.23 0.18 0.16 0.18 0.20 0.23 0.25 0.23 0.17 0.17 0.18 0.21 0.24 0.28 0.31 0.35 0.31 0.31 0.35 0.29
0.83 0.87 0.82 0.76 0.79 0.78 0.72 0.64 0.59 0.55 0.52 0.50 0.55 0.53 0.43 0.43 0.44 0.36 0.29 0.24 0.23 0.21 0.21 0.20 0.21 0.24 0.23 0.22 0.21 0.19 0.17 0.16 0.16 0.19 0.20 0.22 0.26 0.25 0.23 0.27 0.23 0.22 0.21
0.73 0.72 0.66 0.65 0.62 0.58 0.55 0.50 0.52 0.51 0.47 0.42 0.36 0.26 0.21 0.26 0.23 0.20 0.21 0.24 0.26 0.27 0.29 0.30 0.25 0.19 0.19 0.21 0.21 0.21 0.18 0.16 0.17 0.18 0.18 0.17 0.18 0.18 0.21 0.19 0.19 0.20 0.20
0.51 0.46 0.41 0.43 0.43 0.41 0.40 0.40 0.38 0.32 0.28 0.24 0.24 0.25 0.22 0.25 0.26 0.27 0.26 0.24 0.21 0.20 0.14 0.16 0.16 0.12 0.11 0.15 0.20 0.21 0.19 0.14 0.16 0.21 0.23 0.21 0.18 0.17 0.21 0.20 0.18 0.19 0.18
0.29 0.31 0.30 0.30 0.28 0.25 0.24 0.23 0.20 0.20 0.25 0.29 0.27 0.25 0.23 0.23 0.26 0.25 0.22 0.18 0.16 0.15 0.16 0.20 0.17 0.13 0.12 0.14 0.17 0.18 0.16 0.14 0.20 0.20 0.23 0.23 0.16 0.14 0.17 0.17 0.17 0.17 0.16
0.17 0.18 0.19 0.21 0.23 0.26 0.25 0.26 0.31 0.31 0.28 0.27 0.28 0.26 0.22 0.21 0.19 0.17 0.18 0.19 0.18 0.18 0.15 0.15 0.18 0.18 0.16 0.19 0.18 0.17 0.16 0.23 0.26 0.24 0.33 0.24 0.17 0.14 0.15 0.16 0.16 0.18 0.17
0.14 0.18 0.21 0.22 0.26 0.30 0.34 0.32 0.28 0.24 0.23 0.23 0.23 0.23 0.22 0.20 0.18 0.18 0.18 0.19 0.21 0.17 0.16 0.17 0.16 0.15 0.15 0.17 0.17 0.21 0.19 0.21 0.30 0.30 0.39 0.33 0.24 0.19 0.18 0.19 0.17 0.20 0.14

GFSGL_prec_precacc_150.txt.gz
Total_Precipitation_Accumulation
1.10 1.10 1.26 1.05 1.42 1.58 1.41 1.66 1.60 1.69 2.02 1.89 1.58 1.58 1.59 1.41 1.48 1.57 1.56 1.65 1.92 2.00 1.90 2.02 2.32 2.69 2.55 2.52 2.45 2.22 1.85 1.75 1.63 1.16 0.87 0.75 0.66 0.53 0.47 0.40 0.34 0.29 0.25
2.37 2.50 2.20 2.39 2.83 2.21 2.35 2.73 2.17 1.93 1.66 1.32 1.17 1.10 1.15 1.27 1.43 1.42 1.41 1.34 1.23 1.28 1.40 1.48 1.55 1.75 1.94 2.09 2.32 2.60 2.59 2.36 2.21 1.88 1.73 1.57 1.25 0.84 0.69 0.57 0.44 0.37 0.26
2.06 2.50 2.40 2.71 2.55 2.50 2.11 1.79 1.51 1.44 1.43 1.41 1.15 1.06 1.04 1.15 1.26 1.56 1.42 1.21 1.24 1.37 1.41 1.50 1.55 1.47 1.53 1.62 1.72 1.73 1.62 1.70 1.87 1.93 1.84 1.75 1.41 0.88 0.65 0.50 0.47 0.41 0.33
1.51 1.43 2.05 2.03 1.42 1.41 1.82 1.43 1.32 1.23 1.45 1.78 1.89 1.93 1.72 1.38 1.40 1.34 1.24 1.22 1.09 1.31 1.27 1.13 1.28 1.34 1.22 1.17 1.25 1.31 1.32 1.50 1.65 1.82 1.82 1.57 1.37 1.19 1.17 0.96 0.75 0.56 0.61
1.28 1.10 0.81 0.87 0.81 0.68 0.68 0.76 0.73 0.61 0.77 1.33 1.40 1.56 1.42 1.17 1.15 0.83 0.62 0.97 1.05 0.95 1.13 0.91 0.83 0.91 0.89 0.69 0.64 0.68 0.94 1.21 1.40 1.51 1.65 1.59 1.38 1.24 1.21 1.09 1.06 0.84 0.89
0.64 0.67 0.72 0.60 0.65 0.66 0.51 0.53 0.37 0.32 0.41 0.61 0.73 0.86 1.01 0.79 0.87 0.51 0.44 0.50 0.56 0.48 0.44 0.42 0.48 0.65 0.49 0.55 0.61 0.63 0.58 0.67 0.83 0.94 1.00 1.02 0.79 0.78 0.92 1.17 1.17 1.42 1.35
0.56 0.54 0.48 0.59 0.62 0.68 0.63 0.60 0.65 0.71 0.66 0.57 0.60 0.63 0.82 0.97 1.09 0.95 0.79 0.58 0.62 0.70 0.69 0.64 0.53 0.54 0.58 0.31 0.49 0.62 0.73 0.89 0.89 0.87 0.95 0.89 0.88 0.84 1.00 1.18 1.28 1.34 1.13
0.63 0.60 0.53 0.52 0.64 0.79 0.75 0.76 0.95 0.95 0.81 0.73 0.70 0.62 0.48 0.53 0.69 0.70 0.92 0.95 1.07 0.99 0.94 0.87 0.92 0.93 0.96 0.87 0.69 0.74 0.76 0.85 0.98 1.07 1.22 1.22 1.19 1.13 1.20 1.28 1.37 1.57 1.56
0.95 0.90 0.86 0.73 0.79 0.92 1.09 1.14 0.98 0.92 0.97 0.96 0.95 0.99 0.83 0.68 0.85 0.65 0.62 0.45 0.57 0.64 0.61 0.66 0.73 0.67 1.20 1.17 0.91 0.95 1.15 1.43 1.83 1.88 1.99 2.05 1.90 1.61 1.39 1.44 1.72 2.07 2.08
1.08 1.11 1.22 1.34 1.48 1.58 1.52 1.40 1.47 1.46 1.35 1.29 1.26 1.19 1.32 0.97 1.35 1.18 1.08 0.91 0.96 0.91 0.77 0.75 1.24 0.94 1.27 0.98 0.84 0.80 1.00 1.07 1.15 1.25 1.36 1.41 1.34 1.33 1.55 1.41 1.49 1.78 1.86
0.72 1.02 1.09 1.27 1.38 1.32 1.49 1.59 1.73 1.97 2.09 1.97 1.84 1.57 1.42 1.51 1.59 1.70 1.71 1.53 1.56 1.49 1.36 1.27 1.43 2.14 1.54 1.54 1.66 1.62 2.38 2.55 2.53 2.05 1.76 1.62 1.37 1.18 1.22 1.32 1.42 1.74 1.90
0.50 0.46 0.58 0.67 0.71 0.92 0.95 1.03 1.16 1.21 1.35 1.46 1.49 1.60 1.56 1.52 1.77 1.71 1.71 1.98 2.21 1.97 2.08 2.05 2.43 2.49 1.93 2.06 2.36 2.97 3.11 2.69 2.33 2.33 2.22 2.04 1.88 1.74 1.58 1.42 1.45 1.58 1.67
0.18 0.24 0.30 0.37 0.50 0.55 0.63 0.71 0.69 0.72 0.72 0.77 0.83 0.91 1.01 1.04 1.18 1.44 1.41 1.52 1.68 1.72 2.17 2.51 2.42 2.04 1.69 1.76 2.10 2.29 2.32 2.34 2.53 2.68 2.68 2.55 2.34 2.16 2.04 2.04 1.91 1.81 1.80
0.07 0.08 0.10 0.18 0.26 0.27 0.35 0.42 0.52 0.60 0.64 0.71 0.77 0.80 0.82 0.82 0.88 0.95 1.09 1.25 1.49 1.74 2.02 2.19 2.13 1.92 1.88 2.02 2.24 2.35 2.46 2.65 2.79 2.90 2.83 2.74 2.53 2.33 2.18 2.04 1.92 1.84 1.74
0.06 0.09 0.10 0.09 0.11 0.12 0.18 0.34 0.42 0.68 0.81 0.89 1.07 1.15 1.20 1.35 1.54 1.48 1.40 1.43 1.55 1.63 1.64 1.73 1.73 1.76 1.79 1.84 1.81 1.85 1.94 1.97 1.97 1.99 1.96 1.88 1.71 1.56 1.46 1.48 1.44 1.25 1.24
0.11 0.13 0.21 0.22 0.21 0.21 0.24 0.33 0.47 0.53 0.54 0.57 0.71 0.83 1.18 1.40 1.50 1.46 1.51 1.56 1.62 1.66 1.80 1.82 1.85 1.82 1.72 1.60 1.48 1.34 1.18 1.12 1.10 1.09 1.08 1.02 0.98 0.94 0.86 0.78 0.77 0.78 0.82
0.21 0.23 0.21 0.23 0.30 0.35 0.40 0.45 0.60 0.80 0.87 1.02 1.14 1.22 1.19 1.35 1.28 1.22 1.13 1.09 1.08 1.00 1.09 1.01 0.98 0.92 0.80 0.70 0.70 0.71 0.76 0.72 0.64 0.63 0.61 0.57 0.56 0.53 0.51 0.51 0.53 0.52 0.55
0.87 0.98 0.99 1.07 1.05 0.99 0.95 0.95 0.98 1.02 1.12 1.37 1.39 1.25 1.15 1.04 0.92 0.81 0.73 0.67 0.70 0.59 0.57 0.56 0.55 0.46 0.35 0.32 0.30 0.30 0.29 0.29 0.30 0.32 0.36 0.39 0.43 0.44 0.43 0.38 0.38 0.41 0.40
0.77 0.90 0.95 1.00 1.02 0.97 0.93 0.92 0.90 0.87 0.81 0.84 0.78 0.71 0.69 0.59 0.53 0.52 0.48 0.61 0.58 0.48 0.39 0.34 0.31 0.28 0.23 0.18 0.19 0.18 0.22 0.21 0.20 0.25 0.24 0.28 0.32 0.35 0.35 0.33 0.34 0.32 0.33
0.53 0.68 0.65 0.72 0.81 0.79 0.79 0.76 0.75 0.72 0.70 0.68 0.63 0.67 0.60 0.45 0.48 0.45 0.45 0.45 0.40 0.34 0.27 0.23 0.19 0.17 0.18 0.21 0.24 0.25 0.23 0.17 0.17 0.19 0.21 0.24 0.29 0.31 0.36 0.31 0.31 0.36 0.29
0.83 0.87 0.82 0.76 0.79 0.78 0.72 0.64 0.59 0.55 0.52 0.50 0.55 0.54 0.43 0.43 0.44 0.36 0.29 0.25 0.24 0.22 0.21 0.21 0.22 0.25 0.24 0.23 0.21 0.20 0.18 0.16 0.16 0.19 0.20 0.23 0.26 0.25 0.24 0.27 0.23 0.22 0.21
0.73 0.72 0.66 0.65 0.62 0.58 0.55 0.50 0.52 0.52 0.48 0.42 0.37 0.27 0.21 0.27 0.23 0.21 0.21 0.24 0.26 0.27 0.30 0.31 0.26 0.20 0.20 0.22 0.22 0.23 0.19 0.17 0.17 0.19 0.19 0.18 0.18 0.19 0.21 0.20 0.19 0.20 0.20
0.51 0.46 0.41 0.43 0.43 0.41 0.40 0.40 0.39 0.33 0.28 0.25 0.25 0.26 0.22 0.26 0.27 0.28 0.26 0.24 0.22 0.20 0.15 0.16 0.17 0.13 0.12 0.17 0.21 0.23 0.20 0.15 0.17 0.22 0.23 0.21 0.18 0.17 0.22 0.21 0.19 0.19 0.19
0.29 0.31 0.30 0.30 0.28 0.25 0.25 0.23 0.21 0.21 0.26 0.30 0.28 0.26 0.24 0.24 0.27 0.26 0.22 0.18 0.16 0.15 0.17 0.20 0.18 0.14 0.13 0.15 0.18 0.19 0.17 0.15 0.22 0.21 0.24 0.24 0.17 0.14 0.18 0.17 0.17 0.17 0.16
0.17 0.18 0.19 0.21 0.24 0.26 0.26 0.26 0.32 0.32 0.29 0.28 0.28 0.26 0.23 0.21 0.19 0.17 0.19 0.19 0.18 0.18 0.15 0.15 0.18 0.19 0.17 0.20 0.19 0.17 0.17 0.24 0.28 0.25 0.34 0.24 0.17 0.14 0.15 0.16 0.16 0.19 0.17
0.14 0.18 0.22 0.23 0.26 0.31 0.35 0.33 0.28 0.24 0.24 0.23 0.23 0.23 0.22 0.20 0.18 0.18 0.18 0.19 0.21 0.17 0.16 0.17 0.16 0.15 0.15 0.17 0.17 0.21 0.19 0.22 0.31 0.31 0.40 0.34 0.25 0.19 0.18 0.19 0.17 0.21 0.14

GFSGL_prec_precacc_153.txt.gz
Total_Precipitation_Accumulation
1.10 1.10 1.26 1.05 1.42 1.58 1.41 1.67 1.60 1.70 2.02 1.90 1.60 1.60 1.60 1.42 1.48 1.58 1.57 1.67 1.93 2.06 1.93 2.05 2.34 2.74 2.61 2.56 2.49 2.28 1.92 1.85 1.79 1.31 0.99 0.91 0.87 0.69 0.60 0.49 0.39 0.33 0.28
2.37 2.50 2.20 2.39 2.83 2.21 2.35 2.73 2.17 1.93 1.67 1.32 1.18 1.12 1.19 1.30 1.45 1.46 1.45 1.50 1.37 1.37 1.55 1.52 1.60 1.78 1.98 2.14 2.37 2.65 2.64 2.51 2.46 2.24 1.99 1.78 1.49 1.20 1.02 0.77 0.52 0.42 0.28
2.06 2.50 2.40 2.71 2.55 2.50 2.11 1.79 1.51 1.44 1.44 1.41 1.16 1.07 1.06 1.19 1.31 1.63 1.49 1.29 1.38 1.61 1.61 1.58 1.58 1.53 1.57 1.67 1.76 1.78 1.67 1.77 2.01 2.21 2.20 2.03 1.65 1.23 1.00 0.76 0.67 0.52 0.35
1.51 1.43 2.05 2.03 1.42 1.41 1.82 1.43 1.32 1.23 1.45 1.78 1.89 1.94 1.72 1.39 1.40 1.36 1.30 1.33 1.22 1.50 1.51 1.20 1.37 1.46 1.27 1.20 1.29 1.36 1.37 1.56 1.71 1.91 1.92 1.70 1.55 1.35 1.39 1.28 1.06 0.80 0.71
1.28 1.10 0.81 0.87 0.81 0.68 0.68 0.76 0.73 0.61 0.77 1.33 1.40 1.56 1.43 1.17 1.16 0.84 0.64 1.01 1.12 1.04 1.27 1.07 0.93 1.01 1.07 0.79 0.72 0.77 1.01 1.29 1.49 1.63 1.81 1.74 1.51 1.39 1.43 1.33 1.29 1.17 1.20
0.64 0.67 0.72 0.60 0.65 0.66 0.51 0.53 0.37 0.32 0.41 0.61 0.73 0.86 1.01 0.80 0.87 0.52 0.45 0.55 0.62 0.55 0.56 0.52 0.58 0.74 0.62 0.72 0.75 0.74 0.68 0.76 0.91 1.06 1.13 1.14 0.94 0.94 1.09 1.37 1.40 1.64 1.58
0.56 0.54 0.48 0.59 0.62 0.68 0.63 0.60 0.65 0.71 0.66 0.57 0.60 0.63 0.82 0.97 1.09 0.95 0.79 0.59 0.63 0.73 0.74 0.69 0.58 0.58 0.64 0.40 0.59 0.71 0.80 0.95 0.95 0.93 1.03 0.99 0.98 0.94 1.08 1.26 1.35 1.42 1.24
0.63 0.60 0.53 0.52 0.64 0.79 0.75 0.76 0.95 0.95 0.81 0.73 0.70 0.62 0.48 0.53 0.69 0.71 0.92 0.95 1.07 0.99 0.95 0.88 0.93 0.94 0.98 0.90 0.72 0.77 0.77 0.87 0.99 1.08 1.22 1.23 1.21 1.15 1.22 1.29 1.38 1.58 1.57
0.95 0.90 0.86 0.73 0.79 0.92 1.09 1.14 0.98 0.92 0.97 0.96 0.95 0.99 0.83 0.68 0.85 0.65 0.62 0.45 0.57 0.64 0.61 0.66 0.73 0.67 1.20 1.17 0.91 0.95 1.15 1.43 1.83 1.88 1.99 2.05 1.90 1.61 1.39 1.44 1.72 2.07 2.08
1.08 1.11 1.22 1.34 1.48 1.58 1.52 1.40 1.47 1.46 1.35 1.29 1.26 1.19 1.32 0.97 1.35 1.18 1.08 0.91 0.96 0.91 0.77 0.75 1.24 0.94 1.27 0.98 0.84 0.80 1.00 1.07 1.15 1.25 1.36 1.41 1.34 1.33 1.55 1.41 1.49 1.78 1.86
0.72 1.02 1.09 1.27 1.38 1.32 1.49 1.59 1.73 1.97 2.09 1.98 1.85 1.57 1.42 1.51 1.59 1.70 1.71 1.53 1.56 1.49 1.36 1.27 1.43 2.14 1.54 1.54 1.66 1.62 2.38 2.55 2.53 2.05 1.76 1.62 1.37 1.18 1.22 1.33 1.42 1.74 1.90
0.50 0.46 0.58 0.67 0.71 0.92 0.95 1.03 1.16 1.21 1.35 1.46 1.49 1.60 1.56 1.53 1.77 1.71 1.71 1.98 2.21 1.97 2.08 2.05 2.43 2.49 1.93 2.06 2.36 2.97 3.11 2.69 2.33 2.33 2.22 2.04 1.88 1.74 1.58 1.42 1.45 1.58 1.67
0.18 0.24 0.30 0.37 0.50 0.55 0.63 0.71 0.69 0.72 0.72 0.77 0.83 0.91 1.01 1.04 1.18 1.44 1.41 1.52 1.68 1.72 2.17 2.51 2.42 2.04 1.69 1.76 2.10 2.29 2.32 2.34 2.53 2.68 2.68 2.55 2.34 2.16 2.04 2.04 1.91 1.81 1.80
0.07 0.08 0.10 0.18 0.26 0.27 0.35 0.42 0.52 0.60 0.64 0.71 0.77 0.80 0.82 0.82 0.88 0.95 1.09 1.25 1.49 1.74 2.02 2.19 2.13 1.92 1.88 2.02 2.24 2.35 2.46 2.65 2.79 2.90 2.83 2.74 2.53 2.33 2.18 2.04 1.92 1.84 1.74
0.06 0.09 0.10 0.09 0.11 0.12 0.18 0.34 0.42 0.68 0.81 0.89 1.08 1.16 1.20 1.35 1.54 1.48 1.40 1.43 1.55 1.63 1.64 1.73 1.74 1.76 1.79 1.84 1.81 1.85 1.94 1.97 1.97 1.99 1.96 1.88 1.71 1.56 1.46 1.48 1.44 1.25 1.24
0.11 0.13 0.21 0.22 0.21 0.21 0.24 0.33 0.47 0.53 0.54 0.57 0.71 0.83 1.18 1.40 1.50 1.46 1.51 1.56 1.62 1.66 1.80 1.82 1.86 1.82 1.72 1.60 1.48 1.34 1.18 1.12 1.10 1.09 1.08 1.02 0.98 0.94 0.86 0.78 0.77 0.78 0.82
0.21 0.23 0.21 0.23 0.30 0.35 0.40 0.45 0.60 0.80 0.87 1.02 1.14 1.22 1.19 1.35 1.28 1.22 1.13 1.09 1.08 1.00 1.09 1.01 0.98 0.93 0.80 0.70 0.70 0.71 0.76 0.72 0.64 0.63 0.61 0.57 0.56 0.53 0.51 0.51 0.53 0.52 0.55
0.87 0.98 0.99 1.07 1.05 0.99 0.95 0.95 0.98 1.02 1.12 1.37 1.39 1.25 1.15 1.04 0.92 0.81 0.73 0.67 0.70 0.59 0.57 0.56 0.55 0.46 0.35 0.32 0.30 0.30 0.29 0.29 0.30 0.32 0.36 0.40 0.44 0.44 0.43 0.38 0.38 0.41 0.40
0.77 0.90 0.95 1.00 1.02 0.97 0.93 0.92 0.90 0.87 0.81 0.84 0.78 0.72 0.69 0.59 0.53 0.52 0.48 0.61 0.58 0.48 0.39 0.34 0.31 0.28 0.23 0.18 0.19 0.19 0.22 0.21 0.20 0.25 0.24 0.28 0.32 0.36 0.35 0.33 0.34 0.32 0.33
0.53 0.68 0.65 0.72 0.81 0.79 0.79 0.76 0.75 0.72 0.70 0.68 0.63 0.67 0.60 0.45 0.48 0.45 0.46 0.46 0.40 0.34 0.27 0.23 0.19 0.17 0.18 0.21 0.24 0.26 0.24 0.18 0.18 0.19 0.22 0.24 0.29 0.31 0.36 0.31 0.32 0.36 0.29
0.83 0.87 0.82 0.76 0.79 0.78 0.72 0.65 0.59 0.55 0.53 0.51 0.56 0.55 0.43 0.43 0.45 0.37 0.29 0.25 0.24 0.22 0.22 0.21 0.22 0.25 0.24 0.23 0.21 0.20 0.19 0.17 0.16 0.19 0.21 0.23 0.26 0.25 0.24 0.28 0.24 0.22 0.21
0.73 0.72 0.66 0.65 0.62 0.59 0.55 0.51 0.52 0.52 0.48 0.42 0.37 0.28 0.22 0.27 0.24 0.21 0.21 0.25 0.27 0.28 0.30 0.31 0.26 0.20 0.20 0.22 0.22 0.23 0.19 0.17 0.18 0.20 0.20 0.18 0.19 0.19 0.21 0.20 0.20 0.21 0.20
0.51 0.46 0.41 0.43 0.43 0.41 0.40 0.41 0.39 0.33 0.29 0.26 0.26 0.27 0.23 0.26 0.27 0.28 0.27 0.24 0.22 0.20 0.15 0.16 0.17 0.14 0.12 0.17 0.22 0.24 0.21 0.16 0.19 0.23 0.24 0.22 0.19 0.18 0.22 0.21 0.19 0.19 0.19
0.29 0.32 0.30 0.30 0.28 0.26 0.25 0.24 0.22 0.21 0.26 0.30 0.29 0.27 0.24 0.24 0.27 0.26 0.23 0.19 0.16 0.15 0.17 0.21 0.18 0.14 0.14 0.15 0.18 0.19 0.17 0.16 0.22 0.22 0.25 0.25 0.18 0.15 0.18 0.17 0.17 0.17 0.16
0.17 0.18 0.19 0.21 0.24 0.27 0.26 0.27 0.32 0.32 0.30 0.29 0.29 0.26 0.23 0.21 0.19 0.18 0.19 0.19 0.18 0.18 0.15 0.15 0.19 0.19 0.17 0.20 0.19 0.18 0.18 0.24 0.28 0.25 0.34 0.25 0.19 0.15 0.16 0.16 0.16 0.19 0.17
0.14 0.18 0.22 0.24 0.27 0.31 0.36 0.34 0.29 0.25 0.24 0.24 0.23 0.23 0.22 0.20 0.18 0.18 0.18 0.19 0.21 0.17 0.16 0.17 0.16 0.15 0.15 0.17 0.17 0.21 0.19 0.22 0.31 0.32 0.41 0.35 0.26 0.21 0.19 0.20 0.18 0.21 0.15

GFSGL_prec_precacc_156.txt.gz
Total_Precipitation_Accumulation
1.10 1.10 1.26 1.05 1.42 1.58 1.41 1.67 1.60 1.70 2.02 1.90 1.60 1.60 1.61 1.42 1.49 1.59 1.58 1.68 1.94 2.07 1.94 2.06 2.36 2.76 2.64 2.59 2.50 2.31 1.99 1.98 2.25 1.64 1.12 1.02 0.94 0.76 0.71 0.69 0.65 0.54 0.40
2.37 2.50 2.20 2.39 2.83 2.21 2.35 2.73 2.17 1.93 1.67 1.32 1.18 1.12 1.19 1.31 1.46 1.47 1.46 1.52 1.40 1.40 1.58 1.56 1.64 1.82 2.02 2.17 2.38 2.65 2.66 2.60 2.57 2.34 2.12 1.86 1.59 1.30 1.11 0.91 0.63 0.52 0.40
2.06 2.50 2.40 2.71 2.55 2.50 2.11 1.79 1.51 1.44 1.44 1.41 1.16 1.07 1.06 1.19 1.31 1.64 1.52 1.34 1.44 1.68 1.71 1.72 1.67 1.62 1.62 1.73 1.84 1.83 1.72 1.82 2.10 2.31 2.30 2.21 2.00 1.57 1.22 0.97 1.00 0.85 0.55
1.51 1.43 2.05 2.03 1.42 1.41 1.82 1.43 1.32 1.23 1.45 1.78 1.89 1.94 1.72 1.39 1.40 1.36 1.31 1.33 1.23 1.56 1.66 1.36 1.55 1.59 1.36 1.26 1.42 1.50 1.46 1.68 1.87 2.11 2.19 1.96 1.82 1.77 1.86 1.64 1.29 1.05 1.17
1.28 1.10 0.81 0.87 0.81 0.68 0.68 0.76 0.73 0.61 0.77 1.33 1.40 1.56 1.43 1.17 1.16 0.84 0.64 1.01 1.13 1.05 1.32 1.13 1.00 1.09 1.12 0.81 0.74 0.83 1.08 1.37 1.62 1.78 2.01 1.99 1.71 1.55 1.65 1.62 1.63 1.39 1.44
0.64 0.67 0.72 0.60 0.65 0.66 0.51 0.53 0.37 0.32 0.41 0.61 0.73 0.86 1.01 0.80 0.87 0.52 0.45 0.55 0.62 0.56 0.58 0.55 0.60 0.76 0.62 0.75 0.81 0.77 0.70 0.78 0.94 1.09 1.21 1.29 1.15 1.14 1.25 1.49 1.55 1.84 1.73
0.56 0.54 0.48 0.59 0.62 0.68 0.63 0.60 0.65 0.71 0.66 0.57 0.60 0.63 0.82 0.97 1.09 0.95 0.79 0.59 0.63 0.73 0.75 0.71 0.59 0.58 0.66 0.41 0.61 0.74 0.84 0.99 1.00 0.96 1.08 1.07 1.07 1.04 1.20 1.40 1.47 1.50 1.36
0.63 0.60 0.53 0.52 0.64 0.79 0.75 0.76 0.95 0.95 0.81 0.73 0.70 0.62 0.48 0.53 0.69 0.71 0.92 0.95 1.07 0.99 0.95 0.88 0.94 0.95 0.99 0.92 0.74 0.78 0.80 0.90 1.03 1.11 1.25 1.25 1.23 1.18 1.25 1.33 1.42 1.62 1.63
0.95 0.90 0.86 0.73 0.79 0.92 1.09 1.14 0.98 0.92 0.97 0.96 0.95 0.99 0.83 0.68 0.85 0.65 0.62 0.45 0.57 0.64 0.61 0.66 0.73 0.67 1.20 1.18 0.92 0.95 1.16 1.45 1.84 1.89 2.00 2.06 1.91 1.61 1.39 1.44 1.73 2.08 2.11
1.08 1.11 1.22 1.34 1.48 1.58 1.52 1.40 1.47 1.46 1.35 1.29 1.26 1.19 1.32 0.97 1.35 1.18 1.08 0.91 0.96 0.91 0.77 0.75 1.24 0.94 1.27 0.98 0.85 0.80 1.01 1.07 1.16 1.26 1.36 1.41 1.34 1.33 1.55 1.41 1.49 1.78 1.87
0.72 1.02 1.09 1.27 1.38 1.32 1.49 1.59 1.73 1.97 2.09 1.98 1.85 1.57 1.42 1.51 1.59 1.70 1.71 1.53 1.56 1.49 1.36 1.27 1.43 2.14 1.54 1.54 1.66 1.62 2.38 2.56 2.53 2.06 1.76 1.63 1.37 1.19 1.22 1.33 1.42 1.74 1.91
0.50 0.46 0.58 0.67 0.71 0.92 0.95 1.03 1.16 1.21 1.35 1.46 1.49 1.60 1.56 1.53 1.77 1.71 1.71 1.98 2.21 1.97 2.08 2.05 2.43 2.49 1.93 2.06 2.36 2.97 3.11 2.69 2.33 2.33 2.22 2.04 1.88 1.74 1.58 1.42 1.45 1.59 1.67
0.18 0.24 0.30 0.37 0.50 0.55 0.63 0.71 0.69 0.72 0.72 0.77 0.83 0.91 1.01 1.04 1.18 1.44 1.41 1.52 1.68 1.73 2.17 2.51 2.42 2.04 1.70 1.76 2.10 2.29 2.32 2.34 2.53 2.69 2.69 2.55 2.34 2.16 2.04 2.04 1.91 1.81 1.80
0.07 0.08 0.10 0.18 0.26 0.27 0.35 0.42 0.52 0.60 0.64 0.71 0.77 0.80 0.82 0.82 0.88 0.95 1.09 1.25 1.49 1.74 2.02 2.19 2.13 1.92 1.88 2.02 2.24 2.35 2.46 2.65 2.79 2.90 2.84 2.74 2.53 2.33 2.18 2.04 1.92 1.84 1.74
0.06 0.09 0.10 0.09 0.11 0.12 0.18 0.34 0.42 0.68 0.81 0.89 1.08 1.16 1.20 1.35 1.54 1.48 1.40 1.43 1.55 1.63 1.64 1.73 1.74 1.76 1.80 1.84 1.82 1.85 1.94 1.97 1.97 1.99 1.96 1.88 1.72 1.56 1.46 1.48 1.44 1.25 1.24
0.11 0.13 0.21 0.22 0.21 0.21 0.24 0.33 0.47 0.53 0.54 0.57 0.71 0.83 1.18 1.40 1.50 1.46 1.51 1.56 1.62 1.66 1.80 1.83 1.86 1.82 1.73 1.60 1.48 1.34 1.18 1.12 1.10 1.09 1.08 1.02 0.99 0.94 0.86 0.78 0.77 0.78 0.82
0.21 0.23 0.21 0.23 0.30 0.35 0.40 0.45 0.60 0.80 0.87 1.02 1.14 1.22 1.19 1.35 1.28 1.22 1.13 1.09 1.08 1.00 1.10 1.01 0.98 0.93 0.80 0.70 0.70 0.71 0.76 0.72 0.64 0.63 0.61 0.57 0.57 0.53 0.51 0.51 0.53 0.52 0.55
0.87 0.98 0.99 1.07 1.05 0.99 0.95 0.95 0.98 1.03 1.13 1.38 1.39 1.25 1.15 1.04 0.92 0.81 0.73 0.67 0.70 0.59 0.57 0.56 0.55 0.46 0.35 0.32 0.30 0.30 0.30 0.29 0.30 0.33 0.36 0.40 0.44 0.44 0.43 0.39 0.39 0.41 0.40
0.77 0.90 0.95 1.00 1.02 0.97 0.93 0.92 0.90 0.87 0.81 0.84 0.78 0.72 0.70 0.59 0.53 0.52 0.49 0.62 0.58 0.48 0.39 0.34 0.31 0.28 0.23 0.18 0.20 0.19 0.23 0.22 0.21 0.26 0.25 0.28 0.33 0.36 0.35 0.33 0.34 0.33 0.33
0.53 0.68 0.65 0.72 0.81 0.79 0.79 0.76 0.75 0.72 0.70 0.68 0.64 0.68 0.61 0.46 0.48 0.46 0.46 0.46 0.41 0.34 0.27 0.23 0.19 0.17 0.19 0.21 0.24 0.27 0.25 0.19 0.19 0.20 0.22 0.25 0.30 0.32 0.36 0.31 0.32 0.36 0.29
0.83 0.87 0.82 0.76 0.79 0.78 0.72 0.65 0.59 0.55 0.53 0.51 0.57 0.56 0.43 0.43 0.45 0.37 0.29 0.25 0.24 0.22 0.22 0.21 0.22 0.25 0.24 0.23 0.22 0.21 0.19 0.17 0.17 0.21 0.22 0.25 0.28 0.26 0.24 0.28 0.24 0.22 0.22
0.73 0.72 0.66 0.65 0.62 0.59 0.55 0.51 0.52 0.52 0.48 0.43 0.38 0.29 0.22 0.27 0.24 0.21 0.21 0.25 0.27 0.28 0.30 0.31 0.26 0.21 0.20 0.23 0.23 0.23 0.20 0.18 0.19 0.21 0.21 0.19 0.19 0.19 0.22 0.20 0.20 0.21 0.20
0.51 0.46 0.42 0.43 0.43 0.42 0.40 0.41 0.40 0.34 0.29 0.26 0.26 0.27 0.23 0.26 0.27 0.28 0.27 0.25 0.22 0.20 0.15 0.16 0.17 0.14 0.13 0.17 0.22 0.24 0.21 0.16 0.20 0.24 0.25 0.22 0.19 0.18 0.22 0.22 0.20 0.20 0.19
0.29 0.32 0.30 0.31 0.28 0.26 0.25 0.25 0.22 0.22 0.26 0.31 0.29 0.27 0.25 0.24 0.27 0.26 0.23 0.19 0.16 0.15 0.17 0.21 0.18 0.15 0.14 0.15 0.18 0.20 0.18 0.17 0.22 0.22 0.25 0.25 0.18 0.15 0.19 0.18 0.18 0.18 0.17
0.17 0.18 0.20 0.21 0.24 0.28 0.27 0.28 0.33 0.33 0.30 0.29 0.29 0.27 0.23 0.21 0.19 0.18 0.19 0.19 0.18 0.18 0.15 0.15 0.19 0.19 0.17 0.20 0.19 0.18 0.18 0.24 0.28 0.25 0.35 0.26 0.19 0.16 0.17 0.18 0.18 0.20 0.18
0.14 0.18 0.23 0.24 0.28 0.32 0.37 0.34 0.30 0.25 0.24 0.24 0.23 0.23 0.22 0.20 0.18 0.18 0.18 0.19 0.21 0.17 0.16 0.17 0.16 0.15 0.16 0.17 0.17 0.22 0.19 0.22 0.31 0.32 0.41 0.35 0.27 0.22 0.21 0.22 0.18 0.21 0.15